<?xml version="1.0" encoding="UTF-8" standalone="no" ?>
<gpx xmlns="http://www.topografix.com/GPX/1/1" xmlns:xsi="http://www.w3.org/2001/XMLSchema-instance" xsi:schemaLocation="http://www.topografix.com/GPX/1/1 http://www.topografix.com/GPX/1/1/gpx.xsd" version="1.1" creator="VisuGPX - https://www.visugpx.com">
  <metadata>
    <name>Pornichet 13/05/2021</name>
    <desc><![CDATA[Sortie VTT du jeudi 13 mai 2021]]></desc>
  </metadata>
  <trk>
    <name><![CDATA[Pornichet Cyclisme]]></name>
    <trkseg>
      <trkpt lat="47.26409" lon="-2.3158">
        <ele>9.7</ele>
        <time>2021-05-13T07:13:17.000Z</time>
      </trkpt>
      <trkpt lat="47.26407" lon="-2.31592">
        <ele>9.7</ele>
        <time>2021-05-13T07:13:20.000Z</time>
      </trkpt>
      <trkpt lat="47.26407" lon="-2.31598">
        <ele>0.40000000596046</ele>
        <time>2021-05-13T07:13:21.000Z</time>
      </trkpt>
      <trkpt lat="47.26408" lon="-2.31603">
        <ele>0.40000000596046</ele>
        <time>2021-05-13T07:13:22.000Z</time>
      </trkpt>
      <trkpt lat="47.26409" lon="-2.31637">
        <ele>0.40000000596046</ele>
        <time>2021-05-13T07:13:28.000Z</time>
      </trkpt>
      <trkpt lat="47.26408" lon="-2.31659">
        <ele>0.40000000596046</ele>
        <time>2021-05-13T07:13:33.000Z</time>
      </trkpt>
      <trkpt lat="47.26396" lon="-2.31666">
        <ele>0.40000000596046</ele>
        <time>2021-05-13T07:13:37.000Z</time>
      </trkpt>
      <trkpt lat="47.26387" lon="-2.3167">
        <ele>7.9</ele>
        <time>2021-05-13T07:13:39.000Z</time>
      </trkpt>
      <trkpt lat="47.26383" lon="-2.31673">
        <ele>-0.40000000596046</ele>
        <time>2021-05-13T07:13:40.000Z</time>
      </trkpt>
      <trkpt lat="47.26378" lon="-2.31677">
        <ele>-0.80000001192093</ele>
        <time>2021-05-13T07:13:41.000Z</time>
      </trkpt>
      <trkpt lat="47.26373" lon="-2.31681">
        <ele>-1.2000000476837</ele>
        <time>2021-05-13T07:13:42.000Z</time>
      </trkpt>
      <trkpt lat="47.26368" lon="-2.31684">
        <ele>-1.6000000238419</ele>
        <time>2021-05-13T07:13:43.000Z</time>
      </trkpt>
      <trkpt lat="47.26337" lon="-2.31701">
        <ele>-1.6000000238419</ele>
        <time>2021-05-13T07:13:49.000Z</time>
      </trkpt>
      <trkpt lat="47.26326" lon="-2.31706">
        <ele>-1.6000000238419</ele>
        <time>2021-05-13T07:13:51.000Z</time>
      </trkpt>
      <trkpt lat="47.26308" lon="-2.31713">
        <ele>-1.6000000238419</ele>
        <time>2021-05-13T07:13:54.000Z</time>
      </trkpt>
      <trkpt lat="47.26302" lon="-2.31721">
        <ele>-2.2000000476837</ele>
        <time>2021-05-13T07:13:56.000Z</time>
      </trkpt>
      <trkpt lat="47.26301" lon="-2.31727">
        <ele>-2.5999999046326</ele>
        <time>2021-05-13T07:13:57.000Z</time>
      </trkpt>
      <trkpt lat="47.263" lon="-2.31733">
        <ele>-3</ele>
        <time>2021-05-13T07:13:58.000Z</time>
      </trkpt>
      <trkpt lat="47.26302" lon="-2.31739">
        <ele>-3.4000000953674</ele>
        <time>2021-05-13T07:13:59.000Z</time>
      </trkpt>
      <trkpt lat="47.26303" lon="-2.31744">
        <ele>-4</ele>
        <time>2021-05-13T07:14:00.000Z</time>
      </trkpt>
      <trkpt lat="47.2631" lon="-2.31777">
        <ele>-4</ele>
        <time>2021-05-13T07:14:06.000Z</time>
      </trkpt>
      <trkpt lat="47.26309" lon="-2.3179">
        <ele>-4</ele>
        <time>2021-05-13T07:14:08.000Z</time>
      </trkpt>
      <trkpt lat="47.26309" lon="-2.31811">
        <ele>-4</ele>
        <time>2021-05-13T07:14:11.000Z</time>
      </trkpt>
      <trkpt lat="47.26304" lon="-2.31859">
        <ele>-4</ele>
        <time>2021-05-13T07:14:18.000Z</time>
      </trkpt>
      <trkpt lat="47.26302" lon="-2.3188">
        <ele>-4</ele>
        <time>2021-05-13T07:14:22.000Z</time>
      </trkpt>
      <trkpt lat="47.26291" lon="-2.31894">
        <ele>-4</ele>
        <time>2021-05-13T07:14:26.000Z</time>
      </trkpt>
      <trkpt lat="47.26277" lon="-2.31911">
        <ele>-4</ele>
        <time>2021-05-13T07:14:31.000Z</time>
      </trkpt>
      <trkpt lat="47.26261" lon="-2.31936">
        <ele>-4</ele>
        <time>2021-05-13T07:14:37.000Z</time>
      </trkpt>
      <trkpt lat="47.26259" lon="-2.31939">
        <ele>-4.4000000953674</ele>
        <time>2021-05-13T07:14:38.000Z</time>
      </trkpt>
      <trkpt lat="47.26257" lon="-2.31944">
        <ele>-4.8000001907349</ele>
        <time>2021-05-13T07:14:39.000Z</time>
      </trkpt>
      <trkpt lat="47.26256" lon="-2.31949">
        <ele>-5.1999998092651</ele>
        <time>2021-05-13T07:14:40.000Z</time>
      </trkpt>
      <trkpt lat="47.26255" lon="-2.31954">
        <ele>-5.5999999046326</ele>
        <time>2021-05-13T07:14:41.000Z</time>
      </trkpt>
      <trkpt lat="47.26253" lon="-2.31959">
        <ele>-6</ele>
        <time>2021-05-13T07:14:42.000Z</time>
      </trkpt>
      <trkpt lat="47.26248" lon="-2.31967">
        <ele>-6</ele>
        <time>2021-05-13T07:14:45.000Z</time>
      </trkpt>
      <trkpt lat="47.26245" lon="-2.31967">
        <ele>-6</ele>
        <time>2021-05-13T07:14:46.000Z</time>
      </trkpt>
      <trkpt lat="47.26231" lon="-2.31975">
        <ele>-6</ele>
        <time>2021-05-13T07:14:50.000Z</time>
      </trkpt>
      <trkpt lat="47.26225" lon="-2.31981">
        <ele>-6</ele>
        <time>2021-05-13T07:14:53.000Z</time>
      </trkpt>
      <trkpt lat="47.26219" lon="-2.31986">
        <ele>-6</ele>
        <time>2021-05-13T07:14:55.000Z</time>
      </trkpt>
      <trkpt lat="47.26206" lon="-2.31999">
        <ele>-6</ele>
        <time>2021-05-13T07:15:01.000Z</time>
      </trkpt>
      <trkpt lat="47.26203" lon="-2.3201">
        <ele>-6</ele>
        <time>2021-05-13T07:15:06.000Z</time>
      </trkpt>
      <trkpt lat="47.26196" lon="-2.32012">
        <ele>-6</ele>
        <time>2021-05-13T07:15:10.000Z</time>
      </trkpt>
      <trkpt lat="47.26194" lon="-2.32012">
        <ele>-6</ele>
        <time>2021-05-13T07:15:11.000Z</time>
      </trkpt>
      <trkpt lat="47.26185" lon="-2.32017">
        <ele>-6</ele>
        <time>2021-05-13T07:15:15.000Z</time>
      </trkpt>
      <trkpt lat="47.26173" lon="-2.32025">
        <ele>-6</ele>
        <time>2021-05-13T07:15:19.000Z</time>
      </trkpt>
      <trkpt lat="47.2616" lon="-2.32044">
        <ele>-6</ele>
        <time>2021-05-13T07:15:23.000Z</time>
      </trkpt>
      <trkpt lat="47.26151" lon="-2.32073">
        <ele>-6</ele>
        <time>2021-05-13T07:15:28.000Z</time>
      </trkpt>
      <trkpt lat="47.26142" lon="-2.32104">
        <ele>-6</ele>
        <time>2021-05-13T07:15:33.000Z</time>
      </trkpt>
      <trkpt lat="47.26135" lon="-2.32129">
        <ele>-6</ele>
        <time>2021-05-13T07:15:37.000Z</time>
      </trkpt>
      <trkpt lat="47.26131" lon="-2.32142">
        <ele>-6</ele>
        <time>2021-05-13T07:15:39.000Z</time>
      </trkpt>
      <trkpt lat="47.26128" lon="-2.32148">
        <ele>-6</ele>
        <time>2021-05-13T07:15:40.000Z</time>
      </trkpt>
      <trkpt lat="47.26112" lon="-2.32187">
        <ele>-6</ele>
        <time>2021-05-13T07:15:47.000Z</time>
      </trkpt>
      <trkpt lat="47.26109" lon="-2.32192">
        <ele>-6</ele>
        <time>2021-05-13T07:15:48.000Z</time>
      </trkpt>
      <trkpt lat="47.26093" lon="-2.3222">
        <ele>-6</ele>
        <time>2021-05-13T07:15:53.000Z</time>
      </trkpt>
      <trkpt lat="47.26066" lon="-2.32255">
        <ele>-6</ele>
        <time>2021-05-13T07:16:00.000Z</time>
      </trkpt>
      <trkpt lat="47.26041" lon="-2.32283">
        <ele>-6</ele>
        <time>2021-05-13T07:16:07.000Z</time>
      </trkpt>
      <trkpt lat="47.2603" lon="-2.32294">
        <ele>-6</ele>
        <time>2021-05-13T07:16:10.000Z</time>
      </trkpt>
      <trkpt lat="47.26018" lon="-2.32308">
        <ele>-6</ele>
        <time>2021-05-13T07:16:13.000Z</time>
      </trkpt>
      <trkpt lat="47.26" lon="-2.3233">
        <ele>-6</ele>
        <time>2021-05-13T07:16:18.000Z</time>
      </trkpt>
      <trkpt lat="47.2597" lon="-2.32371">
        <ele>-6</ele>
        <time>2021-05-13T07:16:26.000Z</time>
      </trkpt>
      <trkpt lat="47.25943" lon="-2.32407">
        <ele>-6</ele>
        <time>2021-05-13T07:16:33.000Z</time>
      </trkpt>
      <trkpt lat="47.25913" lon="-2.32443">
        <ele>-6</ele>
        <time>2021-05-13T07:16:41.000Z</time>
      </trkpt>
      <trkpt lat="47.25902" lon="-2.32467">
        <ele>-6</ele>
        <time>2021-05-13T07:16:47.000Z</time>
      </trkpt>
      <trkpt lat="47.25913" lon="-2.32477">
        <ele>-6</ele>
        <time>2021-05-13T07:16:51.000Z</time>
      </trkpt>
      <trkpt lat="47.2592" lon="-2.32484">
        <ele>-6</ele>
        <time>2021-05-13T07:16:53.000Z</time>
      </trkpt>
      <trkpt lat="47.25925" lon="-2.32496">
        <ele>-6</ele>
        <time>2021-05-13T07:16:55.000Z</time>
      </trkpt>
      <trkpt lat="47.2593" lon="-2.32508">
        <ele>-6</ele>
        <time>2021-05-13T07:16:57.000Z</time>
      </trkpt>
      <trkpt lat="47.25939" lon="-2.32533">
        <ele>-6</ele>
        <time>2021-05-13T07:17:01.000Z</time>
      </trkpt>
      <trkpt lat="47.25944" lon="-2.32551">
        <ele>-6</ele>
        <time>2021-05-13T07:17:04.000Z</time>
      </trkpt>
      <trkpt lat="47.25952" lon="-2.32577">
        <ele>-6</ele>
        <time>2021-05-13T07:17:08.000Z</time>
      </trkpt>
      <trkpt lat="47.25961" lon="-2.32622">
        <ele>-6</ele>
        <time>2021-05-13T07:17:15.000Z</time>
      </trkpt>
      <trkpt lat="47.25962" lon="-2.32635">
        <ele>-6</ele>
        <time>2021-05-13T07:17:17.000Z</time>
      </trkpt>
      <trkpt lat="47.25963" lon="-2.32656">
        <ele>-6</ele>
        <time>2021-05-13T07:17:21.000Z</time>
      </trkpt>
      <trkpt lat="47.25966" lon="-2.32659">
        <ele>-6</ele>
        <time>2021-05-13T07:17:22.000Z</time>
      </trkpt>
      <trkpt lat="47.25973" lon="-2.32658">
        <ele>-6</ele>
        <time>2021-05-13T07:17:24.000Z</time>
      </trkpt>
      <trkpt lat="47.25981" lon="-2.32666">
        <ele>-6</ele>
        <time>2021-05-13T07:17:27.000Z</time>
      </trkpt>
      <trkpt lat="47.25993" lon="-2.32669">
        <ele>-6</ele>
        <time>2021-05-13T07:17:30.000Z</time>
      </trkpt>
      <trkpt lat="47.25997" lon="-2.32667">
        <ele>-6</ele>
        <time>2021-05-13T07:17:31.000Z</time>
      </trkpt>
      <trkpt lat="47.26027" lon="-2.32657">
        <ele>-5.5999999046326</ele>
        <time>2021-05-13T07:17:38.000Z</time>
      </trkpt>
      <trkpt lat="47.26031" lon="-2.32654">
        <ele>-5</ele>
        <time>2021-05-13T07:17:39.000Z</time>
      </trkpt>
      <trkpt lat="47.26035" lon="-2.32653">
        <ele>-4.5999999046326</ele>
        <time>2021-05-13T07:17:40.000Z</time>
      </trkpt>
      <trkpt lat="47.2604" lon="-2.32652">
        <ele>-4.1999998092651</ele>
        <time>2021-05-13T07:17:41.000Z</time>
      </trkpt>
      <trkpt lat="47.26044" lon="-2.32652">
        <ele>-3.7999999523163</ele>
        <time>2021-05-13T07:17:42.000Z</time>
      </trkpt>
      <trkpt lat="47.26053" lon="-2.32649">
        <ele>-3.7999999523163</ele>
        <time>2021-05-13T07:17:44.000Z</time>
      </trkpt>
      <trkpt lat="47.26084" lon="-2.32642">
        <ele>-3.7999999523163</ele>
        <time>2021-05-13T07:17:51.000Z</time>
      </trkpt>
      <trkpt lat="47.26133" lon="-2.32641">
        <ele>-3.7999999523163</ele>
        <time>2021-05-13T07:18:02.000Z</time>
      </trkpt>
      <trkpt lat="47.26172" lon="-2.32654">
        <ele>-3.7999999523163</ele>
        <time>2021-05-13T07:18:10.000Z</time>
      </trkpt>
      <trkpt lat="47.2618" lon="-2.3266">
        <ele>-3.7999999523163</ele>
        <time>2021-05-13T07:18:12.000Z</time>
      </trkpt>
      <trkpt lat="47.26193" lon="-2.3267">
        <ele>-3.7999999523163</ele>
        <time>2021-05-13T07:18:15.000Z</time>
      </trkpt>
      <trkpt lat="47.26198" lon="-2.32674">
        <ele>-3.7999999523163</ele>
        <time>2021-05-13T07:18:16.000Z</time>
      </trkpt>
      <trkpt lat="47.2622" lon="-2.32701">
        <ele>-3.7999999523163</ele>
        <time>2021-05-13T07:18:22.000Z</time>
      </trkpt>
      <trkpt lat="47.2625" lon="-2.32745">
        <ele>-3.7999999523163</ele>
        <time>2021-05-13T07:18:30.000Z</time>
      </trkpt>
      <trkpt lat="47.26274" lon="-2.32785">
        <ele>-3.7999999523163</ele>
        <time>2021-05-13T07:18:37.000Z</time>
      </trkpt>
      <trkpt lat="47.26286" lon="-2.32826">
        <ele>-3.7999999523163</ele>
        <time>2021-05-13T07:18:43.000Z</time>
      </trkpt>
      <trkpt lat="47.26292" lon="-2.32853">
        <ele>-3.7999999523163</ele>
        <time>2021-05-13T07:18:47.000Z</time>
      </trkpt>
      <trkpt lat="47.26295" lon="-2.32858">
        <ele>-3.7999999523163</ele>
        <time>2021-05-13T07:18:48.000Z</time>
      </trkpt>
      <trkpt lat="47.26309" lon="-2.32861">
        <ele>-3.7999999523163</ele>
        <time>2021-05-13T07:18:51.000Z</time>
      </trkpt>
      <trkpt lat="47.2632" lon="-2.32875">
        <ele>-3.7999999523163</ele>
        <time>2021-05-13T07:18:54.000Z</time>
      </trkpt>
      <trkpt lat="47.26326" lon="-2.32894">
        <ele>-3.7999999523163</ele>
        <time>2021-05-13T07:18:57.000Z</time>
      </trkpt>
      <trkpt lat="47.2633" lon="-2.32907">
        <ele>-3.7999999523163</ele>
        <time>2021-05-13T07:18:59.000Z</time>
      </trkpt>
      <trkpt lat="47.2634" lon="-2.32939">
        <ele>-3.7999999523163</ele>
        <time>2021-05-13T07:19:04.000Z</time>
      </trkpt>
      <trkpt lat="47.26342" lon="-2.32945">
        <ele>-3.7999999523163</ele>
        <time>2021-05-13T07:19:05.000Z</time>
      </trkpt>
      <trkpt lat="47.26355" lon="-2.32974">
        <ele>-3.7999999523163</ele>
        <time>2021-05-13T07:19:10.000Z</time>
      </trkpt>
      <trkpt lat="47.26362" lon="-2.32982">
        <ele>-3.7999999523163</ele>
        <time>2021-05-13T07:19:12.000Z</time>
      </trkpt>
      <trkpt lat="47.26365" lon="-2.32987">
        <ele>-3.7999999523163</ele>
        <time>2021-05-13T07:19:13.000Z</time>
      </trkpt>
      <trkpt lat="47.26366" lon="-2.33">
        <ele>-3.7999999523163</ele>
        <time>2021-05-13T07:19:15.000Z</time>
      </trkpt>
      <trkpt lat="47.26368" lon="-2.33013">
        <ele>-3.7999999523163</ele>
        <time>2021-05-13T07:19:17.000Z</time>
      </trkpt>
      <trkpt lat="47.26369" lon="-2.33045">
        <ele>-3.7999999523163</ele>
        <time>2021-05-13T07:19:22.000Z</time>
      </trkpt>
      <trkpt lat="47.26371" lon="-2.33095">
        <ele>-3.7999999523163</ele>
        <time>2021-05-13T07:19:30.000Z</time>
      </trkpt>
      <trkpt lat="47.26374" lon="-2.33147">
        <ele>-3.7999999523163</ele>
        <time>2021-05-13T07:19:38.000Z</time>
      </trkpt>
      <trkpt lat="47.26378" lon="-2.33202">
        <ele>-3.7999999523163</ele>
        <time>2021-05-13T07:19:47.000Z</time>
      </trkpt>
      <trkpt lat="47.26383" lon="-2.3325">
        <ele>-3.7999999523163</ele>
        <time>2021-05-13T07:19:54.000Z</time>
      </trkpt>
      <trkpt lat="47.26385" lon="-2.33255">
        <ele>-3.7999999523163</ele>
        <time>2021-05-13T07:19:55.000Z</time>
      </trkpt>
      <trkpt lat="47.26395" lon="-2.33266">
        <ele>-3.7999999523163</ele>
        <time>2021-05-13T07:19:58.000Z</time>
      </trkpt>
      <trkpt lat="47.26412" lon="-2.33267">
        <ele>-3.7999999523163</ele>
        <time>2021-05-13T07:20:02.000Z</time>
      </trkpt>
      <trkpt lat="47.26416" lon="-2.33268">
        <ele>-3.7999999523163</ele>
        <time>2021-05-13T07:20:03.000Z</time>
      </trkpt>
      <trkpt lat="47.26442" lon="-2.33271">
        <ele>-3.7999999523163</ele>
        <time>2021-05-13T07:20:09.000Z</time>
      </trkpt>
      <trkpt lat="47.26446" lon="-2.33271">
        <ele>-3.7999999523163</ele>
        <time>2021-05-13T07:20:10.000Z</time>
      </trkpt>
      <trkpt lat="47.26463" lon="-2.33277">
        <ele>-3.7999999523163</ele>
        <time>2021-05-13T07:20:14.000Z</time>
      </trkpt>
      <trkpt lat="47.26468" lon="-2.33278">
        <ele>-3.7999999523163</ele>
        <time>2021-05-13T07:20:15.000Z</time>
      </trkpt>
      <trkpt lat="47.26472" lon="-2.33278">
        <ele>-3.7999999523163</ele>
        <time>2021-05-13T07:20:16.000Z</time>
      </trkpt>
      <trkpt lat="47.26493" lon="-2.3328">
        <ele>-3.7999999523163</ele>
        <time>2021-05-13T07:20:21.000Z</time>
      </trkpt>
      <trkpt lat="47.26511" lon="-2.33289">
        <ele>-3.7999999523163</ele>
        <time>2021-05-13T07:20:26.000Z</time>
      </trkpt>
      <trkpt lat="47.26523" lon="-2.33291">
        <ele>-3.7999999523163</ele>
        <time>2021-05-13T07:20:29.000Z</time>
      </trkpt>
      <trkpt lat="47.26527" lon="-2.3329">
        <ele>-3.7999999523163</ele>
        <time>2021-05-13T07:20:30.000Z</time>
      </trkpt>
      <trkpt lat="47.26537" lon="-2.33299">
        <ele>-3.7999999523163</ele>
        <time>2021-05-13T07:20:34.000Z</time>
      </trkpt>
      <trkpt lat="47.26546" lon="-2.33294">
        <ele>-3.7999999523163</ele>
        <time>2021-05-13T07:20:37.000Z</time>
      </trkpt>
      <trkpt lat="47.26555" lon="-2.33283">
        <ele>-3.7999999523163</ele>
        <time>2021-05-13T07:20:40.000Z</time>
      </trkpt>
      <trkpt lat="47.26565" lon="-2.33272">
        <ele>-3.7999999523163</ele>
        <time>2021-05-13T07:20:43.000Z</time>
      </trkpt>
      <trkpt lat="47.26586" lon="-2.33249">
        <ele>-3.7999999523163</ele>
        <time>2021-05-13T07:20:49.000Z</time>
      </trkpt>
      <trkpt lat="47.26606" lon="-2.3323">
        <ele>-3.7999999523163</ele>
        <time>2021-05-13T07:20:54.000Z</time>
      </trkpt>
      <trkpt lat="47.26618" lon="-2.33217">
        <ele>-3.7999999523163</ele>
        <time>2021-05-13T07:20:57.000Z</time>
      </trkpt>
      <trkpt lat="47.26638" lon="-2.33197">
        <ele>-3.7999999523163</ele>
        <time>2021-05-13T07:21:02.000Z</time>
      </trkpt>
      <trkpt lat="47.26646" lon="-2.33188">
        <ele>-3.7999999523163</ele>
        <time>2021-05-13T07:21:04.000Z</time>
      </trkpt>
      <trkpt lat="47.2666" lon="-2.33173">
        <ele>-3.7999999523163</ele>
        <time>2021-05-13T07:21:08.000Z</time>
      </trkpt>
      <trkpt lat="47.26664" lon="-2.3317">
        <ele>-3.7999999523163</ele>
        <time>2021-05-13T07:21:09.000Z</time>
      </trkpt>
      <trkpt lat="47.26695" lon="-2.3314">
        <ele>-3.7999999523163</ele>
        <time>2021-05-13T07:21:17.000Z</time>
      </trkpt>
      <trkpt lat="47.26721" lon="-2.33114">
        <ele>-3.7999999523163</ele>
        <time>2021-05-13T07:21:24.000Z</time>
      </trkpt>
      <trkpt lat="47.26739" lon="-2.33093">
        <ele>-3.7999999523163</ele>
        <time>2021-05-13T07:21:30.000Z</time>
      </trkpt>
      <trkpt lat="47.26746" lon="-2.33089">
        <ele>-3.7999999523163</ele>
        <time>2021-05-13T07:21:32.000Z</time>
      </trkpt>
      <trkpt lat="47.26753" lon="-2.3309">
        <ele>-3.7999999523163</ele>
        <time>2021-05-13T07:21:34.000Z</time>
      </trkpt>
      <trkpt lat="47.26756" lon="-2.33094">
        <ele>-3.7999999523163</ele>
        <time>2021-05-13T07:21:35.000Z</time>
      </trkpt>
      <trkpt lat="47.26761" lon="-2.33108">
        <ele>-3.7999999523163</ele>
        <time>2021-05-13T07:21:37.000Z</time>
      </trkpt>
      <trkpt lat="47.26761" lon="-2.33144">
        <ele>-3.7999999523163</ele>
        <time>2021-05-13T07:21:42.000Z</time>
      </trkpt>
      <trkpt lat="47.2676" lon="-2.3315">
        <ele>-3.7999999523163</ele>
        <time>2021-05-13T07:21:43.000Z</time>
      </trkpt>
      <trkpt lat="47.26748" lon="-2.33194">
        <ele>-3.7999999523163</ele>
        <time>2021-05-13T07:21:50.000Z</time>
      </trkpt>
      <trkpt lat="47.26746" lon="-2.33199">
        <ele>-3.7999999523163</ele>
        <time>2021-05-13T07:21:51.000Z</time>
      </trkpt>
      <trkpt lat="47.26734" lon="-2.33241">
        <ele>-3.7999999523163</ele>
        <time>2021-05-13T07:21:58.000Z</time>
      </trkpt>
      <trkpt lat="47.26733" lon="-2.33248">
        <ele>-3.7999999523163</ele>
        <time>2021-05-13T07:21:59.000Z</time>
      </trkpt>
      <trkpt lat="47.26731" lon="-2.33277">
        <ele>-3.7999999523163</ele>
        <time>2021-05-13T07:22:03.000Z</time>
      </trkpt>
      <trkpt lat="47.26733" lon="-2.33291">
        <ele>-3.7999999523163</ele>
        <time>2021-05-13T07:22:05.000Z</time>
      </trkpt>
      <trkpt lat="47.26734" lon="-2.33297">
        <ele>-3.7999999523163</ele>
        <time>2021-05-13T07:22:06.000Z</time>
      </trkpt>
      <trkpt lat="47.26739" lon="-2.33319">
        <ele>-3.7999999523163</ele>
        <time>2021-05-13T07:22:09.000Z</time>
      </trkpt>
      <trkpt lat="47.26746" lon="-2.3336">
        <ele>-3.7999999523163</ele>
        <time>2021-05-13T07:22:15.000Z</time>
      </trkpt>
      <trkpt lat="47.26751" lon="-2.33382">
        <ele>-3.7999999523163</ele>
        <time>2021-05-13T07:22:18.000Z</time>
      </trkpt>
      <trkpt lat="47.26753" lon="-2.33396">
        <ele>-3.7999999523163</ele>
        <time>2021-05-13T07:22:20.000Z</time>
      </trkpt>
      <trkpt lat="47.26757" lon="-2.33445">
        <ele>-3.7999999523163</ele>
        <time>2021-05-13T07:22:27.000Z</time>
      </trkpt>
      <trkpt lat="47.26758" lon="-2.33452">
        <ele>-3.7999999523163</ele>
        <time>2021-05-13T07:22:28.000Z</time>
      </trkpt>
      <trkpt lat="47.26763" lon="-2.33485">
        <ele>-3.4000000953674</ele>
        <time>2021-05-13T07:22:33.000Z</time>
      </trkpt>
      <trkpt lat="47.26764" lon="-2.33492">
        <ele>-3</ele>
        <time>2021-05-13T07:22:34.000Z</time>
      </trkpt>
      <trkpt lat="47.26765" lon="-2.33498">
        <ele>-2.5999999046326</ele>
        <time>2021-05-13T07:22:35.000Z</time>
      </trkpt>
      <trkpt lat="47.26767" lon="-2.33504">
        <ele>-2</ele>
        <time>2021-05-13T07:22:36.000Z</time>
      </trkpt>
      <trkpt lat="47.26768" lon="-2.33511">
        <ele>-1.6000000238419</ele>
        <time>2021-05-13T07:22:37.000Z</time>
      </trkpt>
      <trkpt lat="47.26776" lon="-2.33555">
        <ele>-1.6000000238419</ele>
        <time>2021-05-13T07:22:44.000Z</time>
      </trkpt>
      <trkpt lat="47.26784" lon="-2.33571">
        <ele>-1.6000000238419</ele>
        <time>2021-05-13T07:22:48.000Z</time>
      </trkpt>
      <trkpt lat="47.26788" lon="-2.33571">
        <ele>-1.6000000238419</ele>
        <time>2021-05-13T07:22:49.000Z</time>
      </trkpt>
      <trkpt lat="47.2681" lon="-2.33561">
        <ele>-1.6000000238419</ele>
        <time>2021-05-13T07:22:55.000Z</time>
      </trkpt>
      <trkpt lat="47.26836" lon="-2.3355">
        <ele>-1.6000000238419</ele>
        <time>2021-05-13T07:23:01.000Z</time>
      </trkpt>
      <trkpt lat="47.26869" lon="-2.33536">
        <ele>-1.6000000238419</ele>
        <time>2021-05-13T07:23:08.000Z</time>
      </trkpt>
      <trkpt lat="47.26882" lon="-2.33535">
        <ele>-1.6000000238419</ele>
        <time>2021-05-13T07:23:11.000Z</time>
      </trkpt>
      <trkpt lat="47.2689" lon="-2.3354">
        <ele>-1.6000000238419</ele>
        <time>2021-05-13T07:23:13.000Z</time>
      </trkpt>
      <trkpt lat="47.26899" lon="-2.33554">
        <ele>-1.6000000238419</ele>
        <time>2021-05-13T07:23:16.000Z</time>
      </trkpt>
      <trkpt lat="47.26901" lon="-2.33559">
        <ele>-1.2000000476837</ele>
        <time>2021-05-13T07:23:17.000Z</time>
      </trkpt>
      <trkpt lat="47.26903" lon="-2.33563">
        <ele>-0.80000001192093</ele>
        <time>2021-05-13T07:23:18.000Z</time>
      </trkpt>
      <trkpt lat="47.26905" lon="-2.33568">
        <ele>-0.40000000596046</ele>
        <time>2021-05-13T07:23:19.000Z</time>
      </trkpt>
      <trkpt lat="47.26907" lon="-2.33573">
        <ele>0.20000000298023</ele>
        <time>2021-05-13T07:23:20.000Z</time>
      </trkpt>
      <trkpt lat="47.2691" lon="-2.33578">
        <ele>0.60000002384186</ele>
        <time>2021-05-13T07:23:21.000Z</time>
      </trkpt>
      <trkpt lat="47.26915" lon="-2.33589">
        <ele>0.60000002384186</ele>
        <time>2021-05-13T07:23:23.000Z</time>
      </trkpt>
      <trkpt lat="47.26923" lon="-2.33622">
        <ele>0.60000002384186</ele>
        <time>2021-05-13T07:23:29.000Z</time>
      </trkpt>
      <trkpt lat="47.26924" lon="-2.33628">
        <ele>1</ele>
        <time>2021-05-13T07:23:30.000Z</time>
      </trkpt>
      <trkpt lat="47.26925" lon="-2.33634">
        <ele>1.3999999761581</ele>
        <time>2021-05-13T07:23:31.000Z</time>
      </trkpt>
      <trkpt lat="47.26927" lon="-2.33639">
        <ele>1.7999999523163</ele>
        <time>2021-05-13T07:23:32.000Z</time>
      </trkpt>
      <trkpt lat="47.26928" lon="-2.33645">
        <ele>2.2000000476837</ele>
        <time>2021-05-13T07:23:33.000Z</time>
      </trkpt>
      <trkpt lat="47.2693" lon="-2.33651">
        <ele>2.5999999046326</ele>
        <time>2021-05-13T07:23:34.000Z</time>
      </trkpt>
      <trkpt lat="47.26934" lon="-2.33674">
        <ele>2.5999999046326</ele>
        <time>2021-05-13T07:23:38.000Z</time>
      </trkpt>
      <trkpt lat="47.26941" lon="-2.33719">
        <ele>3</ele>
        <time>2021-05-13T07:23:46.000Z</time>
      </trkpt>
      <trkpt lat="47.2694" lon="-2.33725">
        <ele>3.4000000953674</ele>
        <time>2021-05-13T07:23:47.000Z</time>
      </trkpt>
      <trkpt lat="47.2694" lon="-2.33731">
        <ele>3.7999999523163</ele>
        <time>2021-05-13T07:23:48.000Z</time>
      </trkpt>
      <trkpt lat="47.26939" lon="-2.33737">
        <ele>4.1999998092651</ele>
        <time>2021-05-13T07:23:49.000Z</time>
      </trkpt>
      <trkpt lat="47.26938" lon="-2.33743">
        <ele>4.5999999046326</ele>
        <time>2021-05-13T07:23:50.000Z</time>
      </trkpt>
      <trkpt lat="47.26934" lon="-2.33767">
        <ele>4.5999999046326</ele>
        <time>2021-05-13T07:23:54.000Z</time>
      </trkpt>
      <trkpt lat="47.26933" lon="-2.33786">
        <ele>4.5999999046326</ele>
        <time>2021-05-13T07:23:57.000Z</time>
      </trkpt>
      <trkpt lat="47.26934" lon="-2.33798">
        <ele>4.5999999046326</ele>
        <time>2021-05-13T07:23:59.000Z</time>
      </trkpt>
      <trkpt lat="47.26935" lon="-2.33803">
        <ele>4.5999999046326</ele>
        <time>2021-05-13T07:24:00.000Z</time>
      </trkpt>
      <trkpt lat="47.26943" lon="-2.33815">
        <ele>4.5999999046326</ele>
        <time>2021-05-13T07:24:03.000Z</time>
      </trkpt>
      <trkpt lat="47.26966" lon="-2.33833">
        <ele>4.5999999046326</ele>
        <time>2021-05-13T07:24:10.000Z</time>
      </trkpt>
      <trkpt lat="47.26984" lon="-2.33842">
        <ele>4.5999999046326</ele>
        <time>2021-05-13T07:24:16.000Z</time>
      </trkpt>
      <trkpt lat="47.27003" lon="-2.33854">
        <ele>5.1999998092651</ele>
        <time>2021-05-13T07:24:22.000Z</time>
      </trkpt>
      <trkpt lat="47.27006" lon="-2.33855">
        <ele>5.5999999046326</ele>
        <time>2021-05-13T07:24:23.000Z</time>
      </trkpt>
      <trkpt lat="47.27009" lon="-2.33857">
        <ele>6</ele>
        <time>2021-05-13T07:24:24.000Z</time>
      </trkpt>
      <trkpt lat="47.27012" lon="-2.33859">
        <ele>6.5999999046326</ele>
        <time>2021-05-13T07:24:25.000Z</time>
      </trkpt>
      <trkpt lat="47.27014" lon="-2.33861">
        <ele>7</ele>
        <time>2021-05-13T07:24:26.000Z</time>
      </trkpt>
      <trkpt lat="47.27023" lon="-2.33867">
        <ele>7</ele>
        <time>2021-05-13T07:24:29.000Z</time>
      </trkpt>
      <trkpt lat="47.27028" lon="-2.33872">
        <ele>7.4000000953674</ele>
        <time>2021-05-13T07:24:31.000Z</time>
      </trkpt>
      <trkpt lat="47.27032" lon="-2.33874">
        <ele>7.8000001907349</ele>
        <time>2021-05-13T07:24:32.000Z</time>
      </trkpt>
      <trkpt lat="47.27035" lon="-2.33876">
        <ele>8.3999996185303</ele>
        <time>2021-05-13T07:24:33.000Z</time>
      </trkpt>
      <trkpt lat="47.27039" lon="-2.33879">
        <ele>8.8000001907349</ele>
        <time>2021-05-13T07:24:34.000Z</time>
      </trkpt>
      <trkpt lat="47.27043" lon="-2.33882">
        <ele>9.1999998092651</ele>
        <time>2021-05-13T07:24:35.000Z</time>
      </trkpt>
      <trkpt lat="47.27046" lon="-2.33885">
        <ele>9.1999998092651</ele>
        <time>2021-05-13T07:24:36.000Z</time>
      </trkpt>
      <trkpt lat="47.27072" lon="-2.33908">
        <ele>9.1999998092651</ele>
        <time>2021-05-13T07:24:44.000Z</time>
      </trkpt>
      <trkpt lat="47.27082" lon="-2.33919">
        <ele>9.6000003814697</ele>
        <time>2021-05-13T07:24:48.000Z</time>
      </trkpt>
      <trkpt lat="47.27085" lon="-2.33922">
        <ele>10.199999809265</ele>
        <time>2021-05-13T07:24:49.000Z</time>
      </trkpt>
      <trkpt lat="47.27087" lon="-2.33924">
        <ele>10.60000038147</ele>
        <time>2021-05-13T07:24:50.000Z</time>
      </trkpt>
      <trkpt lat="47.2709" lon="-2.33927">
        <ele>11</ele>
        <time>2021-05-13T07:24:51.000Z</time>
      </trkpt>
      <trkpt lat="47.27093" lon="-2.33929">
        <ele>11.60000038147</ele>
        <time>2021-05-13T07:24:52.000Z</time>
      </trkpt>
      <trkpt lat="47.27109" lon="-2.33944">
        <ele>12</ele>
        <time>2021-05-13T07:24:58.000Z</time>
      </trkpt>
      <trkpt lat="47.27112" lon="-2.33947">
        <ele>12.39999961853</ele>
        <time>2021-05-13T07:24:59.000Z</time>
      </trkpt>
      <trkpt lat="47.27114" lon="-2.33949">
        <ele>12.800000190735</ele>
        <time>2021-05-13T07:25:00.000Z</time>
      </trkpt>
      <trkpt lat="47.27117" lon="-2.33952">
        <ele>13.39999961853</ele>
        <time>2021-05-13T07:25:01.000Z</time>
      </trkpt>
      <trkpt lat="47.27119" lon="-2.33955">
        <ele>13.800000190735</ele>
        <time>2021-05-13T07:25:02.000Z</time>
      </trkpt>
      <trkpt lat="47.27131" lon="-2.33967">
        <ele>13.800000190735</ele>
        <time>2021-05-13T07:25:06.000Z</time>
      </trkpt>
      <trkpt lat="47.27155" lon="-2.33993">
        <ele>14.199999809265</ele>
        <time>2021-05-13T07:25:14.000Z</time>
      </trkpt>
      <trkpt lat="47.27157" lon="-2.33996">
        <ele>14.60000038147</ele>
        <time>2021-05-13T07:25:15.000Z</time>
      </trkpt>
      <trkpt lat="47.27161" lon="-2.33999">
        <ele>15</ele>
        <time>2021-05-13T07:25:16.000Z</time>
      </trkpt>
      <trkpt lat="47.27164" lon="-2.34003">
        <ele>15.800000190735</ele>
        <time>2021-05-13T07:25:17.000Z</time>
      </trkpt>
      <trkpt lat="47.27177" lon="-2.34016">
        <ele>15.800000190735</ele>
        <time>2021-05-13T07:25:21.000Z</time>
      </trkpt>
      <trkpt lat="47.2719" lon="-2.34027">
        <ele>16.200000762939</ele>
        <time>2021-05-13T07:25:25.000Z</time>
      </trkpt>
      <trkpt lat="47.27193" lon="-2.3403">
        <ele>16.60000038147</ele>
        <time>2021-05-13T07:25:26.000Z</time>
      </trkpt>
      <trkpt lat="47.27196" lon="-2.34033">
        <ele>17</ele>
        <time>2021-05-13T07:25:27.000Z</time>
      </trkpt>
      <trkpt lat="47.272" lon="-2.34036">
        <ele>17.39999961853</ele>
        <time>2021-05-13T07:25:28.000Z</time>
      </trkpt>
      <trkpt lat="47.27203" lon="-2.3404">
        <ele>17.799999237061</ele>
        <time>2021-05-13T07:25:29.000Z</time>
      </trkpt>
      <trkpt lat="47.27223" lon="-2.34054">
        <ele>17.799999237061</ele>
        <time>2021-05-13T07:25:35.000Z</time>
      </trkpt>
      <trkpt lat="47.27227" lon="-2.34053">
        <ele>17.799999237061</ele>
        <time>2021-05-13T07:25:36.000Z</time>
      </trkpt>
      <trkpt lat="47.2724" lon="-2.34051">
        <ele>17.799999237061</ele>
        <time>2021-05-13T07:25:39.000Z</time>
      </trkpt>
      <trkpt lat="47.27248" lon="-2.34052">
        <ele>17.799999237061</ele>
        <time>2021-05-13T07:25:41.000Z</time>
      </trkpt>
      <trkpt lat="47.27251" lon="-2.34053">
        <ele>18.39999961853</ele>
        <time>2021-05-13T07:25:42.000Z</time>
      </trkpt>
      <trkpt lat="47.27255" lon="-2.34055">
        <ele>18.799999237061</ele>
        <time>2021-05-13T07:25:43.000Z</time>
      </trkpt>
      <trkpt lat="47.27259" lon="-2.34057">
        <ele>19.39999961853</ele>
        <time>2021-05-13T07:25:44.000Z</time>
      </trkpt>
      <trkpt lat="47.27262" lon="-2.34059">
        <ele>19.799999237061</ele>
        <time>2021-05-13T07:25:45.000Z</time>
      </trkpt>
      <trkpt lat="47.27266" lon="-2.34061">
        <ele>20.39999961853</ele>
        <time>2021-05-13T07:25:46.000Z</time>
      </trkpt>
      <trkpt lat="47.27269" lon="-2.34064">
        <ele>20.39999961853</ele>
        <time>2021-05-13T07:25:47.000Z</time>
      </trkpt>
      <trkpt lat="47.27279" lon="-2.34083">
        <ele>20.39999961853</ele>
        <time>2021-05-13T07:25:51.000Z</time>
      </trkpt>
      <trkpt lat="47.27281" lon="-2.34096">
        <ele>20.39999961853</ele>
        <time>2021-05-13T07:25:53.000Z</time>
      </trkpt>
      <trkpt lat="47.27286" lon="-2.34114">
        <ele>20.39999961853</ele>
        <time>2021-05-13T07:25:56.000Z</time>
      </trkpt>
      <trkpt lat="47.27288" lon="-2.34119">
        <ele>20.39999961853</ele>
        <time>2021-05-13T07:25:57.000Z</time>
      </trkpt>
      <trkpt lat="47.273" lon="-2.3413">
        <ele>20.39999961853</ele>
        <time>2021-05-13T07:26:00.000Z</time>
      </trkpt>
      <trkpt lat="47.27303" lon="-2.34133">
        <ele>20.39999961853</ele>
        <time>2021-05-13T07:26:01.000Z</time>
      </trkpt>
      <trkpt lat="47.27324" lon="-2.34149">
        <ele>19.60000038147</ele>
        <time>2021-05-13T07:26:06.000Z</time>
      </trkpt>
      <trkpt lat="47.27328" lon="-2.34152">
        <ele>19.200000762939</ele>
        <time>2021-05-13T07:26:07.000Z</time>
      </trkpt>
      <trkpt lat="47.27333" lon="-2.34154">
        <ele>18.799999237061</ele>
        <time>2021-05-13T07:26:08.000Z</time>
      </trkpt>
      <trkpt lat="47.27337" lon="-2.34157">
        <ele>18.39999961853</ele>
        <time>2021-05-13T07:26:09.000Z</time>
      </trkpt>
      <trkpt lat="47.27367" lon="-2.34174">
        <ele>18.39999961853</ele>
        <time>2021-05-13T07:26:16.000Z</time>
      </trkpt>
      <trkpt lat="47.27375" lon="-2.34179">
        <ele>18.39999961853</ele>
        <time>2021-05-13T07:26:18.000Z</time>
      </trkpt>
      <trkpt lat="47.2739" lon="-2.34193">
        <ele>18.39999961853</ele>
        <time>2021-05-13T07:26:22.000Z</time>
      </trkpt>
      <trkpt lat="47.27393" lon="-2.34197">
        <ele>18.39999961853</ele>
        <time>2021-05-13T07:26:23.000Z</time>
      </trkpt>
      <trkpt lat="47.27399" lon="-2.34211">
        <ele>18.39999961853</ele>
        <time>2021-05-13T07:26:26.000Z</time>
      </trkpt>
      <trkpt lat="47.27401" lon="-2.34216">
        <ele>18.39999961853</ele>
        <time>2021-05-13T07:26:27.000Z</time>
      </trkpt>
      <trkpt lat="47.27406" lon="-2.34235">
        <ele>18.39999961853</ele>
        <time>2021-05-13T07:26:32.000Z</time>
      </trkpt>
      <trkpt lat="47.27411" lon="-2.34235">
        <ele>18.39999961853</ele>
        <time>2021-05-13T07:26:37.000Z</time>
      </trkpt>
      <trkpt lat="47.27414" lon="-2.34243">
        <ele>18.39999961853</ele>
        <time>2021-05-13T07:26:40.000Z</time>
      </trkpt>
      <trkpt lat="47.27415" lon="-2.34255">
        <ele>18.39999961853</ele>
        <time>2021-05-13T07:26:42.000Z</time>
      </trkpt>
      <trkpt lat="47.27415" lon="-2.34273">
        <ele>18.39999961853</ele>
        <time>2021-05-13T07:26:45.000Z</time>
      </trkpt>
      <trkpt lat="47.27415" lon="-2.3428">
        <ele>18.39999961853</ele>
        <time>2021-05-13T07:26:46.000Z</time>
      </trkpt>
      <trkpt lat="47.27414" lon="-2.34305">
        <ele>18.39999961853</ele>
        <time>2021-05-13T07:26:50.000Z</time>
      </trkpt>
      <trkpt lat="47.27415" lon="-2.3435">
        <ele>18.39999961853</ele>
        <time>2021-05-13T07:26:57.000Z</time>
      </trkpt>
      <trkpt lat="47.27419" lon="-2.34383">
        <ele>18.39999961853</ele>
        <time>2021-05-13T07:27:02.000Z</time>
      </trkpt>
      <trkpt lat="47.2742" lon="-2.34389">
        <ele>18.39999961853</ele>
        <time>2021-05-13T07:27:03.000Z</time>
      </trkpt>
      <trkpt lat="47.2742" lon="-2.34395">
        <ele>18.799999237061</ele>
        <time>2021-05-13T07:27:04.000Z</time>
      </trkpt>
      <trkpt lat="47.27421" lon="-2.344">
        <ele>19.200000762939</ele>
        <time>2021-05-13T07:27:05.000Z</time>
      </trkpt>
      <trkpt lat="47.27422" lon="-2.34406">
        <ele>19.60000038147</ele>
        <time>2021-05-13T07:27:06.000Z</time>
      </trkpt>
      <trkpt lat="47.27422" lon="-2.34412">
        <ele>20</ele>
        <time>2021-05-13T07:27:07.000Z</time>
      </trkpt>
      <trkpt lat="47.27423" lon="-2.34418">
        <ele>20.39999961853</ele>
        <time>2021-05-13T07:27:08.000Z</time>
      </trkpt>
      <trkpt lat="47.27423" lon="-2.34435">
        <ele>20.39999961853</ele>
        <time>2021-05-13T07:27:11.000Z</time>
      </trkpt>
      <trkpt lat="47.27425" lon="-2.34471">
        <ele>20.39999961853</ele>
        <time>2021-05-13T07:27:17.000Z</time>
      </trkpt>
      <trkpt lat="47.27426" lon="-2.34478">
        <ele>20.39999961853</ele>
        <time>2021-05-13T07:27:18.000Z</time>
      </trkpt>
      <trkpt lat="47.27429" lon="-2.34502">
        <ele>20.39999961853</ele>
        <time>2021-05-13T07:27:22.000Z</time>
      </trkpt>
      <trkpt lat="47.27432" lon="-2.34514">
        <ele>20.39999961853</ele>
        <time>2021-05-13T07:27:24.000Z</time>
      </trkpt>
      <trkpt lat="47.27441" lon="-2.34547">
        <ele>20.39999961853</ele>
        <time>2021-05-13T07:27:30.000Z</time>
      </trkpt>
      <trkpt lat="47.27451" lon="-2.34585">
        <ele>20.39999961853</ele>
        <time>2021-05-13T07:27:36.000Z</time>
      </trkpt>
      <trkpt lat="47.27459" lon="-2.34648">
        <ele>21</ele>
        <time>2021-05-13T07:27:45.000Z</time>
      </trkpt>
      <trkpt lat="47.2746" lon="-2.34655">
        <ele>21.39999961853</ele>
        <time>2021-05-13T07:27:46.000Z</time>
      </trkpt>
      <trkpt lat="47.2746" lon="-2.34661">
        <ele>21.799999237061</ele>
        <time>2021-05-13T07:27:47.000Z</time>
      </trkpt>
      <trkpt lat="47.2746" lon="-2.34668">
        <ele>22.200000762939</ele>
        <time>2021-05-13T07:27:48.000Z</time>
      </trkpt>
      <trkpt lat="47.2746" lon="-2.34674">
        <ele>22.60000038147</ele>
        <time>2021-05-13T07:27:49.000Z</time>
      </trkpt>
      <trkpt lat="47.27461" lon="-2.3469">
        <ele>22.60000038147</ele>
        <time>2021-05-13T07:27:52.000Z</time>
      </trkpt>
      <trkpt lat="47.27462" lon="-2.34694">
        <ele>22.200000762939</ele>
        <time>2021-05-13T07:27:53.000Z</time>
      </trkpt>
      <trkpt lat="47.27463" lon="-2.34697">
        <ele>21.799999237061</ele>
        <time>2021-05-13T07:27:54.000Z</time>
      </trkpt>
      <trkpt lat="47.27464" lon="-2.34697">
        <ele>21.39999961853</ele>
        <time>2021-05-13T07:27:55.000Z</time>
      </trkpt>
      <trkpt lat="47.27465" lon="-2.34697">
        <ele>21</ele>
        <time>2021-05-13T07:27:56.000Z</time>
      </trkpt>
      <trkpt lat="47.27466" lon="-2.34696">
        <ele>20.39999961853</ele>
        <time>2021-05-13T07:27:57.000Z</time>
      </trkpt>
      <trkpt lat="47.2747" lon="-2.34692">
        <ele>20.39999961853</ele>
        <time>2021-05-13T07:27:58.000Z</time>
      </trkpt>
      <trkpt lat="47.27475" lon="-2.34688">
        <ele>20.39999961853</ele>
        <time>2021-05-13T07:27:59.000Z</time>
      </trkpt>
      <trkpt lat="47.27497" lon="-2.3468">
        <ele>20.39999961853</ele>
        <time>2021-05-13T07:28:03.000Z</time>
      </trkpt>
      <trkpt lat="47.27507" lon="-2.3468">
        <ele>20.39999961853</ele>
        <time>2021-05-13T07:28:05.000Z</time>
      </trkpt>
      <trkpt lat="47.27526" lon="-2.34678">
        <ele>20.39999961853</ele>
        <time>2021-05-13T07:28:09.000Z</time>
      </trkpt>
      <trkpt lat="47.27531" lon="-2.34677">
        <ele>20.39999961853</ele>
        <time>2021-05-13T07:28:10.000Z</time>
      </trkpt>
      <trkpt lat="47.27555" lon="-2.34666">
        <ele>20.39999961853</ele>
        <time>2021-05-13T07:28:15.000Z</time>
      </trkpt>
      <trkpt lat="47.27579" lon="-2.34652">
        <ele>20.39999961853</ele>
        <time>2021-05-13T07:28:20.000Z</time>
      </trkpt>
      <trkpt lat="47.27587" lon="-2.34645">
        <ele>20.39999961853</ele>
        <time>2021-05-13T07:28:22.000Z</time>
      </trkpt>
      <trkpt lat="47.27616" lon="-2.34618">
        <ele>20.39999961853</ele>
        <time>2021-05-13T07:28:29.000Z</time>
      </trkpt>
      <trkpt lat="47.27649" lon="-2.34585">
        <ele>20.39999961853</ele>
        <time>2021-05-13T07:28:37.000Z</time>
      </trkpt>
      <trkpt lat="47.27669" lon="-2.34567">
        <ele>20.39999961853</ele>
        <time>2021-05-13T07:28:42.000Z</time>
      </trkpt>
      <trkpt lat="47.27673" lon="-2.34566">
        <ele>20.39999961853</ele>
        <time>2021-05-13T07:28:43.000Z</time>
      </trkpt>
      <trkpt lat="47.27679" lon="-2.34569">
        <ele>20.39999961853</ele>
        <time>2021-05-13T07:28:46.000Z</time>
      </trkpt>
      <trkpt lat="47.27682" lon="-2.34573">
        <ele>20.39999961853</ele>
        <time>2021-05-13T07:28:48.000Z</time>
      </trkpt>
      <trkpt lat="47.27686" lon="-2.34583">
        <ele>20.39999961853</ele>
        <time>2021-05-13T07:28:51.000Z</time>
      </trkpt>
      <trkpt lat="47.27691" lon="-2.34602">
        <ele>20.39999961853</ele>
        <time>2021-05-13T07:28:54.000Z</time>
      </trkpt>
      <trkpt lat="47.27692" lon="-2.3461">
        <ele>20.39999961853</ele>
        <time>2021-05-13T07:28:55.000Z</time>
      </trkpt>
      <trkpt lat="47.27692" lon="-2.34617">
        <ele>20.39999961853</ele>
        <time>2021-05-13T07:28:56.000Z</time>
      </trkpt>
      <trkpt lat="47.27692" lon="-2.34631">
        <ele>20.39999961853</ele>
        <time>2021-05-13T07:28:58.000Z</time>
      </trkpt>
      <trkpt lat="47.27692" lon="-2.34637">
        <ele>20.39999961853</ele>
        <time>2021-05-13T07:28:59.000Z</time>
      </trkpt>
      <trkpt lat="47.27693" lon="-2.34655">
        <ele>20.39999961853</ele>
        <time>2021-05-13T07:29:02.000Z</time>
      </trkpt>
      <trkpt lat="47.27694" lon="-2.34661">
        <ele>20.39999961853</ele>
        <time>2021-05-13T07:29:03.000Z</time>
      </trkpt>
      <trkpt lat="47.27697" lon="-2.34675">
        <ele>20.39999961853</ele>
        <time>2021-05-13T07:29:06.000Z</time>
      </trkpt>
      <trkpt lat="47.27697" lon="-2.34678">
        <ele>20.39999961853</ele>
        <time>2021-05-13T07:29:07.000Z</time>
      </trkpt>
      <trkpt lat="47.27702" lon="-2.34696">
        <ele>20.39999961853</ele>
        <time>2021-05-13T07:29:11.000Z</time>
      </trkpt>
      <trkpt lat="47.27704" lon="-2.34702">
        <ele>20.39999961853</ele>
        <time>2021-05-13T07:29:12.000Z</time>
      </trkpt>
      <trkpt lat="47.27724" lon="-2.34752">
        <ele>20.39999961853</ele>
        <time>2021-05-13T07:29:20.000Z</time>
      </trkpt>
      <trkpt lat="47.27749" lon="-2.34799">
        <ele>20.39999961853</ele>
        <time>2021-05-13T07:29:28.000Z</time>
      </trkpt>
      <trkpt lat="47.2777" lon="-2.3484">
        <ele>20.39999961853</ele>
        <time>2021-05-13T07:29:36.000Z</time>
      </trkpt>
      <trkpt lat="47.27779" lon="-2.34857">
        <ele>20</ele>
        <time>2021-05-13T07:29:39.000Z</time>
      </trkpt>
      <trkpt lat="47.27782" lon="-2.34863">
        <ele>19.60000038147</ele>
        <time>2021-05-13T07:29:40.000Z</time>
      </trkpt>
      <trkpt lat="47.27784" lon="-2.34868">
        <ele>19.200000762939</ele>
        <time>2021-05-13T07:29:41.000Z</time>
      </trkpt>
      <trkpt lat="47.27786" lon="-2.34875">
        <ele>18.799999237061</ele>
        <time>2021-05-13T07:29:42.000Z</time>
      </trkpt>
      <trkpt lat="47.27787" lon="-2.34882">
        <ele>18.39999961853</ele>
        <time>2021-05-13T07:29:43.000Z</time>
      </trkpt>
      <trkpt lat="47.27787" lon="-2.34898">
        <ele>18.39999961853</ele>
        <time>2021-05-13T07:29:45.000Z</time>
      </trkpt>
      <trkpt lat="47.27786" lon="-2.34906">
        <ele>18.39999961853</ele>
        <time>2021-05-13T07:29:46.000Z</time>
      </trkpt>
      <trkpt lat="47.2778" lon="-2.34944">
        <ele>18.39999961853</ele>
        <time>2021-05-13T07:29:51.000Z</time>
      </trkpt>
      <trkpt lat="47.27779" lon="-2.34951">
        <ele>18.39999961853</ele>
        <time>2021-05-13T07:29:52.000Z</time>
      </trkpt>
      <trkpt lat="47.27772" lon="-2.34995">
        <ele>18.39999961853</ele>
        <time>2021-05-13T07:29:58.000Z</time>
      </trkpt>
      <trkpt lat="47.27772" lon="-2.35002">
        <ele>18.39999961853</ele>
        <time>2021-05-13T07:29:59.000Z</time>
      </trkpt>
      <trkpt lat="47.2777" lon="-2.35017">
        <ele>18</ele>
        <time>2021-05-13T07:30:01.000Z</time>
      </trkpt>
      <trkpt lat="47.27768" lon="-2.35024">
        <ele>17.60000038147</ele>
        <time>2021-05-13T07:30:02.000Z</time>
      </trkpt>
      <trkpt lat="47.27767" lon="-2.35032">
        <ele>17</ele>
        <time>2021-05-13T07:30:03.000Z</time>
      </trkpt>
      <trkpt lat="47.27766" lon="-2.3504">
        <ele>16.60000038147</ele>
        <time>2021-05-13T07:30:04.000Z</time>
      </trkpt>
      <trkpt lat="47.27765" lon="-2.35048">
        <ele>16.200000762939</ele>
        <time>2021-05-13T07:30:05.000Z</time>
      </trkpt>
      <trkpt lat="47.27766" lon="-2.35056">
        <ele>16.200000762939</ele>
        <time>2021-05-13T07:30:06.000Z</time>
      </trkpt>
      <trkpt lat="47.27767" lon="-2.3508">
        <ele>16.200000762939</ele>
        <time>2021-05-13T07:30:09.000Z</time>
      </trkpt>
      <trkpt lat="47.27768" lon="-2.35097">
        <ele>16.200000762939</ele>
        <time>2021-05-13T07:30:11.000Z</time>
      </trkpt>
      <trkpt lat="47.27768" lon="-2.35105">
        <ele>15.800000190735</ele>
        <time>2021-05-13T07:30:12.000Z</time>
      </trkpt>
      <trkpt lat="47.27769" lon="-2.35113">
        <ele>15.39999961853</ele>
        <time>2021-05-13T07:30:13.000Z</time>
      </trkpt>
      <trkpt lat="47.2777" lon="-2.35121">
        <ele>15</ele>
        <time>2021-05-13T07:30:14.000Z</time>
      </trkpt>
      <trkpt lat="47.2777" lon="-2.35129">
        <ele>14.60000038147</ele>
        <time>2021-05-13T07:30:15.000Z</time>
      </trkpt>
      <trkpt lat="47.27771" lon="-2.35137">
        <ele>14</ele>
        <time>2021-05-13T07:30:16.000Z</time>
      </trkpt>
      <trkpt lat="47.27771" lon="-2.35144">
        <ele>14</ele>
        <time>2021-05-13T07:30:17.000Z</time>
      </trkpt>
      <trkpt lat="47.27773" lon="-2.35178">
        <ele>14</ele>
        <time>2021-05-13T07:30:21.000Z</time>
      </trkpt>
      <trkpt lat="47.27776" lon="-2.35224">
        <ele>14</ele>
        <time>2021-05-13T07:30:27.000Z</time>
      </trkpt>
      <trkpt lat="47.27777" lon="-2.35232">
        <ele>14</ele>
        <time>2021-05-13T07:30:28.000Z</time>
      </trkpt>
      <trkpt lat="47.27783" lon="-2.35263">
        <ele>14</ele>
        <time>2021-05-13T07:30:32.000Z</time>
      </trkpt>
      <trkpt lat="47.27795" lon="-2.35313">
        <ele>14</ele>
        <time>2021-05-13T07:30:39.000Z</time>
      </trkpt>
      <trkpt lat="47.278" lon="-2.35335">
        <ele>13.60000038147</ele>
        <time>2021-05-13T07:30:42.000Z</time>
      </trkpt>
      <trkpt lat="47.27802" lon="-2.35343">
        <ele>13.199999809265</ele>
        <time>2021-05-13T07:30:43.000Z</time>
      </trkpt>
      <trkpt lat="47.27804" lon="-2.3535">
        <ele>12.800000190735</ele>
        <time>2021-05-13T07:30:44.000Z</time>
      </trkpt>
      <trkpt lat="47.27807" lon="-2.35355">
        <ele>12.39999961853</ele>
        <time>2021-05-13T07:30:45.000Z</time>
      </trkpt>
      <trkpt lat="47.27811" lon="-2.3536">
        <ele>12</ele>
        <time>2021-05-13T07:30:46.000Z</time>
      </trkpt>
      <trkpt lat="47.27829" lon="-2.35363">
        <ele>12</ele>
        <time>2021-05-13T07:30:50.000Z</time>
      </trkpt>
      <trkpt lat="47.27833" lon="-2.35362">
        <ele>12</ele>
        <time>2021-05-13T07:30:51.000Z</time>
      </trkpt>
      <trkpt lat="47.27847" lon="-2.3536">
        <ele>12</ele>
        <time>2021-05-13T07:30:54.000Z</time>
      </trkpt>
      <trkpt lat="47.2786" lon="-2.35361">
        <ele>12</ele>
        <time>2021-05-13T07:30:57.000Z</time>
      </trkpt>
      <trkpt lat="47.27878" lon="-2.35367">
        <ele>12</ele>
        <time>2021-05-13T07:31:02.000Z</time>
      </trkpt>
      <trkpt lat="47.27899" lon="-2.35394">
        <ele>12.39999961853</ele>
        <time>2021-05-13T07:31:09.000Z</time>
      </trkpt>
      <trkpt lat="47.27902" lon="-2.35397">
        <ele>12.800000190735</ele>
        <time>2021-05-13T07:31:10.000Z</time>
      </trkpt>
      <trkpt lat="47.27905" lon="-2.35401">
        <ele>13.199999809265</ele>
        <time>2021-05-13T07:31:11.000Z</time>
      </trkpt>
      <trkpt lat="47.27908" lon="-2.35405">
        <ele>13.60000038147</ele>
        <time>2021-05-13T07:31:12.000Z</time>
      </trkpt>
      <trkpt lat="47.27912" lon="-2.3541">
        <ele>14</ele>
        <time>2021-05-13T07:31:13.000Z</time>
      </trkpt>
      <trkpt lat="47.27915" lon="-2.35415">
        <ele>14</ele>
        <time>2021-05-13T07:31:14.000Z</time>
      </trkpt>
      <trkpt lat="47.27948" lon="-2.35455">
        <ele>14</ele>
        <time>2021-05-13T07:31:23.000Z</time>
      </trkpt>
      <trkpt lat="47.27969" lon="-2.35468">
        <ele>14</ele>
        <time>2021-05-13T07:31:28.000Z</time>
      </trkpt>
      <trkpt lat="47.27973" lon="-2.35472">
        <ele>14</ele>
        <time>2021-05-13T07:31:29.000Z</time>
      </trkpt>
      <trkpt lat="47.27987" lon="-2.35492">
        <ele>14</ele>
        <time>2021-05-13T07:31:33.000Z</time>
      </trkpt>
      <trkpt lat="47.27991" lon="-2.35498">
        <ele>14</ele>
        <time>2021-05-13T07:31:34.000Z</time>
      </trkpt>
      <trkpt lat="47.28004" lon="-2.35528">
        <ele>14</ele>
        <time>2021-05-13T07:31:40.000Z</time>
      </trkpt>
      <trkpt lat="47.28009" lon="-2.35548">
        <ele>14</ele>
        <time>2021-05-13T07:31:45.000Z</time>
      </trkpt>
      <trkpt lat="47.28016" lon="-2.35562">
        <ele>14</ele>
        <time>2021-05-13T07:31:50.000Z</time>
      </trkpt>
      <trkpt lat="47.28018" lon="-2.35563">
        <ele>14</ele>
        <time>2021-05-13T07:31:51.000Z</time>
      </trkpt>
      <trkpt lat="47.28021" lon="-2.35563">
        <ele>14.39999961853</ele>
        <time>2021-05-13T07:31:52.000Z</time>
      </trkpt>
      <trkpt lat="47.28023" lon="-2.35564">
        <ele>15</ele>
        <time>2021-05-13T07:31:53.000Z</time>
      </trkpt>
      <trkpt lat="47.28026" lon="-2.35565">
        <ele>15.39999961853</ele>
        <time>2021-05-13T07:31:54.000Z</time>
      </trkpt>
      <trkpt lat="47.28029" lon="-2.35566">
        <ele>15.800000190735</ele>
        <time>2021-05-13T07:31:55.000Z</time>
      </trkpt>
      <trkpt lat="47.28032" lon="-2.35568">
        <ele>16.200000762939</ele>
        <time>2021-05-13T07:31:56.000Z</time>
      </trkpt>
      <trkpt lat="47.28045" lon="-2.35578">
        <ele>16.200000762939</ele>
        <time>2021-05-13T07:32:02.000Z</time>
      </trkpt>
      <trkpt lat="47.28048" lon="-2.35581">
        <ele>16.200000762939</ele>
        <time>2021-05-13T07:32:05.000Z</time>
      </trkpt>
      <trkpt lat="47.2805" lon="-2.35581">
        <ele>16.200000762939</ele>
        <time>2021-05-13T07:32:08.000Z</time>
      </trkpt>
      <trkpt lat="47.2805" lon="-2.35581">
        <ele>16.200000762939</ele>
        <time>2021-05-13T07:32:09.000Z</time>
      </trkpt>
      <trkpt lat="47.28054" lon="-2.35586">
        <ele>16.200000762939</ele>
        <time>2021-05-13T07:34:57.000Z</time>
      </trkpt>
      <trkpt lat="47.28057" lon="-2.35586">
        <ele>16.200000762939</ele>
        <time>2021-05-13T07:34:59.000Z</time>
      </trkpt>
      <trkpt lat="47.28065" lon="-2.3558">
        <ele>16.200000762939</ele>
        <time>2021-05-13T07:35:04.000Z</time>
      </trkpt>
      <trkpt lat="47.28069" lon="-2.35574">
        <ele>16.60000038147</ele>
        <time>2021-05-13T07:35:07.000Z</time>
      </trkpt>
      <trkpt lat="47.2807" lon="-2.35572">
        <ele>17</ele>
        <time>2021-05-13T07:35:08.000Z</time>
      </trkpt>
      <trkpt lat="47.28072" lon="-2.3557">
        <ele>17.799999237061</ele>
        <time>2021-05-13T07:35:09.000Z</time>
      </trkpt>
      <trkpt lat="47.28075" lon="-2.35568">
        <ele>18.200000762939</ele>
        <time>2021-05-13T07:35:10.000Z</time>
      </trkpt>
      <trkpt lat="47.28084" lon="-2.35566">
        <ele>18.200000762939</ele>
        <time>2021-05-13T07:35:13.000Z</time>
      </trkpt>
      <trkpt lat="47.28106" lon="-2.35564">
        <ele>18.200000762939</ele>
        <time>2021-05-13T07:35:19.000Z</time>
      </trkpt>
      <trkpt lat="47.28125" lon="-2.35564">
        <ele>18.60000038147</ele>
        <time>2021-05-13T07:35:24.000Z</time>
      </trkpt>
      <trkpt lat="47.28128" lon="-2.35564">
        <ele>19</ele>
        <time>2021-05-13T07:35:25.000Z</time>
      </trkpt>
      <trkpt lat="47.28132" lon="-2.35565">
        <ele>19.60000038147</ele>
        <time>2021-05-13T07:35:26.000Z</time>
      </trkpt>
      <trkpt lat="47.28135" lon="-2.35565">
        <ele>20</ele>
        <time>2021-05-13T07:35:27.000Z</time>
      </trkpt>
      <trkpt lat="47.28138" lon="-2.35565">
        <ele>20.39999961853</ele>
        <time>2021-05-13T07:35:28.000Z</time>
      </trkpt>
      <trkpt lat="47.28149" lon="-2.35569">
        <ele>20.39999961853</ele>
        <time>2021-05-13T07:35:32.000Z</time>
      </trkpt>
      <trkpt lat="47.28169" lon="-2.35583">
        <ele>20.39999961853</ele>
        <time>2021-05-13T07:35:38.000Z</time>
      </trkpt>
      <trkpt lat="47.28185" lon="-2.356">
        <ele>20.39999961853</ele>
        <time>2021-05-13T07:35:43.000Z</time>
      </trkpt>
      <trkpt lat="47.28188" lon="-2.35604">
        <ele>20.799999237061</ele>
        <time>2021-05-13T07:35:44.000Z</time>
      </trkpt>
      <trkpt lat="47.28191" lon="-2.35608">
        <ele>21.200000762939</ele>
        <time>2021-05-13T07:35:45.000Z</time>
      </trkpt>
      <trkpt lat="47.28193" lon="-2.35611">
        <ele>21.60000038147</ele>
        <time>2021-05-13T07:35:46.000Z</time>
      </trkpt>
      <trkpt lat="47.28196" lon="-2.35615">
        <ele>22</ele>
        <time>2021-05-13T07:35:47.000Z</time>
      </trkpt>
      <trkpt lat="47.28199" lon="-2.35619">
        <ele>22.39999961853</ele>
        <time>2021-05-13T07:35:48.000Z</time>
      </trkpt>
      <trkpt lat="47.28203" lon="-2.35622">
        <ele>22.39999961853</ele>
        <time>2021-05-13T07:35:49.000Z</time>
      </trkpt>
      <trkpt lat="47.28223" lon="-2.35644">
        <ele>22.39999961853</ele>
        <time>2021-05-13T07:35:55.000Z</time>
      </trkpt>
      <trkpt lat="47.2824" lon="-2.35668">
        <ele>22.39999961853</ele>
        <time>2021-05-13T07:36:01.000Z</time>
      </trkpt>
      <trkpt lat="47.28246" lon="-2.35676">
        <ele>22.799999237061</ele>
        <time>2021-05-13T07:36:03.000Z</time>
      </trkpt>
      <trkpt lat="47.28248" lon="-2.35679">
        <ele>23.200000762939</ele>
        <time>2021-05-13T07:36:04.000Z</time>
      </trkpt>
      <trkpt lat="47.28249" lon="-2.35684">
        <ele>23.60000038147</ele>
        <time>2021-05-13T07:36:05.000Z</time>
      </trkpt>
      <trkpt lat="47.28253" lon="-2.3569">
        <ele>24</ele>
        <time>2021-05-13T07:36:06.000Z</time>
      </trkpt>
      <trkpt lat="47.28254" lon="-2.35697">
        <ele>24.39999961853</ele>
        <time>2021-05-13T07:36:07.000Z</time>
      </trkpt>
      <trkpt lat="47.28262" lon="-2.35715">
        <ele>24.39999961853</ele>
        <time>2021-05-13T07:36:11.000Z</time>
      </trkpt>
      <trkpt lat="47.28277" lon="-2.35736">
        <ele>24.39999961853</ele>
        <time>2021-05-13T07:36:17.000Z</time>
      </trkpt>
      <trkpt lat="47.28292" lon="-2.35752">
        <ele>24.39999961853</ele>
        <time>2021-05-13T07:36:23.000Z</time>
      </trkpt>
      <trkpt lat="47.28308" lon="-2.3576">
        <ele>24.39999961853</ele>
        <time>2021-05-13T07:36:28.000Z</time>
      </trkpt>
      <trkpt lat="47.28324" lon="-2.35764">
        <ele>25</ele>
        <time>2021-05-13T07:36:34.000Z</time>
      </trkpt>
      <trkpt lat="47.28325" lon="-2.35765">
        <ele>25.39999961853</ele>
        <time>2021-05-13T07:36:35.000Z</time>
      </trkpt>
      <trkpt lat="47.28327" lon="-2.35766">
        <ele>25.799999237061</ele>
        <time>2021-05-13T07:36:36.000Z</time>
      </trkpt>
      <trkpt lat="47.28328" lon="-2.35767">
        <ele>26.200000762939</ele>
        <time>2021-05-13T07:36:37.000Z</time>
      </trkpt>
      <trkpt lat="47.28329" lon="-2.35768">
        <ele>26.799999237061</ele>
        <time>2021-05-13T07:36:38.000Z</time>
      </trkpt>
      <trkpt lat="47.28329" lon="-2.35768">
        <ele>26.799999237061</ele>
        <time>2021-05-13T07:36:39.000Z</time>
      </trkpt>
      <trkpt lat="47.28365" lon="-2.3579">
        <ele>26.799999237061</ele>
        <time>2021-05-13T07:37:42.000Z</time>
      </trkpt>
      <trkpt lat="47.28372" lon="-2.35796">
        <ele>26.799999237061</ele>
        <time>2021-05-13T07:37:45.000Z</time>
      </trkpt>
      <trkpt lat="47.28385" lon="-2.35808">
        <ele>26.799999237061</ele>
        <time>2021-05-13T07:37:49.000Z</time>
      </trkpt>
      <trkpt lat="47.28389" lon="-2.35811">
        <ele>27.200000762939</ele>
        <time>2021-05-13T07:37:50.000Z</time>
      </trkpt>
      <trkpt lat="47.28392" lon="-2.35814">
        <ele>27.60000038147</ele>
        <time>2021-05-13T07:37:51.000Z</time>
      </trkpt>
      <trkpt lat="47.28397" lon="-2.35817">
        <ele>28</ele>
        <time>2021-05-13T07:37:52.000Z</time>
      </trkpt>
      <trkpt lat="47.28401" lon="-2.35824">
        <ele>28.39999961853</ele>
        <time>2021-05-13T07:37:53.000Z</time>
      </trkpt>
      <trkpt lat="47.28404" lon="-2.35829">
        <ele>28.799999237061</ele>
        <time>2021-05-13T07:37:54.000Z</time>
      </trkpt>
      <trkpt lat="47.28414" lon="-2.35841">
        <ele>28.799999237061</ele>
        <time>2021-05-13T07:37:58.000Z</time>
      </trkpt>
      <trkpt lat="47.28423" lon="-2.35839">
        <ele>28.799999237061</ele>
        <time>2021-05-13T07:38:02.000Z</time>
      </trkpt>
      <trkpt lat="47.28444" lon="-2.35839">
        <ele>28.799999237061</ele>
        <time>2021-05-13T07:38:08.000Z</time>
      </trkpt>
      <trkpt lat="47.28462" lon="-2.35841">
        <ele>28.799999237061</ele>
        <time>2021-05-13T07:38:13.000Z</time>
      </trkpt>
      <trkpt lat="47.28475" lon="-2.35858">
        <ele>28.799999237061</ele>
        <time>2021-05-13T07:38:18.000Z</time>
      </trkpt>
      <trkpt lat="47.28487" lon="-2.35867">
        <ele>28.799999237061</ele>
        <time>2021-05-13T07:38:22.000Z</time>
      </trkpt>
      <trkpt lat="47.28508" lon="-2.35877">
        <ele>28.799999237061</ele>
        <time>2021-05-13T07:38:28.000Z</time>
      </trkpt>
      <trkpt lat="47.28511" lon="-2.35879">
        <ele>29.200000762939</ele>
        <time>2021-05-13T07:38:29.000Z</time>
      </trkpt>
      <trkpt lat="47.28513" lon="-2.35881">
        <ele>29.60000038147</ele>
        <time>2021-05-13T07:38:30.000Z</time>
      </trkpt>
      <trkpt lat="47.28515" lon="-2.35883">
        <ele>30</ele>
        <time>2021-05-13T07:38:31.000Z</time>
      </trkpt>
      <trkpt lat="47.28517" lon="-2.35885">
        <ele>30.60000038147</ele>
        <time>2021-05-13T07:38:32.000Z</time>
      </trkpt>
      <trkpt lat="47.28518" lon="-2.35886">
        <ele>31</ele>
        <time>2021-05-13T07:38:33.000Z</time>
      </trkpt>
      <trkpt lat="47.28521" lon="-2.35888">
        <ele>31.39999961853</ele>
        <time>2021-05-13T07:38:34.000Z</time>
      </trkpt>
      <trkpt lat="47.28523" lon="-2.35889">
        <ele>31.799999237061</ele>
        <time>2021-05-13T07:38:35.000Z</time>
      </trkpt>
      <trkpt lat="47.28525" lon="-2.35891">
        <ele>32.200000762939</ele>
        <time>2021-05-13T07:38:36.000Z</time>
      </trkpt>
      <trkpt lat="47.28527" lon="-2.35892">
        <ele>32.799999237061</ele>
        <time>2021-05-13T07:38:37.000Z</time>
      </trkpt>
      <trkpt lat="47.28528" lon="-2.35892">
        <ele>33.200000762939</ele>
        <time>2021-05-13T07:38:38.000Z</time>
      </trkpt>
      <trkpt lat="47.2853" lon="-2.35893">
        <ele>33.599998474121</ele>
        <time>2021-05-13T07:38:39.000Z</time>
      </trkpt>
      <trkpt lat="47.2853" lon="-2.35893">
        <ele>34</ele>
        <time>2021-05-13T07:38:40.000Z</time>
      </trkpt>
      <trkpt lat="47.28531" lon="-2.35893">
        <ele>34.400001525879</ele>
        <time>2021-05-13T07:38:41.000Z</time>
      </trkpt>
      <trkpt lat="47.28547" lon="-2.35901">
        <ele>35.400001525879</ele>
        <time>2021-05-13T07:39:15.000Z</time>
      </trkpt>
      <trkpt lat="47.28552" lon="-2.35902">
        <ele>35.400001525879</ele>
        <time>2021-05-13T07:39:17.000Z</time>
      </trkpt>
      <trkpt lat="47.28558" lon="-2.35911">
        <ele>35.400001525879</ele>
        <time>2021-05-13T07:39:22.000Z</time>
      </trkpt>
      <trkpt lat="47.28567" lon="-2.35927">
        <ele>35.400001525879</ele>
        <time>2021-05-13T07:39:27.000Z</time>
      </trkpt>
      <trkpt lat="47.28572" lon="-2.35938">
        <ele>35.400001525879</ele>
        <time>2021-05-13T07:39:31.000Z</time>
      </trkpt>
      <trkpt lat="47.2858" lon="-2.35955">
        <ele>35.400001525879</ele>
        <time>2021-05-13T07:39:35.000Z</time>
      </trkpt>
      <trkpt lat="47.28586" lon="-2.35971">
        <ele>35.400001525879</ele>
        <time>2021-05-13T07:39:38.000Z</time>
      </trkpt>
      <trkpt lat="47.28591" lon="-2.3599">
        <ele>35.400001525879</ele>
        <time>2021-05-13T07:39:41.000Z</time>
      </trkpt>
      <trkpt lat="47.28609" lon="-2.36032">
        <ele>35.400001525879</ele>
        <time>2021-05-13T07:39:48.000Z</time>
      </trkpt>
      <trkpt lat="47.28628" lon="-2.36058">
        <ele>35.400001525879</ele>
        <time>2021-05-13T07:39:54.000Z</time>
      </trkpt>
      <trkpt lat="47.28631" lon="-2.36063">
        <ele>35.400001525879</ele>
        <time>2021-05-13T07:39:55.000Z</time>
      </trkpt>
      <trkpt lat="47.28651" lon="-2.36084">
        <ele>35.400001525879</ele>
        <time>2021-05-13T07:40:00.000Z</time>
      </trkpt>
      <trkpt lat="47.28664" lon="-2.36111">
        <ele>35.400001525879</ele>
        <time>2021-05-13T07:40:05.000Z</time>
      </trkpt>
      <trkpt lat="47.28665" lon="-2.36117">
        <ele>35.400001525879</ele>
        <time>2021-05-13T07:40:06.000Z</time>
      </trkpt>
      <trkpt lat="47.28674" lon="-2.36151">
        <ele>35.400001525879</ele>
        <time>2021-05-13T07:40:11.000Z</time>
      </trkpt>
      <trkpt lat="47.28676" lon="-2.36161">
        <ele>35.400001525879</ele>
        <time>2021-05-13T07:40:13.000Z</time>
      </trkpt>
      <trkpt lat="47.28679" lon="-2.36171">
        <ele>35.400001525879</ele>
        <time>2021-05-13T07:40:17.000Z</time>
      </trkpt>
      <trkpt lat="47.2869" lon="-2.36186">
        <ele>35.400001525879</ele>
        <time>2021-05-13T07:40:22.000Z</time>
      </trkpt>
      <trkpt lat="47.28701" lon="-2.36208">
        <ele>35.400001525879</ele>
        <time>2021-05-13T07:40:27.000Z</time>
      </trkpt>
      <trkpt lat="47.28711" lon="-2.36218">
        <ele>35.400001525879</ele>
        <time>2021-05-13T07:40:32.000Z</time>
      </trkpt>
      <trkpt lat="47.28713" lon="-2.36218">
        <ele>35.400001525879</ele>
        <time>2021-05-13T07:40:33.000Z</time>
      </trkpt>
      <trkpt lat="47.28725" lon="-2.36212">
        <ele>35.400001525879</ele>
        <time>2021-05-13T07:40:36.000Z</time>
      </trkpt>
      <trkpt lat="47.28745" lon="-2.36205">
        <ele>35.400001525879</ele>
        <time>2021-05-13T07:40:41.000Z</time>
      </trkpt>
      <trkpt lat="47.28754" lon="-2.36205">
        <ele>35.400001525879</ele>
        <time>2021-05-13T07:40:44.000Z</time>
      </trkpt>
      <trkpt lat="47.28757" lon="-2.36207">
        <ele>35.400001525879</ele>
        <time>2021-05-13T07:40:45.000Z</time>
      </trkpt>
      <trkpt lat="47.2876" lon="-2.36208">
        <ele>35.400001525879</ele>
        <time>2021-05-13T07:40:46.000Z</time>
      </trkpt>
      <trkpt lat="47.28773" lon="-2.36203">
        <ele>35.400001525879</ele>
        <time>2021-05-13T07:40:49.000Z</time>
      </trkpt>
      <trkpt lat="47.28779" lon="-2.36199">
        <ele>35.400001525879</ele>
        <time>2021-05-13T07:40:50.000Z</time>
      </trkpt>
      <trkpt lat="47.28804" lon="-2.36183">
        <ele>35.400001525879</ele>
        <time>2021-05-13T07:40:54.000Z</time>
      </trkpt>
      <trkpt lat="47.28834" lon="-2.3615">
        <ele>35.400001525879</ele>
        <time>2021-05-13T07:40:59.000Z</time>
      </trkpt>
      <trkpt lat="47.28857" lon="-2.36122">
        <ele>35.400001525879</ele>
        <time>2021-05-13T07:41:03.000Z</time>
      </trkpt>
      <trkpt lat="47.28876" lon="-2.36104">
        <ele>35.400001525879</ele>
        <time>2021-05-13T07:41:06.000Z</time>
      </trkpt>
      <trkpt lat="47.28887" lon="-2.36092">
        <ele>35.400001525879</ele>
        <time>2021-05-13T07:41:08.000Z</time>
      </trkpt>
      <trkpt lat="47.28898" lon="-2.36081">
        <ele>35.400001525879</ele>
        <time>2021-05-13T07:41:10.000Z</time>
      </trkpt>
      <trkpt lat="47.28904" lon="-2.36075">
        <ele>35.400001525879</ele>
        <time>2021-05-13T07:41:11.000Z</time>
      </trkpt>
      <trkpt lat="47.28945" lon="-2.36044">
        <ele>35.400001525879</ele>
        <time>2021-05-13T07:41:18.000Z</time>
      </trkpt>
      <trkpt lat="47.28985" lon="-2.3601">
        <ele>35.400001525879</ele>
        <time>2021-05-13T07:41:25.000Z</time>
      </trkpt>
      <trkpt lat="47.29032" lon="-2.35965">
        <ele>35.400001525879</ele>
        <time>2021-05-13T07:41:34.000Z</time>
      </trkpt>
      <trkpt lat="47.29037" lon="-2.35959">
        <ele>35.400001525879</ele>
        <time>2021-05-13T07:41:35.000Z</time>
      </trkpt>
      <trkpt lat="47.2905" lon="-2.35943">
        <ele>35.400001525879</ele>
        <time>2021-05-13T07:41:38.000Z</time>
      </trkpt>
      <trkpt lat="47.29055" lon="-2.35938">
        <ele>35.400001525879</ele>
        <time>2021-05-13T07:41:39.000Z</time>
      </trkpt>
      <trkpt lat="47.29091" lon="-2.35897">
        <ele>35.400001525879</ele>
        <time>2021-05-13T07:41:47.000Z</time>
      </trkpt>
      <trkpt lat="47.29131" lon="-2.3585">
        <ele>35.400001525879</ele>
        <time>2021-05-13T07:41:56.000Z</time>
      </trkpt>
      <trkpt lat="47.29172" lon="-2.35816">
        <ele>35.400001525879</ele>
        <time>2021-05-13T07:42:04.000Z</time>
      </trkpt>
      <trkpt lat="47.29211" lon="-2.3579">
        <ele>35.400001525879</ele>
        <time>2021-05-13T07:42:12.000Z</time>
      </trkpt>
      <trkpt lat="47.29237" lon="-2.35763">
        <ele>35.400001525879</ele>
        <time>2021-05-13T07:42:19.000Z</time>
      </trkpt>
      <trkpt lat="47.29252" lon="-2.35742">
        <ele>35.400001525879</ele>
        <time>2021-05-13T07:42:25.000Z</time>
      </trkpt>
      <trkpt lat="47.29255" lon="-2.35735">
        <ele>35.400001525879</ele>
        <time>2021-05-13T07:42:29.000Z</time>
      </trkpt>
      <trkpt lat="47.29255" lon="-2.35735">
        <ele>35.400001525879</ele>
        <time>2021-05-13T07:42:31.000Z</time>
      </trkpt>
      <trkpt lat="47.29257" lon="-2.35733">
        <ele>35.400001525879</ele>
        <time>2021-05-13T07:42:39.000Z</time>
      </trkpt>
      <trkpt lat="47.29258" lon="-2.35732">
        <ele>35.400001525879</ele>
        <time>2021-05-13T07:42:40.000Z</time>
      </trkpt>
      <trkpt lat="47.29272" lon="-2.35734">
        <ele>35.400001525879</ele>
        <time>2021-05-13T07:42:44.000Z</time>
      </trkpt>
      <trkpt lat="47.29282" lon="-2.35745">
        <ele>35.400001525879</ele>
        <time>2021-05-13T07:42:47.000Z</time>
      </trkpt>
      <trkpt lat="47.29286" lon="-2.35749">
        <ele>35.400001525879</ele>
        <time>2021-05-13T07:42:48.000Z</time>
      </trkpt>
      <trkpt lat="47.29314" lon="-2.35775">
        <ele>35.400001525879</ele>
        <time>2021-05-13T07:42:55.000Z</time>
      </trkpt>
      <trkpt lat="47.29348" lon="-2.35808">
        <ele>35.400001525879</ele>
        <time>2021-05-13T07:43:03.000Z</time>
      </trkpt>
      <trkpt lat="47.29383" lon="-2.3584">
        <ele>35.400001525879</ele>
        <time>2021-05-13T07:43:11.000Z</time>
      </trkpt>
      <trkpt lat="47.29409" lon="-2.35869">
        <ele>35.400001525879</ele>
        <time>2021-05-13T07:43:18.000Z</time>
      </trkpt>
      <trkpt lat="47.29431" lon="-2.35896">
        <ele>35.400001525879</ele>
        <time>2021-05-13T07:43:24.000Z</time>
      </trkpt>
      <trkpt lat="47.29435" lon="-2.359">
        <ele>35.400001525879</ele>
        <time>2021-05-13T07:43:25.000Z</time>
      </trkpt>
      <trkpt lat="47.29446" lon="-2.35902">
        <ele>35.400001525879</ele>
        <time>2021-05-13T07:43:28.000Z</time>
      </trkpt>
      <trkpt lat="47.29453" lon="-2.35901">
        <ele>35.400001525879</ele>
        <time>2021-05-13T07:43:30.000Z</time>
      </trkpt>
      <trkpt lat="47.29462" lon="-2.359">
        <ele>35.400001525879</ele>
        <time>2021-05-13T07:43:32.000Z</time>
      </trkpt>
      <trkpt lat="47.29466" lon="-2.359">
        <ele>35.400001525879</ele>
        <time>2021-05-13T07:43:33.000Z</time>
      </trkpt>
      <trkpt lat="47.29488" lon="-2.35896">
        <ele>35.400001525879</ele>
        <time>2021-05-13T07:43:39.000Z</time>
      </trkpt>
      <trkpt lat="47.29496" lon="-2.35898">
        <ele>35.400001525879</ele>
        <time>2021-05-13T07:43:41.000Z</time>
      </trkpt>
      <trkpt lat="47.29501" lon="-2.35906">
        <ele>35.400001525879</ele>
        <time>2021-05-13T07:43:43.000Z</time>
      </trkpt>
      <trkpt lat="47.29506" lon="-2.35923">
        <ele>35.400001525879</ele>
        <time>2021-05-13T07:43:47.000Z</time>
      </trkpt>
      <trkpt lat="47.29507" lon="-2.35926">
        <ele>35.400001525879</ele>
        <time>2021-05-13T07:43:48.000Z</time>
      </trkpt>
      <trkpt lat="47.29512" lon="-2.35941">
        <ele>35.400001525879</ele>
        <time>2021-05-13T07:43:53.000Z</time>
      </trkpt>
      <trkpt lat="47.29513" lon="-2.35942">
        <ele>35.400001525879</ele>
        <time>2021-05-13T07:43:54.000Z</time>
      </trkpt>
      <trkpt lat="47.29522" lon="-2.35938">
        <ele>35.400001525879</ele>
        <time>2021-05-13T07:43:57.000Z</time>
      </trkpt>
      <trkpt lat="47.29526" lon="-2.35936">
        <ele>35.400001525879</ele>
        <time>2021-05-13T07:43:58.000Z</time>
      </trkpt>
      <trkpt lat="47.29541" lon="-2.35926">
        <ele>35.400001525879</ele>
        <time>2021-05-13T07:44:01.000Z</time>
      </trkpt>
      <trkpt lat="47.29594" lon="-2.35896">
        <ele>35.400001525879</ele>
        <time>2021-05-13T07:44:10.000Z</time>
      </trkpt>
      <trkpt lat="47.29631" lon="-2.35874">
        <ele>35.400001525879</ele>
        <time>2021-05-13T07:44:17.000Z</time>
      </trkpt>
      <trkpt lat="47.29647" lon="-2.35862">
        <ele>35.400001525879</ele>
        <time>2021-05-13T07:44:20.000Z</time>
      </trkpt>
      <trkpt lat="47.2965" lon="-2.35855">
        <ele>35.400001525879</ele>
        <time>2021-05-13T07:44:21.000Z</time>
      </trkpt>
      <trkpt lat="47.29663" lon="-2.35837">
        <ele>35.400001525879</ele>
        <time>2021-05-13T07:44:25.000Z</time>
      </trkpt>
      <trkpt lat="47.29679" lon="-2.35839">
        <ele>35.400001525879</ele>
        <time>2021-05-13T07:44:28.000Z</time>
      </trkpt>
      <trkpt lat="47.29686" lon="-2.35838">
        <ele>35.400001525879</ele>
        <time>2021-05-13T07:44:29.000Z</time>
      </trkpt>
      <trkpt lat="47.29698" lon="-2.35836">
        <ele>35.400001525879</ele>
        <time>2021-05-13T07:44:31.000Z</time>
      </trkpt>
      <trkpt lat="47.29711" lon="-2.3583">
        <ele>35.400001525879</ele>
        <time>2021-05-13T07:44:33.000Z</time>
      </trkpt>
      <trkpt lat="47.29745" lon="-2.35812">
        <ele>35.400001525879</ele>
        <time>2021-05-13T07:44:39.000Z</time>
      </trkpt>
      <trkpt lat="47.29751" lon="-2.3581">
        <ele>35.799999237061</ele>
        <time>2021-05-13T07:44:40.000Z</time>
      </trkpt>
      <trkpt lat="47.29756" lon="-2.35808">
        <ele>36.200000762939</ele>
        <time>2021-05-13T07:44:41.000Z</time>
      </trkpt>
      <trkpt lat="47.29761" lon="-2.35806">
        <ele>36.799999237061</ele>
        <time>2021-05-13T07:44:42.000Z</time>
      </trkpt>
      <trkpt lat="47.29766" lon="-2.35804">
        <ele>37.200000762939</ele>
        <time>2021-05-13T07:44:43.000Z</time>
      </trkpt>
      <trkpt lat="47.29772" lon="-2.35802">
        <ele>37.599998474121</ele>
        <time>2021-05-13T07:44:44.000Z</time>
      </trkpt>
      <trkpt lat="47.29777" lon="-2.358">
        <ele>37.599998474121</ele>
        <time>2021-05-13T07:44:45.000Z</time>
      </trkpt>
      <trkpt lat="47.29783" lon="-2.35798">
        <ele>38</ele>
        <time>2021-05-13T07:44:46.000Z</time>
      </trkpt>
      <trkpt lat="47.29788" lon="-2.35796">
        <ele>38.599998474121</ele>
        <time>2021-05-13T07:44:47.000Z</time>
      </trkpt>
      <trkpt lat="47.29794" lon="-2.35794">
        <ele>39</ele>
        <time>2021-05-13T07:44:48.000Z</time>
      </trkpt>
      <trkpt lat="47.29799" lon="-2.35793">
        <ele>39.400001525879</ele>
        <time>2021-05-13T07:44:49.000Z</time>
      </trkpt>
      <trkpt lat="47.29804" lon="-2.35791">
        <ele>39.799999237061</ele>
        <time>2021-05-13T07:44:50.000Z</time>
      </trkpt>
      <trkpt lat="47.29814" lon="-2.35786">
        <ele>39.799999237061</ele>
        <time>2021-05-13T07:44:52.000Z</time>
      </trkpt>
      <trkpt lat="47.29844" lon="-2.35775">
        <ele>39.400001525879</ele>
        <time>2021-05-13T07:44:57.000Z</time>
      </trkpt>
      <trkpt lat="47.29852" lon="-2.35773">
        <ele>39</ele>
        <time>2021-05-13T07:44:58.000Z</time>
      </trkpt>
      <trkpt lat="47.29859" lon="-2.3577">
        <ele>38.599998474121</ele>
        <time>2021-05-13T07:44:59.000Z</time>
      </trkpt>
      <trkpt lat="47.29866" lon="-2.35767">
        <ele>38.200000762939</ele>
        <time>2021-05-13T07:45:00.000Z</time>
      </trkpt>
      <trkpt lat="47.29873" lon="-2.35764">
        <ele>37.799999237061</ele>
        <time>2021-05-13T07:45:01.000Z</time>
      </trkpt>
      <trkpt lat="47.29887" lon="-2.35758">
        <ele>37.799999237061</ele>
        <time>2021-05-13T07:45:03.000Z</time>
      </trkpt>
      <trkpt lat="47.29927" lon="-2.35731">
        <ele>37.799999237061</ele>
        <time>2021-05-13T07:45:09.000Z</time>
      </trkpt>
      <trkpt lat="47.29972" lon="-2.357">
        <ele>37.799999237061</ele>
        <time>2021-05-13T07:45:16.000Z</time>
      </trkpt>
      <trkpt lat="47.3001" lon="-2.35678">
        <ele>37.799999237061</ele>
        <time>2021-05-13T07:45:22.000Z</time>
      </trkpt>
      <trkpt lat="47.30059" lon="-2.35648">
        <ele>37.799999237061</ele>
        <time>2021-05-13T07:45:30.000Z</time>
      </trkpt>
      <trkpt lat="47.30075" lon="-2.35638">
        <ele>38.200000762939</ele>
        <time>2021-05-13T07:45:33.000Z</time>
      </trkpt>
      <trkpt lat="47.30081" lon="-2.35635">
        <ele>38.599998474121</ele>
        <time>2021-05-13T07:45:34.000Z</time>
      </trkpt>
      <trkpt lat="47.30086" lon="-2.35632">
        <ele>39</ele>
        <time>2021-05-13T07:45:35.000Z</time>
      </trkpt>
      <trkpt lat="47.30091" lon="-2.35628">
        <ele>39.400001525879</ele>
        <time>2021-05-13T07:45:36.000Z</time>
      </trkpt>
      <trkpt lat="47.30096" lon="-2.35626">
        <ele>39.799999237061</ele>
        <time>2021-05-13T07:45:37.000Z</time>
      </trkpt>
      <trkpt lat="47.30122" lon="-2.3561">
        <ele>39.799999237061</ele>
        <time>2021-05-13T07:45:43.000Z</time>
      </trkpt>
      <trkpt lat="47.30126" lon="-2.35612">
        <ele>39.799999237061</ele>
        <time>2021-05-13T07:45:44.000Z</time>
      </trkpt>
      <trkpt lat="47.30132" lon="-2.35621">
        <ele>39.799999237061</ele>
        <time>2021-05-13T07:45:46.000Z</time>
      </trkpt>
      <trkpt lat="47.30135" lon="-2.35643">
        <ele>39.799999237061</ele>
        <time>2021-05-13T07:45:49.000Z</time>
      </trkpt>
      <trkpt lat="47.30135" lon="-2.35651">
        <ele>39.799999237061</ele>
        <time>2021-05-13T07:45:50.000Z</time>
      </trkpt>
      <trkpt lat="47.30136" lon="-2.35686">
        <ele>39.799999237061</ele>
        <time>2021-05-13T07:45:54.000Z</time>
      </trkpt>
      <trkpt lat="47.30136" lon="-2.35694">
        <ele>40.200000762939</ele>
        <time>2021-05-13T07:45:55.000Z</time>
      </trkpt>
      <trkpt lat="47.30137" lon="-2.35702">
        <ele>40.799999237061</ele>
        <time>2021-05-13T07:45:56.000Z</time>
      </trkpt>
      <trkpt lat="47.30138" lon="-2.3571">
        <ele>41.200000762939</ele>
        <time>2021-05-13T07:45:57.000Z</time>
      </trkpt>
      <trkpt lat="47.30138" lon="-2.35719">
        <ele>41.599998474121</ele>
        <time>2021-05-13T07:45:58.000Z</time>
      </trkpt>
      <trkpt lat="47.30139" lon="-2.35728">
        <ele>42</ele>
        <time>2021-05-13T07:45:59.000Z</time>
      </trkpt>
      <trkpt lat="47.30139" lon="-2.35736">
        <ele>42.599998474121</ele>
        <time>2021-05-13T07:46:00.000Z</time>
      </trkpt>
      <trkpt lat="47.3014" lon="-2.35744">
        <ele>43</ele>
        <time>2021-05-13T07:46:01.000Z</time>
      </trkpt>
      <trkpt lat="47.3014" lon="-2.35752">
        <ele>43.400001525879</ele>
        <time>2021-05-13T07:46:02.000Z</time>
      </trkpt>
      <trkpt lat="47.3014" lon="-2.35761">
        <ele>43.799999237061</ele>
        <time>2021-05-13T07:46:03.000Z</time>
      </trkpt>
      <trkpt lat="47.30141" lon="-2.35771">
        <ele>43.400001525879</ele>
        <time>2021-05-13T07:46:04.000Z</time>
      </trkpt>
      <trkpt lat="47.30141" lon="-2.3578">
        <ele>43</ele>
        <time>2021-05-13T07:46:05.000Z</time>
      </trkpt>
      <trkpt lat="47.30141" lon="-2.3579">
        <ele>42.599998474121</ele>
        <time>2021-05-13T07:46:06.000Z</time>
      </trkpt>
      <trkpt lat="47.30142" lon="-2.35799">
        <ele>42.200000762939</ele>
        <time>2021-05-13T07:46:07.000Z</time>
      </trkpt>
      <trkpt lat="47.30142" lon="-2.35809">
        <ele>41.799999237061</ele>
        <time>2021-05-13T07:46:08.000Z</time>
      </trkpt>
      <trkpt lat="47.30141" lon="-2.35819">
        <ele>41.799999237061</ele>
        <time>2021-05-13T07:46:09.000Z</time>
      </trkpt>
      <trkpt lat="47.30141" lon="-2.35829">
        <ele>41.400001525879</ele>
        <time>2021-05-13T07:46:10.000Z</time>
      </trkpt>
      <trkpt lat="47.3014" lon="-2.35839">
        <ele>40.799999237061</ele>
        <time>2021-05-13T07:46:11.000Z</time>
      </trkpt>
      <trkpt lat="47.30138" lon="-2.35849">
        <ele>40.400001525879</ele>
        <time>2021-05-13T07:46:12.000Z</time>
      </trkpt>
      <trkpt lat="47.30136" lon="-2.3586">
        <ele>40</ele>
        <time>2021-05-13T07:46:13.000Z</time>
      </trkpt>
      <trkpt lat="47.30134" lon="-2.35871">
        <ele>39.400001525879</ele>
        <time>2021-05-13T07:46:14.000Z</time>
      </trkpt>
      <trkpt lat="47.30132" lon="-2.35881">
        <ele>38.799999237061</ele>
        <time>2021-05-13T07:46:15.000Z</time>
      </trkpt>
      <trkpt lat="47.3013" lon="-2.35891">
        <ele>37.599998474121</ele>
        <time>2021-05-13T07:46:16.000Z</time>
      </trkpt>
      <trkpt lat="47.30127" lon="-2.35901">
        <ele>37</ele>
        <time>2021-05-13T07:46:17.000Z</time>
      </trkpt>
      <trkpt lat="47.30125" lon="-2.35911">
        <ele>36.599998474121</ele>
        <time>2021-05-13T07:46:18.000Z</time>
      </trkpt>
      <trkpt lat="47.30123" lon="-2.35922">
        <ele>36.200000762939</ele>
        <time>2021-05-13T07:46:19.000Z</time>
      </trkpt>
      <trkpt lat="47.30121" lon="-2.35932">
        <ele>35.799999237061</ele>
        <time>2021-05-13T07:46:20.000Z</time>
      </trkpt>
      <trkpt lat="47.30119" lon="-2.35943">
        <ele>35.400001525879</ele>
        <time>2021-05-13T07:46:21.000Z</time>
      </trkpt>
      <trkpt lat="47.30117" lon="-2.35953">
        <ele>35</ele>
        <time>2021-05-13T07:46:22.000Z</time>
      </trkpt>
      <trkpt lat="47.30115" lon="-2.35963">
        <ele>35</ele>
        <time>2021-05-13T07:46:23.000Z</time>
      </trkpt>
      <trkpt lat="47.30105" lon="-2.36022">
        <ele>35</ele>
        <time>2021-05-13T07:46:29.000Z</time>
      </trkpt>
      <trkpt lat="47.30098" lon="-2.36102">
        <ele>35</ele>
        <time>2021-05-13T07:46:37.000Z</time>
      </trkpt>
      <trkpt lat="47.30091" lon="-2.36168">
        <ele>35</ele>
        <time>2021-05-13T07:46:44.000Z</time>
      </trkpt>
      <trkpt lat="47.30089" lon="-2.36204">
        <ele>35</ele>
        <time>2021-05-13T07:46:48.000Z</time>
      </trkpt>
      <trkpt lat="47.30089" lon="-2.36231">
        <ele>35</ele>
        <time>2021-05-13T07:46:51.000Z</time>
      </trkpt>
      <trkpt lat="47.30094" lon="-2.36281">
        <ele>35</ele>
        <time>2021-05-13T07:46:57.000Z</time>
      </trkpt>
      <trkpt lat="47.30097" lon="-2.36324">
        <ele>35</ele>
        <time>2021-05-13T07:47:03.000Z</time>
      </trkpt>
      <trkpt lat="47.30101" lon="-2.36366">
        <ele>35</ele>
        <time>2021-05-13T07:47:09.000Z</time>
      </trkpt>
      <trkpt lat="47.30103" lon="-2.36389">
        <ele>35.400001525879</ele>
        <time>2021-05-13T07:47:12.000Z</time>
      </trkpt>
      <trkpt lat="47.30104" lon="-2.36396">
        <ele>36</ele>
        <time>2021-05-13T07:47:13.000Z</time>
      </trkpt>
      <trkpt lat="47.30105" lon="-2.36404">
        <ele>36.400001525879</ele>
        <time>2021-05-13T07:47:14.000Z</time>
      </trkpt>
      <trkpt lat="47.30105" lon="-2.36411">
        <ele>36.799999237061</ele>
        <time>2021-05-13T07:47:15.000Z</time>
      </trkpt>
      <trkpt lat="47.30106" lon="-2.36418">
        <ele>37.200000762939</ele>
        <time>2021-05-13T07:47:16.000Z</time>
      </trkpt>
      <trkpt lat="47.30107" lon="-2.36425">
        <ele>37.200000762939</ele>
        <time>2021-05-13T07:47:17.000Z</time>
      </trkpt>
      <trkpt lat="47.30115" lon="-2.36482">
        <ele>37.200000762939</ele>
        <time>2021-05-13T07:47:26.000Z</time>
      </trkpt>
      <trkpt lat="47.30123" lon="-2.36538">
        <ele>37.200000762939</ele>
        <time>2021-05-13T07:47:35.000Z</time>
      </trkpt>
      <trkpt lat="47.30129" lon="-2.36582">
        <ele>37.799999237061</ele>
        <time>2021-05-13T07:47:42.000Z</time>
      </trkpt>
      <trkpt lat="47.3013" lon="-2.36588">
        <ele>38.200000762939</ele>
        <time>2021-05-13T07:47:43.000Z</time>
      </trkpt>
      <trkpt lat="47.30131" lon="-2.36594">
        <ele>38.599998474121</ele>
        <time>2021-05-13T07:47:44.000Z</time>
      </trkpt>
      <trkpt lat="47.30132" lon="-2.366">
        <ele>39</ele>
        <time>2021-05-13T07:47:45.000Z</time>
      </trkpt>
      <trkpt lat="47.30133" lon="-2.36606">
        <ele>39.400001525879</ele>
        <time>2021-05-13T07:47:46.000Z</time>
      </trkpt>
      <trkpt lat="47.3014" lon="-2.36628">
        <ele>39.400001525879</ele>
        <time>2021-05-13T07:47:50.000Z</time>
      </trkpt>
      <trkpt lat="47.30152" lon="-2.36655">
        <ele>39.799999237061</ele>
        <time>2021-05-13T07:47:55.000Z</time>
      </trkpt>
      <trkpt lat="47.30155" lon="-2.36659">
        <ele>40.200000762939</ele>
        <time>2021-05-13T07:47:56.000Z</time>
      </trkpt>
      <trkpt lat="47.30157" lon="-2.36664">
        <ele>40.599998474121</ele>
        <time>2021-05-13T07:47:57.000Z</time>
      </trkpt>
      <trkpt lat="47.30159" lon="-2.36669">
        <ele>41.200000762939</ele>
        <time>2021-05-13T07:47:58.000Z</time>
      </trkpt>
      <trkpt lat="47.30162" lon="-2.36673">
        <ele>41.599998474121</ele>
        <time>2021-05-13T07:47:59.000Z</time>
      </trkpt>
      <trkpt lat="47.30171" lon="-2.36686">
        <ele>41.599998474121</ele>
        <time>2021-05-13T07:48:03.000Z</time>
      </trkpt>
      <trkpt lat="47.30177" lon="-2.36685">
        <ele>41.599998474121</ele>
        <time>2021-05-13T07:48:05.000Z</time>
      </trkpt>
      <trkpt lat="47.30181" lon="-2.36683">
        <ele>41.599998474121</ele>
        <time>2021-05-13T07:48:07.000Z</time>
      </trkpt>
      <trkpt lat="47.30186" lon="-2.3668">
        <ele>41.599998474121</ele>
        <time>2021-05-13T07:48:09.000Z</time>
      </trkpt>
      <trkpt lat="47.30197" lon="-2.36675">
        <ele>41.599998474121</ele>
        <time>2021-05-13T07:48:13.000Z</time>
      </trkpt>
      <trkpt lat="47.30219" lon="-2.36673">
        <ele>41.599998474121</ele>
        <time>2021-05-13T07:48:19.000Z</time>
      </trkpt>
      <trkpt lat="47.30246" lon="-2.36667">
        <ele>41.599998474121</ele>
        <time>2021-05-13T07:48:26.000Z</time>
      </trkpt>
      <trkpt lat="47.30275" lon="-2.36658">
        <ele>41.599998474121</ele>
        <time>2021-05-13T07:48:33.000Z</time>
      </trkpt>
      <trkpt lat="47.30302" lon="-2.36647">
        <ele>41.599998474121</ele>
        <time>2021-05-13T07:48:39.000Z</time>
      </trkpt>
      <trkpt lat="47.30306" lon="-2.36646">
        <ele>41.599998474121</ele>
        <time>2021-05-13T07:48:40.000Z</time>
      </trkpt>
      <trkpt lat="47.30321" lon="-2.36647">
        <ele>41.599998474121</ele>
        <time>2021-05-13T07:48:43.000Z</time>
      </trkpt>
      <trkpt lat="47.30327" lon="-2.36648">
        <ele>41.599998474121</ele>
        <time>2021-05-13T07:48:44.000Z</time>
      </trkpt>
      <trkpt lat="47.30331" lon="-2.36649">
        <ele>42</ele>
        <time>2021-05-13T07:48:45.000Z</time>
      </trkpt>
      <trkpt lat="47.30336" lon="-2.36651">
        <ele>42.400001525879</ele>
        <time>2021-05-13T07:48:46.000Z</time>
      </trkpt>
      <trkpt lat="47.3034" lon="-2.36652">
        <ele>42.799999237061</ele>
        <time>2021-05-13T07:48:47.000Z</time>
      </trkpt>
      <trkpt lat="47.30345" lon="-2.36654">
        <ele>43.400001525879</ele>
        <time>2021-05-13T07:48:48.000Z</time>
      </trkpt>
      <trkpt lat="47.3035" lon="-2.36655">
        <ele>43.799999237061</ele>
        <time>2021-05-13T07:48:49.000Z</time>
      </trkpt>
      <trkpt lat="47.30354" lon="-2.36655">
        <ele>43.799999237061</ele>
        <time>2021-05-13T07:48:50.000Z</time>
      </trkpt>
      <trkpt lat="47.30369" lon="-2.36656">
        <ele>43.799999237061</ele>
        <time>2021-05-13T07:48:53.000Z</time>
      </trkpt>
      <trkpt lat="47.30378" lon="-2.36657">
        <ele>43.799999237061</ele>
        <time>2021-05-13T07:48:55.000Z</time>
      </trkpt>
      <trkpt lat="47.30387" lon="-2.36657">
        <ele>43.799999237061</ele>
        <time>2021-05-13T07:48:57.000Z</time>
      </trkpt>
      <trkpt lat="47.304" lon="-2.36656">
        <ele>44.200000762939</ele>
        <time>2021-05-13T07:49:00.000Z</time>
      </trkpt>
      <trkpt lat="47.30404" lon="-2.36656">
        <ele>44.599998474121</ele>
        <time>2021-05-13T07:49:01.000Z</time>
      </trkpt>
      <trkpt lat="47.30408" lon="-2.36656">
        <ele>45</ele>
        <time>2021-05-13T07:49:02.000Z</time>
      </trkpt>
      <trkpt lat="47.30412" lon="-2.36655">
        <ele>45.400001525879</ele>
        <time>2021-05-13T07:49:03.000Z</time>
      </trkpt>
      <trkpt lat="47.30417" lon="-2.36655">
        <ele>45.799999237061</ele>
        <time>2021-05-13T07:49:04.000Z</time>
      </trkpt>
      <trkpt lat="47.30432" lon="-2.36646">
        <ele>45.799999237061</ele>
        <time>2021-05-13T07:49:08.000Z</time>
      </trkpt>
      <trkpt lat="47.30436" lon="-2.36643">
        <ele>45.799999237061</ele>
        <time>2021-05-13T07:49:09.000Z</time>
      </trkpt>
      <trkpt lat="47.30446" lon="-2.36632">
        <ele>45.799999237061</ele>
        <time>2021-05-13T07:49:12.000Z</time>
      </trkpt>
      <trkpt lat="47.30451" lon="-2.36628">
        <ele>45.799999237061</ele>
        <time>2021-05-13T07:49:13.000Z</time>
      </trkpt>
      <trkpt lat="47.30478" lon="-2.36609">
        <ele>45.799999237061</ele>
        <time>2021-05-13T07:49:20.000Z</time>
      </trkpt>
      <trkpt lat="47.30501" lon="-2.36602">
        <ele>45.799999237061</ele>
        <time>2021-05-13T07:49:27.000Z</time>
      </trkpt>
      <trkpt lat="47.30519" lon="-2.36595">
        <ele>45.799999237061</ele>
        <time>2021-05-13T07:49:32.000Z</time>
      </trkpt>
      <trkpt lat="47.30532" lon="-2.36588">
        <ele>45.799999237061</ele>
        <time>2021-05-13T07:49:35.000Z</time>
      </trkpt>
      <trkpt lat="47.30544" lon="-2.36577">
        <ele>45.799999237061</ele>
        <time>2021-05-13T07:49:38.000Z</time>
      </trkpt>
      <trkpt lat="47.30552" lon="-2.3657">
        <ele>45.799999237061</ele>
        <time>2021-05-13T07:49:40.000Z</time>
      </trkpt>
      <trkpt lat="47.30573" lon="-2.36555">
        <ele>45.799999237061</ele>
        <time>2021-05-13T07:49:45.000Z</time>
      </trkpt>
      <trkpt lat="47.3059" lon="-2.36549">
        <ele>45.799999237061</ele>
        <time>2021-05-13T07:49:49.000Z</time>
      </trkpt>
      <trkpt lat="47.30596" lon="-2.36548">
        <ele>45.799999237061</ele>
        <time>2021-05-13T07:49:50.000Z</time>
      </trkpt>
      <trkpt lat="47.30626" lon="-2.36541">
        <ele>45.799999237061</ele>
        <time>2021-05-13T07:49:56.000Z</time>
      </trkpt>
      <trkpt lat="47.30656" lon="-2.36525">
        <ele>45.799999237061</ele>
        <time>2021-05-13T07:50:02.000Z</time>
      </trkpt>
      <trkpt lat="47.30695" lon="-2.36511">
        <ele>45.799999237061</ele>
        <time>2021-05-13T07:50:10.000Z</time>
      </trkpt>
      <trkpt lat="47.30702" lon="-2.3652">
        <ele>45.799999237061</ele>
        <time>2021-05-13T07:50:13.000Z</time>
      </trkpt>
      <trkpt lat="47.30714" lon="-2.36509">
        <ele>45.799999237061</ele>
        <time>2021-05-13T07:50:16.000Z</time>
      </trkpt>
      <trkpt lat="47.30736" lon="-2.36496">
        <ele>45.799999237061</ele>
        <time>2021-05-13T07:50:20.000Z</time>
      </trkpt>
      <trkpt lat="47.30742" lon="-2.36493">
        <ele>45.799999237061</ele>
        <time>2021-05-13T07:50:21.000Z</time>
      </trkpt>
      <trkpt lat="47.30756" lon="-2.36488">
        <ele>45.400001525879</ele>
        <time>2021-05-13T07:50:23.000Z</time>
      </trkpt>
      <trkpt lat="47.30762" lon="-2.36487">
        <ele>44.799999237061</ele>
        <time>2021-05-13T07:50:24.000Z</time>
      </trkpt>
      <trkpt lat="47.30769" lon="-2.36485">
        <ele>44.400001525879</ele>
        <time>2021-05-13T07:50:25.000Z</time>
      </trkpt>
      <trkpt lat="47.30776" lon="-2.36483">
        <ele>44</ele>
        <time>2021-05-13T07:50:26.000Z</time>
      </trkpt>
      <trkpt lat="47.30783" lon="-2.3648">
        <ele>43.599998474121</ele>
        <time>2021-05-13T07:50:27.000Z</time>
      </trkpt>
      <trkpt lat="47.30789" lon="-2.36476">
        <ele>43.599998474121</ele>
        <time>2021-05-13T07:50:28.000Z</time>
      </trkpt>
      <trkpt lat="47.30802" lon="-2.3647">
        <ele>43.599998474121</ele>
        <time>2021-05-13T07:50:30.000Z</time>
      </trkpt>
      <trkpt lat="47.30809" lon="-2.36471">
        <ele>43.599998474121</ele>
        <time>2021-05-13T07:50:31.000Z</time>
      </trkpt>
      <trkpt lat="47.30825" lon="-2.36481">
        <ele>43.599998474121</ele>
        <time>2021-05-13T07:50:34.000Z</time>
      </trkpt>
      <trkpt lat="47.30829" lon="-2.36485">
        <ele>43.200000762939</ele>
        <time>2021-05-13T07:50:35.000Z</time>
      </trkpt>
      <trkpt lat="47.30834" lon="-2.36488">
        <ele>42.799999237061</ele>
        <time>2021-05-13T07:50:36.000Z</time>
      </trkpt>
      <trkpt lat="47.3084" lon="-2.36488">
        <ele>42.400001525879</ele>
        <time>2021-05-13T07:50:37.000Z</time>
      </trkpt>
      <trkpt lat="47.30844" lon="-2.36487">
        <ele>42</ele>
        <time>2021-05-13T07:50:38.000Z</time>
      </trkpt>
      <trkpt lat="47.30849" lon="-2.36487">
        <ele>41.400001525879</ele>
        <time>2021-05-13T07:50:39.000Z</time>
      </trkpt>
      <trkpt lat="47.30854" lon="-2.36485">
        <ele>41.400001525879</ele>
        <time>2021-05-13T07:50:40.000Z</time>
      </trkpt>
      <trkpt lat="47.30859" lon="-2.36483">
        <ele>41.400001525879</ele>
        <time>2021-05-13T07:50:41.000Z</time>
      </trkpt>
      <trkpt lat="47.30892" lon="-2.36475">
        <ele>41.400001525879</ele>
        <time>2021-05-13T07:50:47.000Z</time>
      </trkpt>
      <trkpt lat="47.30902" lon="-2.3647">
        <ele>41.400001525879</ele>
        <time>2021-05-13T07:50:49.000Z</time>
      </trkpt>
      <trkpt lat="47.30917" lon="-2.36464">
        <ele>41.400001525879</ele>
        <time>2021-05-13T07:50:52.000Z</time>
      </trkpt>
      <trkpt lat="47.30949" lon="-2.36456">
        <ele>41.400001525879</ele>
        <time>2021-05-13T07:50:58.000Z</time>
      </trkpt>
      <trkpt lat="47.30958" lon="-2.36452">
        <ele>41.400001525879</ele>
        <time>2021-05-13T07:51:00.000Z</time>
      </trkpt>
      <trkpt lat="47.30973" lon="-2.36445">
        <ele>41.400001525879</ele>
        <time>2021-05-13T07:51:03.000Z</time>
      </trkpt>
      <trkpt lat="47.3101" lon="-2.36426">
        <ele>41.400001525879</ele>
        <time>2021-05-13T07:51:10.000Z</time>
      </trkpt>
      <trkpt lat="47.31016" lon="-2.36424">
        <ele>41.400001525879</ele>
        <time>2021-05-13T07:51:11.000Z</time>
      </trkpt>
      <trkpt lat="47.31033" lon="-2.36422">
        <ele>41.400001525879</ele>
        <time>2021-05-13T07:51:14.000Z</time>
      </trkpt>
      <trkpt lat="47.31039" lon="-2.3642">
        <ele>41.400001525879</ele>
        <time>2021-05-13T07:51:15.000Z</time>
      </trkpt>
      <trkpt lat="47.31062" lon="-2.3642">
        <ele>41.400001525879</ele>
        <time>2021-05-13T07:51:19.000Z</time>
      </trkpt>
      <trkpt lat="47.31082" lon="-2.36417">
        <ele>41</ele>
        <time>2021-05-13T07:51:23.000Z</time>
      </trkpt>
      <trkpt lat="47.31086" lon="-2.36416">
        <ele>40.599998474121</ele>
        <time>2021-05-13T07:51:24.000Z</time>
      </trkpt>
      <trkpt lat="47.3109" lon="-2.36416">
        <ele>40.200000762939</ele>
        <time>2021-05-13T07:51:25.000Z</time>
      </trkpt>
      <trkpt lat="47.31093" lon="-2.36416">
        <ele>39.799999237061</ele>
        <time>2021-05-13T07:51:26.000Z</time>
      </trkpt>
      <trkpt lat="47.31098" lon="-2.36416">
        <ele>39.400001525879</ele>
        <time>2021-05-13T07:51:27.000Z</time>
      </trkpt>
      <trkpt lat="47.31107" lon="-2.36413">
        <ele>39.400001525879</ele>
        <time>2021-05-13T07:51:29.000Z</time>
      </trkpt>
      <trkpt lat="47.31131" lon="-2.36398">
        <ele>39.400001525879</ele>
        <time>2021-05-13T07:51:34.000Z</time>
      </trkpt>
      <trkpt lat="47.31153" lon="-2.36382">
        <ele>39.400001525879</ele>
        <time>2021-05-13T07:51:38.000Z</time>
      </trkpt>
      <trkpt lat="47.31163" lon="-2.36375">
        <ele>39.400001525879</ele>
        <time>2021-05-13T07:51:40.000Z</time>
      </trkpt>
      <trkpt lat="47.31185" lon="-2.36362">
        <ele>39.400001525879</ele>
        <time>2021-05-13T07:51:44.000Z</time>
      </trkpt>
      <trkpt lat="47.31197" lon="-2.36355">
        <ele>39.400001525879</ele>
        <time>2021-05-13T07:51:46.000Z</time>
      </trkpt>
      <trkpt lat="47.31228" lon="-2.36336">
        <ele>39.400001525879</ele>
        <time>2021-05-13T07:51:52.000Z</time>
      </trkpt>
      <trkpt lat="47.31252" lon="-2.36319">
        <ele>39.400001525879</ele>
        <time>2021-05-13T07:51:57.000Z</time>
      </trkpt>
      <trkpt lat="47.31257" lon="-2.36317">
        <ele>39.400001525879</ele>
        <time>2021-05-13T07:51:58.000Z</time>
      </trkpt>
      <trkpt lat="47.31288" lon="-2.36302">
        <ele>39.400001525879</ele>
        <time>2021-05-13T07:52:04.000Z</time>
      </trkpt>
      <trkpt lat="47.31298" lon="-2.36298">
        <ele>39.400001525879</ele>
        <time>2021-05-13T07:52:06.000Z</time>
      </trkpt>
      <trkpt lat="47.31308" lon="-2.36292">
        <ele>39.799999237061</ele>
        <time>2021-05-13T07:52:08.000Z</time>
      </trkpt>
      <trkpt lat="47.31312" lon="-2.36289">
        <ele>40.200000762939</ele>
        <time>2021-05-13T07:52:09.000Z</time>
      </trkpt>
      <trkpt lat="47.31317" lon="-2.36286">
        <ele>40.599998474121</ele>
        <time>2021-05-13T07:52:10.000Z</time>
      </trkpt>
      <trkpt lat="47.31321" lon="-2.36282">
        <ele>41</ele>
        <time>2021-05-13T07:52:11.000Z</time>
      </trkpt>
      <trkpt lat="47.31325" lon="-2.36278">
        <ele>41.400001525879</ele>
        <time>2021-05-13T07:52:12.000Z</time>
      </trkpt>
      <trkpt lat="47.31334" lon="-2.36269">
        <ele>41.400001525879</ele>
        <time>2021-05-13T07:52:14.000Z</time>
      </trkpt>
      <trkpt lat="47.31342" lon="-2.36261">
        <ele>41.400001525879</ele>
        <time>2021-05-13T07:52:16.000Z</time>
      </trkpt>
      <trkpt lat="47.31354" lon="-2.36249">
        <ele>41.400001525879</ele>
        <time>2021-05-13T07:52:19.000Z</time>
      </trkpt>
      <trkpt lat="47.31376" lon="-2.36233">
        <ele>41.400001525879</ele>
        <time>2021-05-13T07:52:24.000Z</time>
      </trkpt>
      <trkpt lat="47.31391" lon="-2.36226">
        <ele>41.400001525879</ele>
        <time>2021-05-13T07:52:27.000Z</time>
      </trkpt>
      <trkpt lat="47.314" lon="-2.3622">
        <ele>41.400001525879</ele>
        <time>2021-05-13T07:52:29.000Z</time>
      </trkpt>
      <trkpt lat="47.31425" lon="-2.36209">
        <ele>41.400001525879</ele>
        <time>2021-05-13T07:52:34.000Z</time>
      </trkpt>
      <trkpt lat="47.31429" lon="-2.36205">
        <ele>41.400001525879</ele>
        <time>2021-05-13T07:52:35.000Z</time>
      </trkpt>
      <trkpt lat="47.31443" lon="-2.36196">
        <ele>41.400001525879</ele>
        <time>2021-05-13T07:52:39.000Z</time>
      </trkpt>
      <trkpt lat="47.31456" lon="-2.36189">
        <ele>41.400001525879</ele>
        <time>2021-05-13T07:52:44.000Z</time>
      </trkpt>
      <trkpt lat="47.31458" lon="-2.36189">
        <ele>41.400001525879</ele>
        <time>2021-05-13T07:52:45.000Z</time>
      </trkpt>
      <trkpt lat="47.31464" lon="-2.36198">
        <ele>41.400001525879</ele>
        <time>2021-05-13T07:52:48.000Z</time>
      </trkpt>
      <trkpt lat="47.31466" lon="-2.36204">
        <ele>41.400001525879</ele>
        <time>2021-05-13T07:52:50.000Z</time>
      </trkpt>
      <trkpt lat="47.31471" lon="-2.36222">
        <ele>41.400001525879</ele>
        <time>2021-05-13T07:52:54.000Z</time>
      </trkpt>
      <trkpt lat="47.31478" lon="-2.36258">
        <ele>41.400001525879</ele>
        <time>2021-05-13T07:53:00.000Z</time>
      </trkpt>
      <trkpt lat="47.3148" lon="-2.36263">
        <ele>41</ele>
        <time>2021-05-13T07:53:01.000Z</time>
      </trkpt>
      <trkpt lat="47.3148" lon="-2.36269">
        <ele>40.599998474121</ele>
        <time>2021-05-13T07:53:02.000Z</time>
      </trkpt>
      <trkpt lat="47.31482" lon="-2.36275">
        <ele>40.200000762939</ele>
        <time>2021-05-13T07:53:03.000Z</time>
      </trkpt>
      <trkpt lat="47.31483" lon="-2.36281">
        <ele>39.799999237061</ele>
        <time>2021-05-13T07:53:04.000Z</time>
      </trkpt>
      <trkpt lat="47.31485" lon="-2.36287">
        <ele>39.400001525879</ele>
        <time>2021-05-13T07:53:05.000Z</time>
      </trkpt>
      <trkpt lat="47.31492" lon="-2.36331">
        <ele>39.400001525879</ele>
        <time>2021-05-13T07:53:12.000Z</time>
      </trkpt>
      <trkpt lat="47.31492" lon="-2.36351">
        <ele>38.799999237061</ele>
        <time>2021-05-13T07:53:16.000Z</time>
      </trkpt>
      <trkpt lat="47.31492" lon="-2.36356">
        <ele>38.400001525879</ele>
        <time>2021-05-13T07:53:17.000Z</time>
      </trkpt>
      <trkpt lat="47.31492" lon="-2.36362">
        <ele>38</ele>
        <time>2021-05-13T07:53:18.000Z</time>
      </trkpt>
      <trkpt lat="47.31493" lon="-2.36368">
        <ele>37.599998474121</ele>
        <time>2021-05-13T07:53:19.000Z</time>
      </trkpt>
      <trkpt lat="47.31493" lon="-2.36374">
        <ele>37.200000762939</ele>
        <time>2021-05-13T07:53:20.000Z</time>
      </trkpt>
      <trkpt lat="47.31495" lon="-2.36396">
        <ele>37.200000762939</ele>
        <time>2021-05-13T07:53:24.000Z</time>
      </trkpt>
      <trkpt lat="47.31497" lon="-2.36417">
        <ele>36.799999237061</ele>
        <time>2021-05-13T07:53:28.000Z</time>
      </trkpt>
      <trkpt lat="47.31496" lon="-2.36422">
        <ele>36.400001525879</ele>
        <time>2021-05-13T07:53:29.000Z</time>
      </trkpt>
      <trkpt lat="47.31496" lon="-2.36427">
        <ele>36</ele>
        <time>2021-05-13T07:53:30.000Z</time>
      </trkpt>
      <trkpt lat="47.31496" lon="-2.36433">
        <ele>35.599998474121</ele>
        <time>2021-05-13T07:53:31.000Z</time>
      </trkpt>
      <trkpt lat="47.31496" lon="-2.3644">
        <ele>35.200000762939</ele>
        <time>2021-05-13T07:53:32.000Z</time>
      </trkpt>
      <trkpt lat="47.31496" lon="-2.36456">
        <ele>35.200000762939</ele>
        <time>2021-05-13T07:53:35.000Z</time>
      </trkpt>
      <trkpt lat="47.31498" lon="-2.3649">
        <ele>35.200000762939</ele>
        <time>2021-05-13T07:53:41.000Z</time>
      </trkpt>
      <trkpt lat="47.31502" lon="-2.36519">
        <ele>34.799999237061</ele>
        <time>2021-05-13T07:53:47.000Z</time>
      </trkpt>
      <trkpt lat="47.31502" lon="-2.36525">
        <ele>34.400001525879</ele>
        <time>2021-05-13T07:53:48.000Z</time>
      </trkpt>
      <trkpt lat="47.31502" lon="-2.3653">
        <ele>34</ele>
        <time>2021-05-13T07:53:49.000Z</time>
      </trkpt>
      <trkpt lat="47.31501" lon="-2.36533">
        <ele>33.599998474121</ele>
        <time>2021-05-13T07:53:50.000Z</time>
      </trkpt>
      <trkpt lat="47.31501" lon="-2.36536">
        <ele>33.200000762939</ele>
        <time>2021-05-13T07:53:51.000Z</time>
      </trkpt>
      <trkpt lat="47.31503" lon="-2.36558">
        <ele>33.200000762939</ele>
        <time>2021-05-13T07:53:56.000Z</time>
      </trkpt>
      <trkpt lat="47.31504" lon="-2.36569">
        <ele>33.200000762939</ele>
        <time>2021-05-13T07:53:58.000Z</time>
      </trkpt>
      <trkpt lat="47.31502" lon="-2.36577">
        <ele>33.200000762939</ele>
        <time>2021-05-13T07:54:00.000Z</time>
      </trkpt>
      <trkpt lat="47.315" lon="-2.36598">
        <ele>33.200000762939</ele>
        <time>2021-05-13T07:54:04.000Z</time>
      </trkpt>
      <trkpt lat="47.315" lon="-2.36604">
        <ele>33.200000762939</ele>
        <time>2021-05-13T07:54:05.000Z</time>
      </trkpt>
      <trkpt lat="47.31509" lon="-2.36632">
        <ele>33.200000762939</ele>
        <time>2021-05-13T07:54:10.000Z</time>
      </trkpt>
      <trkpt lat="47.31513" lon="-2.36644">
        <ele>33.200000762939</ele>
        <time>2021-05-13T07:54:12.000Z</time>
      </trkpt>
      <trkpt lat="47.31517" lon="-2.3667">
        <ele>33.200000762939</ele>
        <time>2021-05-13T07:54:16.000Z</time>
      </trkpt>
      <trkpt lat="47.31523" lon="-2.36695">
        <ele>33.200000762939</ele>
        <time>2021-05-13T07:54:20.000Z</time>
      </trkpt>
      <trkpt lat="47.31524" lon="-2.36701">
        <ele>33.200000762939</ele>
        <time>2021-05-13T07:54:21.000Z</time>
      </trkpt>
      <trkpt lat="47.31528" lon="-2.36718">
        <ele>33.200000762939</ele>
        <time>2021-05-13T07:54:24.000Z</time>
      </trkpt>
      <trkpt lat="47.3153" lon="-2.36724">
        <ele>33.200000762939</ele>
        <time>2021-05-13T07:54:25.000Z</time>
      </trkpt>
      <trkpt lat="47.31537" lon="-2.3675">
        <ele>33.599998474121</ele>
        <time>2021-05-13T07:54:30.000Z</time>
      </trkpt>
      <trkpt lat="47.31537" lon="-2.36755">
        <ele>34.400001525879</ele>
        <time>2021-05-13T07:54:31.000Z</time>
      </trkpt>
      <trkpt lat="47.31538" lon="-2.3676">
        <ele>34.799999237061</ele>
        <time>2021-05-13T07:54:32.000Z</time>
      </trkpt>
      <trkpt lat="47.3154" lon="-2.36765">
        <ele>35.200000762939</ele>
        <time>2021-05-13T07:54:33.000Z</time>
      </trkpt>
      <trkpt lat="47.31545" lon="-2.36788">
        <ele>35.200000762939</ele>
        <time>2021-05-13T07:54:37.000Z</time>
      </trkpt>
      <trkpt lat="47.31551" lon="-2.36816">
        <ele>35.599998474121</ele>
        <time>2021-05-13T07:54:43.000Z</time>
      </trkpt>
      <trkpt lat="47.31553" lon="-2.36821">
        <ele>36</ele>
        <time>2021-05-13T07:54:44.000Z</time>
      </trkpt>
      <trkpt lat="47.31553" lon="-2.36827">
        <ele>36.599998474121</ele>
        <time>2021-05-13T07:54:45.000Z</time>
      </trkpt>
      <trkpt lat="47.31555" lon="-2.36832">
        <ele>37</ele>
        <time>2021-05-13T07:54:46.000Z</time>
      </trkpt>
      <trkpt lat="47.31556" lon="-2.36837">
        <ele>37.400001525879</ele>
        <time>2021-05-13T07:54:47.000Z</time>
      </trkpt>
      <trkpt lat="47.31559" lon="-2.36849">
        <ele>37.400001525879</ele>
        <time>2021-05-13T07:54:49.000Z</time>
      </trkpt>
      <trkpt lat="47.31567" lon="-2.36872">
        <ele>37.799999237061</ele>
        <time>2021-05-13T07:54:53.000Z</time>
      </trkpt>
      <trkpt lat="47.31568" lon="-2.36878">
        <ele>38.200000762939</ele>
        <time>2021-05-13T07:54:54.000Z</time>
      </trkpt>
      <trkpt lat="47.3157" lon="-2.36884">
        <ele>38.599998474121</ele>
        <time>2021-05-13T07:54:55.000Z</time>
      </trkpt>
      <trkpt lat="47.31571" lon="-2.36889">
        <ele>39.400001525879</ele>
        <time>2021-05-13T07:54:56.000Z</time>
      </trkpt>
      <trkpt lat="47.3158" lon="-2.36917">
        <ele>39.799999237061</ele>
        <time>2021-05-13T07:55:01.000Z</time>
      </trkpt>
      <trkpt lat="47.31582" lon="-2.36922">
        <ele>40.200000762939</ele>
        <time>2021-05-13T07:55:02.000Z</time>
      </trkpt>
      <trkpt lat="47.31583" lon="-2.36928">
        <ele>40.799999237061</ele>
        <time>2021-05-13T07:55:03.000Z</time>
      </trkpt>
      <trkpt lat="47.31585" lon="-2.36933">
        <ele>41.200000762939</ele>
        <time>2021-05-13T07:55:04.000Z</time>
      </trkpt>
      <trkpt lat="47.31587" lon="-2.36939">
        <ele>41.599998474121</ele>
        <time>2021-05-13T07:55:05.000Z</time>
      </trkpt>
      <trkpt lat="47.31592" lon="-2.36951">
        <ele>41.599998474121</ele>
        <time>2021-05-13T07:55:07.000Z</time>
      </trkpt>
      <trkpt lat="47.31596" lon="-2.36969">
        <ele>41.599998474121</ele>
        <time>2021-05-13T07:55:10.000Z</time>
      </trkpt>
      <trkpt lat="47.31608" lon="-2.37003">
        <ele>42</ele>
        <time>2021-05-13T07:55:16.000Z</time>
      </trkpt>
      <trkpt lat="47.3161" lon="-2.37009">
        <ele>42.400001525879</ele>
        <time>2021-05-13T07:55:17.000Z</time>
      </trkpt>
      <trkpt lat="47.31611" lon="-2.37015">
        <ele>42.799999237061</ele>
        <time>2021-05-13T07:55:18.000Z</time>
      </trkpt>
      <trkpt lat="47.31613" lon="-2.3702">
        <ele>43.200000762939</ele>
        <time>2021-05-13T07:55:19.000Z</time>
      </trkpt>
      <trkpt lat="47.31615" lon="-2.37027">
        <ele>43.599998474121</ele>
        <time>2021-05-13T07:55:20.000Z</time>
      </trkpt>
      <trkpt lat="47.31624" lon="-2.3705">
        <ele>43.599998474121</ele>
        <time>2021-05-13T07:55:24.000Z</time>
      </trkpt>
      <trkpt lat="47.31627" lon="-2.37055">
        <ele>43.599998474121</ele>
        <time>2021-05-13T07:55:25.000Z</time>
      </trkpt>
      <trkpt lat="47.31632" lon="-2.37066">
        <ele>44.200000762939</ele>
        <time>2021-05-13T07:55:27.000Z</time>
      </trkpt>
      <trkpt lat="47.31635" lon="-2.37071">
        <ele>44.599998474121</ele>
        <time>2021-05-13T07:55:28.000Z</time>
      </trkpt>
      <trkpt lat="47.31637" lon="-2.37076">
        <ele>45</ele>
        <time>2021-05-13T07:55:29.000Z</time>
      </trkpt>
      <trkpt lat="47.3164" lon="-2.37082">
        <ele>45.400001525879</ele>
        <time>2021-05-13T07:55:30.000Z</time>
      </trkpt>
      <trkpt lat="47.31643" lon="-2.37087">
        <ele>45.799999237061</ele>
        <time>2021-05-13T07:55:31.000Z</time>
      </trkpt>
      <trkpt lat="47.31652" lon="-2.37103">
        <ele>45.799999237061</ele>
        <time>2021-05-13T07:55:34.000Z</time>
      </trkpt>
      <trkpt lat="47.31667" lon="-2.37134">
        <ele>45.799999237061</ele>
        <time>2021-05-13T07:55:39.000Z</time>
      </trkpt>
      <trkpt lat="47.31671" lon="-2.37139">
        <ele>45.799999237061</ele>
        <time>2021-05-13T07:55:40.000Z</time>
      </trkpt>
      <trkpt lat="47.31689" lon="-2.37182">
        <ele>45.799999237061</ele>
        <time>2021-05-13T07:55:47.000Z</time>
      </trkpt>
      <trkpt lat="47.31692" lon="-2.37211">
        <ele>45.799999237061</ele>
        <time>2021-05-13T07:55:51.000Z</time>
      </trkpt>
      <trkpt lat="47.3169" lon="-2.37219">
        <ele>45.799999237061</ele>
        <time>2021-05-13T07:55:52.000Z</time>
      </trkpt>
      <trkpt lat="47.31679" lon="-2.37239">
        <ele>45.799999237061</ele>
        <time>2021-05-13T07:55:55.000Z</time>
      </trkpt>
      <trkpt lat="47.31675" lon="-2.37244">
        <ele>45.799999237061</ele>
        <time>2021-05-13T07:55:56.000Z</time>
      </trkpt>
      <trkpt lat="47.31645" lon="-2.3727">
        <ele>45.799999237061</ele>
        <time>2021-05-13T07:56:02.000Z</time>
      </trkpt>
      <trkpt lat="47.3163" lon="-2.37287">
        <ele>45.799999237061</ele>
        <time>2021-05-13T07:56:05.000Z</time>
      </trkpt>
      <trkpt lat="47.31624" lon="-2.37304">
        <ele>45.799999237061</ele>
        <time>2021-05-13T07:56:07.000Z</time>
      </trkpt>
      <trkpt lat="47.31623" lon="-2.3734">
        <ele>45.799999237061</ele>
        <time>2021-05-13T07:56:11.000Z</time>
      </trkpt>
      <trkpt lat="47.31629" lon="-2.37364">
        <ele>45.799999237061</ele>
        <time>2021-05-13T07:56:14.000Z</time>
      </trkpt>
      <trkpt lat="47.31631" lon="-2.37372">
        <ele>45.799999237061</ele>
        <time>2021-05-13T07:56:15.000Z</time>
      </trkpt>
      <trkpt lat="47.31638" lon="-2.37434">
        <ele>45.799999237061</ele>
        <time>2021-05-13T07:56:22.000Z</time>
      </trkpt>
      <trkpt lat="47.31639" lon="-2.37496">
        <ele>45.799999237061</ele>
        <time>2021-05-13T07:56:29.000Z</time>
      </trkpt>
      <trkpt lat="47.31627" lon="-2.37535">
        <ele>45.799999237061</ele>
        <time>2021-05-13T07:56:34.000Z</time>
      </trkpt>
      <trkpt lat="47.31618" lon="-2.37568">
        <ele>45.799999237061</ele>
        <time>2021-05-13T07:56:38.000Z</time>
      </trkpt>
      <trkpt lat="47.31616" lon="-2.37585">
        <ele>45.799999237061</ele>
        <time>2021-05-13T07:56:40.000Z</time>
      </trkpt>
      <trkpt lat="47.31615" lon="-2.37602">
        <ele>45.799999237061</ele>
        <time>2021-05-13T07:56:42.000Z</time>
      </trkpt>
      <trkpt lat="47.31616" lon="-2.37626">
        <ele>45.799999237061</ele>
        <time>2021-05-13T07:56:45.000Z</time>
      </trkpt>
      <trkpt lat="47.31617" lon="-2.37633">
        <ele>45.799999237061</ele>
        <time>2021-05-13T07:56:46.000Z</time>
      </trkpt>
      <trkpt lat="47.31622" lon="-2.37646">
        <ele>45.799999237061</ele>
        <time>2021-05-13T07:56:48.000Z</time>
      </trkpt>
      <trkpt lat="47.31631" lon="-2.37656">
        <ele>45.799999237061</ele>
        <time>2021-05-13T07:56:50.000Z</time>
      </trkpt>
      <trkpt lat="47.31637" lon="-2.37658">
        <ele>45.200000762939</ele>
        <time>2021-05-13T07:56:51.000Z</time>
      </trkpt>
      <trkpt lat="47.31643" lon="-2.3766">
        <ele>44.799999237061</ele>
        <time>2021-05-13T07:56:52.000Z</time>
      </trkpt>
      <trkpt lat="47.31649" lon="-2.37663">
        <ele>44.200000762939</ele>
        <time>2021-05-13T07:56:53.000Z</time>
      </trkpt>
      <trkpt lat="47.31654" lon="-2.37667">
        <ele>43.799999237061</ele>
        <time>2021-05-13T07:56:54.000Z</time>
      </trkpt>
      <trkpt lat="47.31659" lon="-2.37671">
        <ele>43.200000762939</ele>
        <time>2021-05-13T07:56:55.000Z</time>
      </trkpt>
      <trkpt lat="47.31672" lon="-2.37687">
        <ele>43.200000762939</ele>
        <time>2021-05-13T07:56:58.000Z</time>
      </trkpt>
      <trkpt lat="47.31676" lon="-2.37692">
        <ele>43.200000762939</ele>
        <time>2021-05-13T07:56:59.000Z</time>
      </trkpt>
      <trkpt lat="47.317" lon="-2.37712">
        <ele>43.200000762939</ele>
        <time>2021-05-13T07:57:04.000Z</time>
      </trkpt>
      <trkpt lat="47.31707" lon="-2.37715">
        <ele>43.200000762939</ele>
        <time>2021-05-13T07:57:05.000Z</time>
      </trkpt>
      <trkpt lat="47.31729" lon="-2.37712">
        <ele>43.200000762939</ele>
        <time>2021-05-13T07:57:09.000Z</time>
      </trkpt>
      <trkpt lat="47.31735" lon="-2.37711">
        <ele>43.200000762939</ele>
        <time>2021-05-13T07:57:10.000Z</time>
      </trkpt>
      <trkpt lat="47.31747" lon="-2.37704">
        <ele>43.200000762939</ele>
        <time>2021-05-13T07:57:12.000Z</time>
      </trkpt>
      <trkpt lat="47.31759" lon="-2.37696">
        <ele>43.200000762939</ele>
        <time>2021-05-13T07:57:14.000Z</time>
      </trkpt>
      <trkpt lat="47.31769" lon="-2.37686">
        <ele>43.200000762939</ele>
        <time>2021-05-13T07:57:16.000Z</time>
      </trkpt>
      <trkpt lat="47.31783" lon="-2.37671">
        <ele>43.200000762939</ele>
        <time>2021-05-13T07:57:19.000Z</time>
      </trkpt>
      <trkpt lat="47.31812" lon="-2.37652">
        <ele>43.200000762939</ele>
        <time>2021-05-13T07:57:25.000Z</time>
      </trkpt>
      <trkpt lat="47.31826" lon="-2.3766">
        <ele>43.200000762939</ele>
        <time>2021-05-13T07:57:28.000Z</time>
      </trkpt>
      <trkpt lat="47.31827" lon="-2.37677">
        <ele>43.200000762939</ele>
        <time>2021-05-13T07:57:31.000Z</time>
      </trkpt>
      <trkpt lat="47.31821" lon="-2.377">
        <ele>43.200000762939</ele>
        <time>2021-05-13T07:57:35.000Z</time>
      </trkpt>
      <trkpt lat="47.3182" lon="-2.37706">
        <ele>43.200000762939</ele>
        <time>2021-05-13T07:57:36.000Z</time>
      </trkpt>
      <trkpt lat="47.31819" lon="-2.37712">
        <ele>43.200000762939</ele>
        <time>2021-05-13T07:57:37.000Z</time>
      </trkpt>
      <trkpt lat="47.31815" lon="-2.37752">
        <ele>43.200000762939</ele>
        <time>2021-05-13T07:57:43.000Z</time>
      </trkpt>
      <trkpt lat="47.31811" lon="-2.37802">
        <ele>43.200000762939</ele>
        <time>2021-05-13T07:57:51.000Z</time>
      </trkpt>
      <trkpt lat="47.31807" lon="-2.37841">
        <ele>42.799999237061</ele>
        <time>2021-05-13T07:57:58.000Z</time>
      </trkpt>
      <trkpt lat="47.31807" lon="-2.37847">
        <ele>42.400001525879</ele>
        <time>2021-05-13T07:57:59.000Z</time>
      </trkpt>
      <trkpt lat="47.31806" lon="-2.37852">
        <ele>42</ele>
        <time>2021-05-13T07:58:00.000Z</time>
      </trkpt>
      <trkpt lat="47.31806" lon="-2.37858">
        <ele>41.599998474121</ele>
        <time>2021-05-13T07:58:01.000Z</time>
      </trkpt>
      <trkpt lat="47.31806" lon="-2.37862">
        <ele>41.200000762939</ele>
        <time>2021-05-13T07:58:02.000Z</time>
      </trkpt>
      <trkpt lat="47.31804" lon="-2.3788">
        <ele>41.200000762939</ele>
        <time>2021-05-13T07:58:06.000Z</time>
      </trkpt>
      <trkpt lat="47.31803" lon="-2.37891">
        <ele>41.200000762939</ele>
        <time>2021-05-13T07:58:11.000Z</time>
      </trkpt>
      <trkpt lat="47.31803" lon="-2.3789">
        <ele>40.799999237061</ele>
        <time>2021-05-13T07:58:12.000Z</time>
      </trkpt>
      <trkpt lat="47.31803" lon="-2.3789">
        <ele>39</ele>
        <time>2021-05-13T07:58:16.000Z</time>
      </trkpt>
      <trkpt lat="47.31801" lon="-2.37897">
        <ele>39</ele>
        <time>2021-05-13T07:58:18.000Z</time>
      </trkpt>
      <trkpt lat="47.318" lon="-2.37905">
        <ele>39</ele>
        <time>2021-05-13T07:58:20.000Z</time>
      </trkpt>
      <trkpt lat="47.318" lon="-2.37916">
        <ele>39</ele>
        <time>2021-05-13T07:58:22.000Z</time>
      </trkpt>
      <trkpt lat="47.31797" lon="-2.3796">
        <ele>39</ele>
        <time>2021-05-13T07:58:28.000Z</time>
      </trkpt>
      <trkpt lat="47.31798" lon="-2.38016">
        <ele>39</ele>
        <time>2021-05-13T07:58:35.000Z</time>
      </trkpt>
      <trkpt lat="47.31799" lon="-2.38032">
        <ele>39</ele>
        <time>2021-05-13T07:58:37.000Z</time>
      </trkpt>
      <trkpt lat="47.31801" lon="-2.38056">
        <ele>39</ele>
        <time>2021-05-13T07:58:40.000Z</time>
      </trkpt>
      <trkpt lat="47.31803" lon="-2.38078">
        <ele>39</ele>
        <time>2021-05-13T07:58:43.000Z</time>
      </trkpt>
      <trkpt lat="47.31803" lon="-2.38093">
        <ele>39</ele>
        <time>2021-05-13T07:58:45.000Z</time>
      </trkpt>
      <trkpt lat="47.31806" lon="-2.38161">
        <ele>39</ele>
        <time>2021-05-13T07:58:54.000Z</time>
      </trkpt>
      <trkpt lat="47.31808" lon="-2.38219">
        <ele>39</ele>
        <time>2021-05-13T07:59:02.000Z</time>
      </trkpt>
      <trkpt lat="47.31809" lon="-2.38253">
        <ele>39</ele>
        <time>2021-05-13T07:59:07.000Z</time>
      </trkpt>
      <trkpt lat="47.3181" lon="-2.38274">
        <ele>39</ele>
        <time>2021-05-13T07:59:10.000Z</time>
      </trkpt>
      <trkpt lat="47.31811" lon="-2.38295">
        <ele>39.400001525879</ele>
        <time>2021-05-13T07:59:13.000Z</time>
      </trkpt>
      <trkpt lat="47.31811" lon="-2.38302">
        <ele>39.799999237061</ele>
        <time>2021-05-13T07:59:14.000Z</time>
      </trkpt>
      <trkpt lat="47.31811" lon="-2.38309">
        <ele>40.200000762939</ele>
        <time>2021-05-13T07:59:15.000Z</time>
      </trkpt>
      <trkpt lat="47.31811" lon="-2.38316">
        <ele>40.599998474121</ele>
        <time>2021-05-13T07:59:16.000Z</time>
      </trkpt>
      <trkpt lat="47.31812" lon="-2.38322">
        <ele>41</ele>
        <time>2021-05-13T07:59:17.000Z</time>
      </trkpt>
      <trkpt lat="47.31811" lon="-2.38363">
        <ele>41.400001525879</ele>
        <time>2021-05-13T07:59:23.000Z</time>
      </trkpt>
      <trkpt lat="47.31811" lon="-2.3837">
        <ele>41.799999237061</ele>
        <time>2021-05-13T07:59:24.000Z</time>
      </trkpt>
      <trkpt lat="47.31811" lon="-2.38377">
        <ele>42.400001525879</ele>
        <time>2021-05-13T07:59:25.000Z</time>
      </trkpt>
      <trkpt lat="47.3181" lon="-2.38384">
        <ele>42.799999237061</ele>
        <time>2021-05-13T07:59:26.000Z</time>
      </trkpt>
      <trkpt lat="47.3181" lon="-2.38391">
        <ele>43.200000762939</ele>
        <time>2021-05-13T07:59:27.000Z</time>
      </trkpt>
      <trkpt lat="47.31812" lon="-2.38435">
        <ele>43.200000762939</ele>
        <time>2021-05-13T07:59:33.000Z</time>
      </trkpt>
      <trkpt lat="47.31811" lon="-2.38493">
        <ele>43.200000762939</ele>
        <time>2021-05-13T07:59:41.000Z</time>
      </trkpt>
      <trkpt lat="47.31811" lon="-2.385">
        <ele>43.599998474121</ele>
        <time>2021-05-13T07:59:42.000Z</time>
      </trkpt>
      <trkpt lat="47.31811" lon="-2.38507">
        <ele>44</ele>
        <time>2021-05-13T07:59:43.000Z</time>
      </trkpt>
      <trkpt lat="47.31811" lon="-2.38513">
        <ele>44.400001525879</ele>
        <time>2021-05-13T07:59:44.000Z</time>
      </trkpt>
      <trkpt lat="47.3181" lon="-2.38519">
        <ele>45</ele>
        <time>2021-05-13T07:59:45.000Z</time>
      </trkpt>
      <trkpt lat="47.31809" lon="-2.38525">
        <ele>45.400001525879</ele>
        <time>2021-05-13T07:59:46.000Z</time>
      </trkpt>
      <trkpt lat="47.31806" lon="-2.38531">
        <ele>45.400001525879</ele>
        <time>2021-05-13T07:59:47.000Z</time>
      </trkpt>
      <trkpt lat="47.31791" lon="-2.38546">
        <ele>45.400001525879</ele>
        <time>2021-05-13T07:59:51.000Z</time>
      </trkpt>
      <trkpt lat="47.31787" lon="-2.38548">
        <ele>45.400001525879</ele>
        <time>2021-05-13T07:59:52.000Z</time>
      </trkpt>
      <trkpt lat="47.31755" lon="-2.38566">
        <ele>45.400001525879</ele>
        <time>2021-05-13T07:59:59.000Z</time>
      </trkpt>
      <trkpt lat="47.3175" lon="-2.38569">
        <ele>45.400001525879</ele>
        <time>2021-05-13T08:00:00.000Z</time>
      </trkpt>
      <trkpt lat="47.31726" lon="-2.38581">
        <ele>45.400001525879</ele>
        <time>2021-05-13T08:00:05.000Z</time>
      </trkpt>
      <trkpt lat="47.31697" lon="-2.38597">
        <ele>45.400001525879</ele>
        <time>2021-05-13T08:00:11.000Z</time>
      </trkpt>
      <trkpt lat="47.31662" lon="-2.3862">
        <ele>45.400001525879</ele>
        <time>2021-05-13T08:00:18.000Z</time>
      </trkpt>
      <trkpt lat="47.31653" lon="-2.38629">
        <ele>45.400001525879</ele>
        <time>2021-05-13T08:00:20.000Z</time>
      </trkpt>
      <trkpt lat="47.31636" lon="-2.3865">
        <ele>45.400001525879</ele>
        <time>2021-05-13T08:00:24.000Z</time>
      </trkpt>
      <trkpt lat="47.31629" lon="-2.38662">
        <ele>45.400001525879</ele>
        <time>2021-05-13T08:00:26.000Z</time>
      </trkpt>
      <trkpt lat="47.31617" lon="-2.3868">
        <ele>45.400001525879</ele>
        <time>2021-05-13T08:00:29.000Z</time>
      </trkpt>
      <trkpt lat="47.31604" lon="-2.38698">
        <ele>45.400001525879</ele>
        <time>2021-05-13T08:00:32.000Z</time>
      </trkpt>
      <trkpt lat="47.31566" lon="-2.38755">
        <ele>45.400001525879</ele>
        <time>2021-05-13T08:00:41.000Z</time>
      </trkpt>
      <trkpt lat="47.31549" lon="-2.3878">
        <ele>45.400001525879</ele>
        <time>2021-05-13T08:00:45.000Z</time>
      </trkpt>
      <trkpt lat="47.31542" lon="-2.38792">
        <ele>45.400001525879</ele>
        <time>2021-05-13T08:00:47.000Z</time>
      </trkpt>
      <trkpt lat="47.31521" lon="-2.3883">
        <ele>45.400001525879</ele>
        <time>2021-05-13T08:00:53.000Z</time>
      </trkpt>
      <trkpt lat="47.31514" lon="-2.38844">
        <ele>45.400001525879</ele>
        <time>2021-05-13T08:00:55.000Z</time>
      </trkpt>
      <trkpt lat="47.31505" lon="-2.38864">
        <ele>45.400001525879</ele>
        <time>2021-05-13T08:00:58.000Z</time>
      </trkpt>
      <trkpt lat="47.31471" lon="-2.38928">
        <ele>45.400001525879</ele>
        <time>2021-05-13T08:01:07.000Z</time>
      </trkpt>
      <trkpt lat="47.31447" lon="-2.38976">
        <ele>45.799999237061</ele>
        <time>2021-05-13T08:01:14.000Z</time>
      </trkpt>
      <trkpt lat="47.31444" lon="-2.38983">
        <ele>46.200000762939</ele>
        <time>2021-05-13T08:01:15.000Z</time>
      </trkpt>
      <trkpt lat="47.31441" lon="-2.38989">
        <ele>46.599998474121</ele>
        <time>2021-05-13T08:01:16.000Z</time>
      </trkpt>
      <trkpt lat="47.31438" lon="-2.38996">
        <ele>47</ele>
        <time>2021-05-13T08:01:17.000Z</time>
      </trkpt>
      <trkpt lat="47.31435" lon="-2.39003">
        <ele>47.400001525879</ele>
        <time>2021-05-13T08:01:18.000Z</time>
      </trkpt>
      <trkpt lat="47.31419" lon="-2.39045">
        <ele>47.799999237061</ele>
        <time>2021-05-13T08:01:24.000Z</time>
      </trkpt>
      <trkpt lat="47.31415" lon="-2.39051">
        <ele>48.200000762939</ele>
        <time>2021-05-13T08:01:25.000Z</time>
      </trkpt>
      <trkpt lat="47.31411" lon="-2.39057">
        <ele>48.799999237061</ele>
        <time>2021-05-13T08:01:26.000Z</time>
      </trkpt>
      <trkpt lat="47.31407" lon="-2.39063">
        <ele>49.200000762939</ele>
        <time>2021-05-13T08:01:27.000Z</time>
      </trkpt>
      <trkpt lat="47.31404" lon="-2.39069">
        <ele>49.599998474121</ele>
        <time>2021-05-13T08:01:28.000Z</time>
      </trkpt>
      <trkpt lat="47.31396" lon="-2.39081">
        <ele>49.599998474121</ele>
        <time>2021-05-13T08:01:30.000Z</time>
      </trkpt>
      <trkpt lat="47.31369" lon="-2.39113">
        <ele>49.599998474121</ele>
        <time>2021-05-13T08:01:37.000Z</time>
      </trkpt>
      <trkpt lat="47.31356" lon="-2.39126">
        <ele>50</ele>
        <time>2021-05-13T08:01:40.000Z</time>
      </trkpt>
      <trkpt lat="47.31351" lon="-2.39131">
        <ele>50.400001525879</ele>
        <time>2021-05-13T08:01:41.000Z</time>
      </trkpt>
      <trkpt lat="47.31346" lon="-2.39136">
        <ele>50.799999237061</ele>
        <time>2021-05-13T08:01:42.000Z</time>
      </trkpt>
      <trkpt lat="47.31342" lon="-2.39141">
        <ele>51.200000762939</ele>
        <time>2021-05-13T08:01:43.000Z</time>
      </trkpt>
      <trkpt lat="47.31337" lon="-2.39147">
        <ele>51.599998474121</ele>
        <time>2021-05-13T08:01:44.000Z</time>
      </trkpt>
      <trkpt lat="47.31297" lon="-2.39191">
        <ele>51.599998474121</ele>
        <time>2021-05-13T08:01:53.000Z</time>
      </trkpt>
      <trkpt lat="47.31269" lon="-2.39231">
        <ele>51.599998474121</ele>
        <time>2021-05-13T08:02:00.000Z</time>
      </trkpt>
      <trkpt lat="47.31244" lon="-2.39268">
        <ele>51.599998474121</ele>
        <time>2021-05-13T08:02:06.000Z</time>
      </trkpt>
      <trkpt lat="47.31237" lon="-2.3928">
        <ele>51.599998474121</ele>
        <time>2021-05-13T08:02:08.000Z</time>
      </trkpt>
      <trkpt lat="47.31227" lon="-2.39293">
        <ele>51.599998474121</ele>
        <time>2021-05-13T08:02:10.000Z</time>
      </trkpt>
      <trkpt lat="47.31218" lon="-2.39306">
        <ele>51.599998474121</ele>
        <time>2021-05-13T08:02:12.000Z</time>
      </trkpt>
      <trkpt lat="47.31206" lon="-2.39315">
        <ele>51.599998474121</ele>
        <time>2021-05-13T08:02:14.000Z</time>
      </trkpt>
      <trkpt lat="47.31187" lon="-2.39327">
        <ele>51.599998474121</ele>
        <time>2021-05-13T08:02:17.000Z</time>
      </trkpt>
      <trkpt lat="47.31144" lon="-2.3936">
        <ele>51.599998474121</ele>
        <time>2021-05-13T08:02:24.000Z</time>
      </trkpt>
      <trkpt lat="47.31139" lon="-2.39366">
        <ele>51.200000762939</ele>
        <time>2021-05-13T08:02:25.000Z</time>
      </trkpt>
      <trkpt lat="47.31133" lon="-2.39371">
        <ele>50.799999237061</ele>
        <time>2021-05-13T08:02:26.000Z</time>
      </trkpt>
      <trkpt lat="47.31128" lon="-2.39377">
        <ele>50.200000762939</ele>
        <time>2021-05-13T08:02:27.000Z</time>
      </trkpt>
      <trkpt lat="47.31123" lon="-2.39384">
        <ele>49.799999237061</ele>
        <time>2021-05-13T08:02:28.000Z</time>
      </trkpt>
      <trkpt lat="47.31118" lon="-2.3939">
        <ele>49.400001525879</ele>
        <time>2021-05-13T08:02:29.000Z</time>
      </trkpt>
      <trkpt lat="47.31112" lon="-2.39397">
        <ele>49.400001525879</ele>
        <time>2021-05-13T08:02:30.000Z</time>
      </trkpt>
      <trkpt lat="47.31097" lon="-2.39415">
        <ele>49</ele>
        <time>2021-05-13T08:02:33.000Z</time>
      </trkpt>
      <trkpt lat="47.31092" lon="-2.39422">
        <ele>48.599998474121</ele>
        <time>2021-05-13T08:02:34.000Z</time>
      </trkpt>
      <trkpt lat="47.31087" lon="-2.39428">
        <ele>48.200000762939</ele>
        <time>2021-05-13T08:02:35.000Z</time>
      </trkpt>
      <trkpt lat="47.31083" lon="-2.39434">
        <ele>47.799999237061</ele>
        <time>2021-05-13T08:02:36.000Z</time>
      </trkpt>
      <trkpt lat="47.31078" lon="-2.3944">
        <ele>47.200000762939</ele>
        <time>2021-05-13T08:02:37.000Z</time>
      </trkpt>
      <trkpt lat="47.31057" lon="-2.39461">
        <ele>47.200000762939</ele>
        <time>2021-05-13T08:02:41.000Z</time>
      </trkpt>
      <trkpt lat="47.31049" lon="-2.39481">
        <ele>47.200000762939</ele>
        <time>2021-05-13T08:02:44.000Z</time>
      </trkpt>
      <trkpt lat="47.31054" lon="-2.395">
        <ele>47.200000762939</ele>
        <time>2021-05-13T08:02:47.000Z</time>
      </trkpt>
      <trkpt lat="47.31056" lon="-2.39506">
        <ele>47.200000762939</ele>
        <time>2021-05-13T08:02:48.000Z</time>
      </trkpt>
      <trkpt lat="47.31066" lon="-2.39537">
        <ele>47.200000762939</ele>
        <time>2021-05-13T08:02:54.000Z</time>
      </trkpt>
      <trkpt lat="47.31073" lon="-2.3956">
        <ele>47.200000762939</ele>
        <time>2021-05-13T08:03:00.000Z</time>
      </trkpt>
      <trkpt lat="47.31084" lon="-2.39585">
        <ele>47.200000762939</ele>
        <time>2021-05-13T08:03:06.000Z</time>
      </trkpt>
      <trkpt lat="47.31092" lon="-2.3961">
        <ele>47.200000762939</ele>
        <time>2021-05-13T08:03:12.000Z</time>
      </trkpt>
      <trkpt lat="47.31101" lon="-2.39638">
        <ele>47.200000762939</ele>
        <time>2021-05-13T08:03:19.000Z</time>
      </trkpt>
      <trkpt lat="47.31112" lon="-2.39667">
        <ele>47.200000762939</ele>
        <time>2021-05-13T08:03:26.000Z</time>
      </trkpt>
      <trkpt lat="47.31125" lon="-2.39702">
        <ele>47.200000762939</ele>
        <time>2021-05-13T08:03:33.000Z</time>
      </trkpt>
      <trkpt lat="47.31137" lon="-2.39736">
        <ele>47.200000762939</ele>
        <time>2021-05-13T08:03:39.000Z</time>
      </trkpt>
      <trkpt lat="47.31156" lon="-2.39789">
        <ele>47.200000762939</ele>
        <time>2021-05-13T08:03:47.000Z</time>
      </trkpt>
      <trkpt lat="47.31163" lon="-2.39808">
        <ele>47.200000762939</ele>
        <time>2021-05-13T08:03:50.000Z</time>
      </trkpt>
      <trkpt lat="47.31167" lon="-2.39822">
        <ele>46.799999237061</ele>
        <time>2021-05-13T08:03:52.000Z</time>
      </trkpt>
      <trkpt lat="47.3117" lon="-2.39829">
        <ele>46.400001525879</ele>
        <time>2021-05-13T08:03:53.000Z</time>
      </trkpt>
      <trkpt lat="47.31172" lon="-2.39836">
        <ele>46</ele>
        <time>2021-05-13T08:03:54.000Z</time>
      </trkpt>
      <trkpt lat="47.31176" lon="-2.39843">
        <ele>45.599998474121</ele>
        <time>2021-05-13T08:03:55.000Z</time>
      </trkpt>
      <trkpt lat="47.31179" lon="-2.3985">
        <ele>45.200000762939</ele>
        <time>2021-05-13T08:03:56.000Z</time>
      </trkpt>
      <trkpt lat="47.31184" lon="-2.39865">
        <ele>45.200000762939</ele>
        <time>2021-05-13T08:03:58.000Z</time>
      </trkpt>
      <trkpt lat="47.31189" lon="-2.39881">
        <ele>45.200000762939</ele>
        <time>2021-05-13T08:04:01.000Z</time>
      </trkpt>
      <trkpt lat="47.31195" lon="-2.399">
        <ele>45.200000762939</ele>
        <time>2021-05-13T08:04:05.000Z</time>
      </trkpt>
      <trkpt lat="47.31201" lon="-2.39914">
        <ele>44.799999237061</ele>
        <time>2021-05-13T08:04:08.000Z</time>
      </trkpt>
      <trkpt lat="47.31203" lon="-2.39919">
        <ele>44.400001525879</ele>
        <time>2021-05-13T08:04:09.000Z</time>
      </trkpt>
      <trkpt lat="47.31205" lon="-2.39924">
        <ele>43.799999237061</ele>
        <time>2021-05-13T08:04:10.000Z</time>
      </trkpt>
      <trkpt lat="47.31207" lon="-2.39928">
        <ele>43.400001525879</ele>
        <time>2021-05-13T08:04:11.000Z</time>
      </trkpt>
      <trkpt lat="47.31208" lon="-2.39933">
        <ele>43</ele>
        <time>2021-05-13T08:04:12.000Z</time>
      </trkpt>
      <trkpt lat="47.31215" lon="-2.39953">
        <ele>43</ele>
        <time>2021-05-13T08:04:16.000Z</time>
      </trkpt>
      <trkpt lat="47.31224" lon="-2.39976">
        <ele>42.599998474121</ele>
        <time>2021-05-13T08:04:21.000Z</time>
      </trkpt>
      <trkpt lat="47.31226" lon="-2.3998">
        <ele>42.200000762939</ele>
        <time>2021-05-13T08:04:22.000Z</time>
      </trkpt>
      <trkpt lat="47.31227" lon="-2.39985">
        <ele>41.799999237061</ele>
        <time>2021-05-13T08:04:23.000Z</time>
      </trkpt>
      <trkpt lat="47.31229" lon="-2.3999">
        <ele>41.400001525879</ele>
        <time>2021-05-13T08:04:24.000Z</time>
      </trkpt>
      <trkpt lat="47.31232" lon="-2.39995">
        <ele>41</ele>
        <time>2021-05-13T08:04:25.000Z</time>
      </trkpt>
      <trkpt lat="47.31237" lon="-2.40019">
        <ele>41</ele>
        <time>2021-05-13T08:04:29.000Z</time>
      </trkpt>
      <trkpt lat="47.31238" lon="-2.40024">
        <ele>40.599998474121</ele>
        <time>2021-05-13T08:04:30.000Z</time>
      </trkpt>
      <trkpt lat="47.31239" lon="-2.40029">
        <ele>40</ele>
        <time>2021-05-13T08:04:31.000Z</time>
      </trkpt>
      <trkpt lat="47.31241" lon="-2.40034">
        <ele>39.599998474121</ele>
        <time>2021-05-13T08:04:32.000Z</time>
      </trkpt>
      <trkpt lat="47.31243" lon="-2.40037">
        <ele>39.200000762939</ele>
        <time>2021-05-13T08:04:33.000Z</time>
      </trkpt>
      <trkpt lat="47.31245" lon="-2.40038">
        <ele>38.799999237061</ele>
        <time>2021-05-13T08:04:34.000Z</time>
      </trkpt>
      <trkpt lat="47.31249" lon="-2.40042">
        <ele>38.799999237061</ele>
        <time>2021-05-13T08:04:37.000Z</time>
      </trkpt>
      <trkpt lat="47.31252" lon="-2.40046">
        <ele>38.799999237061</ele>
        <time>2021-05-13T08:04:39.000Z</time>
      </trkpt>
      <trkpt lat="47.31253" lon="-2.40047">
        <ele>38.799999237061</ele>
        <time>2021-05-13T08:04:40.000Z</time>
      </trkpt>
      <trkpt lat="47.31256" lon="-2.4005">
        <ele>38.799999237061</ele>
        <time>2021-05-13T08:04:41.000Z</time>
      </trkpt>
      <trkpt lat="47.3127" lon="-2.40054">
        <ele>38.799999237061</ele>
        <time>2021-05-13T08:04:44.000Z</time>
      </trkpt>
      <trkpt lat="47.31275" lon="-2.40055">
        <ele>38.799999237061</ele>
        <time>2021-05-13T08:04:45.000Z</time>
      </trkpt>
      <trkpt lat="47.31292" lon="-2.4006">
        <ele>38.799999237061</ele>
        <time>2021-05-13T08:04:50.000Z</time>
      </trkpt>
      <trkpt lat="47.31312" lon="-2.40072">
        <ele>38.799999237061</ele>
        <time>2021-05-13T08:04:56.000Z</time>
      </trkpt>
      <trkpt lat="47.31341" lon="-2.40088">
        <ele>38.799999237061</ele>
        <time>2021-05-13T08:05:02.000Z</time>
      </trkpt>
      <trkpt lat="47.31373" lon="-2.40105">
        <ele>38.799999237061</ele>
        <time>2021-05-13T08:05:08.000Z</time>
      </trkpt>
      <trkpt lat="47.31403" lon="-2.4012">
        <ele>38.799999237061</ele>
        <time>2021-05-13T08:05:14.000Z</time>
      </trkpt>
      <trkpt lat="47.31407" lon="-2.40123">
        <ele>38.799999237061</ele>
        <time>2021-05-13T08:05:15.000Z</time>
      </trkpt>
      <trkpt lat="47.31419" lon="-2.40133">
        <ele>39.200000762939</ele>
        <time>2021-05-13T08:05:18.000Z</time>
      </trkpt>
      <trkpt lat="47.31423" lon="-2.40137">
        <ele>39.599998474121</ele>
        <time>2021-05-13T08:05:19.000Z</time>
      </trkpt>
      <trkpt lat="47.31427" lon="-2.4014">
        <ele>40</ele>
        <time>2021-05-13T08:05:20.000Z</time>
      </trkpt>
      <trkpt lat="47.31431" lon="-2.40143">
        <ele>40.400001525879</ele>
        <time>2021-05-13T08:05:21.000Z</time>
      </trkpt>
      <trkpt lat="47.31436" lon="-2.40146">
        <ele>40.799999237061</ele>
        <time>2021-05-13T08:05:22.000Z</time>
      </trkpt>
      <trkpt lat="47.31459" lon="-2.40162">
        <ele>40.799999237061</ele>
        <time>2021-05-13T08:05:28.000Z</time>
      </trkpt>
      <trkpt lat="47.31482" lon="-2.40179">
        <ele>40.799999237061</ele>
        <time>2021-05-13T08:05:34.000Z</time>
      </trkpt>
      <trkpt lat="47.31504" lon="-2.40191">
        <ele>40.799999237061</ele>
        <time>2021-05-13T08:05:40.000Z</time>
      </trkpt>
      <trkpt lat="47.31516" lon="-2.40198">
        <ele>41.200000762939</ele>
        <time>2021-05-13T08:05:43.000Z</time>
      </trkpt>
      <trkpt lat="47.31519" lon="-2.40201">
        <ele>41.599998474121</ele>
        <time>2021-05-13T08:05:44.000Z</time>
      </trkpt>
      <trkpt lat="47.31523" lon="-2.40204">
        <ele>42</ele>
        <time>2021-05-13T08:05:45.000Z</time>
      </trkpt>
      <trkpt lat="47.31527" lon="-2.40208">
        <ele>42.400001525879</ele>
        <time>2021-05-13T08:05:46.000Z</time>
      </trkpt>
      <trkpt lat="47.31531" lon="-2.40211">
        <ele>42.799999237061</ele>
        <time>2021-05-13T08:05:47.000Z</time>
      </trkpt>
      <trkpt lat="47.31549" lon="-2.40226">
        <ele>42.799999237061</ele>
        <time>2021-05-13T08:05:52.000Z</time>
      </trkpt>
      <trkpt lat="47.3158" lon="-2.40253">
        <ele>42.799999237061</ele>
        <time>2021-05-13T08:05:59.000Z</time>
      </trkpt>
      <trkpt lat="47.31603" lon="-2.4027">
        <ele>42.799999237061</ele>
        <time>2021-05-13T08:06:04.000Z</time>
      </trkpt>
      <trkpt lat="47.31611" lon="-2.40277">
        <ele>43.200000762939</ele>
        <time>2021-05-13T08:06:06.000Z</time>
      </trkpt>
      <trkpt lat="47.31615" lon="-2.4028">
        <ele>43.599998474121</ele>
        <time>2021-05-13T08:06:07.000Z</time>
      </trkpt>
      <trkpt lat="47.31619" lon="-2.40283">
        <ele>44</ele>
        <time>2021-05-13T08:06:08.000Z</time>
      </trkpt>
      <trkpt lat="47.31623" lon="-2.40286">
        <ele>44.400001525879</ele>
        <time>2021-05-13T08:06:09.000Z</time>
      </trkpt>
      <trkpt lat="47.31627" lon="-2.40289">
        <ele>44.799999237061</ele>
        <time>2021-05-13T08:06:10.000Z</time>
      </trkpt>
      <trkpt lat="47.31631" lon="-2.40292">
        <ele>44.799999237061</ele>
        <time>2021-05-13T08:06:11.000Z</time>
      </trkpt>
      <trkpt lat="47.31661" lon="-2.40313">
        <ele>44.799999237061</ele>
        <time>2021-05-13T08:06:19.000Z</time>
      </trkpt>
      <trkpt lat="47.31674" lon="-2.40326">
        <ele>45.200000762939</ele>
        <time>2021-05-13T08:06:24.000Z</time>
      </trkpt>
      <trkpt lat="47.31676" lon="-2.40328">
        <ele>45.599998474121</ele>
        <time>2021-05-13T08:06:25.000Z</time>
      </trkpt>
      <trkpt lat="47.31678" lon="-2.40329">
        <ele>46.200000762939</ele>
        <time>2021-05-13T08:06:26.000Z</time>
      </trkpt>
      <trkpt lat="47.31681" lon="-2.40331">
        <ele>46.599998474121</ele>
        <time>2021-05-13T08:06:27.000Z</time>
      </trkpt>
      <trkpt lat="47.31683" lon="-2.40333">
        <ele>47</ele>
        <time>2021-05-13T08:06:28.000Z</time>
      </trkpt>
      <trkpt lat="47.31688" lon="-2.40337">
        <ele>47</ele>
        <time>2021-05-13T08:06:30.000Z</time>
      </trkpt>
      <trkpt lat="47.317" lon="-2.40343">
        <ele>47</ele>
        <time>2021-05-13T08:06:36.000Z</time>
      </trkpt>
      <trkpt lat="47.31706" lon="-2.40347">
        <ele>47</ele>
        <time>2021-05-13T08:06:42.000Z</time>
      </trkpt>
      <trkpt lat="47.31711" lon="-2.40353">
        <ele>47</ele>
        <time>2021-05-13T08:06:48.000Z</time>
      </trkpt>
      <trkpt lat="47.31712" lon="-2.40354">
        <ele>47</ele>
        <time>2021-05-13T08:06:49.000Z</time>
      </trkpt>
      <trkpt lat="47.31716" lon="-2.40357">
        <ele>47</ele>
        <time>2021-05-13T08:06:54.000Z</time>
      </trkpt>
      <trkpt lat="47.31722" lon="-2.40362">
        <ele>47</ele>
        <time>2021-05-13T08:07:01.000Z</time>
      </trkpt>
      <trkpt lat="47.31726" lon="-2.40366">
        <ele>47</ele>
        <time>2021-05-13T08:07:06.000Z</time>
      </trkpt>
      <trkpt lat="47.31729" lon="-2.40369">
        <ele>47</ele>
        <time>2021-05-13T08:08:12.000Z</time>
      </trkpt>
      <trkpt lat="47.3174" lon="-2.40377">
        <ele>47</ele>
        <time>2021-05-13T08:08:17.000Z</time>
      </trkpt>
      <trkpt lat="47.31759" lon="-2.40391">
        <ele>47</ele>
        <time>2021-05-13T08:08:23.000Z</time>
      </trkpt>
      <trkpt lat="47.31773" lon="-2.40401">
        <ele>47.400001525879</ele>
        <time>2021-05-13T08:08:27.000Z</time>
      </trkpt>
      <trkpt lat="47.31777" lon="-2.40404">
        <ele>47.799999237061</ele>
        <time>2021-05-13T08:08:28.000Z</time>
      </trkpt>
      <trkpt lat="47.31781" lon="-2.40407">
        <ele>48.200000762939</ele>
        <time>2021-05-13T08:08:29.000Z</time>
      </trkpt>
      <trkpt lat="47.31785" lon="-2.40409">
        <ele>48.599998474121</ele>
        <time>2021-05-13T08:08:30.000Z</time>
      </trkpt>
      <trkpt lat="47.31788" lon="-2.40412">
        <ele>49</ele>
        <time>2021-05-13T08:08:31.000Z</time>
      </trkpt>
      <trkpt lat="47.31806" lon="-2.40427">
        <ele>49</ele>
        <time>2021-05-13T08:08:36.000Z</time>
      </trkpt>
      <trkpt lat="47.31829" lon="-2.40443">
        <ele>49</ele>
        <time>2021-05-13T08:08:42.000Z</time>
      </trkpt>
      <trkpt lat="47.31852" lon="-2.40461">
        <ele>49</ele>
        <time>2021-05-13T08:08:48.000Z</time>
      </trkpt>
      <trkpt lat="47.3186" lon="-2.40467">
        <ele>49</ele>
        <time>2021-05-13T08:08:50.000Z</time>
      </trkpt>
      <trkpt lat="47.31873" lon="-2.40475">
        <ele>49.400001525879</ele>
        <time>2021-05-13T08:08:53.000Z</time>
      </trkpt>
      <trkpt lat="47.31877" lon="-2.40478">
        <ele>49.799999237061</ele>
        <time>2021-05-13T08:08:54.000Z</time>
      </trkpt>
      <trkpt lat="47.31881" lon="-2.40481">
        <ele>50.200000762939</ele>
        <time>2021-05-13T08:08:55.000Z</time>
      </trkpt>
      <trkpt lat="47.31884" lon="-2.40483">
        <ele>50.599998474121</ele>
        <time>2021-05-13T08:08:56.000Z</time>
      </trkpt>
      <trkpt lat="47.31888" lon="-2.40486">
        <ele>51</ele>
        <time>2021-05-13T08:08:57.000Z</time>
      </trkpt>
      <trkpt lat="47.31901" lon="-2.40497">
        <ele>51</ele>
        <time>2021-05-13T08:09:00.000Z</time>
      </trkpt>
      <trkpt lat="47.31928" lon="-2.40518">
        <ele>51</ele>
        <time>2021-05-13T08:09:07.000Z</time>
      </trkpt>
      <trkpt lat="47.31945" lon="-2.40531">
        <ele>51</ele>
        <time>2021-05-13T08:09:11.000Z</time>
      </trkpt>
      <trkpt lat="47.3195" lon="-2.40535">
        <ele>51</ele>
        <time>2021-05-13T08:09:12.000Z</time>
      </trkpt>
      <trkpt lat="47.31958" lon="-2.40542">
        <ele>51.400001525879</ele>
        <time>2021-05-13T08:09:14.000Z</time>
      </trkpt>
      <trkpt lat="47.31962" lon="-2.40545">
        <ele>51.799999237061</ele>
        <time>2021-05-13T08:09:15.000Z</time>
      </trkpt>
      <trkpt lat="47.31966" lon="-2.40548">
        <ele>52.200000762939</ele>
        <time>2021-05-13T08:09:16.000Z</time>
      </trkpt>
      <trkpt lat="47.3197" lon="-2.4055">
        <ele>52.599998474121</ele>
        <time>2021-05-13T08:09:17.000Z</time>
      </trkpt>
      <trkpt lat="47.31975" lon="-2.40553">
        <ele>53</ele>
        <time>2021-05-13T08:09:18.000Z</time>
      </trkpt>
      <trkpt lat="47.31984" lon="-2.4056">
        <ele>53</ele>
        <time>2021-05-13T08:09:20.000Z</time>
      </trkpt>
      <trkpt lat="47.31993" lon="-2.40568">
        <ele>53</ele>
        <time>2021-05-13T08:09:22.000Z</time>
      </trkpt>
      <trkpt lat="47.32001" lon="-2.40575">
        <ele>53</ele>
        <time>2021-05-13T08:09:24.000Z</time>
      </trkpt>
      <trkpt lat="47.32017" lon="-2.40588">
        <ele>53</ele>
        <time>2021-05-13T08:09:28.000Z</time>
      </trkpt>
      <trkpt lat="47.32032" lon="-2.40601">
        <ele>53.599998474121</ele>
        <time>2021-05-13T08:09:32.000Z</time>
      </trkpt>
      <trkpt lat="47.32036" lon="-2.40604">
        <ele>54</ele>
        <time>2021-05-13T08:09:33.000Z</time>
      </trkpt>
      <trkpt lat="47.32041" lon="-2.40608">
        <ele>54.400001525879</ele>
        <time>2021-05-13T08:09:34.000Z</time>
      </trkpt>
      <trkpt lat="47.32045" lon="-2.40611">
        <ele>54.799999237061</ele>
        <time>2021-05-13T08:09:35.000Z</time>
      </trkpt>
      <trkpt lat="47.32049" lon="-2.40615">
        <ele>55.200000762939</ele>
        <time>2021-05-13T08:09:36.000Z</time>
      </trkpt>
      <trkpt lat="47.32066" lon="-2.40629">
        <ele>55.200000762939</ele>
        <time>2021-05-13T08:09:40.000Z</time>
      </trkpt>
      <trkpt lat="47.32069" lon="-2.40633">
        <ele>55.200000762939</ele>
        <time>2021-05-13T08:09:41.000Z</time>
      </trkpt>
      <trkpt lat="47.32102" lon="-2.40667">
        <ele>55.200000762939</ele>
        <time>2021-05-13T08:09:49.000Z</time>
      </trkpt>
      <trkpt lat="47.3213" lon="-2.40697">
        <ele>55.200000762939</ele>
        <time>2021-05-13T08:09:56.000Z</time>
      </trkpt>
      <trkpt lat="47.32156" lon="-2.40729">
        <ele>55.200000762939</ele>
        <time>2021-05-13T08:10:03.000Z</time>
      </trkpt>
      <trkpt lat="47.32171" lon="-2.40747">
        <ele>55.200000762939</ele>
        <time>2021-05-13T08:10:07.000Z</time>
      </trkpt>
      <trkpt lat="47.32178" lon="-2.40756">
        <ele>55.200000762939</ele>
        <time>2021-05-13T08:10:09.000Z</time>
      </trkpt>
      <trkpt lat="47.3219" lon="-2.40773">
        <ele>55.200000762939</ele>
        <time>2021-05-13T08:10:13.000Z</time>
      </trkpt>
      <trkpt lat="47.32195" lon="-2.40782">
        <ele>55.200000762939</ele>
        <time>2021-05-13T08:10:15.000Z</time>
      </trkpt>
      <trkpt lat="47.32198" lon="-2.40785">
        <ele>55.200000762939</ele>
        <time>2021-05-13T08:10:16.000Z</time>
      </trkpt>
      <trkpt lat="47.32205" lon="-2.40794">
        <ele>55.200000762939</ele>
        <time>2021-05-13T08:10:19.000Z</time>
      </trkpt>
      <trkpt lat="47.32208" lon="-2.40797">
        <ele>55.200000762939</ele>
        <time>2021-05-13T08:10:20.000Z</time>
      </trkpt>
      <trkpt lat="47.3222" lon="-2.40814">
        <ele>55.200000762939</ele>
        <time>2021-05-13T08:10:25.000Z</time>
      </trkpt>
      <trkpt lat="47.32233" lon="-2.40833">
        <ele>55.200000762939</ele>
        <time>2021-05-13T08:10:29.000Z</time>
      </trkpt>
      <trkpt lat="47.32239" lon="-2.40844">
        <ele>55.599998474121</ele>
        <time>2021-05-13T08:10:31.000Z</time>
      </trkpt>
      <trkpt lat="47.32242" lon="-2.4085">
        <ele>56</ele>
        <time>2021-05-13T08:10:32.000Z</time>
      </trkpt>
      <trkpt lat="47.32245" lon="-2.40855">
        <ele>56.400001525879</ele>
        <time>2021-05-13T08:10:33.000Z</time>
      </trkpt>
      <trkpt lat="47.32249" lon="-2.40861">
        <ele>56.799999237061</ele>
        <time>2021-05-13T08:10:34.000Z</time>
      </trkpt>
      <trkpt lat="47.32252" lon="-2.40866">
        <ele>57.200000762939</ele>
        <time>2021-05-13T08:10:35.000Z</time>
      </trkpt>
      <trkpt lat="47.32275" lon="-2.40905">
        <ele>57.200000762939</ele>
        <time>2021-05-13T08:10:42.000Z</time>
      </trkpt>
      <trkpt lat="47.32304" lon="-2.4096">
        <ele>57.200000762939</ele>
        <time>2021-05-13T08:10:51.000Z</time>
      </trkpt>
      <trkpt lat="47.32317" lon="-2.40984">
        <ele>57.599998474121</ele>
        <time>2021-05-13T08:10:55.000Z</time>
      </trkpt>
      <trkpt lat="47.3232" lon="-2.40989">
        <ele>58</ele>
        <time>2021-05-13T08:10:56.000Z</time>
      </trkpt>
      <trkpt lat="47.32322" lon="-2.40995">
        <ele>58.599998474121</ele>
        <time>2021-05-13T08:10:57.000Z</time>
      </trkpt>
      <trkpt lat="47.32325" lon="-2.41001">
        <ele>59</ele>
        <time>2021-05-13T08:10:58.000Z</time>
      </trkpt>
      <trkpt lat="47.32328" lon="-2.41007">
        <ele>59.400001525879</ele>
        <time>2021-05-13T08:10:59.000Z</time>
      </trkpt>
      <trkpt lat="47.32347" lon="-2.41044">
        <ele>59.400001525879</ele>
        <time>2021-05-13T08:11:06.000Z</time>
      </trkpt>
      <trkpt lat="47.32367" lon="-2.41074">
        <ele>59.400001525879</ele>
        <time>2021-05-13T08:11:12.000Z</time>
      </trkpt>
      <trkpt lat="47.32373" lon="-2.41095">
        <ele>59.400001525879</ele>
        <time>2021-05-13T08:11:16.000Z</time>
      </trkpt>
      <trkpt lat="47.32375" lon="-2.411">
        <ele>59.400001525879</ele>
        <time>2021-05-13T08:11:17.000Z</time>
      </trkpt>
      <trkpt lat="47.32385" lon="-2.41114">
        <ele>59.400001525879</ele>
        <time>2021-05-13T08:11:20.000Z</time>
      </trkpt>
      <trkpt lat="47.32387" lon="-2.41119">
        <ele>59.400001525879</ele>
        <time>2021-05-13T08:11:21.000Z</time>
      </trkpt>
      <trkpt lat="47.32405" lon="-2.41155">
        <ele>59.400001525879</ele>
        <time>2021-05-13T08:11:29.000Z</time>
      </trkpt>
      <trkpt lat="47.32409" lon="-2.41163">
        <ele>59.400001525879</ele>
        <time>2021-05-13T08:11:34.000Z</time>
      </trkpt>
      <trkpt lat="47.32417" lon="-2.41179">
        <ele>59.400001525879</ele>
        <time>2021-05-13T08:11:38.000Z</time>
      </trkpt>
      <trkpt lat="47.32429" lon="-2.41198">
        <ele>59.400001525879</ele>
        <time>2021-05-13T08:11:42.000Z</time>
      </trkpt>
      <trkpt lat="47.32446" lon="-2.41233">
        <ele>59.400001525879</ele>
        <time>2021-05-13T08:11:48.000Z</time>
      </trkpt>
      <trkpt lat="47.32472" lon="-2.41283">
        <ele>59.400001525879</ele>
        <time>2021-05-13T08:11:56.000Z</time>
      </trkpt>
      <trkpt lat="47.32498" lon="-2.41333">
        <ele>59.400001525879</ele>
        <time>2021-05-13T08:12:04.000Z</time>
      </trkpt>
      <trkpt lat="47.3252" lon="-2.41375">
        <ele>59.400001525879</ele>
        <time>2021-05-13T08:12:10.000Z</time>
      </trkpt>
      <trkpt lat="47.32548" lon="-2.41426">
        <ele>59.400001525879</ele>
        <time>2021-05-13T08:12:18.000Z</time>
      </trkpt>
      <trkpt lat="47.32563" lon="-2.41456">
        <ele>59.400001525879</ele>
        <time>2021-05-13T08:12:24.000Z</time>
      </trkpt>
      <trkpt lat="47.32571" lon="-2.41463">
        <ele>59.400001525879</ele>
        <time>2021-05-13T08:12:27.000Z</time>
      </trkpt>
      <trkpt lat="47.32574" lon="-2.41456">
        <ele>58.799999237061</ele>
        <time>2021-05-13T08:12:29.000Z</time>
      </trkpt>
      <trkpt lat="47.32576" lon="-2.41451">
        <ele>58.400001525879</ele>
        <time>2021-05-13T08:12:30.000Z</time>
      </trkpt>
      <trkpt lat="47.32577" lon="-2.41445">
        <ele>58</ele>
        <time>2021-05-13T08:12:31.000Z</time>
      </trkpt>
      <trkpt lat="47.32578" lon="-2.41438">
        <ele>57.400001525879</ele>
        <time>2021-05-13T08:12:32.000Z</time>
      </trkpt>
      <trkpt lat="47.32578" lon="-2.41432">
        <ele>57</ele>
        <time>2021-05-13T08:12:33.000Z</time>
      </trkpt>
      <trkpt lat="47.32579" lon="-2.41424">
        <ele>57</ele>
        <time>2021-05-13T08:12:34.000Z</time>
      </trkpt>
      <trkpt lat="47.3258" lon="-2.41409">
        <ele>57</ele>
        <time>2021-05-13T08:12:36.000Z</time>
      </trkpt>
      <trkpt lat="47.32586" lon="-2.41387">
        <ele>57</ele>
        <time>2021-05-13T08:12:39.000Z</time>
      </trkpt>
      <trkpt lat="47.326" lon="-2.41377">
        <ele>57</ele>
        <time>2021-05-13T08:12:42.000Z</time>
      </trkpt>
      <trkpt lat="47.32606" lon="-2.41374">
        <ele>57</ele>
        <time>2021-05-13T08:12:43.000Z</time>
      </trkpt>
      <trkpt lat="47.32635" lon="-2.41357">
        <ele>57</ele>
        <time>2021-05-13T08:12:48.000Z</time>
      </trkpt>
      <trkpt lat="47.32675" lon="-2.4133">
        <ele>57</ele>
        <time>2021-05-13T08:12:55.000Z</time>
      </trkpt>
      <trkpt lat="47.3268" lon="-2.41326">
        <ele>56.599998474121</ele>
        <time>2021-05-13T08:12:56.000Z</time>
      </trkpt>
      <trkpt lat="47.32686" lon="-2.41321">
        <ele>56</ele>
        <time>2021-05-13T08:12:57.000Z</time>
      </trkpt>
      <trkpt lat="47.32691" lon="-2.41316">
        <ele>55.599998474121</ele>
        <time>2021-05-13T08:12:58.000Z</time>
      </trkpt>
      <trkpt lat="47.32697" lon="-2.41312">
        <ele>55</ele>
        <time>2021-05-13T08:12:59.000Z</time>
      </trkpt>
      <trkpt lat="47.32702" lon="-2.41308">
        <ele>54.599998474121</ele>
        <time>2021-05-13T08:13:00.000Z</time>
      </trkpt>
      <trkpt lat="47.32706" lon="-2.41302">
        <ele>54.599998474121</ele>
        <time>2021-05-13T08:13:02.000Z</time>
      </trkpt>
      <trkpt lat="47.32707" lon="-2.413">
        <ele>54.200000762939</ele>
        <time>2021-05-13T08:13:03.000Z</time>
      </trkpt>
      <trkpt lat="47.32709" lon="-2.41296">
        <ele>53.799999237061</ele>
        <time>2021-05-13T08:13:04.000Z</time>
      </trkpt>
      <trkpt lat="47.32712" lon="-2.41291">
        <ele>53</ele>
        <time>2021-05-13T08:13:05.000Z</time>
      </trkpt>
      <trkpt lat="47.32715" lon="-2.41286">
        <ele>52.599998474121</ele>
        <time>2021-05-13T08:13:06.000Z</time>
      </trkpt>
      <trkpt lat="47.32729" lon="-2.41282">
        <ele>52.599998474121</ele>
        <time>2021-05-13T08:13:09.000Z</time>
      </trkpt>
      <trkpt lat="47.32735" lon="-2.41283">
        <ele>52.599998474121</ele>
        <time>2021-05-13T08:13:10.000Z</time>
      </trkpt>
      <trkpt lat="47.32741" lon="-2.41282">
        <ele>52.599998474121</ele>
        <time>2021-05-13T08:13:11.000Z</time>
      </trkpt>
      <trkpt lat="47.32753" lon="-2.41278">
        <ele>52.599998474121</ele>
        <time>2021-05-13T08:13:13.000Z</time>
      </trkpt>
      <trkpt lat="47.32803" lon="-2.41269">
        <ele>52.599998474121</ele>
        <time>2021-05-13T08:13:21.000Z</time>
      </trkpt>
      <trkpt lat="47.3284" lon="-2.41265">
        <ele>52.599998474121</ele>
        <time>2021-05-13T08:13:27.000Z</time>
      </trkpt>
      <trkpt lat="47.3289" lon="-2.41259">
        <ele>52.599998474121</ele>
        <time>2021-05-13T08:13:35.000Z</time>
      </trkpt>
      <trkpt lat="47.32916" lon="-2.41258">
        <ele>52.599998474121</ele>
        <time>2021-05-13T08:13:40.000Z</time>
      </trkpt>
      <trkpt lat="47.32926" lon="-2.41256">
        <ele>52.599998474121</ele>
        <time>2021-05-13T08:13:44.000Z</time>
      </trkpt>
      <trkpt lat="47.32934" lon="-2.41257">
        <ele>52.599998474121</ele>
        <time>2021-05-13T08:13:46.000Z</time>
      </trkpt>
      <trkpt lat="47.32943" lon="-2.4126">
        <ele>52.599998474121</ele>
        <time>2021-05-13T08:13:48.000Z</time>
      </trkpt>
      <trkpt lat="47.3296" lon="-2.41255">
        <ele>52.599998474121</ele>
        <time>2021-05-13T08:13:51.000Z</time>
      </trkpt>
      <trkpt lat="47.32966" lon="-2.41253">
        <ele>52.599998474121</ele>
        <time>2021-05-13T08:13:52.000Z</time>
      </trkpt>
      <trkpt lat="47.32991" lon="-2.41231">
        <ele>52.599998474121</ele>
        <time>2021-05-13T08:13:57.000Z</time>
      </trkpt>
      <trkpt lat="47.33005" lon="-2.41226">
        <ele>52.599998474121</ele>
        <time>2021-05-13T08:14:00.000Z</time>
      </trkpt>
      <trkpt lat="47.3302" lon="-2.41215">
        <ele>52.200000762939</ele>
        <time>2021-05-13T08:14:03.000Z</time>
      </trkpt>
      <trkpt lat="47.33025" lon="-2.41208">
        <ele>51.799999237061</ele>
        <time>2021-05-13T08:14:04.000Z</time>
      </trkpt>
      <trkpt lat="47.33028" lon="-2.41201">
        <ele>51.400001525879</ele>
        <time>2021-05-13T08:14:05.000Z</time>
      </trkpt>
      <trkpt lat="47.33032" lon="-2.41193">
        <ele>51</ele>
        <time>2021-05-13T08:14:06.000Z</time>
      </trkpt>
      <trkpt lat="47.33035" lon="-2.41186">
        <ele>50.400001525879</ele>
        <time>2021-05-13T08:14:07.000Z</time>
      </trkpt>
      <trkpt lat="47.33055" lon="-2.41145">
        <ele>50.400001525879</ele>
        <time>2021-05-13T08:14:12.000Z</time>
      </trkpt>
      <trkpt lat="47.33074" lon="-2.41101">
        <ele>50.400001525879</ele>
        <time>2021-05-13T08:14:17.000Z</time>
      </trkpt>
      <trkpt lat="47.33097" lon="-2.41036">
        <ele>50.400001525879</ele>
        <time>2021-05-13T08:14:24.000Z</time>
      </trkpt>
      <trkpt lat="47.33121" lon="-2.40968">
        <ele>50.400001525879</ele>
        <time>2021-05-13T08:14:31.000Z</time>
      </trkpt>
      <trkpt lat="47.33153" lon="-2.40903">
        <ele>50</ele>
        <time>2021-05-13T08:14:38.000Z</time>
      </trkpt>
      <trkpt lat="47.33158" lon="-2.40894">
        <ele>49.599998474121</ele>
        <time>2021-05-13T08:14:39.000Z</time>
      </trkpt>
      <trkpt lat="47.33163" lon="-2.40885">
        <ele>49.200000762939</ele>
        <time>2021-05-13T08:14:40.000Z</time>
      </trkpt>
      <trkpt lat="47.33168" lon="-2.40877">
        <ele>48.799999237061</ele>
        <time>2021-05-13T08:14:41.000Z</time>
      </trkpt>
      <trkpt lat="47.33173" lon="-2.40868">
        <ele>48.400001525879</ele>
        <time>2021-05-13T08:14:42.000Z</time>
      </trkpt>
      <trkpt lat="47.33201" lon="-2.40824">
        <ele>48.400001525879</ele>
        <time>2021-05-13T08:14:47.000Z</time>
      </trkpt>
      <trkpt lat="47.33224" lon="-2.40786">
        <ele>48</ele>
        <time>2021-05-13T08:14:51.000Z</time>
      </trkpt>
      <trkpt lat="47.33229" lon="-2.40775">
        <ele>47.400001525879</ele>
        <time>2021-05-13T08:14:52.000Z</time>
      </trkpt>
      <trkpt lat="47.33232" lon="-2.40762">
        <ele>47</ele>
        <time>2021-05-13T08:14:53.000Z</time>
      </trkpt>
      <trkpt lat="47.33235" lon="-2.40749">
        <ele>46.599998474121</ele>
        <time>2021-05-13T08:14:54.000Z</time>
      </trkpt>
      <trkpt lat="47.33236" lon="-2.40737">
        <ele>46</ele>
        <time>2021-05-13T08:14:55.000Z</time>
      </trkpt>
      <trkpt lat="47.33238" lon="-2.40724">
        <ele>46</ele>
        <time>2021-05-13T08:14:56.000Z</time>
      </trkpt>
      <trkpt lat="47.33244" lon="-2.40679">
        <ele>45.599998474121</ele>
        <time>2021-05-13T08:15:00.000Z</time>
      </trkpt>
      <trkpt lat="47.33247" lon="-2.40668">
        <ele>45.200000762939</ele>
        <time>2021-05-13T08:15:01.000Z</time>
      </trkpt>
      <trkpt lat="47.3325" lon="-2.40657">
        <ele>44.799999237061</ele>
        <time>2021-05-13T08:15:02.000Z</time>
      </trkpt>
      <trkpt lat="47.33253" lon="-2.40646">
        <ele>44.400001525879</ele>
        <time>2021-05-13T08:15:03.000Z</time>
      </trkpt>
      <trkpt lat="47.33256" lon="-2.40635">
        <ele>44</ele>
        <time>2021-05-13T08:15:04.000Z</time>
      </trkpt>
      <trkpt lat="47.33266" lon="-2.40603">
        <ele>43.200000762939</ele>
        <time>2021-05-13T08:15:07.000Z</time>
      </trkpt>
      <trkpt lat="47.33269" lon="-2.40593">
        <ele>42.799999237061</ele>
        <time>2021-05-13T08:15:08.000Z</time>
      </trkpt>
      <trkpt lat="47.33271" lon="-2.40583">
        <ele>42.200000762939</ele>
        <time>2021-05-13T08:15:09.000Z</time>
      </trkpt>
      <trkpt lat="47.33274" lon="-2.40572">
        <ele>41.799999237061</ele>
        <time>2021-05-13T08:15:10.000Z</time>
      </trkpt>
      <trkpt lat="47.33289" lon="-2.40527">
        <ele>41.799999237061</ele>
        <time>2021-05-13T08:15:15.000Z</time>
      </trkpt>
      <trkpt lat="47.33296" lon="-2.40512">
        <ele>41.400001525879</ele>
        <time>2021-05-13T08:15:17.000Z</time>
      </trkpt>
      <trkpt lat="47.33299" lon="-2.40505">
        <ele>41</ele>
        <time>2021-05-13T08:15:18.000Z</time>
      </trkpt>
      <trkpt lat="47.33302" lon="-2.40498">
        <ele>40.599998474121</ele>
        <time>2021-05-13T08:15:19.000Z</time>
      </trkpt>
      <trkpt lat="47.33304" lon="-2.40491">
        <ele>40.200000762939</ele>
        <time>2021-05-13T08:15:20.000Z</time>
      </trkpt>
      <trkpt lat="47.33306" lon="-2.40483">
        <ele>39.799999237061</ele>
        <time>2021-05-13T08:15:21.000Z</time>
      </trkpt>
      <trkpt lat="47.33311" lon="-2.40451">
        <ele>39.799999237061</ele>
        <time>2021-05-13T08:15:25.000Z</time>
      </trkpt>
      <trkpt lat="47.33316" lon="-2.40408">
        <ele>39.799999237061</ele>
        <time>2021-05-13T08:15:30.000Z</time>
      </trkpt>
      <trkpt lat="47.33317" lon="-2.404">
        <ele>39.799999237061</ele>
        <time>2021-05-13T08:15:31.000Z</time>
      </trkpt>
      <trkpt lat="47.33316" lon="-2.40384">
        <ele>40.200000762939</ele>
        <time>2021-05-13T08:15:33.000Z</time>
      </trkpt>
      <trkpt lat="47.33315" lon="-2.40377">
        <ele>40.599998474121</ele>
        <time>2021-05-13T08:15:34.000Z</time>
      </trkpt>
      <trkpt lat="47.33315" lon="-2.4037">
        <ele>41.200000762939</ele>
        <time>2021-05-13T08:15:35.000Z</time>
      </trkpt>
      <trkpt lat="47.33315" lon="-2.40364">
        <ele>41.599998474121</ele>
        <time>2021-05-13T08:15:36.000Z</time>
      </trkpt>
      <trkpt lat="47.33316" lon="-2.40358">
        <ele>42</ele>
        <time>2021-05-13T08:15:37.000Z</time>
      </trkpt>
      <trkpt lat="47.3332" lon="-2.40346">
        <ele>42</ele>
        <time>2021-05-13T08:15:39.000Z</time>
      </trkpt>
      <trkpt lat="47.33323" lon="-2.4034">
        <ele>42.599998474121</ele>
        <time>2021-05-13T08:15:40.000Z</time>
      </trkpt>
      <trkpt lat="47.33325" lon="-2.40335">
        <ele>43</ele>
        <time>2021-05-13T08:15:41.000Z</time>
      </trkpt>
      <trkpt lat="47.33327" lon="-2.40329">
        <ele>43.400001525879</ele>
        <time>2021-05-13T08:15:42.000Z</time>
      </trkpt>
      <trkpt lat="47.3333" lon="-2.40321">
        <ele>44</ele>
        <time>2021-05-13T08:15:43.000Z</time>
      </trkpt>
      <trkpt lat="47.33332" lon="-2.40314">
        <ele>44.400001525879</ele>
        <time>2021-05-13T08:15:44.000Z</time>
      </trkpt>
      <trkpt lat="47.33334" lon="-2.40307">
        <ele>44.400001525879</ele>
        <time>2021-05-13T08:15:45.000Z</time>
      </trkpt>
      <trkpt lat="47.33336" lon="-2.40292">
        <ele>44.799999237061</ele>
        <time>2021-05-13T08:15:47.000Z</time>
      </trkpt>
      <trkpt lat="47.33337" lon="-2.40286">
        <ele>45.200000762939</ele>
        <time>2021-05-13T08:15:48.000Z</time>
      </trkpt>
      <trkpt lat="47.33337" lon="-2.40279">
        <ele>45.599998474121</ele>
        <time>2021-05-13T08:15:49.000Z</time>
      </trkpt>
      <trkpt lat="47.33338" lon="-2.40273">
        <ele>46</ele>
        <time>2021-05-13T08:15:50.000Z</time>
      </trkpt>
      <trkpt lat="47.33339" lon="-2.40267">
        <ele>46.400001525879</ele>
        <time>2021-05-13T08:15:51.000Z</time>
      </trkpt>
      <trkpt lat="47.3334" lon="-2.4024">
        <ele>46.400001525879</ele>
        <time>2021-05-13T08:15:56.000Z</time>
      </trkpt>
      <trkpt lat="47.33345" lon="-2.40195">
        <ele>46.400001525879</ele>
        <time>2021-05-13T08:16:03.000Z</time>
      </trkpt>
      <trkpt lat="47.33351" lon="-2.40149">
        <ele>46.400001525879</ele>
        <time>2021-05-13T08:16:09.000Z</time>
      </trkpt>
      <trkpt lat="47.33355" lon="-2.40094">
        <ele>46.400001525879</ele>
        <time>2021-05-13T08:16:16.000Z</time>
      </trkpt>
      <trkpt lat="47.33361" lon="-2.40048">
        <ele>46.400001525879</ele>
        <time>2021-05-13T08:16:22.000Z</time>
      </trkpt>
      <trkpt lat="47.33366" lon="-2.40034">
        <ele>46.400001525879</ele>
        <time>2021-05-13T08:16:24.000Z</time>
      </trkpt>
      <trkpt lat="47.33376" lon="-2.40015">
        <ele>46.400001525879</ele>
        <time>2021-05-13T08:16:27.000Z</time>
      </trkpt>
      <trkpt lat="47.3338" lon="-2.40009">
        <ele>46.400001525879</ele>
        <time>2021-05-13T08:16:28.000Z</time>
      </trkpt>
      <trkpt lat="47.33414" lon="-2.39958">
        <ele>46.400001525879</ele>
        <time>2021-05-13T08:16:36.000Z</time>
      </trkpt>
      <trkpt lat="47.33436" lon="-2.39919">
        <ele>46.400001525879</ele>
        <time>2021-05-13T08:16:42.000Z</time>
      </trkpt>
      <trkpt lat="47.33441" lon="-2.39913">
        <ele>46.400001525879</ele>
        <time>2021-05-13T08:16:43.000Z</time>
      </trkpt>
      <trkpt lat="47.3345" lon="-2.399">
        <ele>46</ele>
        <time>2021-05-13T08:16:45.000Z</time>
      </trkpt>
      <trkpt lat="47.33455" lon="-2.39893">
        <ele>45.599998474121</ele>
        <time>2021-05-13T08:16:46.000Z</time>
      </trkpt>
      <trkpt lat="47.33461" lon="-2.39887">
        <ele>45.200000762939</ele>
        <time>2021-05-13T08:16:47.000Z</time>
      </trkpt>
      <trkpt lat="47.33467" lon="-2.39879">
        <ele>44.799999237061</ele>
        <time>2021-05-13T08:16:48.000Z</time>
      </trkpt>
      <trkpt lat="47.33472" lon="-2.39872">
        <ele>44.400001525879</ele>
        <time>2021-05-13T08:16:49.000Z</time>
      </trkpt>
      <trkpt lat="47.33498" lon="-2.39835">
        <ele>44</ele>
        <time>2021-05-13T08:16:54.000Z</time>
      </trkpt>
      <trkpt lat="47.33504" lon="-2.39827">
        <ele>43.599998474121</ele>
        <time>2021-05-13T08:16:55.000Z</time>
      </trkpt>
      <trkpt lat="47.33509" lon="-2.39819">
        <ele>43.200000762939</ele>
        <time>2021-05-13T08:16:56.000Z</time>
      </trkpt>
      <trkpt lat="47.33513" lon="-2.39811">
        <ele>42.799999237061</ele>
        <time>2021-05-13T08:16:57.000Z</time>
      </trkpt>
      <trkpt lat="47.33518" lon="-2.39804">
        <ele>42.400001525879</ele>
        <time>2021-05-13T08:16:58.000Z</time>
      </trkpt>
      <trkpt lat="47.33538" lon="-2.39777">
        <ele>42.400001525879</ele>
        <time>2021-05-13T08:17:02.000Z</time>
      </trkpt>
      <trkpt lat="47.33543" lon="-2.3977">
        <ele>42</ele>
        <time>2021-05-13T08:17:03.000Z</time>
      </trkpt>
      <trkpt lat="47.33547" lon="-2.39765">
        <ele>41.599998474121</ele>
        <time>2021-05-13T08:17:04.000Z</time>
      </trkpt>
      <trkpt lat="47.33552" lon="-2.39759">
        <ele>41.200000762939</ele>
        <time>2021-05-13T08:17:05.000Z</time>
      </trkpt>
      <trkpt lat="47.33557" lon="-2.39753">
        <ele>40.799999237061</ele>
        <time>2021-05-13T08:17:06.000Z</time>
      </trkpt>
      <trkpt lat="47.33562" lon="-2.39748">
        <ele>40.400001525879</ele>
        <time>2021-05-13T08:17:07.000Z</time>
      </trkpt>
      <trkpt lat="47.33584" lon="-2.39724">
        <ele>40.400001525879</ele>
        <time>2021-05-13T08:17:11.000Z</time>
      </trkpt>
      <trkpt lat="47.33589" lon="-2.39717">
        <ele>40.400001525879</ele>
        <time>2021-05-13T08:17:12.000Z</time>
      </trkpt>
      <trkpt lat="47.33612" lon="-2.39679">
        <ele>40.400001525879</ele>
        <time>2021-05-13T08:17:17.000Z</time>
      </trkpt>
      <trkpt lat="47.33616" lon="-2.39673">
        <ele>40.400001525879</ele>
        <time>2021-05-13T08:17:18.000Z</time>
      </trkpt>
      <trkpt lat="47.33624" lon="-2.39662">
        <ele>40.400001525879</ele>
        <time>2021-05-13T08:17:20.000Z</time>
      </trkpt>
      <trkpt lat="47.33631" lon="-2.39649">
        <ele>40.400001525879</ele>
        <time>2021-05-13T08:17:22.000Z</time>
      </trkpt>
      <trkpt lat="47.33639" lon="-2.39634">
        <ele>40.400001525879</ele>
        <time>2021-05-13T08:17:24.000Z</time>
      </trkpt>
      <trkpt lat="47.33647" lon="-2.39611">
        <ele>40.400001525879</ele>
        <time>2021-05-13T08:17:27.000Z</time>
      </trkpt>
      <trkpt lat="47.3367" lon="-2.39549">
        <ele>40.799999237061</ele>
        <time>2021-05-13T08:17:35.000Z</time>
      </trkpt>
      <trkpt lat="47.33672" lon="-2.39541">
        <ele>41.200000762939</ele>
        <time>2021-05-13T08:17:36.000Z</time>
      </trkpt>
      <trkpt lat="47.33675" lon="-2.39534">
        <ele>41.599998474121</ele>
        <time>2021-05-13T08:17:37.000Z</time>
      </trkpt>
      <trkpt lat="47.33677" lon="-2.39527">
        <ele>42</ele>
        <time>2021-05-13T08:17:38.000Z</time>
      </trkpt>
      <trkpt lat="47.3368" lon="-2.39519">
        <ele>42.400001525879</ele>
        <time>2021-05-13T08:17:39.000Z</time>
      </trkpt>
      <trkpt lat="47.33684" lon="-2.39504">
        <ele>42.400001525879</ele>
        <time>2021-05-13T08:17:41.000Z</time>
      </trkpt>
      <trkpt lat="47.33691" lon="-2.39481">
        <ele>42.799999237061</ele>
        <time>2021-05-13T08:17:44.000Z</time>
      </trkpt>
      <trkpt lat="47.33693" lon="-2.39474">
        <ele>43.200000762939</ele>
        <time>2021-05-13T08:17:45.000Z</time>
      </trkpt>
      <trkpt lat="47.33695" lon="-2.39466">
        <ele>43.599998474121</ele>
        <time>2021-05-13T08:17:46.000Z</time>
      </trkpt>
      <trkpt lat="47.33697" lon="-2.39459">
        <ele>44</ele>
        <time>2021-05-13T08:17:47.000Z</time>
      </trkpt>
      <trkpt lat="47.33699" lon="-2.39451">
        <ele>44.400001525879</ele>
        <time>2021-05-13T08:17:48.000Z</time>
      </trkpt>
      <trkpt lat="47.33701" lon="-2.39444">
        <ele>44.400001525879</ele>
        <time>2021-05-13T08:17:49.000Z</time>
      </trkpt>
      <trkpt lat="47.33708" lon="-2.39395">
        <ele>44.400001525879</ele>
        <time>2021-05-13T08:17:55.000Z</time>
      </trkpt>
      <trkpt lat="47.33713" lon="-2.39337">
        <ele>44.400001525879</ele>
        <time>2021-05-13T08:18:02.000Z</time>
      </trkpt>
      <trkpt lat="47.33713" lon="-2.39329">
        <ele>44</ele>
        <time>2021-05-13T08:18:03.000Z</time>
      </trkpt>
      <trkpt lat="47.33714" lon="-2.39322">
        <ele>43.599998474121</ele>
        <time>2021-05-13T08:18:04.000Z</time>
      </trkpt>
      <trkpt lat="47.33714" lon="-2.39315">
        <ele>43.200000762939</ele>
        <time>2021-05-13T08:18:05.000Z</time>
      </trkpt>
      <trkpt lat="47.33715" lon="-2.3931">
        <ele>42.799999237061</ele>
        <time>2021-05-13T08:18:06.000Z</time>
      </trkpt>
      <trkpt lat="47.33717" lon="-2.39306">
        <ele>42.400001525879</ele>
        <time>2021-05-13T08:18:07.000Z</time>
      </trkpt>
      <trkpt lat="47.33727" lon="-2.39302">
        <ele>42.400001525879</ele>
        <time>2021-05-13T08:18:10.000Z</time>
      </trkpt>
      <trkpt lat="47.33736" lon="-2.39303">
        <ele>42.400001525879</ele>
        <time>2021-05-13T08:18:12.000Z</time>
      </trkpt>
      <trkpt lat="47.33741" lon="-2.39302">
        <ele>42.400001525879</ele>
        <time>2021-05-13T08:18:13.000Z</time>
      </trkpt>
      <trkpt lat="47.33751" lon="-2.393">
        <ele>42.400001525879</ele>
        <time>2021-05-13T08:18:15.000Z</time>
      </trkpt>
      <trkpt lat="47.33794" lon="-2.39292">
        <ele>42.400001525879</ele>
        <time>2021-05-13T08:18:22.000Z</time>
      </trkpt>
      <trkpt lat="47.33819" lon="-2.39288">
        <ele>42</ele>
        <time>2021-05-13T08:18:26.000Z</time>
      </trkpt>
      <trkpt lat="47.33825" lon="-2.39287">
        <ele>41.599998474121</ele>
        <time>2021-05-13T08:18:27.000Z</time>
      </trkpt>
      <trkpt lat="47.3383" lon="-2.39287">
        <ele>41.200000762939</ele>
        <time>2021-05-13T08:18:28.000Z</time>
      </trkpt>
      <trkpt lat="47.33835" lon="-2.39287">
        <ele>40.799999237061</ele>
        <time>2021-05-13T08:18:29.000Z</time>
      </trkpt>
      <trkpt lat="47.3384" lon="-2.39287">
        <ele>40.200000762939</ele>
        <time>2021-05-13T08:18:30.000Z</time>
      </trkpt>
      <trkpt lat="47.3385" lon="-2.39286">
        <ele>40.200000762939</ele>
        <time>2021-05-13T08:18:32.000Z</time>
      </trkpt>
      <trkpt lat="47.33861" lon="-2.39284">
        <ele>40.200000762939</ele>
        <time>2021-05-13T08:18:34.000Z</time>
      </trkpt>
      <trkpt lat="47.33871" lon="-2.39283">
        <ele>40.200000762939</ele>
        <time>2021-05-13T08:18:36.000Z</time>
      </trkpt>
      <trkpt lat="47.33886" lon="-2.3928">
        <ele>40.200000762939</ele>
        <time>2021-05-13T08:18:39.000Z</time>
      </trkpt>
      <trkpt lat="47.33926" lon="-2.3927">
        <ele>40.200000762939</ele>
        <time>2021-05-13T08:18:47.000Z</time>
      </trkpt>
      <trkpt lat="47.33932" lon="-2.39269">
        <ele>39.400001525879</ele>
        <time>2021-05-13T08:18:48.000Z</time>
      </trkpt>
      <trkpt lat="47.33937" lon="-2.39268">
        <ele>39</ele>
        <time>2021-05-13T08:18:49.000Z</time>
      </trkpt>
      <trkpt lat="47.33943" lon="-2.39267">
        <ele>38.599998474121</ele>
        <time>2021-05-13T08:18:50.000Z</time>
      </trkpt>
      <trkpt lat="47.33949" lon="-2.39266">
        <ele>38.200000762939</ele>
        <time>2021-05-13T08:18:51.000Z</time>
      </trkpt>
      <trkpt lat="47.3396" lon="-2.39264">
        <ele>38.200000762939</ele>
        <time>2021-05-13T08:18:53.000Z</time>
      </trkpt>
      <trkpt lat="47.34" lon="-2.39258">
        <ele>38.200000762939</ele>
        <time>2021-05-13T08:19:00.000Z</time>
      </trkpt>
      <trkpt lat="47.34012" lon="-2.39255">
        <ele>38.200000762939</ele>
        <time>2021-05-13T08:19:02.000Z</time>
      </trkpt>
      <trkpt lat="47.34035" lon="-2.39252">
        <ele>38.200000762939</ele>
        <time>2021-05-13T08:19:06.000Z</time>
      </trkpt>
      <trkpt lat="47.3404" lon="-2.39253">
        <ele>37.799999237061</ele>
        <time>2021-05-13T08:19:07.000Z</time>
      </trkpt>
      <trkpt lat="47.34046" lon="-2.39254">
        <ele>37.200000762939</ele>
        <time>2021-05-13T08:19:08.000Z</time>
      </trkpt>
      <trkpt lat="47.34051" lon="-2.39256">
        <ele>36.799999237061</ele>
        <time>2021-05-13T08:19:09.000Z</time>
      </trkpt>
      <trkpt lat="47.34055" lon="-2.39258">
        <ele>36.400001525879</ele>
        <time>2021-05-13T08:19:10.000Z</time>
      </trkpt>
      <trkpt lat="47.34059" lon="-2.3926">
        <ele>36</ele>
        <time>2021-05-13T08:19:11.000Z</time>
      </trkpt>
      <trkpt lat="47.34064" lon="-2.39271">
        <ele>36</ele>
        <time>2021-05-13T08:19:13.000Z</time>
      </trkpt>
      <trkpt lat="47.34067" lon="-2.39285">
        <ele>36</ele>
        <time>2021-05-13T08:19:15.000Z</time>
      </trkpt>
      <trkpt lat="47.34068" lon="-2.393">
        <ele>36</ele>
        <time>2021-05-13T08:19:17.000Z</time>
      </trkpt>
      <trkpt lat="47.34077" lon="-2.39353">
        <ele>36</ele>
        <time>2021-05-13T08:19:24.000Z</time>
      </trkpt>
      <trkpt lat="47.34084" lon="-2.39392">
        <ele>36</ele>
        <time>2021-05-13T08:19:29.000Z</time>
      </trkpt>
      <trkpt lat="47.34091" lon="-2.39421">
        <ele>36</ele>
        <time>2021-05-13T08:19:33.000Z</time>
      </trkpt>
      <trkpt lat="47.34099" lon="-2.3943">
        <ele>36</ele>
        <time>2021-05-13T08:19:35.000Z</time>
      </trkpt>
      <trkpt lat="47.34113" lon="-2.39424">
        <ele>36</ele>
        <time>2021-05-13T08:19:38.000Z</time>
      </trkpt>
      <trkpt lat="47.34139" lon="-2.39409">
        <ele>36.400001525879</ele>
        <time>2021-05-13T08:19:43.000Z</time>
      </trkpt>
      <trkpt lat="47.34144" lon="-2.39407">
        <ele>37</ele>
        <time>2021-05-13T08:19:44.000Z</time>
      </trkpt>
      <trkpt lat="47.34149" lon="-2.39403">
        <ele>37.400001525879</ele>
        <time>2021-05-13T08:19:45.000Z</time>
      </trkpt>
      <trkpt lat="47.34153" lon="-2.394">
        <ele>37.799999237061</ele>
        <time>2021-05-13T08:19:46.000Z</time>
      </trkpt>
      <trkpt lat="47.34158" lon="-2.39397">
        <ele>38.200000762939</ele>
        <time>2021-05-13T08:19:47.000Z</time>
      </trkpt>
      <trkpt lat="47.34163" lon="-2.39393">
        <ele>38.200000762939</ele>
        <time>2021-05-13T08:19:48.000Z</time>
      </trkpt>
      <trkpt lat="47.34196" lon="-2.39368">
        <ele>38.200000762939</ele>
        <time>2021-05-13T08:19:55.000Z</time>
      </trkpt>
      <trkpt lat="47.34207" lon="-2.39361">
        <ele>38.200000762939</ele>
        <time>2021-05-13T08:19:57.000Z</time>
      </trkpt>
      <trkpt lat="47.34222" lon="-2.39352">
        <ele>38.200000762939</ele>
        <time>2021-05-13T08:20:00.000Z</time>
      </trkpt>
      <trkpt lat="47.34264" lon="-2.39324">
        <ele>38.200000762939</ele>
        <time>2021-05-13T08:20:07.000Z</time>
      </trkpt>
      <trkpt lat="47.34274" lon="-2.3932">
        <ele>37.799999237061</ele>
        <time>2021-05-13T08:20:09.000Z</time>
      </trkpt>
      <trkpt lat="47.3428" lon="-2.39317">
        <ele>37.400001525879</ele>
        <time>2021-05-13T08:20:10.000Z</time>
      </trkpt>
      <trkpt lat="47.34284" lon="-2.39315">
        <ele>37</ele>
        <time>2021-05-13T08:20:11.000Z</time>
      </trkpt>
      <trkpt lat="47.34289" lon="-2.39313">
        <ele>36.599998474121</ele>
        <time>2021-05-13T08:20:12.000Z</time>
      </trkpt>
      <trkpt lat="47.34295" lon="-2.3931">
        <ele>36.200000762939</ele>
        <time>2021-05-13T08:20:13.000Z</time>
      </trkpt>
      <trkpt lat="47.34318" lon="-2.39298">
        <ele>36.200000762939</ele>
        <time>2021-05-13T08:20:17.000Z</time>
      </trkpt>
      <trkpt lat="47.3436" lon="-2.39276">
        <ele>35.799999237061</ele>
        <time>2021-05-13T08:20:24.000Z</time>
      </trkpt>
      <trkpt lat="47.34367" lon="-2.39273">
        <ele>35.400001525879</ele>
        <time>2021-05-13T08:20:25.000Z</time>
      </trkpt>
      <trkpt lat="47.34374" lon="-2.39269">
        <ele>34.599998474121</ele>
        <time>2021-05-13T08:20:26.000Z</time>
      </trkpt>
      <trkpt lat="47.3438" lon="-2.39266">
        <ele>34.200000762939</ele>
        <time>2021-05-13T08:20:27.000Z</time>
      </trkpt>
      <trkpt lat="47.34402" lon="-2.39256">
        <ele>33.599998474121</ele>
        <time>2021-05-13T08:20:30.000Z</time>
      </trkpt>
      <trkpt lat="47.3441" lon="-2.39253">
        <ele>33.200000762939</ele>
        <time>2021-05-13T08:20:31.000Z</time>
      </trkpt>
      <trkpt lat="47.34418" lon="-2.39251">
        <ele>32.799999237061</ele>
        <time>2021-05-13T08:20:32.000Z</time>
      </trkpt>
      <trkpt lat="47.34426" lon="-2.39249">
        <ele>32.200000762939</ele>
        <time>2021-05-13T08:20:33.000Z</time>
      </trkpt>
      <trkpt lat="47.34434" lon="-2.39247">
        <ele>31.799999237061</ele>
        <time>2021-05-13T08:20:34.000Z</time>
      </trkpt>
      <trkpt lat="47.34443" lon="-2.39245">
        <ele>31.39999961853</ele>
        <time>2021-05-13T08:20:35.000Z</time>
      </trkpt>
      <trkpt lat="47.34452" lon="-2.39242">
        <ele>31</ele>
        <time>2021-05-13T08:20:36.000Z</time>
      </trkpt>
      <trkpt lat="47.34461" lon="-2.3924">
        <ele>30.39999961853</ele>
        <time>2021-05-13T08:20:37.000Z</time>
      </trkpt>
      <trkpt lat="47.3447" lon="-2.39237">
        <ele>30</ele>
        <time>2021-05-13T08:20:38.000Z</time>
      </trkpt>
      <trkpt lat="47.34479" lon="-2.39235">
        <ele>29.60000038147</ele>
        <time>2021-05-13T08:20:39.000Z</time>
      </trkpt>
      <trkpt lat="47.34504" lon="-2.39228">
        <ele>29.60000038147</ele>
        <time>2021-05-13T08:20:42.000Z</time>
      </trkpt>
      <trkpt lat="47.34521" lon="-2.39226">
        <ele>29.200000762939</ele>
        <time>2021-05-13T08:20:44.000Z</time>
      </trkpt>
      <trkpt lat="47.3453" lon="-2.39226">
        <ele>28.60000038147</ele>
        <time>2021-05-13T08:20:45.000Z</time>
      </trkpt>
      <trkpt lat="47.34539" lon="-2.39227">
        <ele>28.200000762939</ele>
        <time>2021-05-13T08:20:46.000Z</time>
      </trkpt>
      <trkpt lat="47.34548" lon="-2.39229">
        <ele>27.60000038147</ele>
        <time>2021-05-13T08:20:47.000Z</time>
      </trkpt>
      <trkpt lat="47.34556" lon="-2.39231">
        <ele>27.200000762939</ele>
        <time>2021-05-13T08:20:48.000Z</time>
      </trkpt>
      <trkpt lat="47.34595" lon="-2.39251">
        <ele>27.200000762939</ele>
        <time>2021-05-13T08:20:53.000Z</time>
      </trkpt>
      <trkpt lat="47.34615" lon="-2.39264">
        <ele>26.799999237061</ele>
        <time>2021-05-13T08:20:56.000Z</time>
      </trkpt>
      <trkpt lat="47.34621" lon="-2.39269">
        <ele>26.39999961853</ele>
        <time>2021-05-13T08:20:57.000Z</time>
      </trkpt>
      <trkpt lat="47.34627" lon="-2.39274">
        <ele>25.799999237061</ele>
        <time>2021-05-13T08:20:58.000Z</time>
      </trkpt>
      <trkpt lat="47.34632" lon="-2.39278">
        <ele>25.39999961853</ele>
        <time>2021-05-13T08:20:59.000Z</time>
      </trkpt>
      <trkpt lat="47.34637" lon="-2.39282">
        <ele>25</ele>
        <time>2021-05-13T08:21:00.000Z</time>
      </trkpt>
      <trkpt lat="47.34661" lon="-2.39309">
        <ele>25</ele>
        <time>2021-05-13T08:21:06.000Z</time>
      </trkpt>
      <trkpt lat="47.34662" lon="-2.39314">
        <ele>25</ele>
        <time>2021-05-13T08:21:07.000Z</time>
      </trkpt>
      <trkpt lat="47.34658" lon="-2.39324">
        <ele>25</ele>
        <time>2021-05-13T08:21:09.000Z</time>
      </trkpt>
      <trkpt lat="47.3465" lon="-2.39336">
        <ele>25</ele>
        <time>2021-05-13T08:21:12.000Z</time>
      </trkpt>
      <trkpt lat="47.34644" lon="-2.39345">
        <ele>25</ele>
        <time>2021-05-13T08:21:14.000Z</time>
      </trkpt>
      <trkpt lat="47.34623" lon="-2.39377">
        <ele>25</ele>
        <time>2021-05-13T08:21:20.000Z</time>
      </trkpt>
      <trkpt lat="47.34604" lon="-2.3941">
        <ele>25</ele>
        <time>2021-05-13T08:21:26.000Z</time>
      </trkpt>
      <trkpt lat="47.34583" lon="-2.3944">
        <ele>25</ele>
        <time>2021-05-13T08:21:32.000Z</time>
      </trkpt>
      <trkpt lat="47.34579" lon="-2.39444">
        <ele>25</ele>
        <time>2021-05-13T08:21:33.000Z</time>
      </trkpt>
      <trkpt lat="47.34575" lon="-2.39447">
        <ele>25.39999961853</ele>
        <time>2021-05-13T08:21:34.000Z</time>
      </trkpt>
      <trkpt lat="47.34571" lon="-2.39451">
        <ele>25.799999237061</ele>
        <time>2021-05-13T08:21:35.000Z</time>
      </trkpt>
      <trkpt lat="47.34567" lon="-2.39455">
        <ele>26.200000762939</ele>
        <time>2021-05-13T08:21:36.000Z</time>
      </trkpt>
      <trkpt lat="47.34564" lon="-2.39459">
        <ele>26.60000038147</ele>
        <time>2021-05-13T08:21:37.000Z</time>
      </trkpt>
      <trkpt lat="47.3456" lon="-2.39463">
        <ele>27</ele>
        <time>2021-05-13T08:21:38.000Z</time>
      </trkpt>
      <trkpt lat="47.34558" lon="-2.39467">
        <ele>27</ele>
        <time>2021-05-13T08:21:39.000Z</time>
      </trkpt>
      <trkpt lat="47.34555" lon="-2.39477">
        <ele>27</ele>
        <time>2021-05-13T08:21:41.000Z</time>
      </trkpt>
      <trkpt lat="47.34553" lon="-2.39487">
        <ele>27</ele>
        <time>2021-05-13T08:21:43.000Z</time>
      </trkpt>
      <trkpt lat="47.3455" lon="-2.3951">
        <ele>27</ele>
        <time>2021-05-13T08:21:48.000Z</time>
      </trkpt>
      <trkpt lat="47.34547" lon="-2.39537">
        <ele>27.60000038147</ele>
        <time>2021-05-13T08:21:53.000Z</time>
      </trkpt>
      <trkpt lat="47.34546" lon="-2.39543">
        <ele>28</ele>
        <time>2021-05-13T08:21:54.000Z</time>
      </trkpt>
      <trkpt lat="47.34544" lon="-2.3955">
        <ele>28.39999961853</ele>
        <time>2021-05-13T08:21:55.000Z</time>
      </trkpt>
      <trkpt lat="47.34543" lon="-2.39556">
        <ele>28.799999237061</ele>
        <time>2021-05-13T08:21:56.000Z</time>
      </trkpt>
      <trkpt lat="47.34541" lon="-2.39562">
        <ele>29.200000762939</ele>
        <time>2021-05-13T08:21:57.000Z</time>
      </trkpt>
      <trkpt lat="47.34526" lon="-2.39594">
        <ele>29.200000762939</ele>
        <time>2021-05-13T08:22:02.000Z</time>
      </trkpt>
      <trkpt lat="47.34507" lon="-2.39635">
        <ele>29.200000762939</ele>
        <time>2021-05-13T08:22:08.000Z</time>
      </trkpt>
      <trkpt lat="47.34484" lon="-2.39677">
        <ele>29.200000762939</ele>
        <time>2021-05-13T08:22:14.000Z</time>
      </trkpt>
      <trkpt lat="47.34475" lon="-2.39701">
        <ele>29.200000762939</ele>
        <time>2021-05-13T08:22:17.000Z</time>
      </trkpt>
      <trkpt lat="47.34472" lon="-2.3972">
        <ele>29.200000762939</ele>
        <time>2021-05-13T08:22:19.000Z</time>
      </trkpt>
      <trkpt lat="47.34469" lon="-2.39757">
        <ele>29.200000762939</ele>
        <time>2021-05-13T08:22:24.000Z</time>
      </trkpt>
      <trkpt lat="47.34468" lon="-2.39768">
        <ele>29.200000762939</ele>
        <time>2021-05-13T08:22:27.000Z</time>
      </trkpt>
      <trkpt lat="47.34469" lon="-2.39768">
        <ele>29.200000762939</ele>
        <time>2021-05-13T08:22:28.000Z</time>
      </trkpt>
      <trkpt lat="47.34481" lon="-2.39771">
        <ele>29.200000762939</ele>
        <time>2021-05-13T08:22:32.000Z</time>
      </trkpt>
      <trkpt lat="47.34488" lon="-2.39774">
        <ele>29.200000762939</ele>
        <time>2021-05-13T08:22:34.000Z</time>
      </trkpt>
      <trkpt lat="47.34505" lon="-2.39783">
        <ele>29.200000762939</ele>
        <time>2021-05-13T08:22:38.000Z</time>
      </trkpt>
      <trkpt lat="47.34538" lon="-2.39809">
        <ele>29.200000762939</ele>
        <time>2021-05-13T08:22:46.000Z</time>
      </trkpt>
      <trkpt lat="47.3457" lon="-2.39838">
        <ele>29.200000762939</ele>
        <time>2021-05-13T08:22:54.000Z</time>
      </trkpt>
      <trkpt lat="47.34596" lon="-2.39854">
        <ele>29.200000762939</ele>
        <time>2021-05-13T08:23:00.000Z</time>
      </trkpt>
      <trkpt lat="47.3461" lon="-2.39863">
        <ele>29.200000762939</ele>
        <time>2021-05-13T08:23:03.000Z</time>
      </trkpt>
      <trkpt lat="47.34613" lon="-2.39874">
        <ele>29.200000762939</ele>
        <time>2021-05-13T08:23:05.000Z</time>
      </trkpt>
      <trkpt lat="47.34609" lon="-2.39894">
        <ele>29.200000762939</ele>
        <time>2021-05-13T08:23:08.000Z</time>
      </trkpt>
      <trkpt lat="47.34604" lon="-2.39906">
        <ele>29.200000762939</ele>
        <time>2021-05-13T08:23:10.000Z</time>
      </trkpt>
      <trkpt lat="47.34603" lon="-2.39912">
        <ele>29.200000762939</ele>
        <time>2021-05-13T08:23:11.000Z</time>
      </trkpt>
      <trkpt lat="47.34597" lon="-2.39928">
        <ele>29.200000762939</ele>
        <time>2021-05-13T08:23:14.000Z</time>
      </trkpt>
      <trkpt lat="47.34592" lon="-2.39953">
        <ele>29.200000762939</ele>
        <time>2021-05-13T08:23:19.000Z</time>
      </trkpt>
      <trkpt lat="47.34587" lon="-2.39992">
        <ele>29.200000762939</ele>
        <time>2021-05-13T08:23:25.000Z</time>
      </trkpt>
      <trkpt lat="47.34595" lon="-2.40011">
        <ele>29.200000762939</ele>
        <time>2021-05-13T08:23:28.000Z</time>
      </trkpt>
      <trkpt lat="47.34603" lon="-2.40023">
        <ele>29.200000762939</ele>
        <time>2021-05-13T08:23:30.000Z</time>
      </trkpt>
      <trkpt lat="47.34615" lon="-2.40041">
        <ele>29.200000762939</ele>
        <time>2021-05-13T08:23:33.000Z</time>
      </trkpt>
      <trkpt lat="47.34644" lon="-2.40088">
        <ele>29.200000762939</ele>
        <time>2021-05-13T08:23:41.000Z</time>
      </trkpt>
      <trkpt lat="47.34669" lon="-2.40117">
        <ele>29.200000762939</ele>
        <time>2021-05-13T08:23:47.000Z</time>
      </trkpt>
      <trkpt lat="47.34687" lon="-2.40127">
        <ele>29.200000762939</ele>
        <time>2021-05-13T08:23:51.000Z</time>
      </trkpt>
      <trkpt lat="47.34693" lon="-2.40128">
        <ele>28.799999237061</ele>
        <time>2021-05-13T08:23:52.000Z</time>
      </trkpt>
      <trkpt lat="47.34698" lon="-2.40129">
        <ele>28.39999961853</ele>
        <time>2021-05-13T08:23:53.000Z</time>
      </trkpt>
      <trkpt lat="47.34704" lon="-2.4013">
        <ele>28</ele>
        <time>2021-05-13T08:23:54.000Z</time>
      </trkpt>
      <trkpt lat="47.34709" lon="-2.40132">
        <ele>27.60000038147</ele>
        <time>2021-05-13T08:23:55.000Z</time>
      </trkpt>
      <trkpt lat="47.34714" lon="-2.40135">
        <ele>27</ele>
        <time>2021-05-13T08:23:56.000Z</time>
      </trkpt>
      <trkpt lat="47.34725" lon="-2.40142">
        <ele>27</ele>
        <time>2021-05-13T08:23:58.000Z</time>
      </trkpt>
      <trkpt lat="47.3473" lon="-2.40146">
        <ele>27</ele>
        <time>2021-05-13T08:23:59.000Z</time>
      </trkpt>
      <trkpt lat="47.34735" lon="-2.40151">
        <ele>27</ele>
        <time>2021-05-13T08:24:00.000Z</time>
      </trkpt>
      <trkpt lat="47.34751" lon="-2.40172">
        <ele>27</ele>
        <time>2021-05-13T08:24:04.000Z</time>
      </trkpt>
      <trkpt lat="47.34779" lon="-2.40208">
        <ele>27</ele>
        <time>2021-05-13T08:24:11.000Z</time>
      </trkpt>
      <trkpt lat="47.34784" lon="-2.40212">
        <ele>27</ele>
        <time>2021-05-13T08:24:12.000Z</time>
      </trkpt>
      <trkpt lat="47.34808" lon="-2.40238">
        <ele>27</ele>
        <time>2021-05-13T08:24:17.000Z</time>
      </trkpt>
      <trkpt lat="47.34818" lon="-2.4026">
        <ele>26.60000038147</ele>
        <time>2021-05-13T08:24:20.000Z</time>
      </trkpt>
      <trkpt lat="47.34821" lon="-2.40268">
        <ele>26.200000762939</ele>
        <time>2021-05-13T08:24:21.000Z</time>
      </trkpt>
      <trkpt lat="47.34824" lon="-2.40274">
        <ele>25.799999237061</ele>
        <time>2021-05-13T08:24:22.000Z</time>
      </trkpt>
      <trkpt lat="47.34828" lon="-2.4028">
        <ele>25.39999961853</ele>
        <time>2021-05-13T08:24:23.000Z</time>
      </trkpt>
      <trkpt lat="47.34831" lon="-2.40286">
        <ele>24.799999237061</ele>
        <time>2021-05-13T08:24:24.000Z</time>
      </trkpt>
      <trkpt lat="47.34847" lon="-2.40316">
        <ele>24.799999237061</ele>
        <time>2021-05-13T08:24:29.000Z</time>
      </trkpt>
      <trkpt lat="47.34863" lon="-2.40362">
        <ele>24.799999237061</ele>
        <time>2021-05-13T08:24:35.000Z</time>
      </trkpt>
      <trkpt lat="47.34874" lon="-2.40416">
        <ele>24.39999961853</ele>
        <time>2021-05-13T08:24:41.000Z</time>
      </trkpt>
      <trkpt lat="47.34875" lon="-2.40425">
        <ele>24</ele>
        <time>2021-05-13T08:24:42.000Z</time>
      </trkpt>
      <trkpt lat="47.34877" lon="-2.40435">
        <ele>23.60000038147</ele>
        <time>2021-05-13T08:24:43.000Z</time>
      </trkpt>
      <trkpt lat="47.34878" lon="-2.40444">
        <ele>23.200000762939</ele>
        <time>2021-05-13T08:24:44.000Z</time>
      </trkpt>
      <trkpt lat="47.3488" lon="-2.40453">
        <ele>22.799999237061</ele>
        <time>2021-05-13T08:24:45.000Z</time>
      </trkpt>
      <trkpt lat="47.34887" lon="-2.40496">
        <ele>22.799999237061</ele>
        <time>2021-05-13T08:24:49.000Z</time>
      </trkpt>
      <trkpt lat="47.3489" lon="-2.40529">
        <ele>22.39999961853</ele>
        <time>2021-05-13T08:24:52.000Z</time>
      </trkpt>
      <trkpt lat="47.34891" lon="-2.40541">
        <ele>21.799999237061</ele>
        <time>2021-05-13T08:24:53.000Z</time>
      </trkpt>
      <trkpt lat="47.34891" lon="-2.40553">
        <ele>21.39999961853</ele>
        <time>2021-05-13T08:24:54.000Z</time>
      </trkpt>
      <trkpt lat="47.34891" lon="-2.40562">
        <ele>21</ele>
        <time>2021-05-13T08:24:55.000Z</time>
      </trkpt>
      <trkpt lat="47.3489" lon="-2.40571">
        <ele>20.39999961853</ele>
        <time>2021-05-13T08:24:56.000Z</time>
      </trkpt>
      <trkpt lat="47.34888" lon="-2.40587">
        <ele>20.39999961853</ele>
        <time>2021-05-13T08:24:58.000Z</time>
      </trkpt>
      <trkpt lat="47.34885" lon="-2.40592">
        <ele>20.39999961853</ele>
        <time>2021-05-13T08:24:59.000Z</time>
      </trkpt>
      <trkpt lat="47.34863" lon="-2.40607">
        <ele>20.39999961853</ele>
        <time>2021-05-13T08:25:02.000Z</time>
      </trkpt>
      <trkpt lat="47.34849" lon="-2.40618">
        <ele>20.39999961853</ele>
        <time>2021-05-13T08:25:04.000Z</time>
      </trkpt>
      <trkpt lat="47.34841" lon="-2.40634">
        <ele>20.39999961853</ele>
        <time>2021-05-13T08:25:06.000Z</time>
      </trkpt>
      <trkpt lat="47.34838" lon="-2.40642">
        <ele>20.39999961853</ele>
        <time>2021-05-13T08:25:07.000Z</time>
      </trkpt>
      <trkpt lat="47.34829" lon="-2.40676">
        <ele>20.39999961853</ele>
        <time>2021-05-13T08:25:11.000Z</time>
      </trkpt>
      <trkpt lat="47.34824" lon="-2.4071">
        <ele>20.799999237061</ele>
        <time>2021-05-13T08:25:15.000Z</time>
      </trkpt>
      <trkpt lat="47.34823" lon="-2.40718">
        <ele>21.200000762939</ele>
        <time>2021-05-13T08:25:16.000Z</time>
      </trkpt>
      <trkpt lat="47.34823" lon="-2.40725">
        <ele>21.60000038147</ele>
        <time>2021-05-13T08:25:17.000Z</time>
      </trkpt>
      <trkpt lat="47.34823" lon="-2.40732">
        <ele>22.200000762939</ele>
        <time>2021-05-13T08:25:18.000Z</time>
      </trkpt>
      <trkpt lat="47.34824" lon="-2.40739">
        <ele>22.60000038147</ele>
        <time>2021-05-13T08:25:19.000Z</time>
      </trkpt>
      <trkpt lat="47.34828" lon="-2.40756">
        <ele>22.60000038147</ele>
        <time>2021-05-13T08:25:22.000Z</time>
      </trkpt>
      <trkpt lat="47.34838" lon="-2.40773">
        <ele>22.60000038147</ele>
        <time>2021-05-13T08:25:26.000Z</time>
      </trkpt>
      <trkpt lat="47.34843" lon="-2.40775">
        <ele>22.60000038147</ele>
        <time>2021-05-13T08:25:27.000Z</time>
      </trkpt>
      <trkpt lat="47.34856" lon="-2.40778">
        <ele>22.60000038147</ele>
        <time>2021-05-13T08:25:30.000Z</time>
      </trkpt>
      <trkpt lat="47.34865" lon="-2.40777">
        <ele>22.60000038147</ele>
        <time>2021-05-13T08:25:32.000Z</time>
      </trkpt>
      <trkpt lat="47.34886" lon="-2.40781">
        <ele>22.60000038147</ele>
        <time>2021-05-13T08:25:37.000Z</time>
      </trkpt>
      <trkpt lat="47.34892" lon="-2.40787">
        <ele>22.60000038147</ele>
        <time>2021-05-13T08:25:39.000Z</time>
      </trkpt>
      <trkpt lat="47.34898" lon="-2.40796">
        <ele>22.60000038147</ele>
        <time>2021-05-13T08:25:41.000Z</time>
      </trkpt>
      <trkpt lat="47.34903" lon="-2.40806">
        <ele>22.60000038147</ele>
        <time>2021-05-13T08:25:43.000Z</time>
      </trkpt>
      <trkpt lat="47.34911" lon="-2.40825">
        <ele>22.60000038147</ele>
        <time>2021-05-13T08:25:46.000Z</time>
      </trkpt>
      <trkpt lat="47.34928" lon="-2.40861">
        <ele>22.60000038147</ele>
        <time>2021-05-13T08:25:52.000Z</time>
      </trkpt>
      <trkpt lat="47.34932" lon="-2.4089">
        <ele>22.60000038147</ele>
        <time>2021-05-13T08:25:56.000Z</time>
      </trkpt>
      <trkpt lat="47.34933" lon="-2.40896">
        <ele>22.60000038147</ele>
        <time>2021-05-13T08:25:57.000Z</time>
      </trkpt>
      <trkpt lat="47.34934" lon="-2.40926">
        <ele>22.60000038147</ele>
        <time>2021-05-13T08:26:01.000Z</time>
      </trkpt>
      <trkpt lat="47.34935" lon="-2.4094">
        <ele>22.60000038147</ele>
        <time>2021-05-13T08:26:03.000Z</time>
      </trkpt>
      <trkpt lat="47.34935" lon="-2.40948">
        <ele>22.60000038147</ele>
        <time>2021-05-13T08:26:04.000Z</time>
      </trkpt>
      <trkpt lat="47.34934" lon="-2.4098">
        <ele>22.60000038147</ele>
        <time>2021-05-13T08:26:08.000Z</time>
      </trkpt>
      <trkpt lat="47.34929" lon="-2.41032">
        <ele>22.60000038147</ele>
        <time>2021-05-13T08:26:15.000Z</time>
      </trkpt>
      <trkpt lat="47.34931" lon="-2.41073">
        <ele>22.60000038147</ele>
        <time>2021-05-13T08:26:21.000Z</time>
      </trkpt>
      <trkpt lat="47.34948" lon="-2.41108">
        <ele>22.60000038147</ele>
        <time>2021-05-13T08:26:25.000Z</time>
      </trkpt>
      <trkpt lat="47.34976" lon="-2.41158">
        <ele>22.60000038147</ele>
        <time>2021-05-13T08:26:31.000Z</time>
      </trkpt>
      <trkpt lat="47.34998" lon="-2.41211">
        <ele>22.60000038147</ele>
        <time>2021-05-13T08:26:38.000Z</time>
      </trkpt>
      <trkpt lat="47.35017" lon="-2.41252">
        <ele>22.60000038147</ele>
        <time>2021-05-13T08:26:44.000Z</time>
      </trkpt>
      <trkpt lat="47.35019" lon="-2.41259">
        <ele>22.60000038147</ele>
        <time>2021-05-13T08:26:45.000Z</time>
      </trkpt>
      <trkpt lat="47.35034" lon="-2.41297">
        <ele>22.60000038147</ele>
        <time>2021-05-13T08:26:50.000Z</time>
      </trkpt>
      <trkpt lat="47.35052" lon="-2.41346">
        <ele>22.60000038147</ele>
        <time>2021-05-13T08:26:57.000Z</time>
      </trkpt>
      <trkpt lat="47.35071" lon="-2.41387">
        <ele>22.60000038147</ele>
        <time>2021-05-13T08:27:03.000Z</time>
      </trkpt>
      <trkpt lat="47.35081" lon="-2.41399">
        <ele>22.60000038147</ele>
        <time>2021-05-13T08:27:06.000Z</time>
      </trkpt>
      <trkpt lat="47.35084" lon="-2.41399">
        <ele>22.60000038147</ele>
        <time>2021-05-13T08:27:07.000Z</time>
      </trkpt>
      <trkpt lat="47.35088" lon="-2.41397">
        <ele>22</ele>
        <time>2021-05-13T08:27:08.000Z</time>
      </trkpt>
      <trkpt lat="47.35093" lon="-2.41394">
        <ele>21.60000038147</ele>
        <time>2021-05-13T08:27:09.000Z</time>
      </trkpt>
      <trkpt lat="47.35097" lon="-2.41391">
        <ele>21.200000762939</ele>
        <time>2021-05-13T08:27:10.000Z</time>
      </trkpt>
      <trkpt lat="47.35101" lon="-2.41389">
        <ele>20.799999237061</ele>
        <time>2021-05-13T08:27:11.000Z</time>
      </trkpt>
      <trkpt lat="47.35104" lon="-2.41386">
        <ele>20.39999961853</ele>
        <time>2021-05-13T08:27:12.000Z</time>
      </trkpt>
      <trkpt lat="47.3513" lon="-2.41366">
        <ele>20.39999961853</ele>
        <time>2021-05-13T08:27:18.000Z</time>
      </trkpt>
      <trkpt lat="47.35149" lon="-2.41354">
        <ele>20.39999961853</ele>
        <time>2021-05-13T08:27:22.000Z</time>
      </trkpt>
      <trkpt lat="47.3516" lon="-2.41351">
        <ele>20.39999961853</ele>
        <time>2021-05-13T08:27:24.000Z</time>
      </trkpt>
      <trkpt lat="47.35167" lon="-2.41352">
        <ele>20.39999961853</ele>
        <time>2021-05-13T08:27:25.000Z</time>
      </trkpt>
      <trkpt lat="47.3518" lon="-2.41359">
        <ele>20.39999961853</ele>
        <time>2021-05-13T08:27:27.000Z</time>
      </trkpt>
      <trkpt lat="47.35195" lon="-2.41377">
        <ele>20.39999961853</ele>
        <time>2021-05-13T08:27:30.000Z</time>
      </trkpt>
      <trkpt lat="47.352" lon="-2.41384">
        <ele>20.39999961853</ele>
        <time>2021-05-13T08:27:31.000Z</time>
      </trkpt>
      <trkpt lat="47.35212" lon="-2.41402">
        <ele>20.39999961853</ele>
        <time>2021-05-13T08:27:34.000Z</time>
      </trkpt>
      <trkpt lat="47.3522" lon="-2.41413">
        <ele>20.39999961853</ele>
        <time>2021-05-13T08:27:36.000Z</time>
      </trkpt>
      <trkpt lat="47.35243" lon="-2.41441">
        <ele>20.39999961853</ele>
        <time>2021-05-13T08:27:41.000Z</time>
      </trkpt>
      <trkpt lat="47.35258" lon="-2.41444">
        <ele>20.39999961853</ele>
        <time>2021-05-13T08:27:44.000Z</time>
      </trkpt>
      <trkpt lat="47.35262" lon="-2.41443">
        <ele>20.39999961853</ele>
        <time>2021-05-13T08:27:45.000Z</time>
      </trkpt>
      <trkpt lat="47.35272" lon="-2.4144">
        <ele>20.39999961853</ele>
        <time>2021-05-13T08:27:47.000Z</time>
      </trkpt>
      <trkpt lat="47.35277" lon="-2.41435">
        <ele>20.39999961853</ele>
        <time>2021-05-13T08:27:48.000Z</time>
      </trkpt>
      <trkpt lat="47.35291" lon="-2.41418">
        <ele>20.39999961853</ele>
        <time>2021-05-13T08:27:51.000Z</time>
      </trkpt>
      <trkpt lat="47.353" lon="-2.41405">
        <ele>20.39999961853</ele>
        <time>2021-05-13T08:27:53.000Z</time>
      </trkpt>
      <trkpt lat="47.35325" lon="-2.4136">
        <ele>20.39999961853</ele>
        <time>2021-05-13T08:27:59.000Z</time>
      </trkpt>
      <trkpt lat="47.35329" lon="-2.41354">
        <ele>20.39999961853</ele>
        <time>2021-05-13T08:28:00.000Z</time>
      </trkpt>
      <trkpt lat="47.35339" lon="-2.41341">
        <ele>20.39999961853</ele>
        <time>2021-05-13T08:28:02.000Z</time>
      </trkpt>
      <trkpt lat="47.35357" lon="-2.41316">
        <ele>20.39999961853</ele>
        <time>2021-05-13T08:28:06.000Z</time>
      </trkpt>
      <trkpt lat="47.35382" lon="-2.41284">
        <ele>20.39999961853</ele>
        <time>2021-05-13T08:28:12.000Z</time>
      </trkpt>
      <trkpt lat="47.35414" lon="-2.41256">
        <ele>20.39999961853</ele>
        <time>2021-05-13T08:28:19.000Z</time>
      </trkpt>
      <trkpt lat="47.35419" lon="-2.4125">
        <ele>20.39999961853</ele>
        <time>2021-05-13T08:28:20.000Z</time>
      </trkpt>
      <trkpt lat="47.35437" lon="-2.41227">
        <ele>20.39999961853</ele>
        <time>2021-05-13T08:28:24.000Z</time>
      </trkpt>
      <trkpt lat="47.35459" lon="-2.41202">
        <ele>20.39999961853</ele>
        <time>2021-05-13T08:28:29.000Z</time>
      </trkpt>
      <trkpt lat="47.35492" lon="-2.41176">
        <ele>20.39999961853</ele>
        <time>2021-05-13T08:28:36.000Z</time>
      </trkpt>
      <trkpt lat="47.3552" lon="-2.41154">
        <ele>20.39999961853</ele>
        <time>2021-05-13T08:28:42.000Z</time>
      </trkpt>
      <trkpt lat="47.35539" lon="-2.4114">
        <ele>20.799999237061</ele>
        <time>2021-05-13T08:28:46.000Z</time>
      </trkpt>
      <trkpt lat="47.35544" lon="-2.41137">
        <ele>21.200000762939</ele>
        <time>2021-05-13T08:28:47.000Z</time>
      </trkpt>
      <trkpt lat="47.35549" lon="-2.41133">
        <ele>21.60000038147</ele>
        <time>2021-05-13T08:28:48.000Z</time>
      </trkpt>
      <trkpt lat="47.35555" lon="-2.41129">
        <ele>22</ele>
        <time>2021-05-13T08:28:49.000Z</time>
      </trkpt>
      <trkpt lat="47.3556" lon="-2.41124">
        <ele>22.60000038147</ele>
        <time>2021-05-13T08:28:50.000Z</time>
      </trkpt>
      <trkpt lat="47.35595" lon="-2.41092">
        <ele>22.60000038147</ele>
        <time>2021-05-13T08:28:56.000Z</time>
      </trkpt>
      <trkpt lat="47.35621" lon="-2.41061">
        <ele>22.60000038147</ele>
        <time>2021-05-13T08:29:01.000Z</time>
      </trkpt>
      <trkpt lat="47.35653" lon="-2.41021">
        <ele>22.60000038147</ele>
        <time>2021-05-13T08:29:07.000Z</time>
      </trkpt>
      <trkpt lat="47.35681" lon="-2.40981">
        <ele>22.60000038147</ele>
        <time>2021-05-13T08:29:13.000Z</time>
      </trkpt>
      <trkpt lat="47.35699" lon="-2.40957">
        <ele>22.60000038147</ele>
        <time>2021-05-13T08:29:18.000Z</time>
      </trkpt>
      <trkpt lat="47.35718" lon="-2.40924">
        <ele>22.60000038147</ele>
        <time>2021-05-13T08:29:23.000Z</time>
      </trkpt>
      <trkpt lat="47.35743" lon="-2.40885">
        <ele>22.60000038147</ele>
        <time>2021-05-13T08:29:29.000Z</time>
      </trkpt>
      <trkpt lat="47.35768" lon="-2.40847">
        <ele>22.60000038147</ele>
        <time>2021-05-13T08:29:35.000Z</time>
      </trkpt>
      <trkpt lat="47.35773" lon="-2.4084">
        <ele>22.200000762939</ele>
        <time>2021-05-13T08:29:36.000Z</time>
      </trkpt>
      <trkpt lat="47.35777" lon="-2.40834">
        <ele>21.799999237061</ele>
        <time>2021-05-13T08:29:37.000Z</time>
      </trkpt>
      <trkpt lat="47.35781" lon="-2.40828">
        <ele>21.39999961853</ele>
        <time>2021-05-13T08:29:38.000Z</time>
      </trkpt>
      <trkpt lat="47.35785" lon="-2.40822">
        <ele>21</ele>
        <time>2021-05-13T08:29:39.000Z</time>
      </trkpt>
      <trkpt lat="47.35789" lon="-2.40816">
        <ele>20.60000038147</ele>
        <time>2021-05-13T08:29:40.000Z</time>
      </trkpt>
      <trkpt lat="47.35793" lon="-2.4081">
        <ele>20.60000038147</ele>
        <time>2021-05-13T08:29:41.000Z</time>
      </trkpt>
      <trkpt lat="47.35819" lon="-2.40769">
        <ele>20.60000038147</ele>
        <time>2021-05-13T08:29:48.000Z</time>
      </trkpt>
      <trkpt lat="47.35843" lon="-2.40733">
        <ele>20.60000038147</ele>
        <time>2021-05-13T08:29:55.000Z</time>
      </trkpt>
      <trkpt lat="47.3585" lon="-2.40719">
        <ele>20.60000038147</ele>
        <time>2021-05-13T08:29:57.000Z</time>
      </trkpt>
      <trkpt lat="47.35851" lon="-2.40702">
        <ele>20.60000038147</ele>
        <time>2021-05-13T08:29:59.000Z</time>
      </trkpt>
      <trkpt lat="47.35862" lon="-2.40669">
        <ele>20.60000038147</ele>
        <time>2021-05-13T08:30:03.000Z</time>
      </trkpt>
      <trkpt lat="47.35866" lon="-2.4066">
        <ele>20.60000038147</ele>
        <time>2021-05-13T08:30:04.000Z</time>
      </trkpt>
      <trkpt lat="47.35889" lon="-2.40618">
        <ele>20.60000038147</ele>
        <time>2021-05-13T08:30:10.000Z</time>
      </trkpt>
      <trkpt lat="47.35917" lon="-2.40572">
        <ele>20.60000038147</ele>
        <time>2021-05-13T08:30:17.000Z</time>
      </trkpt>
      <trkpt lat="47.35948" lon="-2.4053">
        <ele>20.60000038147</ele>
        <time>2021-05-13T08:30:24.000Z</time>
      </trkpt>
      <trkpt lat="47.35972" lon="-2.40496">
        <ele>20.60000038147</ele>
        <time>2021-05-13T08:30:29.000Z</time>
      </trkpt>
      <trkpt lat="47.35977" lon="-2.40491">
        <ele>20.60000038147</ele>
        <time>2021-05-13T08:30:30.000Z</time>
      </trkpt>
      <trkpt lat="47.36012" lon="-2.40449">
        <ele>20.60000038147</ele>
        <time>2021-05-13T08:30:37.000Z</time>
      </trkpt>
      <trkpt lat="47.3602" lon="-2.40437">
        <ele>20.60000038147</ele>
        <time>2021-05-13T08:30:39.000Z</time>
      </trkpt>
      <trkpt lat="47.36024" lon="-2.40425">
        <ele>20.60000038147</ele>
        <time>2021-05-13T08:30:41.000Z</time>
      </trkpt>
      <trkpt lat="47.36026" lon="-2.40397">
        <ele>20.60000038147</ele>
        <time>2021-05-13T08:30:45.000Z</time>
      </trkpt>
      <trkpt lat="47.36029" lon="-2.40348">
        <ele>20.60000038147</ele>
        <time>2021-05-13T08:30:51.000Z</time>
      </trkpt>
      <trkpt lat="47.36032" lon="-2.40331">
        <ele>20.60000038147</ele>
        <time>2021-05-13T08:30:53.000Z</time>
      </trkpt>
      <trkpt lat="47.36039" lon="-2.40316">
        <ele>20.60000038147</ele>
        <time>2021-05-13T08:30:55.000Z</time>
      </trkpt>
      <trkpt lat="47.36047" lon="-2.40304">
        <ele>20.60000038147</ele>
        <time>2021-05-13T08:30:57.000Z</time>
      </trkpt>
      <trkpt lat="47.36061" lon="-2.40287">
        <ele>20.60000038147</ele>
        <time>2021-05-13T08:31:00.000Z</time>
      </trkpt>
      <trkpt lat="47.36066" lon="-2.40282">
        <ele>20.60000038147</ele>
        <time>2021-05-13T08:31:01.000Z</time>
      </trkpt>
      <trkpt lat="47.36093" lon="-2.40261">
        <ele>20.60000038147</ele>
        <time>2021-05-13T08:31:06.000Z</time>
      </trkpt>
      <trkpt lat="47.36125" lon="-2.40234">
        <ele>20.60000038147</ele>
        <time>2021-05-13T08:31:12.000Z</time>
      </trkpt>
      <trkpt lat="47.36147" lon="-2.40218">
        <ele>21</ele>
        <time>2021-05-13T08:31:16.000Z</time>
      </trkpt>
      <trkpt lat="47.36152" lon="-2.40215">
        <ele>21.39999961853</ele>
        <time>2021-05-13T08:31:17.000Z</time>
      </trkpt>
      <trkpt lat="47.36157" lon="-2.4021">
        <ele>21.799999237061</ele>
        <time>2021-05-13T08:31:18.000Z</time>
      </trkpt>
      <trkpt lat="47.36163" lon="-2.40206">
        <ele>22.200000762939</ele>
        <time>2021-05-13T08:31:19.000Z</time>
      </trkpt>
      <trkpt lat="47.36168" lon="-2.40202">
        <ele>22.60000038147</ele>
        <time>2021-05-13T08:31:20.000Z</time>
      </trkpt>
      <trkpt lat="47.36186" lon="-2.40184">
        <ele>22.60000038147</ele>
        <time>2021-05-13T08:31:24.000Z</time>
      </trkpt>
      <trkpt lat="47.36217" lon="-2.4015">
        <ele>22.60000038147</ele>
        <time>2021-05-13T08:31:31.000Z</time>
      </trkpt>
      <trkpt lat="47.36246" lon="-2.40127">
        <ele>22.60000038147</ele>
        <time>2021-05-13T08:31:37.000Z</time>
      </trkpt>
      <trkpt lat="47.36256" lon="-2.40122">
        <ele>22.60000038147</ele>
        <time>2021-05-13T08:31:39.000Z</time>
      </trkpt>
      <trkpt lat="47.36268" lon="-2.40119">
        <ele>22.200000762939</ele>
        <time>2021-05-13T08:31:41.000Z</time>
      </trkpt>
      <trkpt lat="47.36273" lon="-2.40119">
        <ele>21.60000038147</ele>
        <time>2021-05-13T08:31:42.000Z</time>
      </trkpt>
      <trkpt lat="47.36278" lon="-2.40117">
        <ele>21.200000762939</ele>
        <time>2021-05-13T08:31:43.000Z</time>
      </trkpt>
      <trkpt lat="47.36283" lon="-2.40114">
        <ele>20.799999237061</ele>
        <time>2021-05-13T08:31:44.000Z</time>
      </trkpt>
      <trkpt lat="47.36288" lon="-2.40112">
        <ele>20.39999961853</ele>
        <time>2021-05-13T08:31:45.000Z</time>
      </trkpt>
      <trkpt lat="47.36299" lon="-2.40108">
        <ele>20.39999961853</ele>
        <time>2021-05-13T08:31:47.000Z</time>
      </trkpt>
      <trkpt lat="47.36343" lon="-2.40089">
        <ele>20.39999961853</ele>
        <time>2021-05-13T08:31:55.000Z</time>
      </trkpt>
      <trkpt lat="47.36375" lon="-2.4008">
        <ele>20.39999961853</ele>
        <time>2021-05-13T08:32:01.000Z</time>
      </trkpt>
      <trkpt lat="47.36416" lon="-2.40069">
        <ele>20.39999961853</ele>
        <time>2021-05-13T08:32:08.000Z</time>
      </trkpt>
      <trkpt lat="47.36444" lon="-2.40061">
        <ele>20.39999961853</ele>
        <time>2021-05-13T08:32:13.000Z</time>
      </trkpt>
      <trkpt lat="47.36453" lon="-2.40057">
        <ele>20.39999961853</ele>
        <time>2021-05-13T08:32:15.000Z</time>
      </trkpt>
      <trkpt lat="47.36464" lon="-2.40049">
        <ele>20.39999961853</ele>
        <time>2021-05-13T08:32:18.000Z</time>
      </trkpt>
      <trkpt lat="47.36486" lon="-2.40027">
        <ele>20.39999961853</ele>
        <time>2021-05-13T08:32:23.000Z</time>
      </trkpt>
      <trkpt lat="47.36519" lon="-2.39997">
        <ele>20.39999961853</ele>
        <time>2021-05-13T08:32:30.000Z</time>
      </trkpt>
      <trkpt lat="47.36546" lon="-2.3997">
        <ele>20.39999961853</ele>
        <time>2021-05-13T08:32:36.000Z</time>
      </trkpt>
      <trkpt lat="47.3655" lon="-2.39965">
        <ele>20.39999961853</ele>
        <time>2021-05-13T08:32:37.000Z</time>
      </trkpt>
      <trkpt lat="47.36569" lon="-2.39939">
        <ele>20.39999961853</ele>
        <time>2021-05-13T08:32:42.000Z</time>
      </trkpt>
      <trkpt lat="47.36587" lon="-2.39906">
        <ele>20.39999961853</ele>
        <time>2021-05-13T08:32:48.000Z</time>
      </trkpt>
      <trkpt lat="47.36587" lon="-2.39898">
        <ele>20.39999961853</ele>
        <time>2021-05-13T08:32:49.000Z</time>
      </trkpt>
      <trkpt lat="47.36584" lon="-2.39892">
        <ele>20</ele>
        <time>2021-05-13T08:32:50.000Z</time>
      </trkpt>
      <trkpt lat="47.36581" lon="-2.39886">
        <ele>19.60000038147</ele>
        <time>2021-05-13T08:32:51.000Z</time>
      </trkpt>
      <trkpt lat="47.36577" lon="-2.39881">
        <ele>19.200000762939</ele>
        <time>2021-05-13T08:32:52.000Z</time>
      </trkpt>
      <trkpt lat="47.36573" lon="-2.39877">
        <ele>18.799999237061</ele>
        <time>2021-05-13T08:32:53.000Z</time>
      </trkpt>
      <trkpt lat="47.36569" lon="-2.39873">
        <ele>18.39999961853</ele>
        <time>2021-05-13T08:32:54.000Z</time>
      </trkpt>
      <trkpt lat="47.36565" lon="-2.3987">
        <ele>18.39999961853</ele>
        <time>2021-05-13T08:32:55.000Z</time>
      </trkpt>
      <trkpt lat="47.36553" lon="-2.3986">
        <ele>18.39999961853</ele>
        <time>2021-05-13T08:32:59.000Z</time>
      </trkpt>
      <trkpt lat="47.36536" lon="-2.39834">
        <ele>18.39999961853</ele>
        <time>2021-05-13T08:33:05.000Z</time>
      </trkpt>
      <trkpt lat="47.36534" lon="-2.39828">
        <ele>18.39999961853</ele>
        <time>2021-05-13T08:33:06.000Z</time>
      </trkpt>
      <trkpt lat="47.36526" lon="-2.39806">
        <ele>18.39999961853</ele>
        <time>2021-05-13T08:33:10.000Z</time>
      </trkpt>
      <trkpt lat="47.36517" lon="-2.39786">
        <ele>18.39999961853</ele>
        <time>2021-05-13T08:33:13.000Z</time>
      </trkpt>
      <trkpt lat="47.36514" lon="-2.39782">
        <ele>18.39999961853</ele>
        <time>2021-05-13T08:33:14.000Z</time>
      </trkpt>
      <trkpt lat="47.36506" lon="-2.39775">
        <ele>18.39999961853</ele>
        <time>2021-05-13T08:33:16.000Z</time>
      </trkpt>
      <trkpt lat="47.36494" lon="-2.39771">
        <ele>18.39999961853</ele>
        <time>2021-05-13T08:33:18.000Z</time>
      </trkpt>
      <trkpt lat="47.36489" lon="-2.39768">
        <ele>18.39999961853</ele>
        <time>2021-05-13T08:33:19.000Z</time>
      </trkpt>
      <trkpt lat="47.36478" lon="-2.39751">
        <ele>18.39999961853</ele>
        <time>2021-05-13T08:33:22.000Z</time>
      </trkpt>
      <trkpt lat="47.36468" lon="-2.39714">
        <ele>18.39999961853</ele>
        <time>2021-05-13T08:33:27.000Z</time>
      </trkpt>
      <trkpt lat="47.36457" lon="-2.3968">
        <ele>18.39999961853</ele>
        <time>2021-05-13T08:33:32.000Z</time>
      </trkpt>
      <trkpt lat="47.36453" lon="-2.39668">
        <ele>18.39999961853</ele>
        <time>2021-05-13T08:33:34.000Z</time>
      </trkpt>
      <trkpt lat="47.36451" lon="-2.39657">
        <ele>18.39999961853</ele>
        <time>2021-05-13T08:33:36.000Z</time>
      </trkpt>
      <trkpt lat="47.36452" lon="-2.39653">
        <ele>18.39999961853</ele>
        <time>2021-05-13T08:33:37.000Z</time>
      </trkpt>
      <trkpt lat="47.36456" lon="-2.39647">
        <ele>18.39999961853</ele>
        <time>2021-05-13T08:33:39.000Z</time>
      </trkpt>
      <trkpt lat="47.36463" lon="-2.39645">
        <ele>18.39999961853</ele>
        <time>2021-05-13T08:33:41.000Z</time>
      </trkpt>
      <trkpt lat="47.36485" lon="-2.39636">
        <ele>18.39999961853</ele>
        <time>2021-05-13T08:33:47.000Z</time>
      </trkpt>
      <trkpt lat="47.36513" lon="-2.39616">
        <ele>18.39999961853</ele>
        <time>2021-05-13T08:33:55.000Z</time>
      </trkpt>
      <trkpt lat="47.36526" lon="-2.39608">
        <ele>18.39999961853</ele>
        <time>2021-05-13T08:33:58.000Z</time>
      </trkpt>
      <trkpt lat="47.36531" lon="-2.39605">
        <ele>18.799999237061</ele>
        <time>2021-05-13T08:33:59.000Z</time>
      </trkpt>
      <trkpt lat="47.36535" lon="-2.39603">
        <ele>19.200000762939</ele>
        <time>2021-05-13T08:34:00.000Z</time>
      </trkpt>
      <trkpt lat="47.3654" lon="-2.39601">
        <ele>19.60000038147</ele>
        <time>2021-05-13T08:34:01.000Z</time>
      </trkpt>
      <trkpt lat="47.36545" lon="-2.39599">
        <ele>20.39999961853</ele>
        <time>2021-05-13T08:34:02.000Z</time>
      </trkpt>
      <trkpt lat="47.3656" lon="-2.39597">
        <ele>20.39999961853</ele>
        <time>2021-05-13T08:34:05.000Z</time>
      </trkpt>
      <trkpt lat="47.36565" lon="-2.39596">
        <ele>20.39999961853</ele>
        <time>2021-05-13T08:34:06.000Z</time>
      </trkpt>
      <trkpt lat="47.36588" lon="-2.39597">
        <ele>20.39999961853</ele>
        <time>2021-05-13T08:34:10.000Z</time>
      </trkpt>
      <trkpt lat="47.36599" lon="-2.396">
        <ele>20.39999961853</ele>
        <time>2021-05-13T08:34:12.000Z</time>
      </trkpt>
      <trkpt lat="47.36615" lon="-2.39605">
        <ele>20.39999961853</ele>
        <time>2021-05-13T08:34:15.000Z</time>
      </trkpt>
      <trkpt lat="47.36637" lon="-2.39611">
        <ele>20.39999961853</ele>
        <time>2021-05-13T08:34:19.000Z</time>
      </trkpt>
      <trkpt lat="47.36649" lon="-2.39616">
        <ele>20.39999961853</ele>
        <time>2021-05-13T08:34:21.000Z</time>
      </trkpt>
      <trkpt lat="47.3666" lon="-2.39626">
        <ele>20.39999961853</ele>
        <time>2021-05-13T08:34:23.000Z</time>
      </trkpt>
      <trkpt lat="47.36677" lon="-2.39644">
        <ele>20.39999961853</ele>
        <time>2021-05-13T08:34:26.000Z</time>
      </trkpt>
      <trkpt lat="47.36689" lon="-2.39654">
        <ele>20.39999961853</ele>
        <time>2021-05-13T08:34:28.000Z</time>
      </trkpt>
      <trkpt lat="47.36707" lon="-2.39666">
        <ele>20</ele>
        <time>2021-05-13T08:34:31.000Z</time>
      </trkpt>
      <trkpt lat="47.36713" lon="-2.39669">
        <ele>19.60000038147</ele>
        <time>2021-05-13T08:34:32.000Z</time>
      </trkpt>
      <trkpt lat="47.36719" lon="-2.39671">
        <ele>19</ele>
        <time>2021-05-13T08:34:33.000Z</time>
      </trkpt>
      <trkpt lat="47.36726" lon="-2.39673">
        <ele>18.60000038147</ele>
        <time>2021-05-13T08:34:34.000Z</time>
      </trkpt>
      <trkpt lat="47.36732" lon="-2.39675">
        <ele>18.200000762939</ele>
        <time>2021-05-13T08:34:35.000Z</time>
      </trkpt>
      <trkpt lat="47.36738" lon="-2.39675">
        <ele>18.200000762939</ele>
        <time>2021-05-13T08:34:36.000Z</time>
      </trkpt>
      <trkpt lat="47.36748" lon="-2.39676">
        <ele>18.200000762939</ele>
        <time>2021-05-13T08:34:38.000Z</time>
      </trkpt>
      <trkpt lat="47.36753" lon="-2.39677">
        <ele>18.200000762939</ele>
        <time>2021-05-13T08:34:39.000Z</time>
      </trkpt>
      <trkpt lat="47.36767" lon="-2.39679">
        <ele>18.200000762939</ele>
        <time>2021-05-13T08:34:42.000Z</time>
      </trkpt>
      <trkpt lat="47.36771" lon="-2.39678">
        <ele>18.200000762939</ele>
        <time>2021-05-13T08:34:43.000Z</time>
      </trkpt>
      <trkpt lat="47.36781" lon="-2.39676">
        <ele>18.200000762939</ele>
        <time>2021-05-13T08:34:45.000Z</time>
      </trkpt>
      <trkpt lat="47.36796" lon="-2.39666">
        <ele>18.200000762939</ele>
        <time>2021-05-13T08:34:48.000Z</time>
      </trkpt>
      <trkpt lat="47.36815" lon="-2.39656">
        <ele>18.200000762939</ele>
        <time>2021-05-13T08:34:52.000Z</time>
      </trkpt>
      <trkpt lat="47.36821" lon="-2.39653">
        <ele>18.200000762939</ele>
        <time>2021-05-13T08:34:53.000Z</time>
      </trkpt>
      <trkpt lat="47.3684" lon="-2.39635">
        <ele>18.200000762939</ele>
        <time>2021-05-13T08:34:57.000Z</time>
      </trkpt>
      <trkpt lat="47.36867" lon="-2.39607">
        <ele>18.200000762939</ele>
        <time>2021-05-13T08:35:03.000Z</time>
      </trkpt>
      <trkpt lat="47.36876" lon="-2.39597">
        <ele>18.200000762939</ele>
        <time>2021-05-13T08:35:05.000Z</time>
      </trkpt>
      <trkpt lat="47.36888" lon="-2.39581">
        <ele>18.200000762939</ele>
        <time>2021-05-13T08:35:08.000Z</time>
      </trkpt>
      <trkpt lat="47.36901" lon="-2.39566">
        <ele>18.200000762939</ele>
        <time>2021-05-13T08:35:11.000Z</time>
      </trkpt>
      <trkpt lat="47.36914" lon="-2.39547">
        <ele>18.200000762939</ele>
        <time>2021-05-13T08:35:14.000Z</time>
      </trkpt>
      <trkpt lat="47.36936" lon="-2.39517">
        <ele>18.60000038147</ele>
        <time>2021-05-13T08:35:19.000Z</time>
      </trkpt>
      <trkpt lat="47.3694" lon="-2.39512">
        <ele>19</ele>
        <time>2021-05-13T08:35:20.000Z</time>
      </trkpt>
      <trkpt lat="47.36944" lon="-2.39508">
        <ele>19.39999961853</ele>
        <time>2021-05-13T08:35:21.000Z</time>
      </trkpt>
      <trkpt lat="47.36948" lon="-2.39503">
        <ele>19.799999237061</ele>
        <time>2021-05-13T08:35:22.000Z</time>
      </trkpt>
      <trkpt lat="47.36952" lon="-2.39498">
        <ele>20.200000762939</ele>
        <time>2021-05-13T08:35:23.000Z</time>
      </trkpt>
      <trkpt lat="47.36956" lon="-2.39494">
        <ele>20.200000762939</ele>
        <time>2021-05-13T08:35:24.000Z</time>
      </trkpt>
      <trkpt lat="47.36964" lon="-2.39486">
        <ele>20.200000762939</ele>
        <time>2021-05-13T08:35:26.000Z</time>
      </trkpt>
      <trkpt lat="47.37" lon="-2.39455">
        <ele>20.200000762939</ele>
        <time>2021-05-13T08:35:34.000Z</time>
      </trkpt>
      <trkpt lat="47.37009" lon="-2.39446">
        <ele>20.799999237061</ele>
        <time>2021-05-13T08:35:36.000Z</time>
      </trkpt>
      <trkpt lat="47.37013" lon="-2.39442">
        <ele>21.200000762939</ele>
        <time>2021-05-13T08:35:37.000Z</time>
      </trkpt>
      <trkpt lat="47.37018" lon="-2.39437">
        <ele>21.60000038147</ele>
        <time>2021-05-13T08:35:38.000Z</time>
      </trkpt>
      <trkpt lat="47.37022" lon="-2.39432">
        <ele>22</ele>
        <time>2021-05-13T08:35:39.000Z</time>
      </trkpt>
      <trkpt lat="47.37027" lon="-2.39427">
        <ele>22.39999961853</ele>
        <time>2021-05-13T08:35:40.000Z</time>
      </trkpt>
      <trkpt lat="47.37065" lon="-2.39386">
        <ele>22.39999961853</ele>
        <time>2021-05-13T08:35:48.000Z</time>
      </trkpt>
      <trkpt lat="47.37092" lon="-2.39359">
        <ele>22.39999961853</ele>
        <time>2021-05-13T08:35:54.000Z</time>
      </trkpt>
      <trkpt lat="47.37123" lon="-2.39329">
        <ele>22.39999961853</ele>
        <time>2021-05-13T08:36:00.000Z</time>
      </trkpt>
      <trkpt lat="47.37128" lon="-2.39324">
        <ele>22.39999961853</ele>
        <time>2021-05-13T08:36:01.000Z</time>
      </trkpt>
      <trkpt lat="47.37148" lon="-2.39306">
        <ele>22.39999961853</ele>
        <time>2021-05-13T08:36:05.000Z</time>
      </trkpt>
      <trkpt lat="47.37153" lon="-2.39302">
        <ele>22.39999961853</ele>
        <time>2021-05-13T08:36:06.000Z</time>
      </trkpt>
      <trkpt lat="47.37173" lon="-2.39283">
        <ele>22.39999961853</ele>
        <time>2021-05-13T08:36:10.000Z</time>
      </trkpt>
      <trkpt lat="47.37188" lon="-2.3927">
        <ele>22.39999961853</ele>
        <time>2021-05-13T08:36:13.000Z</time>
      </trkpt>
      <trkpt lat="47.37198" lon="-2.39262">
        <ele>22.39999961853</ele>
        <time>2021-05-13T08:36:15.000Z</time>
      </trkpt>
      <trkpt lat="47.37216" lon="-2.39245">
        <ele>22.39999961853</ele>
        <time>2021-05-13T08:36:19.000Z</time>
      </trkpt>
      <trkpt lat="47.37225" lon="-2.39234">
        <ele>22.39999961853</ele>
        <time>2021-05-13T08:36:21.000Z</time>
      </trkpt>
      <trkpt lat="47.37254" lon="-2.39205">
        <ele>22.39999961853</ele>
        <time>2021-05-13T08:36:27.000Z</time>
      </trkpt>
      <trkpt lat="47.37259" lon="-2.39201">
        <ele>22.39999961853</ele>
        <time>2021-05-13T08:36:28.000Z</time>
      </trkpt>
      <trkpt lat="47.37269" lon="-2.39194">
        <ele>22.39999961853</ele>
        <time>2021-05-13T08:36:30.000Z</time>
      </trkpt>
      <trkpt lat="47.37273" lon="-2.39189">
        <ele>22.39999961853</ele>
        <time>2021-05-13T08:36:31.000Z</time>
      </trkpt>
      <trkpt lat="47.37298" lon="-2.39166">
        <ele>22.39999961853</ele>
        <time>2021-05-13T08:36:37.000Z</time>
      </trkpt>
      <trkpt lat="47.37306" lon="-2.39159">
        <ele>22.39999961853</ele>
        <time>2021-05-13T08:36:41.000Z</time>
      </trkpt>
      <trkpt lat="47.37314" lon="-2.3915">
        <ele>22.39999961853</ele>
        <time>2021-05-13T08:36:47.000Z</time>
      </trkpt>
      <trkpt lat="47.37316" lon="-2.39149">
        <ele>22.39999961853</ele>
        <time>2021-05-13T08:36:49.000Z</time>
      </trkpt>
      <trkpt lat="47.37317" lon="-2.39151">
        <ele>22.39999961853</ele>
        <time>2021-05-13T08:37:19.000Z</time>
      </trkpt>
      <trkpt lat="47.37316" lon="-2.3915">
        <ele>22.39999961853</ele>
        <time>2021-05-13T08:37:20.000Z</time>
      </trkpt>
      <trkpt lat="47.37315" lon="-2.39147">
        <ele>22.39999961853</ele>
        <time>2021-05-13T08:37:21.000Z</time>
      </trkpt>
      <trkpt lat="47.37313" lon="-2.39134">
        <ele>22.39999961853</ele>
        <time>2021-05-13T08:37:24.000Z</time>
      </trkpt>
      <trkpt lat="47.37312" lon="-2.39095">
        <ele>22.39999961853</ele>
        <time>2021-05-13T08:37:30.000Z</time>
      </trkpt>
      <trkpt lat="47.3731" lon="-2.3905">
        <ele>22.39999961853</ele>
        <time>2021-05-13T08:37:36.000Z</time>
      </trkpt>
      <trkpt lat="47.37306" lon="-2.38996">
        <ele>22.39999961853</ele>
        <time>2021-05-13T08:37:42.000Z</time>
      </trkpt>
      <trkpt lat="47.37299" lon="-2.38939">
        <ele>22.799999237061</ele>
        <time>2021-05-13T08:37:48.000Z</time>
      </trkpt>
      <trkpt lat="47.37297" lon="-2.38931">
        <ele>23.200000762939</ele>
        <time>2021-05-13T08:37:49.000Z</time>
      </trkpt>
      <trkpt lat="47.37294" lon="-2.38923">
        <ele>23.60000038147</ele>
        <time>2021-05-13T08:37:50.000Z</time>
      </trkpt>
      <trkpt lat="47.37292" lon="-2.38915">
        <ele>24</ele>
        <time>2021-05-13T08:37:51.000Z</time>
      </trkpt>
      <trkpt lat="47.3729" lon="-2.38907">
        <ele>24.39999961853</ele>
        <time>2021-05-13T08:37:52.000Z</time>
      </trkpt>
      <trkpt lat="47.37277" lon="-2.38865">
        <ele>24.39999961853</ele>
        <time>2021-05-13T08:37:57.000Z</time>
      </trkpt>
      <trkpt lat="47.37256" lon="-2.38801">
        <ele>24.39999961853</ele>
        <time>2021-05-13T08:38:04.000Z</time>
      </trkpt>
      <trkpt lat="47.37253" lon="-2.38792">
        <ele>24</ele>
        <time>2021-05-13T08:38:05.000Z</time>
      </trkpt>
      <trkpt lat="47.37249" lon="-2.38782">
        <ele>23.60000038147</ele>
        <time>2021-05-13T08:38:06.000Z</time>
      </trkpt>
      <trkpt lat="47.37246" lon="-2.38773">
        <ele>23.200000762939</ele>
        <time>2021-05-13T08:38:07.000Z</time>
      </trkpt>
      <trkpt lat="47.37242" lon="-2.38764">
        <ele>22.39999961853</ele>
        <time>2021-05-13T08:38:08.000Z</time>
      </trkpt>
      <trkpt lat="47.37231" lon="-2.38737">
        <ele>22.39999961853</ele>
        <time>2021-05-13T08:38:11.000Z</time>
      </trkpt>
      <trkpt lat="47.37211" lon="-2.38687">
        <ele>22.39999961853</ele>
        <time>2021-05-13T08:38:17.000Z</time>
      </trkpt>
      <trkpt lat="47.37187" lon="-2.38628">
        <ele>22.39999961853</ele>
        <time>2021-05-13T08:38:24.000Z</time>
      </trkpt>
      <trkpt lat="47.37161" lon="-2.38562">
        <ele>22.39999961853</ele>
        <time>2021-05-13T08:38:32.000Z</time>
      </trkpt>
      <trkpt lat="47.37158" lon="-2.38554">
        <ele>22.39999961853</ele>
        <time>2021-05-13T08:38:33.000Z</time>
      </trkpt>
      <trkpt lat="47.37153" lon="-2.38546">
        <ele>22</ele>
        <time>2021-05-13T08:38:34.000Z</time>
      </trkpt>
      <trkpt lat="47.37149" lon="-2.38538">
        <ele>21.60000038147</ele>
        <time>2021-05-13T08:38:35.000Z</time>
      </trkpt>
      <trkpt lat="47.37143" lon="-2.38531">
        <ele>21</ele>
        <time>2021-05-13T08:38:36.000Z</time>
      </trkpt>
      <trkpt lat="47.37137" lon="-2.38524">
        <ele>20.60000038147</ele>
        <time>2021-05-13T08:38:37.000Z</time>
      </trkpt>
      <trkpt lat="47.37131" lon="-2.38518">
        <ele>20.200000762939</ele>
        <time>2021-05-13T08:38:38.000Z</time>
      </trkpt>
      <trkpt lat="47.37118" lon="-2.38507">
        <ele>20.200000762939</ele>
        <time>2021-05-13T08:38:40.000Z</time>
      </trkpt>
      <trkpt lat="47.37105" lon="-2.38499">
        <ele>20.200000762939</ele>
        <time>2021-05-13T08:38:42.000Z</time>
      </trkpt>
      <trkpt lat="47.37079" lon="-2.38481">
        <ele>19.799999237061</ele>
        <time>2021-05-13T08:38:46.000Z</time>
      </trkpt>
      <trkpt lat="47.37073" lon="-2.38477">
        <ele>19.39999961853</ele>
        <time>2021-05-13T08:38:47.000Z</time>
      </trkpt>
      <trkpt lat="47.37067" lon="-2.38472">
        <ele>19</ele>
        <time>2021-05-13T08:38:48.000Z</time>
      </trkpt>
      <trkpt lat="47.37062" lon="-2.38467">
        <ele>18.60000038147</ele>
        <time>2021-05-13T08:38:49.000Z</time>
      </trkpt>
      <trkpt lat="47.37059" lon="-2.38462">
        <ele>18.200000762939</ele>
        <time>2021-05-13T08:38:50.000Z</time>
      </trkpt>
      <trkpt lat="47.37057" lon="-2.38456">
        <ele>17.60000038147</ele>
        <time>2021-05-13T08:38:51.000Z</time>
      </trkpt>
      <trkpt lat="47.37058" lon="-2.38448">
        <ele>17.200000762939</ele>
        <time>2021-05-13T08:38:52.000Z</time>
      </trkpt>
      <trkpt lat="47.3706" lon="-2.38441">
        <ele>16.799999237061</ele>
        <time>2021-05-13T08:38:53.000Z</time>
      </trkpt>
      <trkpt lat="47.37063" lon="-2.38434">
        <ele>16.39999961853</ele>
        <time>2021-05-13T08:38:54.000Z</time>
      </trkpt>
      <trkpt lat="47.37066" lon="-2.38427">
        <ele>16</ele>
        <time>2021-05-13T08:38:55.000Z</time>
      </trkpt>
      <trkpt lat="47.37071" lon="-2.38421">
        <ele>16</ele>
        <time>2021-05-13T08:38:56.000Z</time>
      </trkpt>
      <trkpt lat="47.37083" lon="-2.384">
        <ele>16</ele>
        <time>2021-05-13T08:38:59.000Z</time>
      </trkpt>
      <trkpt lat="47.37099" lon="-2.38384">
        <ele>16</ele>
        <time>2021-05-13T08:39:02.000Z</time>
      </trkpt>
      <trkpt lat="47.37104" lon="-2.3838">
        <ele>16</ele>
        <time>2021-05-13T08:39:03.000Z</time>
      </trkpt>
      <trkpt lat="47.37116" lon="-2.38374">
        <ele>16</ele>
        <time>2021-05-13T08:39:05.000Z</time>
      </trkpt>
      <trkpt lat="47.37132" lon="-2.38368">
        <ele>16</ele>
        <time>2021-05-13T08:39:08.000Z</time>
      </trkpt>
      <trkpt lat="47.37137" lon="-2.38367">
        <ele>16</ele>
        <time>2021-05-13T08:39:09.000Z</time>
      </trkpt>
      <trkpt lat="47.37143" lon="-2.38364">
        <ele>16.39999961853</ele>
        <time>2021-05-13T08:39:10.000Z</time>
      </trkpt>
      <trkpt lat="47.37148" lon="-2.38363">
        <ele>16.799999237061</ele>
        <time>2021-05-13T08:39:11.000Z</time>
      </trkpt>
      <trkpt lat="47.37154" lon="-2.38361">
        <ele>17.200000762939</ele>
        <time>2021-05-13T08:39:12.000Z</time>
      </trkpt>
      <trkpt lat="47.37159" lon="-2.3836">
        <ele>17.799999237061</ele>
        <time>2021-05-13T08:39:13.000Z</time>
      </trkpt>
      <trkpt lat="47.37164" lon="-2.38359">
        <ele>18.200000762939</ele>
        <time>2021-05-13T08:39:14.000Z</time>
      </trkpt>
      <trkpt lat="47.3719" lon="-2.38353">
        <ele>18.200000762939</ele>
        <time>2021-05-13T08:39:19.000Z</time>
      </trkpt>
      <trkpt lat="47.37218" lon="-2.38352">
        <ele>18.60000038147</ele>
        <time>2021-05-13T08:39:24.000Z</time>
      </trkpt>
      <trkpt lat="47.37223" lon="-2.38351">
        <ele>19</ele>
        <time>2021-05-13T08:39:25.000Z</time>
      </trkpt>
      <trkpt lat="47.37228" lon="-2.3835">
        <ele>19.39999961853</ele>
        <time>2021-05-13T08:39:26.000Z</time>
      </trkpt>
      <trkpt lat="47.37233" lon="-2.38348">
        <ele>19.799999237061</ele>
        <time>2021-05-13T08:39:27.000Z</time>
      </trkpt>
      <trkpt lat="47.37239" lon="-2.38345">
        <ele>20.200000762939</ele>
        <time>2021-05-13T08:39:28.000Z</time>
      </trkpt>
      <trkpt lat="47.37249" lon="-2.38339">
        <ele>20.200000762939</ele>
        <time>2021-05-13T08:39:30.000Z</time>
      </trkpt>
      <trkpt lat="47.37264" lon="-2.38331">
        <ele>20.200000762939</ele>
        <time>2021-05-13T08:39:33.000Z</time>
      </trkpt>
      <trkpt lat="47.37273" lon="-2.38323">
        <ele>20.200000762939</ele>
        <time>2021-05-13T08:39:35.000Z</time>
      </trkpt>
      <trkpt lat="47.37304" lon="-2.38302">
        <ele>20.200000762939</ele>
        <time>2021-05-13T08:39:41.000Z</time>
      </trkpt>
      <trkpt lat="47.37324" lon="-2.38289">
        <ele>20.200000762939</ele>
        <time>2021-05-13T08:39:45.000Z</time>
      </trkpt>
      <trkpt lat="47.37339" lon="-2.38281">
        <ele>20.200000762939</ele>
        <time>2021-05-13T08:39:48.000Z</time>
      </trkpt>
      <trkpt lat="47.37358" lon="-2.38269">
        <ele>20.200000762939</ele>
        <time>2021-05-13T08:39:52.000Z</time>
      </trkpt>
      <trkpt lat="47.37399" lon="-2.38248">
        <ele>20.200000762939</ele>
        <time>2021-05-13T08:39:59.000Z</time>
      </trkpt>
      <trkpt lat="47.37435" lon="-2.38229">
        <ele>20.200000762939</ele>
        <time>2021-05-13T08:40:05.000Z</time>
      </trkpt>
      <trkpt lat="47.37464" lon="-2.38211">
        <ele>20.200000762939</ele>
        <time>2021-05-13T08:40:10.000Z</time>
      </trkpt>
      <trkpt lat="47.3747" lon="-2.38209">
        <ele>20.200000762939</ele>
        <time>2021-05-13T08:40:11.000Z</time>
      </trkpt>
      <trkpt lat="47.37503" lon="-2.38188">
        <ele>20.200000762939</ele>
        <time>2021-05-13T08:40:17.000Z</time>
      </trkpt>
      <trkpt lat="47.3754" lon="-2.38164">
        <ele>20.200000762939</ele>
        <time>2021-05-13T08:40:24.000Z</time>
      </trkpt>
      <trkpt lat="47.3758" lon="-2.38138">
        <ele>20.200000762939</ele>
        <time>2021-05-13T08:40:30.000Z</time>
      </trkpt>
      <trkpt lat="47.37621" lon="-2.38116">
        <ele>20.200000762939</ele>
        <time>2021-05-13T08:40:36.000Z</time>
      </trkpt>
      <trkpt lat="47.37669" lon="-2.38079">
        <ele>20.200000762939</ele>
        <time>2021-05-13T08:40:44.000Z</time>
      </trkpt>
      <trkpt lat="47.3769" lon="-2.38059">
        <ele>20.200000762939</ele>
        <time>2021-05-13T08:40:49.000Z</time>
      </trkpt>
      <trkpt lat="47.37704" lon="-2.38044">
        <ele>20.200000762939</ele>
        <time>2021-05-13T08:40:55.000Z</time>
      </trkpt>
      <trkpt lat="47.37717" lon="-2.3803">
        <ele>20.200000762939</ele>
        <time>2021-05-13T08:41:00.000Z</time>
      </trkpt>
      <trkpt lat="47.37728" lon="-2.38023">
        <ele>20.200000762939</ele>
        <time>2021-05-13T08:41:05.000Z</time>
      </trkpt>
      <trkpt lat="47.37734" lon="-2.38019">
        <ele>20.60000038147</ele>
        <time>2021-05-13T08:41:07.000Z</time>
      </trkpt>
      <trkpt lat="47.37737" lon="-2.38017">
        <ele>21</ele>
        <time>2021-05-13T08:41:08.000Z</time>
      </trkpt>
      <trkpt lat="47.37741" lon="-2.38015">
        <ele>21.39999961853</ele>
        <time>2021-05-13T08:41:09.000Z</time>
      </trkpt>
      <trkpt lat="47.37745" lon="-2.38013">
        <ele>21.799999237061</ele>
        <time>2021-05-13T08:41:10.000Z</time>
      </trkpt>
      <trkpt lat="47.37748" lon="-2.3801">
        <ele>22.200000762939</ele>
        <time>2021-05-13T08:41:11.000Z</time>
      </trkpt>
      <trkpt lat="47.37763" lon="-2.38001">
        <ele>22.200000762939</ele>
        <time>2021-05-13T08:41:15.000Z</time>
      </trkpt>
      <trkpt lat="47.37787" lon="-2.37985">
        <ele>22.200000762939</ele>
        <time>2021-05-13T08:41:21.000Z</time>
      </trkpt>
      <trkpt lat="47.37791" lon="-2.37982">
        <ele>22.60000038147</ele>
        <time>2021-05-13T08:41:22.000Z</time>
      </trkpt>
      <trkpt lat="47.37795" lon="-2.37979">
        <ele>23</ele>
        <time>2021-05-13T08:41:23.000Z</time>
      </trkpt>
      <trkpt lat="47.378" lon="-2.37976">
        <ele>23.60000038147</ele>
        <time>2021-05-13T08:41:24.000Z</time>
      </trkpt>
      <trkpt lat="47.37804" lon="-2.37974">
        <ele>24</ele>
        <time>2021-05-13T08:41:25.000Z</time>
      </trkpt>
      <trkpt lat="47.37808" lon="-2.3797">
        <ele>24.39999961853</ele>
        <time>2021-05-13T08:41:26.000Z</time>
      </trkpt>
      <trkpt lat="47.37812" lon="-2.37967">
        <ele>24.39999961853</ele>
        <time>2021-05-13T08:41:27.000Z</time>
      </trkpt>
      <trkpt lat="47.37858" lon="-2.37935">
        <ele>24.39999961853</ele>
        <time>2021-05-13T08:41:37.000Z</time>
      </trkpt>
      <trkpt lat="47.37888" lon="-2.37914">
        <ele>24.39999961853</ele>
        <time>2021-05-13T08:41:43.000Z</time>
      </trkpt>
      <trkpt lat="47.37921" lon="-2.37889">
        <ele>24.39999961853</ele>
        <time>2021-05-13T08:41:50.000Z</time>
      </trkpt>
      <trkpt lat="47.37948" lon="-2.37867">
        <ele>24.39999961853</ele>
        <time>2021-05-13T08:41:56.000Z</time>
      </trkpt>
      <trkpt lat="47.37986" lon="-2.37837">
        <ele>24.39999961853</ele>
        <time>2021-05-13T08:42:03.000Z</time>
      </trkpt>
      <trkpt lat="47.38022" lon="-2.37806">
        <ele>24.39999961853</ele>
        <time>2021-05-13T08:42:10.000Z</time>
      </trkpt>
      <trkpt lat="47.38038" lon="-2.37793">
        <ele>24.39999961853</ele>
        <time>2021-05-13T08:42:13.000Z</time>
      </trkpt>
      <trkpt lat="47.38052" lon="-2.37781">
        <ele>24.39999961853</ele>
        <time>2021-05-13T08:42:16.000Z</time>
      </trkpt>
      <trkpt lat="47.38063" lon="-2.37771">
        <ele>24</ele>
        <time>2021-05-13T08:42:18.000Z</time>
      </trkpt>
      <trkpt lat="47.3807" lon="-2.37766">
        <ele>23.39999961853</ele>
        <time>2021-05-13T08:42:19.000Z</time>
      </trkpt>
      <trkpt lat="47.38077" lon="-2.3776">
        <ele>23</ele>
        <time>2021-05-13T08:42:20.000Z</time>
      </trkpt>
      <trkpt lat="47.38084" lon="-2.37754">
        <ele>22.60000038147</ele>
        <time>2021-05-13T08:42:21.000Z</time>
      </trkpt>
      <trkpt lat="47.38091" lon="-2.37749">
        <ele>22.200000762939</ele>
        <time>2021-05-13T08:42:22.000Z</time>
      </trkpt>
      <trkpt lat="47.38136" lon="-2.37713">
        <ele>21.799999237061</ele>
        <time>2021-05-13T08:42:28.000Z</time>
      </trkpt>
      <trkpt lat="47.38142" lon="-2.37707">
        <ele>21.39999961853</ele>
        <time>2021-05-13T08:42:29.000Z</time>
      </trkpt>
      <trkpt lat="47.38149" lon="-2.37702">
        <ele>21</ele>
        <time>2021-05-13T08:42:30.000Z</time>
      </trkpt>
      <trkpt lat="47.38156" lon="-2.37696">
        <ele>20.60000038147</ele>
        <time>2021-05-13T08:42:31.000Z</time>
      </trkpt>
      <trkpt lat="47.38162" lon="-2.3769">
        <ele>20.200000762939</ele>
        <time>2021-05-13T08:42:32.000Z</time>
      </trkpt>
      <trkpt lat="47.38192" lon="-2.37665">
        <ele>20.200000762939</ele>
        <time>2021-05-13T08:42:37.000Z</time>
      </trkpt>
      <trkpt lat="47.38225" lon="-2.37637">
        <ele>20.200000762939</ele>
        <time>2021-05-13T08:42:43.000Z</time>
      </trkpt>
      <trkpt lat="47.3824" lon="-2.37627">
        <ele>19.799999237061</ele>
        <time>2021-05-13T08:42:46.000Z</time>
      </trkpt>
      <trkpt lat="47.38245" lon="-2.37625">
        <ele>19.200000762939</ele>
        <time>2021-05-13T08:42:47.000Z</time>
      </trkpt>
      <trkpt lat="47.38249" lon="-2.37624">
        <ele>18.799999237061</ele>
        <time>2021-05-13T08:42:48.000Z</time>
      </trkpt>
      <trkpt lat="47.38253" lon="-2.37624">
        <ele>18.39999961853</ele>
        <time>2021-05-13T08:42:49.000Z</time>
      </trkpt>
      <trkpt lat="47.38255" lon="-2.37624">
        <ele>18</ele>
        <time>2021-05-13T08:42:50.000Z</time>
      </trkpt>
      <trkpt lat="47.38261" lon="-2.37624">
        <ele>18</ele>
        <time>2021-05-13T08:42:53.000Z</time>
      </trkpt>
      <trkpt lat="47.38262" lon="-2.37624">
        <ele>17.60000038147</ele>
        <time>2021-05-13T08:42:54.000Z</time>
      </trkpt>
      <trkpt lat="47.38264" lon="-2.37623">
        <ele>17.200000762939</ele>
        <time>2021-05-13T08:42:55.000Z</time>
      </trkpt>
      <trkpt lat="47.38266" lon="-2.37622">
        <ele>16.799999237061</ele>
        <time>2021-05-13T08:42:56.000Z</time>
      </trkpt>
      <trkpt lat="47.38268" lon="-2.37621">
        <ele>16.39999961853</ele>
        <time>2021-05-13T08:42:57.000Z</time>
      </trkpt>
      <trkpt lat="47.3827" lon="-2.3762">
        <ele>16</ele>
        <time>2021-05-13T08:42:58.000Z</time>
      </trkpt>
      <trkpt lat="47.38272" lon="-2.37619">
        <ele>16</ele>
        <time>2021-05-13T08:42:59.000Z</time>
      </trkpt>
      <trkpt lat="47.38282" lon="-2.37614">
        <ele>16</ele>
        <time>2021-05-13T08:43:02.000Z</time>
      </trkpt>
      <trkpt lat="47.38286" lon="-2.37612">
        <ele>16</ele>
        <time>2021-05-13T08:43:03.000Z</time>
      </trkpt>
      <trkpt lat="47.38312" lon="-2.37603">
        <ele>16</ele>
        <time>2021-05-13T08:43:08.000Z</time>
      </trkpt>
      <trkpt lat="47.38317" lon="-2.37601">
        <ele>16</ele>
        <time>2021-05-13T08:43:09.000Z</time>
      </trkpt>
      <trkpt lat="47.38335" lon="-2.37591">
        <ele>16</ele>
        <time>2021-05-13T08:43:13.000Z</time>
      </trkpt>
      <trkpt lat="47.38352" lon="-2.37582">
        <ele>16</ele>
        <time>2021-05-13T08:43:18.000Z</time>
      </trkpt>
      <trkpt lat="47.38359" lon="-2.37563">
        <ele>16</ele>
        <time>2021-05-13T08:43:22.000Z</time>
      </trkpt>
      <trkpt lat="47.38358" lon="-2.37539">
        <ele>16</ele>
        <time>2021-05-13T08:43:26.000Z</time>
      </trkpt>
      <trkpt lat="47.38358" lon="-2.37525">
        <ele>15.60000038147</ele>
        <time>2021-05-13T08:43:28.000Z</time>
      </trkpt>
      <trkpt lat="47.38358" lon="-2.37517">
        <ele>15.199999809265</ele>
        <time>2021-05-13T08:43:29.000Z</time>
      </trkpt>
      <trkpt lat="47.38357" lon="-2.3751">
        <ele>14.800000190735</ele>
        <time>2021-05-13T08:43:30.000Z</time>
      </trkpt>
      <trkpt lat="47.38358" lon="-2.37502">
        <ele>14</ele>
        <time>2021-05-13T08:43:31.000Z</time>
      </trkpt>
      <trkpt lat="47.38356" lon="-2.37464">
        <ele>14</ele>
        <time>2021-05-13T08:43:37.000Z</time>
      </trkpt>
      <trkpt lat="47.38354" lon="-2.37442">
        <ele>14</ele>
        <time>2021-05-13T08:43:42.000Z</time>
      </trkpt>
      <trkpt lat="47.38348" lon="-2.37417">
        <ele>14</ele>
        <time>2021-05-13T08:43:48.000Z</time>
      </trkpt>
      <trkpt lat="47.38344" lon="-2.37394">
        <ele>14</ele>
        <time>2021-05-13T08:43:54.000Z</time>
      </trkpt>
      <trkpt lat="47.3834" lon="-2.37373">
        <ele>14</ele>
        <time>2021-05-13T08:44:00.000Z</time>
      </trkpt>
      <trkpt lat="47.38338" lon="-2.37365">
        <ele>14</ele>
        <time>2021-05-13T08:44:03.000Z</time>
      </trkpt>
      <trkpt lat="47.38339" lon="-2.37358">
        <ele>14</ele>
        <time>2021-05-13T08:44:06.000Z</time>
      </trkpt>
      <trkpt lat="47.3834" lon="-2.37338">
        <ele>13.60000038147</ele>
        <time>2021-05-13T08:44:13.000Z</time>
      </trkpt>
      <trkpt lat="47.3834" lon="-2.37335">
        <ele>13.199999809265</ele>
        <time>2021-05-13T08:44:14.000Z</time>
      </trkpt>
      <trkpt lat="47.3834" lon="-2.37332">
        <ele>12.800000190735</ele>
        <time>2021-05-13T08:44:15.000Z</time>
      </trkpt>
      <trkpt lat="47.38341" lon="-2.37328">
        <ele>12.39999961853</ele>
        <time>2021-05-13T08:44:16.000Z</time>
      </trkpt>
      <trkpt lat="47.38342" lon="-2.37324">
        <ele>12</ele>
        <time>2021-05-13T08:44:17.000Z</time>
      </trkpt>
      <trkpt lat="47.38342" lon="-2.37322">
        <ele>12</ele>
        <time>2021-05-13T08:44:18.000Z</time>
      </trkpt>
      <trkpt lat="47.38343" lon="-2.37307">
        <ele>12</ele>
        <time>2021-05-13T08:44:23.000Z</time>
      </trkpt>
      <trkpt lat="47.38343" lon="-2.37305">
        <ele>12</ele>
        <time>2021-05-13T08:44:24.000Z</time>
      </trkpt>
      <trkpt lat="47.38336" lon="-2.37288">
        <ele>12</ele>
        <time>2021-05-13T08:44:34.000Z</time>
      </trkpt>
      <trkpt lat="47.38331" lon="-2.37285">
        <ele>12</ele>
        <time>2021-05-13T08:44:36.000Z</time>
      </trkpt>
      <trkpt lat="47.38325" lon="-2.37279">
        <ele>12</ele>
        <time>2021-05-13T08:44:39.000Z</time>
      </trkpt>
      <trkpt lat="47.38322" lon="-2.37273">
        <ele>12</ele>
        <time>2021-05-13T08:44:42.000Z</time>
      </trkpt>
      <trkpt lat="47.38321" lon="-2.3727">
        <ele>12</ele>
        <time>2021-05-13T08:44:43.000Z</time>
      </trkpt>
      <trkpt lat="47.38316" lon="-2.37262">
        <ele>12</ele>
        <time>2021-05-13T08:44:47.000Z</time>
      </trkpt>
      <trkpt lat="47.383" lon="-2.37246">
        <ele>12</ele>
        <time>2021-05-13T08:44:58.000Z</time>
      </trkpt>
      <trkpt lat="47.38298" lon="-2.37244">
        <ele>12</ele>
        <time>2021-05-13T08:44:59.000Z</time>
      </trkpt>
      <trkpt lat="47.38294" lon="-2.37237">
        <ele>12</ele>
        <time>2021-05-13T08:45:03.000Z</time>
      </trkpt>
      <trkpt lat="47.38294" lon="-2.37234">
        <ele>12</ele>
        <time>2021-05-13T08:45:04.000Z</time>
      </trkpt>
      <trkpt lat="47.38294" lon="-2.37229">
        <ele>12</ele>
        <time>2021-05-13T08:45:06.000Z</time>
      </trkpt>
      <trkpt lat="47.38287" lon="-2.37222">
        <ele>12</ele>
        <time>2021-05-13T08:45:12.000Z</time>
      </trkpt>
      <trkpt lat="47.38284" lon="-2.37223">
        <ele>12</ele>
        <time>2021-05-13T08:45:14.000Z</time>
      </trkpt>
      <trkpt lat="47.38275" lon="-2.37225">
        <ele>12</ele>
        <time>2021-05-13T08:45:19.000Z</time>
      </trkpt>
      <trkpt lat="47.38262" lon="-2.37225">
        <ele>12</ele>
        <time>2021-05-13T08:45:25.000Z</time>
      </trkpt>
      <trkpt lat="47.38255" lon="-2.37218">
        <ele>12</ele>
        <time>2021-05-13T08:45:29.000Z</time>
      </trkpt>
      <trkpt lat="47.38254" lon="-2.37214">
        <ele>12</ele>
        <time>2021-05-13T08:45:30.000Z</time>
      </trkpt>
      <trkpt lat="47.38247" lon="-2.372">
        <ele>12</ele>
        <time>2021-05-13T08:45:34.000Z</time>
      </trkpt>
      <trkpt lat="47.38245" lon="-2.37197">
        <ele>12</ele>
        <time>2021-05-13T08:45:35.000Z</time>
      </trkpt>
      <trkpt lat="47.38233" lon="-2.37181">
        <ele>12</ele>
        <time>2021-05-13T08:45:40.000Z</time>
      </trkpt>
      <trkpt lat="47.38216" lon="-2.37155">
        <ele>12</ele>
        <time>2021-05-13T08:45:46.000Z</time>
      </trkpt>
      <trkpt lat="47.38199" lon="-2.37127">
        <ele>12</ele>
        <time>2021-05-13T08:45:52.000Z</time>
      </trkpt>
      <trkpt lat="47.38193" lon="-2.37116">
        <ele>12.39999961853</ele>
        <time>2021-05-13T08:45:54.000Z</time>
      </trkpt>
      <trkpt lat="47.3819" lon="-2.37111">
        <ele>12.800000190735</ele>
        <time>2021-05-13T08:45:55.000Z</time>
      </trkpt>
      <trkpt lat="47.38187" lon="-2.37105">
        <ele>13.199999809265</ele>
        <time>2021-05-13T08:45:56.000Z</time>
      </trkpt>
      <trkpt lat="47.38185" lon="-2.371">
        <ele>13.60000038147</ele>
        <time>2021-05-13T08:45:57.000Z</time>
      </trkpt>
      <trkpt lat="47.38182" lon="-2.37095">
        <ele>14</ele>
        <time>2021-05-13T08:45:58.000Z</time>
      </trkpt>
      <trkpt lat="47.3817" lon="-2.3707">
        <ele>14.39999961853</ele>
        <time>2021-05-13T08:46:03.000Z</time>
      </trkpt>
      <trkpt lat="47.38168" lon="-2.37065">
        <ele>14.800000190735</ele>
        <time>2021-05-13T08:46:04.000Z</time>
      </trkpt>
      <trkpt lat="47.38165" lon="-2.3706">
        <ele>15.199999809265</ele>
        <time>2021-05-13T08:46:05.000Z</time>
      </trkpt>
      <trkpt lat="47.38163" lon="-2.37054">
        <ele>15.60000038147</ele>
        <time>2021-05-13T08:46:06.000Z</time>
      </trkpt>
      <trkpt lat="47.38161" lon="-2.37049">
        <ele>16</ele>
        <time>2021-05-13T08:46:07.000Z</time>
      </trkpt>
      <trkpt lat="47.38152" lon="-2.37028">
        <ele>16</ele>
        <time>2021-05-13T08:46:11.000Z</time>
      </trkpt>
      <trkpt lat="47.38141" lon="-2.36998">
        <ele>16</ele>
        <time>2021-05-13T08:46:17.000Z</time>
      </trkpt>
      <trkpt lat="47.38134" lon="-2.36975">
        <ele>16</ele>
        <time>2021-05-13T08:46:22.000Z</time>
      </trkpt>
      <trkpt lat="47.38124" lon="-2.36946">
        <ele>16</ele>
        <time>2021-05-13T08:46:29.000Z</time>
      </trkpt>
      <trkpt lat="47.38114" lon="-2.36924">
        <ele>16</ele>
        <time>2021-05-13T08:46:35.000Z</time>
      </trkpt>
      <trkpt lat="47.38109" lon="-2.36909">
        <ele>16</ele>
        <time>2021-05-13T08:46:41.000Z</time>
      </trkpt>
      <trkpt lat="47.38108" lon="-2.36906">
        <ele>16</ele>
        <time>2021-05-13T08:46:44.000Z</time>
      </trkpt>
      <trkpt lat="47.3811" lon="-2.36904">
        <ele>16</ele>
        <time>2021-05-13T08:48:18.000Z</time>
      </trkpt>
      <trkpt lat="47.3811" lon="-2.36902">
        <ele>16</ele>
        <time>2021-05-13T08:48:19.000Z</time>
      </trkpt>
      <trkpt lat="47.38121" lon="-2.36897">
        <ele>16</ele>
        <time>2021-05-13T08:48:23.000Z</time>
      </trkpt>
      <trkpt lat="47.38126" lon="-2.36892">
        <ele>16</ele>
        <time>2021-05-13T08:48:25.000Z</time>
      </trkpt>
      <trkpt lat="47.38138" lon="-2.36884">
        <ele>16</ele>
        <time>2021-05-13T08:48:28.000Z</time>
      </trkpt>
      <trkpt lat="47.38168" lon="-2.36864">
        <ele>16</ele>
        <time>2021-05-13T08:48:35.000Z</time>
      </trkpt>
      <trkpt lat="47.38204" lon="-2.36841">
        <ele>16</ele>
        <time>2021-05-13T08:48:42.000Z</time>
      </trkpt>
      <trkpt lat="47.38221" lon="-2.36831">
        <ele>15.60000038147</ele>
        <time>2021-05-13T08:48:45.000Z</time>
      </trkpt>
      <trkpt lat="47.38227" lon="-2.36828">
        <ele>15.199999809265</ele>
        <time>2021-05-13T08:48:46.000Z</time>
      </trkpt>
      <trkpt lat="47.38232" lon="-2.36825">
        <ele>14.60000038147</ele>
        <time>2021-05-13T08:48:47.000Z</time>
      </trkpt>
      <trkpt lat="47.38238" lon="-2.36822">
        <ele>14.199999809265</ele>
        <time>2021-05-13T08:48:48.000Z</time>
      </trkpt>
      <trkpt lat="47.38242" lon="-2.3682">
        <ele>13.800000190735</ele>
        <time>2021-05-13T08:48:49.000Z</time>
      </trkpt>
      <trkpt lat="47.3826" lon="-2.3681">
        <ele>13.800000190735</ele>
        <time>2021-05-13T08:48:53.000Z</time>
      </trkpt>
      <trkpt lat="47.38273" lon="-2.36806">
        <ele>13.800000190735</ele>
        <time>2021-05-13T08:48:56.000Z</time>
      </trkpt>
      <trkpt lat="47.38277" lon="-2.36804">
        <ele>13.39999961853</ele>
        <time>2021-05-13T08:48:57.000Z</time>
      </trkpt>
      <trkpt lat="47.38279" lon="-2.36802">
        <ele>12.800000190735</ele>
        <time>2021-05-13T08:48:58.000Z</time>
      </trkpt>
      <trkpt lat="47.38282" lon="-2.368">
        <ele>12.39999961853</ele>
        <time>2021-05-13T08:48:59.000Z</time>
      </trkpt>
      <trkpt lat="47.38285" lon="-2.36798">
        <ele>12</ele>
        <time>2021-05-13T08:49:00.000Z</time>
      </trkpt>
      <trkpt lat="47.38289" lon="-2.36798">
        <ele>11.60000038147</ele>
        <time>2021-05-13T08:49:01.000Z</time>
      </trkpt>
      <trkpt lat="47.38293" lon="-2.36798">
        <ele>11.60000038147</ele>
        <time>2021-05-13T08:49:02.000Z</time>
      </trkpt>
      <trkpt lat="47.38315" lon="-2.36793">
        <ele>11.60000038147</ele>
        <time>2021-05-13T08:49:07.000Z</time>
      </trkpt>
      <trkpt lat="47.3834" lon="-2.36781">
        <ele>11.60000038147</ele>
        <time>2021-05-13T08:49:13.000Z</time>
      </trkpt>
      <trkpt lat="47.38344" lon="-2.36778">
        <ele>11.60000038147</ele>
        <time>2021-05-13T08:49:14.000Z</time>
      </trkpt>
      <trkpt lat="47.38355" lon="-2.36763">
        <ele>11.60000038147</ele>
        <time>2021-05-13T08:49:18.000Z</time>
      </trkpt>
      <trkpt lat="47.38365" lon="-2.36728">
        <ele>11.60000038147</ele>
        <time>2021-05-13T08:49:24.000Z</time>
      </trkpt>
      <trkpt lat="47.38377" lon="-2.36695">
        <ele>11.60000038147</ele>
        <time>2021-05-13T08:49:30.000Z</time>
      </trkpt>
      <trkpt lat="47.38388" lon="-2.36664">
        <ele>11.60000038147</ele>
        <time>2021-05-13T08:49:36.000Z</time>
      </trkpt>
      <trkpt lat="47.384" lon="-2.36634">
        <ele>11.60000038147</ele>
        <time>2021-05-13T08:49:42.000Z</time>
      </trkpt>
      <trkpt lat="47.38412" lon="-2.36616">
        <ele>11.60000038147</ele>
        <time>2021-05-13T08:49:47.000Z</time>
      </trkpt>
      <trkpt lat="47.38437" lon="-2.36587">
        <ele>11.60000038147</ele>
        <time>2021-05-13T08:49:54.000Z</time>
      </trkpt>
      <trkpt lat="47.3846" lon="-2.36575">
        <ele>11.60000038147</ele>
        <time>2021-05-13T08:49:59.000Z</time>
      </trkpt>
      <trkpt lat="47.38487" lon="-2.36559">
        <ele>11.60000038147</ele>
        <time>2021-05-13T08:50:05.000Z</time>
      </trkpt>
      <trkpt lat="47.38505" lon="-2.36544">
        <ele>11.60000038147</ele>
        <time>2021-05-13T08:50:10.000Z</time>
      </trkpt>
      <trkpt lat="47.3853" lon="-2.36516">
        <ele>11.60000038147</ele>
        <time>2021-05-13T08:50:16.000Z</time>
      </trkpt>
      <trkpt lat="47.38538" lon="-2.36502">
        <ele>11.60000038147</ele>
        <time>2021-05-13T08:50:20.000Z</time>
      </trkpt>
      <trkpt lat="47.38549" lon="-2.36476">
        <ele>11.60000038147</ele>
        <time>2021-05-13T08:50:26.000Z</time>
      </trkpt>
      <trkpt lat="47.38566" lon="-2.36442">
        <ele>11.60000038147</ele>
        <time>2021-05-13T08:50:33.000Z</time>
      </trkpt>
      <trkpt lat="47.38583" lon="-2.36401">
        <ele>11.60000038147</ele>
        <time>2021-05-13T08:50:39.000Z</time>
      </trkpt>
      <trkpt lat="47.3859" lon="-2.36378">
        <ele>12</ele>
        <time>2021-05-13T08:50:42.000Z</time>
      </trkpt>
      <trkpt lat="47.38593" lon="-2.3637">
        <ele>12.39999961853</ele>
        <time>2021-05-13T08:50:43.000Z</time>
      </trkpt>
      <trkpt lat="47.38596" lon="-2.36363">
        <ele>12.800000190735</ele>
        <time>2021-05-13T08:50:44.000Z</time>
      </trkpt>
      <trkpt lat="47.38598" lon="-2.36355">
        <ele>13.199999809265</ele>
        <time>2021-05-13T08:50:45.000Z</time>
      </trkpt>
      <trkpt lat="47.386" lon="-2.36348">
        <ele>13.800000190735</ele>
        <time>2021-05-13T08:50:46.000Z</time>
      </trkpt>
      <trkpt lat="47.38611" lon="-2.36309">
        <ele>13.800000190735</ele>
        <time>2021-05-13T08:50:51.000Z</time>
      </trkpt>
      <trkpt lat="47.38612" lon="-2.36301">
        <ele>13.800000190735</ele>
        <time>2021-05-13T08:50:52.000Z</time>
      </trkpt>
      <trkpt lat="47.38611" lon="-2.36285">
        <ele>13.800000190735</ele>
        <time>2021-05-13T08:50:55.000Z</time>
      </trkpt>
      <trkpt lat="47.38606" lon="-2.36275">
        <ele>13.800000190735</ele>
        <time>2021-05-13T08:50:59.000Z</time>
      </trkpt>
      <trkpt lat="47.38605" lon="-2.36274">
        <ele>13.800000190735</ele>
        <time>2021-05-13T08:51:00.000Z</time>
      </trkpt>
      <trkpt lat="47.38603" lon="-2.36272">
        <ele>13.800000190735</ele>
        <time>2021-05-13T08:51:05.000Z</time>
      </trkpt>
      <trkpt lat="47.38596" lon="-2.36266">
        <ele>13.800000190735</ele>
        <time>2021-05-13T08:51:12.000Z</time>
      </trkpt>
      <trkpt lat="47.38588" lon="-2.36263">
        <ele>13.800000190735</ele>
        <time>2021-05-13T08:51:16.000Z</time>
      </trkpt>
      <trkpt lat="47.38586" lon="-2.36264">
        <ele>13.800000190735</ele>
        <time>2021-05-13T08:51:17.000Z</time>
      </trkpt>
      <trkpt lat="47.38575" lon="-2.36263">
        <ele>13.800000190735</ele>
        <time>2021-05-13T08:51:21.000Z</time>
      </trkpt>
      <trkpt lat="47.38571" lon="-2.36263">
        <ele>13.800000190735</ele>
        <time>2021-05-13T08:51:22.000Z</time>
      </trkpt>
      <trkpt lat="47.38548" lon="-2.36261">
        <ele>13.800000190735</ele>
        <time>2021-05-13T08:51:27.000Z</time>
      </trkpt>
      <trkpt lat="47.38525" lon="-2.36258">
        <ele>13.800000190735</ele>
        <time>2021-05-13T08:51:32.000Z</time>
      </trkpt>
      <trkpt lat="47.3852" lon="-2.36257">
        <ele>13.800000190735</ele>
        <time>2021-05-13T08:51:33.000Z</time>
      </trkpt>
      <trkpt lat="47.38493" lon="-2.36251">
        <ele>13.800000190735</ele>
        <time>2021-05-13T08:51:39.000Z</time>
      </trkpt>
      <trkpt lat="47.38481" lon="-2.36257">
        <ele>13.800000190735</ele>
        <time>2021-05-13T08:51:42.000Z</time>
      </trkpt>
      <trkpt lat="47.38479" lon="-2.3626">
        <ele>13.800000190735</ele>
        <time>2021-05-13T08:51:43.000Z</time>
      </trkpt>
      <trkpt lat="47.38465" lon="-2.36266">
        <ele>13.800000190735</ele>
        <time>2021-05-13T08:51:49.000Z</time>
      </trkpt>
      <trkpt lat="47.38461" lon="-2.36266">
        <ele>13.800000190735</ele>
        <time>2021-05-13T08:51:50.000Z</time>
      </trkpt>
      <trkpt lat="47.38443" lon="-2.36261">
        <ele>13.800000190735</ele>
        <time>2021-05-13T08:51:55.000Z</time>
      </trkpt>
      <trkpt lat="47.38431" lon="-2.36247">
        <ele>13.800000190735</ele>
        <time>2021-05-13T08:51:59.000Z</time>
      </trkpt>
      <trkpt lat="47.38425" lon="-2.36237">
        <ele>13.800000190735</ele>
        <time>2021-05-13T08:52:02.000Z</time>
      </trkpt>
      <trkpt lat="47.38425" lon="-2.36228">
        <ele>13.800000190735</ele>
        <time>2021-05-13T08:52:05.000Z</time>
      </trkpt>
      <trkpt lat="47.38426" lon="-2.36222">
        <ele>13.800000190735</ele>
        <time>2021-05-13T08:52:09.000Z</time>
      </trkpt>
      <trkpt lat="47.38427" lon="-2.36219">
        <ele>13.800000190735</ele>
        <time>2021-05-13T08:52:10.000Z</time>
      </trkpt>
      <trkpt lat="47.38425" lon="-2.36204">
        <ele>13.800000190735</ele>
        <time>2021-05-13T08:52:15.000Z</time>
      </trkpt>
      <trkpt lat="47.38417" lon="-2.36203">
        <ele>13.800000190735</ele>
        <time>2021-05-13T08:52:19.000Z</time>
      </trkpt>
      <trkpt lat="47.38414" lon="-2.36202">
        <ele>13.800000190735</ele>
        <time>2021-05-13T08:52:20.000Z</time>
      </trkpt>
      <trkpt lat="47.38399" lon="-2.36195">
        <ele>13.800000190735</ele>
        <time>2021-05-13T08:52:24.000Z</time>
      </trkpt>
      <trkpt lat="47.38381" lon="-2.36192">
        <ele>13.800000190735</ele>
        <time>2021-05-13T08:52:29.000Z</time>
      </trkpt>
      <trkpt lat="47.38368" lon="-2.36178">
        <ele>13.800000190735</ele>
        <time>2021-05-13T08:52:33.000Z</time>
      </trkpt>
      <trkpt lat="47.38359" lon="-2.36153">
        <ele>13.800000190735</ele>
        <time>2021-05-13T08:52:37.000Z</time>
      </trkpt>
      <trkpt lat="47.38357" lon="-2.36147">
        <ele>13.800000190735</ele>
        <time>2021-05-13T08:52:38.000Z</time>
      </trkpt>
      <trkpt lat="47.38356" lon="-2.36141">
        <ele>13.800000190735</ele>
        <time>2021-05-13T08:52:39.000Z</time>
      </trkpt>
      <trkpt lat="47.38345" lon="-2.36118">
        <ele>13.800000190735</ele>
        <time>2021-05-13T08:52:43.000Z</time>
      </trkpt>
      <trkpt lat="47.38343" lon="-2.36112">
        <ele>13.800000190735</ele>
        <time>2021-05-13T08:52:44.000Z</time>
      </trkpt>
      <trkpt lat="47.3833" lon="-2.36079">
        <ele>13.800000190735</ele>
        <time>2021-05-13T08:52:49.000Z</time>
      </trkpt>
      <trkpt lat="47.38314" lon="-2.36036">
        <ele>13.800000190735</ele>
        <time>2021-05-13T08:52:56.000Z</time>
      </trkpt>
      <trkpt lat="47.38309" lon="-2.36008">
        <ele>13.800000190735</ele>
        <time>2021-05-13T08:53:00.000Z</time>
      </trkpt>
      <trkpt lat="47.383" lon="-2.35961">
        <ele>13.800000190735</ele>
        <time>2021-05-13T08:53:07.000Z</time>
      </trkpt>
      <trkpt lat="47.38298" lon="-2.35954">
        <ele>13.800000190735</ele>
        <time>2021-05-13T08:53:08.000Z</time>
      </trkpt>
      <trkpt lat="47.38291" lon="-2.35929">
        <ele>13.800000190735</ele>
        <time>2021-05-13T08:53:12.000Z</time>
      </trkpt>
      <trkpt lat="47.38288" lon="-2.35924">
        <ele>13.800000190735</ele>
        <time>2021-05-13T08:53:13.000Z</time>
      </trkpt>
      <trkpt lat="47.38281" lon="-2.35923">
        <ele>13.800000190735</ele>
        <time>2021-05-13T08:53:16.000Z</time>
      </trkpt>
      <trkpt lat="47.38277" lon="-2.35927">
        <ele>13.800000190735</ele>
        <time>2021-05-13T08:53:19.000Z</time>
      </trkpt>
      <trkpt lat="47.38276" lon="-2.35928">
        <ele>13.800000190735</ele>
        <time>2021-05-13T08:53:21.000Z</time>
      </trkpt>
      <trkpt lat="47.38271" lon="-2.35934">
        <ele>13.800000190735</ele>
        <time>2021-05-13T08:53:50.000Z</time>
      </trkpt>
      <trkpt lat="47.38266" lon="-2.35938">
        <ele>13.800000190735</ele>
        <time>2021-05-13T08:53:52.000Z</time>
      </trkpt>
      <trkpt lat="47.38242" lon="-2.35952">
        <ele>13.800000190735</ele>
        <time>2021-05-13T08:54:00.000Z</time>
      </trkpt>
      <trkpt lat="47.38229" lon="-2.35962">
        <ele>13.800000190735</ele>
        <time>2021-05-13T08:54:05.000Z</time>
      </trkpt>
      <trkpt lat="47.38215" lon="-2.35971">
        <ele>13.800000190735</ele>
        <time>2021-05-13T08:54:10.000Z</time>
      </trkpt>
      <trkpt lat="47.38194" lon="-2.35985">
        <ele>13.800000190735</ele>
        <time>2021-05-13T08:54:17.000Z</time>
      </trkpt>
      <trkpt lat="47.38171" lon="-2.36001">
        <ele>13.800000190735</ele>
        <time>2021-05-13T08:54:23.000Z</time>
      </trkpt>
      <trkpt lat="47.38147" lon="-2.3602">
        <ele>13.800000190735</ele>
        <time>2021-05-13T08:54:30.000Z</time>
      </trkpt>
      <trkpt lat="47.38126" lon="-2.36035">
        <ele>13.800000190735</ele>
        <time>2021-05-13T08:54:36.000Z</time>
      </trkpt>
      <trkpt lat="47.38101" lon="-2.36046">
        <ele>13.800000190735</ele>
        <time>2021-05-13T08:54:43.000Z</time>
      </trkpt>
      <trkpt lat="47.38069" lon="-2.36058">
        <ele>13.800000190735</ele>
        <time>2021-05-13T08:54:51.000Z</time>
      </trkpt>
      <trkpt lat="47.3804" lon="-2.36063">
        <ele>13.800000190735</ele>
        <time>2021-05-13T08:54:58.000Z</time>
      </trkpt>
      <trkpt lat="47.38023" lon="-2.36068">
        <ele>14.199999809265</ele>
        <time>2021-05-13T08:55:02.000Z</time>
      </trkpt>
      <trkpt lat="47.38019" lon="-2.3607">
        <ele>14.60000038147</ele>
        <time>2021-05-13T08:55:03.000Z</time>
      </trkpt>
      <trkpt lat="47.38015" lon="-2.36071">
        <ele>15</ele>
        <time>2021-05-13T08:55:04.000Z</time>
      </trkpt>
      <trkpt lat="47.38012" lon="-2.36072">
        <ele>15.39999961853</ele>
        <time>2021-05-13T08:55:05.000Z</time>
      </trkpt>
      <trkpt lat="47.38008" lon="-2.36074">
        <ele>15.800000190735</ele>
        <time>2021-05-13T08:55:06.000Z</time>
      </trkpt>
      <trkpt lat="47.37981" lon="-2.36086">
        <ele>15.800000190735</ele>
        <time>2021-05-13T08:55:13.000Z</time>
      </trkpt>
      <trkpt lat="47.37959" lon="-2.36098">
        <ele>15.800000190735</ele>
        <time>2021-05-13T08:55:19.000Z</time>
      </trkpt>
      <trkpt lat="47.37937" lon="-2.3611">
        <ele>15.800000190735</ele>
        <time>2021-05-13T08:55:25.000Z</time>
      </trkpt>
      <trkpt lat="47.37933" lon="-2.36112">
        <ele>16.200000762939</ele>
        <time>2021-05-13T08:55:26.000Z</time>
      </trkpt>
      <trkpt lat="47.37929" lon="-2.36114">
        <ele>16.60000038147</ele>
        <time>2021-05-13T08:55:27.000Z</time>
      </trkpt>
      <trkpt lat="47.37924" lon="-2.36116">
        <ele>17</ele>
        <time>2021-05-13T08:55:28.000Z</time>
      </trkpt>
      <trkpt lat="47.3792" lon="-2.36118">
        <ele>17.39999961853</ele>
        <time>2021-05-13T08:55:29.000Z</time>
      </trkpt>
      <trkpt lat="47.37915" lon="-2.36121">
        <ele>17.799999237061</ele>
        <time>2021-05-13T08:55:30.000Z</time>
      </trkpt>
      <trkpt lat="47.3791" lon="-2.36123">
        <ele>17.799999237061</ele>
        <time>2021-05-13T08:55:31.000Z</time>
      </trkpt>
      <trkpt lat="47.379" lon="-2.36125">
        <ele>17.799999237061</ele>
        <time>2021-05-13T08:55:33.000Z</time>
      </trkpt>
      <trkpt lat="47.37884" lon="-2.36125">
        <ele>17.799999237061</ele>
        <time>2021-05-13T08:55:36.000Z</time>
      </trkpt>
      <trkpt lat="47.3788" lon="-2.36123">
        <ele>17.799999237061</ele>
        <time>2021-05-13T08:55:37.000Z</time>
      </trkpt>
      <trkpt lat="47.3787" lon="-2.36118">
        <ele>17.799999237061</ele>
        <time>2021-05-13T08:55:39.000Z</time>
      </trkpt>
      <trkpt lat="47.37861" lon="-2.36113">
        <ele>17.799999237061</ele>
        <time>2021-05-13T08:55:41.000Z</time>
      </trkpt>
      <trkpt lat="47.37827" lon="-2.36097">
        <ele>17.799999237061</ele>
        <time>2021-05-13T08:55:48.000Z</time>
      </trkpt>
      <trkpt lat="47.37789" lon="-2.36079">
        <ele>17.799999237061</ele>
        <time>2021-05-13T08:55:55.000Z</time>
      </trkpt>
      <trkpt lat="47.3776" lon="-2.36062">
        <ele>17.799999237061</ele>
        <time>2021-05-13T08:56:00.000Z</time>
      </trkpt>
      <trkpt lat="47.37718" lon="-2.36034">
        <ele>17.799999237061</ele>
        <time>2021-05-13T08:56:07.000Z</time>
      </trkpt>
      <trkpt lat="47.37689" lon="-2.36021">
        <ele>17.799999237061</ele>
        <time>2021-05-13T08:56:12.000Z</time>
      </trkpt>
      <trkpt lat="47.37648" lon="-2.36006">
        <ele>17.799999237061</ele>
        <time>2021-05-13T08:56:20.000Z</time>
      </trkpt>
      <trkpt lat="47.37639" lon="-2.36015">
        <ele>17.799999237061</ele>
        <time>2021-05-13T08:56:23.000Z</time>
      </trkpt>
      <trkpt lat="47.37639" lon="-2.36034">
        <ele>17.799999237061</ele>
        <time>2021-05-13T08:56:26.000Z</time>
      </trkpt>
      <trkpt lat="47.37638" lon="-2.36041">
        <ele>17.799999237061</ele>
        <time>2021-05-13T08:56:27.000Z</time>
      </trkpt>
      <trkpt lat="47.37626" lon="-2.36047">
        <ele>17.799999237061</ele>
        <time>2021-05-13T08:56:30.000Z</time>
      </trkpt>
      <trkpt lat="47.37619" lon="-2.36046">
        <ele>17.799999237061</ele>
        <time>2021-05-13T08:56:32.000Z</time>
      </trkpt>
      <trkpt lat="47.37608" lon="-2.36048">
        <ele>17.799999237061</ele>
        <time>2021-05-13T08:56:35.000Z</time>
      </trkpt>
      <trkpt lat="47.37585" lon="-2.36053">
        <ele>17.799999237061</ele>
        <time>2021-05-13T08:56:41.000Z</time>
      </trkpt>
      <trkpt lat="47.37557" lon="-2.36063">
        <ele>17.799999237061</ele>
        <time>2021-05-13T08:56:46.000Z</time>
      </trkpt>
      <trkpt lat="47.37526" lon="-2.36075">
        <ele>17.799999237061</ele>
        <time>2021-05-13T08:56:52.000Z</time>
      </trkpt>
      <trkpt lat="47.37521" lon="-2.36076">
        <ele>17.799999237061</ele>
        <time>2021-05-13T08:56:53.000Z</time>
      </trkpt>
      <trkpt lat="47.37511" lon="-2.36081">
        <ele>18.200000762939</ele>
        <time>2021-05-13T08:56:55.000Z</time>
      </trkpt>
      <trkpt lat="47.37506" lon="-2.36085">
        <ele>18.60000038147</ele>
        <time>2021-05-13T08:56:56.000Z</time>
      </trkpt>
      <trkpt lat="47.37501" lon="-2.36087">
        <ele>19</ele>
        <time>2021-05-13T08:56:57.000Z</time>
      </trkpt>
      <trkpt lat="47.37496" lon="-2.3609">
        <ele>19.60000038147</ele>
        <time>2021-05-13T08:56:58.000Z</time>
      </trkpt>
      <trkpt lat="47.37491" lon="-2.36094">
        <ele>19.39999961853</ele>
        <time>2021-05-13T08:56:59.000Z</time>
      </trkpt>
      <trkpt lat="47.37487" lon="-2.36096">
        <ele>19</ele>
        <time>2021-05-13T08:57:00.000Z</time>
      </trkpt>
      <trkpt lat="47.37482" lon="-2.36098">
        <ele>18.60000038147</ele>
        <time>2021-05-13T08:57:01.000Z</time>
      </trkpt>
      <trkpt lat="47.37477" lon="-2.36101">
        <ele>18.200000762939</ele>
        <time>2021-05-13T08:57:02.000Z</time>
      </trkpt>
      <trkpt lat="47.37471" lon="-2.36104">
        <ele>17.799999237061</ele>
        <time>2021-05-13T08:57:03.000Z</time>
      </trkpt>
      <trkpt lat="47.3746" lon="-2.36112">
        <ele>17.799999237061</ele>
        <time>2021-05-13T08:57:05.000Z</time>
      </trkpt>
      <trkpt lat="47.37427" lon="-2.36131">
        <ele>17.799999237061</ele>
        <time>2021-05-13T08:57:10.000Z</time>
      </trkpt>
      <trkpt lat="47.37422" lon="-2.36135">
        <ele>17.200000762939</ele>
        <time>2021-05-13T08:57:11.000Z</time>
      </trkpt>
      <trkpt lat="47.37418" lon="-2.36138">
        <ele>16.60000038147</ele>
        <time>2021-05-13T08:57:12.000Z</time>
      </trkpt>
      <trkpt lat="47.37415" lon="-2.3614">
        <ele>16.200000762939</ele>
        <time>2021-05-13T08:57:13.000Z</time>
      </trkpt>
      <trkpt lat="47.37411" lon="-2.36139">
        <ele>15.60000038147</ele>
        <time>2021-05-13T08:57:14.000Z</time>
      </trkpt>
      <trkpt lat="47.37408" lon="-2.36137">
        <ele>15</ele>
        <time>2021-05-13T08:57:15.000Z</time>
      </trkpt>
      <trkpt lat="47.37406" lon="-2.36133">
        <ele>14.60000038147</ele>
        <time>2021-05-13T08:57:16.000Z</time>
      </trkpt>
      <trkpt lat="47.37404" lon="-2.36129">
        <ele>14</ele>
        <time>2021-05-13T08:57:17.000Z</time>
      </trkpt>
      <trkpt lat="47.37402" lon="-2.36128">
        <ele>13.39999961853</ele>
        <time>2021-05-13T08:57:18.000Z</time>
      </trkpt>
      <trkpt lat="47.37401" lon="-2.36127">
        <ele>13</ele>
        <time>2021-05-13T08:57:19.000Z</time>
      </trkpt>
      <trkpt lat="47.37399" lon="-2.36123">
        <ele>13</ele>
        <time>2021-05-13T08:57:21.000Z</time>
      </trkpt>
      <trkpt lat="47.37394" lon="-2.36116">
        <ele>12.60000038147</ele>
        <time>2021-05-13T08:57:24.000Z</time>
      </trkpt>
      <trkpt lat="47.37392" lon="-2.36114">
        <ele>12.199999809265</ele>
        <time>2021-05-13T08:57:25.000Z</time>
      </trkpt>
      <trkpt lat="47.3739" lon="-2.36111">
        <ele>11.800000190735</ele>
        <time>2021-05-13T08:57:26.000Z</time>
      </trkpt>
      <trkpt lat="47.37387" lon="-2.36109">
        <ele>11.39999961853</ele>
        <time>2021-05-13T08:57:27.000Z</time>
      </trkpt>
      <trkpt lat="47.37384" lon="-2.36108">
        <ele>10.800000190735</ele>
        <time>2021-05-13T08:57:28.000Z</time>
      </trkpt>
      <trkpt lat="47.37377" lon="-2.36111">
        <ele>10.800000190735</ele>
        <time>2021-05-13T08:57:31.000Z</time>
      </trkpt>
      <trkpt lat="47.37375" lon="-2.36112">
        <ele>11.39999961853</ele>
        <time>2021-05-13T08:57:32.000Z</time>
      </trkpt>
      <trkpt lat="47.37373" lon="-2.36114">
        <ele>11.800000190735</ele>
        <time>2021-05-13T08:57:33.000Z</time>
      </trkpt>
      <trkpt lat="47.37371" lon="-2.36116">
        <ele>12.39999961853</ele>
        <time>2021-05-13T08:57:34.000Z</time>
      </trkpt>
      <trkpt lat="47.37368" lon="-2.36117">
        <ele>12.800000190735</ele>
        <time>2021-05-13T08:57:35.000Z</time>
      </trkpt>
      <trkpt lat="47.37367" lon="-2.36119">
        <ele>13.39999961853</ele>
        <time>2021-05-13T08:57:36.000Z</time>
      </trkpt>
      <trkpt lat="47.37365" lon="-2.36121">
        <ele>13.39999961853</ele>
        <time>2021-05-13T08:57:37.000Z</time>
      </trkpt>
      <trkpt lat="47.37361" lon="-2.36126">
        <ele>13</ele>
        <time>2021-05-13T08:57:39.000Z</time>
      </trkpt>
      <trkpt lat="47.37358" lon="-2.36128">
        <ele>12.60000038147</ele>
        <time>2021-05-13T08:57:40.000Z</time>
      </trkpt>
      <trkpt lat="47.37355" lon="-2.36129">
        <ele>12.199999809265</ele>
        <time>2021-05-13T08:57:41.000Z</time>
      </trkpt>
      <trkpt lat="47.37353" lon="-2.36129">
        <ele>11.800000190735</ele>
        <time>2021-05-13T08:57:42.000Z</time>
      </trkpt>
      <trkpt lat="47.37351" lon="-2.36128">
        <ele>11.39999961853</ele>
        <time>2021-05-13T08:57:43.000Z</time>
      </trkpt>
      <trkpt lat="47.37344" lon="-2.36125">
        <ele>11.39999961853</ele>
        <time>2021-05-13T08:57:46.000Z</time>
      </trkpt>
      <trkpt lat="47.37333" lon="-2.36122">
        <ele>11.39999961853</ele>
        <time>2021-05-13T08:57:53.000Z</time>
      </trkpt>
      <trkpt lat="47.37321" lon="-2.36124">
        <ele>11.39999961853</ele>
        <time>2021-05-13T08:57:59.000Z</time>
      </trkpt>
      <trkpt lat="47.373" lon="-2.36129">
        <ele>11.39999961853</ele>
        <time>2021-05-13T08:58:06.000Z</time>
      </trkpt>
      <trkpt lat="47.37289" lon="-2.36135">
        <ele>11.39999961853</ele>
        <time>2021-05-13T08:58:11.000Z</time>
      </trkpt>
      <trkpt lat="47.37288" lon="-2.36135">
        <ele>11.39999961853</ele>
        <time>2021-05-13T08:58:13.000Z</time>
      </trkpt>
      <trkpt lat="47.37256" lon="-2.36113">
        <ele>11.39999961853</ele>
        <time>2021-05-13T08:59:32.000Z</time>
      </trkpt>
      <trkpt lat="47.37254" lon="-2.36112">
        <ele>11.39999961853</ele>
        <time>2021-05-13T08:59:33.000Z</time>
      </trkpt>
      <trkpt lat="47.37245" lon="-2.36106">
        <ele>11.39999961853</ele>
        <time>2021-05-13T08:59:38.000Z</time>
      </trkpt>
      <trkpt lat="47.37236" lon="-2.36098">
        <ele>11.39999961853</ele>
        <time>2021-05-13T08:59:44.000Z</time>
      </trkpt>
      <trkpt lat="47.37234" lon="-2.36092">
        <ele>11.39999961853</ele>
        <time>2021-05-13T08:59:47.000Z</time>
      </trkpt>
      <trkpt lat="47.37234" lon="-2.36084">
        <ele>11.39999961853</ele>
        <time>2021-05-13T08:59:50.000Z</time>
      </trkpt>
      <trkpt lat="47.37234" lon="-2.36082">
        <ele>11.39999961853</ele>
        <time>2021-05-13T08:59:52.000Z</time>
      </trkpt>
      <trkpt lat="47.37232" lon="-2.36068">
        <ele>11.39999961853</ele>
        <time>2021-05-13T09:09:52.000Z</time>
      </trkpt>
      <trkpt lat="47.37232" lon="-2.36066">
        <ele>11.39999961853</ele>
        <time>2021-05-13T09:09:53.000Z</time>
      </trkpt>
      <trkpt lat="47.37229" lon="-2.3606">
        <ele>11.39999961853</ele>
        <time>2021-05-13T09:09:56.000Z</time>
      </trkpt>
      <trkpt lat="47.37228" lon="-2.36058">
        <ele>11.39999961853</ele>
        <time>2021-05-13T09:09:57.000Z</time>
      </trkpt>
      <trkpt lat="47.37226" lon="-2.36053">
        <ele>11.39999961853</ele>
        <time>2021-05-13T09:09:59.000Z</time>
      </trkpt>
      <trkpt lat="47.37223" lon="-2.36052">
        <ele>11.39999961853</ele>
        <time>2021-05-13T09:10:01.000Z</time>
      </trkpt>
      <trkpt lat="47.37218" lon="-2.36061">
        <ele>11.39999961853</ele>
        <time>2021-05-13T09:10:06.000Z</time>
      </trkpt>
      <trkpt lat="47.37217" lon="-2.36063">
        <ele>11.39999961853</ele>
        <time>2021-05-13T09:10:07.000Z</time>
      </trkpt>
      <trkpt lat="47.37212" lon="-2.36074">
        <ele>11.39999961853</ele>
        <time>2021-05-13T09:10:12.000Z</time>
      </trkpt>
      <trkpt lat="47.37202" lon="-2.36094">
        <ele>11.39999961853</ele>
        <time>2021-05-13T09:10:18.000Z</time>
      </trkpt>
      <trkpt lat="47.37189" lon="-2.36122">
        <ele>11.39999961853</ele>
        <time>2021-05-13T09:10:24.000Z</time>
      </trkpt>
      <trkpt lat="47.37184" lon="-2.36134">
        <ele>11.39999961853</ele>
        <time>2021-05-13T09:10:26.000Z</time>
      </trkpt>
      <trkpt lat="47.37178" lon="-2.36147">
        <ele>11.39999961853</ele>
        <time>2021-05-13T09:10:28.000Z</time>
      </trkpt>
      <trkpt lat="47.37159" lon="-2.36187">
        <ele>11.39999961853</ele>
        <time>2021-05-13T09:10:35.000Z</time>
      </trkpt>
      <trkpt lat="47.37154" lon="-2.36198">
        <ele>11.800000190735</ele>
        <time>2021-05-13T09:10:37.000Z</time>
      </trkpt>
      <trkpt lat="47.37151" lon="-2.36203">
        <ele>12.199999809265</ele>
        <time>2021-05-13T09:10:38.000Z</time>
      </trkpt>
      <trkpt lat="47.37149" lon="-2.36209">
        <ele>12.60000038147</ele>
        <time>2021-05-13T09:10:39.000Z</time>
      </trkpt>
      <trkpt lat="47.37146" lon="-2.36215">
        <ele>13</ele>
        <time>2021-05-13T09:10:40.000Z</time>
      </trkpt>
      <trkpt lat="47.37143" lon="-2.36221">
        <ele>13.39999961853</ele>
        <time>2021-05-13T09:10:41.000Z</time>
      </trkpt>
      <trkpt lat="47.3714" lon="-2.36227">
        <ele>13.39999961853</ele>
        <time>2021-05-13T09:10:42.000Z</time>
      </trkpt>
      <trkpt lat="47.37119" lon="-2.3627">
        <ele>13.39999961853</ele>
        <time>2021-05-13T09:10:49.000Z</time>
      </trkpt>
      <trkpt lat="47.37107" lon="-2.36298">
        <ele>13.800000190735</ele>
        <time>2021-05-13T09:10:53.000Z</time>
      </trkpt>
      <trkpt lat="47.37104" lon="-2.36304">
        <ele>14.199999809265</ele>
        <time>2021-05-13T09:10:54.000Z</time>
      </trkpt>
      <trkpt lat="47.37101" lon="-2.36311">
        <ele>14.60000038147</ele>
        <time>2021-05-13T09:10:55.000Z</time>
      </trkpt>
      <trkpt lat="47.37098" lon="-2.36317">
        <ele>15</ele>
        <time>2021-05-13T09:10:56.000Z</time>
      </trkpt>
      <trkpt lat="47.37095" lon="-2.36324">
        <ele>15.39999961853</ele>
        <time>2021-05-13T09:10:57.000Z</time>
      </trkpt>
      <trkpt lat="47.37078" lon="-2.36356">
        <ele>15.39999961853</ele>
        <time>2021-05-13T09:11:02.000Z</time>
      </trkpt>
      <trkpt lat="47.37058" lon="-2.36368">
        <ele>15.39999961853</ele>
        <time>2021-05-13T09:11:06.000Z</time>
      </trkpt>
      <trkpt lat="47.3703" lon="-2.36369">
        <ele>15.39999961853</ele>
        <time>2021-05-13T09:11:11.000Z</time>
      </trkpt>
      <trkpt lat="47.37024" lon="-2.36369">
        <ele>15.39999961853</ele>
        <time>2021-05-13T09:11:12.000Z</time>
      </trkpt>
      <trkpt lat="47.37002" lon="-2.36369">
        <ele>15.39999961853</ele>
        <time>2021-05-13T09:11:16.000Z</time>
      </trkpt>
      <trkpt lat="47.36979" lon="-2.36368">
        <ele>15.39999961853</ele>
        <time>2021-05-13T09:11:20.000Z</time>
      </trkpt>
      <trkpt lat="47.36957" lon="-2.3637">
        <ele>15.39999961853</ele>
        <time>2021-05-13T09:11:24.000Z</time>
      </trkpt>
      <trkpt lat="47.3694" lon="-2.36371">
        <ele>15.39999961853</ele>
        <time>2021-05-13T09:11:27.000Z</time>
      </trkpt>
      <trkpt lat="47.36901" lon="-2.36372">
        <ele>15.39999961853</ele>
        <time>2021-05-13T09:11:34.000Z</time>
      </trkpt>
      <trkpt lat="47.36861" lon="-2.36372">
        <ele>15.39999961853</ele>
        <time>2021-05-13T09:11:41.000Z</time>
      </trkpt>
      <trkpt lat="47.36846" lon="-2.36371">
        <ele>15.39999961853</ele>
        <time>2021-05-13T09:11:44.000Z</time>
      </trkpt>
      <trkpt lat="47.36832" lon="-2.36371">
        <ele>15.39999961853</ele>
        <time>2021-05-13T09:11:47.000Z</time>
      </trkpt>
      <trkpt lat="47.36823" lon="-2.36371">
        <ele>15.39999961853</ele>
        <time>2021-05-13T09:11:49.000Z</time>
      </trkpt>
      <trkpt lat="47.36814" lon="-2.36371">
        <ele>15.39999961853</ele>
        <time>2021-05-13T09:11:51.000Z</time>
      </trkpt>
      <trkpt lat="47.36806" lon="-2.36372">
        <ele>15.39999961853</ele>
        <time>2021-05-13T09:11:53.000Z</time>
      </trkpt>
      <trkpt lat="47.36771" lon="-2.36375">
        <ele>15.39999961853</ele>
        <time>2021-05-13T09:12:01.000Z</time>
      </trkpt>
      <trkpt lat="47.36767" lon="-2.36375">
        <ele>15.39999961853</ele>
        <time>2021-05-13T09:12:02.000Z</time>
      </trkpt>
      <trkpt lat="47.36751" lon="-2.36377">
        <ele>15.39999961853</ele>
        <time>2021-05-13T09:12:06.000Z</time>
      </trkpt>
      <trkpt lat="47.36748" lon="-2.3638">
        <ele>15.39999961853</ele>
        <time>2021-05-13T09:12:07.000Z</time>
      </trkpt>
      <trkpt lat="47.36737" lon="-2.36391">
        <ele>15.39999961853</ele>
        <time>2021-05-13T09:12:10.000Z</time>
      </trkpt>
      <trkpt lat="47.36723" lon="-2.3641">
        <ele>15.800000190735</ele>
        <time>2021-05-13T09:12:14.000Z</time>
      </trkpt>
      <trkpt lat="47.36719" lon="-2.36415">
        <ele>16.200000762939</ele>
        <time>2021-05-13T09:12:15.000Z</time>
      </trkpt>
      <trkpt lat="47.36716" lon="-2.36419">
        <ele>16.60000038147</ele>
        <time>2021-05-13T09:12:16.000Z</time>
      </trkpt>
      <trkpt lat="47.36712" lon="-2.36424">
        <ele>17</ele>
        <time>2021-05-13T09:12:17.000Z</time>
      </trkpt>
      <trkpt lat="47.36708" lon="-2.36429">
        <ele>17.39999961853</ele>
        <time>2021-05-13T09:12:18.000Z</time>
      </trkpt>
      <trkpt lat="47.36704" lon="-2.36433">
        <ele>17.39999961853</ele>
        <time>2021-05-13T09:12:19.000Z</time>
      </trkpt>
      <trkpt lat="47.36683" lon="-2.36454">
        <ele>17.39999961853</ele>
        <time>2021-05-13T09:12:24.000Z</time>
      </trkpt>
      <trkpt lat="47.36671" lon="-2.36464">
        <ele>17.39999961853</ele>
        <time>2021-05-13T09:12:27.000Z</time>
      </trkpt>
      <trkpt lat="47.36658" lon="-2.36471">
        <ele>17.39999961853</ele>
        <time>2021-05-13T09:12:30.000Z</time>
      </trkpt>
      <trkpt lat="47.3664" lon="-2.36481">
        <ele>18</ele>
        <time>2021-05-13T09:12:34.000Z</time>
      </trkpt>
      <trkpt lat="47.36636" lon="-2.36483">
        <ele>18.39999961853</ele>
        <time>2021-05-13T09:12:35.000Z</time>
      </trkpt>
      <trkpt lat="47.36632" lon="-2.36486">
        <ele>18.799999237061</ele>
        <time>2021-05-13T09:12:36.000Z</time>
      </trkpt>
      <trkpt lat="47.36628" lon="-2.36488">
        <ele>19.39999961853</ele>
        <time>2021-05-13T09:12:37.000Z</time>
      </trkpt>
      <trkpt lat="47.36623" lon="-2.36491">
        <ele>19.799999237061</ele>
        <time>2021-05-13T09:12:38.000Z</time>
      </trkpt>
      <trkpt lat="47.36603" lon="-2.36503">
        <ele>19.799999237061</ele>
        <time>2021-05-13T09:12:43.000Z</time>
      </trkpt>
      <trkpt lat="47.36577" lon="-2.36515">
        <ele>19.799999237061</ele>
        <time>2021-05-13T09:12:50.000Z</time>
      </trkpt>
      <trkpt lat="47.36574" lon="-2.36514">
        <ele>20.200000762939</ele>
        <time>2021-05-13T09:12:51.000Z</time>
      </trkpt>
      <trkpt lat="47.36571" lon="-2.36511">
        <ele>20.60000038147</ele>
        <time>2021-05-13T09:12:52.000Z</time>
      </trkpt>
      <trkpt lat="47.36569" lon="-2.36507">
        <ele>21</ele>
        <time>2021-05-13T09:12:53.000Z</time>
      </trkpt>
      <trkpt lat="47.36567" lon="-2.36502">
        <ele>21.39999961853</ele>
        <time>2021-05-13T09:12:54.000Z</time>
      </trkpt>
      <trkpt lat="47.36565" lon="-2.36497">
        <ele>21.799999237061</ele>
        <time>2021-05-13T09:12:55.000Z</time>
      </trkpt>
      <trkpt lat="47.36555" lon="-2.36473">
        <ele>21.799999237061</ele>
        <time>2021-05-13T09:12:59.000Z</time>
      </trkpt>
      <trkpt lat="47.36534" lon="-2.3642">
        <ele>21.799999237061</ele>
        <time>2021-05-13T09:13:07.000Z</time>
      </trkpt>
      <trkpt lat="47.36517" lon="-2.36364">
        <ele>21.799999237061</ele>
        <time>2021-05-13T09:13:14.000Z</time>
      </trkpt>
      <trkpt lat="47.36502" lon="-2.36318">
        <ele>21.799999237061</ele>
        <time>2021-05-13T09:13:20.000Z</time>
      </trkpt>
      <trkpt lat="47.36498" lon="-2.36304">
        <ele>21.799999237061</ele>
        <time>2021-05-13T09:13:22.000Z</time>
      </trkpt>
      <trkpt lat="47.36494" lon="-2.3629">
        <ele>21.799999237061</ele>
        <time>2021-05-13T09:13:24.000Z</time>
      </trkpt>
      <trkpt lat="47.36491" lon="-2.36283">
        <ele>21.799999237061</ele>
        <time>2021-05-13T09:13:25.000Z</time>
      </trkpt>
      <trkpt lat="47.36477" lon="-2.36241">
        <ele>21.799999237061</ele>
        <time>2021-05-13T09:13:32.000Z</time>
      </trkpt>
      <trkpt lat="47.36473" lon="-2.36232">
        <ele>21.799999237061</ele>
        <time>2021-05-13T09:13:34.000Z</time>
      </trkpt>
      <trkpt lat="47.36469" lon="-2.36223">
        <ele>21.799999237061</ele>
        <time>2021-05-13T09:13:37.000Z</time>
      </trkpt>
      <trkpt lat="47.36465" lon="-2.36201">
        <ele>21.799999237061</ele>
        <time>2021-05-13T09:13:42.000Z</time>
      </trkpt>
      <trkpt lat="47.36458" lon="-2.36172">
        <ele>21.799999237061</ele>
        <time>2021-05-13T09:13:47.000Z</time>
      </trkpt>
      <trkpt lat="47.36456" lon="-2.36167">
        <ele>21.799999237061</ele>
        <time>2021-05-13T09:13:48.000Z</time>
      </trkpt>
      <trkpt lat="47.36454" lon="-2.3616">
        <ele>22.39999961853</ele>
        <time>2021-05-13T09:13:49.000Z</time>
      </trkpt>
      <trkpt lat="47.36452" lon="-2.36154">
        <ele>22.799999237061</ele>
        <time>2021-05-13T09:13:50.000Z</time>
      </trkpt>
      <trkpt lat="47.3645" lon="-2.36148">
        <ele>23.200000762939</ele>
        <time>2021-05-13T09:13:51.000Z</time>
      </trkpt>
      <trkpt lat="47.36448" lon="-2.36142">
        <ele>23.60000038147</ele>
        <time>2021-05-13T09:13:52.000Z</time>
      </trkpt>
      <trkpt lat="47.36445" lon="-2.36135">
        <ele>24.200000762939</ele>
        <time>2021-05-13T09:13:53.000Z</time>
      </trkpt>
      <trkpt lat="47.36441" lon="-2.36123">
        <ele>24.200000762939</ele>
        <time>2021-05-13T09:13:55.000Z</time>
      </trkpt>
      <trkpt lat="47.36436" lon="-2.36103">
        <ele>24.200000762939</ele>
        <time>2021-05-13T09:13:58.000Z</time>
      </trkpt>
      <trkpt lat="47.36436" lon="-2.3609">
        <ele>24.200000762939</ele>
        <time>2021-05-13T09:14:00.000Z</time>
      </trkpt>
      <trkpt lat="47.36445" lon="-2.36074">
        <ele>24.200000762939</ele>
        <time>2021-05-13T09:14:03.000Z</time>
      </trkpt>
      <trkpt lat="47.36465" lon="-2.36038">
        <ele>24.200000762939</ele>
        <time>2021-05-13T09:14:08.000Z</time>
      </trkpt>
      <trkpt lat="47.3647" lon="-2.36031">
        <ele>23.799999237061</ele>
        <time>2021-05-13T09:14:09.000Z</time>
      </trkpt>
      <trkpt lat="47.36475" lon="-2.36023">
        <ele>23.200000762939</ele>
        <time>2021-05-13T09:14:10.000Z</time>
      </trkpt>
      <trkpt lat="47.3648" lon="-2.36016">
        <ele>22.799999237061</ele>
        <time>2021-05-13T09:14:11.000Z</time>
      </trkpt>
      <trkpt lat="47.36485" lon="-2.3601">
        <ele>22.39999961853</ele>
        <time>2021-05-13T09:14:12.000Z</time>
      </trkpt>
      <trkpt lat="47.36489" lon="-2.36005">
        <ele>22</ele>
        <time>2021-05-13T09:14:13.000Z</time>
      </trkpt>
      <trkpt lat="47.36505" lon="-2.35986">
        <ele>21.60000038147</ele>
        <time>2021-05-13T09:14:16.000Z</time>
      </trkpt>
      <trkpt lat="47.36511" lon="-2.3598">
        <ele>21.200000762939</ele>
        <time>2021-05-13T09:14:17.000Z</time>
      </trkpt>
      <trkpt lat="47.36516" lon="-2.35974">
        <ele>20.60000038147</ele>
        <time>2021-05-13T09:14:18.000Z</time>
      </trkpt>
      <trkpt lat="47.36522" lon="-2.35968">
        <ele>20.200000762939</ele>
        <time>2021-05-13T09:14:19.000Z</time>
      </trkpt>
      <trkpt lat="47.36528" lon="-2.35962">
        <ele>19.799999237061</ele>
        <time>2021-05-13T09:14:20.000Z</time>
      </trkpt>
      <trkpt lat="47.36564" lon="-2.35912">
        <ele>19.799999237061</ele>
        <time>2021-05-13T09:14:27.000Z</time>
      </trkpt>
      <trkpt lat="47.36569" lon="-2.35905">
        <ele>19.39999961853</ele>
        <time>2021-05-13T09:14:28.000Z</time>
      </trkpt>
      <trkpt lat="47.36574" lon="-2.35898">
        <ele>19</ele>
        <time>2021-05-13T09:14:29.000Z</time>
      </trkpt>
      <trkpt lat="47.36579" lon="-2.35892">
        <ele>18.60000038147</ele>
        <time>2021-05-13T09:14:30.000Z</time>
      </trkpt>
      <trkpt lat="47.36583" lon="-2.35885">
        <ele>18.200000762939</ele>
        <time>2021-05-13T09:14:31.000Z</time>
      </trkpt>
      <trkpt lat="47.36587" lon="-2.35878">
        <ele>17.799999237061</ele>
        <time>2021-05-13T09:14:32.000Z</time>
      </trkpt>
      <trkpt lat="47.36587" lon="-2.35863">
        <ele>17.799999237061</ele>
        <time>2021-05-13T09:14:34.000Z</time>
      </trkpt>
      <trkpt lat="47.36585" lon="-2.35854">
        <ele>17.799999237061</ele>
        <time>2021-05-13T09:14:35.000Z</time>
      </trkpt>
      <trkpt lat="47.36578" lon="-2.3582">
        <ele>17.799999237061</ele>
        <time>2021-05-13T09:14:39.000Z</time>
      </trkpt>
      <trkpt lat="47.36572" lon="-2.35793">
        <ele>17.799999237061</ele>
        <time>2021-05-13T09:14:42.000Z</time>
      </trkpt>
      <trkpt lat="47.36563" lon="-2.3577">
        <ele>17.799999237061</ele>
        <time>2021-05-13T09:14:45.000Z</time>
      </trkpt>
      <trkpt lat="47.36552" lon="-2.3574">
        <ele>17.799999237061</ele>
        <time>2021-05-13T09:14:49.000Z</time>
      </trkpt>
      <trkpt lat="47.36544" lon="-2.35714">
        <ele>17.799999237061</ele>
        <time>2021-05-13T09:14:52.000Z</time>
      </trkpt>
      <trkpt lat="47.36526" lon="-2.3566">
        <ele>17.799999237061</ele>
        <time>2021-05-13T09:14:58.000Z</time>
      </trkpt>
      <trkpt lat="47.36502" lon="-2.35589">
        <ele>17.799999237061</ele>
        <time>2021-05-13T09:15:06.000Z</time>
      </trkpt>
      <trkpt lat="47.36499" lon="-2.35581">
        <ele>17.799999237061</ele>
        <time>2021-05-13T09:15:07.000Z</time>
      </trkpt>
      <trkpt lat="47.36483" lon="-2.35532">
        <ele>17.799999237061</ele>
        <time>2021-05-13T09:15:13.000Z</time>
      </trkpt>
      <trkpt lat="47.36478" lon="-2.35515">
        <ele>17.799999237061</ele>
        <time>2021-05-13T09:15:15.000Z</time>
      </trkpt>
      <trkpt lat="47.36482" lon="-2.35499">
        <ele>17.799999237061</ele>
        <time>2021-05-13T09:15:17.000Z</time>
      </trkpt>
      <trkpt lat="47.36489" lon="-2.35485">
        <ele>17.799999237061</ele>
        <time>2021-05-13T09:15:19.000Z</time>
      </trkpt>
      <trkpt lat="47.36494" lon="-2.35478">
        <ele>17.799999237061</ele>
        <time>2021-05-13T09:15:20.000Z</time>
      </trkpt>
      <trkpt lat="47.36498" lon="-2.3547">
        <ele>17.799999237061</ele>
        <time>2021-05-13T09:15:21.000Z</time>
      </trkpt>
      <trkpt lat="47.36503" lon="-2.35463">
        <ele>17.39999961853</ele>
        <time>2021-05-13T09:15:22.000Z</time>
      </trkpt>
      <trkpt lat="47.36509" lon="-2.35455">
        <ele>17</ele>
        <time>2021-05-13T09:15:23.000Z</time>
      </trkpt>
      <trkpt lat="47.36513" lon="-2.35448">
        <ele>16.60000038147</ele>
        <time>2021-05-13T09:15:24.000Z</time>
      </trkpt>
      <trkpt lat="47.36518" lon="-2.3544">
        <ele>16.200000762939</ele>
        <time>2021-05-13T09:15:25.000Z</time>
      </trkpt>
      <trkpt lat="47.36522" lon="-2.35433">
        <ele>15.800000190735</ele>
        <time>2021-05-13T09:15:26.000Z</time>
      </trkpt>
      <trkpt lat="47.36531" lon="-2.3542">
        <ele>15.800000190735</ele>
        <time>2021-05-13T09:15:28.000Z</time>
      </trkpt>
      <trkpt lat="47.36562" lon="-2.35369">
        <ele>15.800000190735</ele>
        <time>2021-05-13T09:15:35.000Z</time>
      </trkpt>
      <trkpt lat="47.36589" lon="-2.35321">
        <ele>15.800000190735</ele>
        <time>2021-05-13T09:15:41.000Z</time>
      </trkpt>
      <trkpt lat="47.36621" lon="-2.35268">
        <ele>15.800000190735</ele>
        <time>2021-05-13T09:15:48.000Z</time>
      </trkpt>
      <trkpt lat="47.36639" lon="-2.35236">
        <ele>15.800000190735</ele>
        <time>2021-05-13T09:15:53.000Z</time>
      </trkpt>
      <trkpt lat="47.36637" lon="-2.35222">
        <ele>15.800000190735</ele>
        <time>2021-05-13T09:15:55.000Z</time>
      </trkpt>
      <trkpt lat="47.36634" lon="-2.35215">
        <ele>15.800000190735</ele>
        <time>2021-05-13T09:15:56.000Z</time>
      </trkpt>
      <trkpt lat="47.36626" lon="-2.35203">
        <ele>15.800000190735</ele>
        <time>2021-05-13T09:15:58.000Z</time>
      </trkpt>
      <trkpt lat="47.36622" lon="-2.35196">
        <ele>15.800000190735</ele>
        <time>2021-05-13T09:15:59.000Z</time>
      </trkpt>
      <trkpt lat="47.366" lon="-2.35159">
        <ele>15.800000190735</ele>
        <time>2021-05-13T09:16:04.000Z</time>
      </trkpt>
      <trkpt lat="47.36571" lon="-2.35109">
        <ele>15.800000190735</ele>
        <time>2021-05-13T09:16:11.000Z</time>
      </trkpt>
      <trkpt lat="47.36547" lon="-2.35067">
        <ele>15.800000190735</ele>
        <time>2021-05-13T09:16:17.000Z</time>
      </trkpt>
      <trkpt lat="47.3652" lon="-2.35023">
        <ele>15.800000190735</ele>
        <time>2021-05-13T09:16:24.000Z</time>
      </trkpt>
      <trkpt lat="47.365" lon="-2.34992">
        <ele>15.800000190735</ele>
        <time>2021-05-13T09:16:30.000Z</time>
      </trkpt>
      <trkpt lat="47.36494" lon="-2.34989">
        <ele>15.800000190735</ele>
        <time>2021-05-13T09:16:32.000Z</time>
      </trkpt>
      <trkpt lat="47.36493" lon="-2.34991">
        <ele>15.800000190735</ele>
        <time>2021-05-13T09:16:33.000Z</time>
      </trkpt>
      <trkpt lat="47.36494" lon="-2.34998">
        <ele>15.800000190735</ele>
        <time>2021-05-13T09:16:36.000Z</time>
      </trkpt>
      <trkpt lat="47.36505" lon="-2.35017">
        <ele>15.800000190735</ele>
        <time>2021-05-13T09:16:40.000Z</time>
      </trkpt>
      <trkpt lat="47.36525" lon="-2.35048">
        <ele>15.800000190735</ele>
        <time>2021-05-13T09:16:46.000Z</time>
      </trkpt>
      <trkpt lat="47.3653" lon="-2.35057">
        <ele>15.800000190735</ele>
        <time>2021-05-13T09:16:48.000Z</time>
      </trkpt>
      <trkpt lat="47.36538" lon="-2.3507">
        <ele>15.800000190735</ele>
        <time>2021-05-13T09:16:51.000Z</time>
      </trkpt>
      <trkpt lat="47.36544" lon="-2.35079">
        <ele>15.800000190735</ele>
        <time>2021-05-13T09:16:53.000Z</time>
      </trkpt>
      <trkpt lat="47.36549" lon="-2.35088">
        <ele>15.800000190735</ele>
        <time>2021-05-13T09:16:55.000Z</time>
      </trkpt>
      <trkpt lat="47.36546" lon="-2.35097">
        <ele>15.800000190735</ele>
        <time>2021-05-13T09:16:58.000Z</time>
      </trkpt>
      <trkpt lat="47.36535" lon="-2.35099">
        <ele>15.800000190735</ele>
        <time>2021-05-13T09:17:01.000Z</time>
      </trkpt>
      <trkpt lat="47.36527" lon="-2.35101">
        <ele>15.800000190735</ele>
        <time>2021-05-13T09:17:03.000Z</time>
      </trkpt>
      <trkpt lat="47.36498" lon="-2.35107">
        <ele>15.800000190735</ele>
        <time>2021-05-13T09:17:09.000Z</time>
      </trkpt>
      <trkpt lat="47.36476" lon="-2.35098">
        <ele>15.800000190735</ele>
        <time>2021-05-13T09:17:14.000Z</time>
      </trkpt>
      <trkpt lat="47.36471" lon="-2.35094">
        <ele>15.800000190735</ele>
        <time>2021-05-13T09:17:15.000Z</time>
      </trkpt>
      <trkpt lat="47.36452" lon="-2.35083">
        <ele>15.800000190735</ele>
        <time>2021-05-13T09:17:19.000Z</time>
      </trkpt>
      <trkpt lat="47.36435" lon="-2.35073">
        <ele>15.800000190735</ele>
        <time>2021-05-13T09:17:24.000Z</time>
      </trkpt>
      <trkpt lat="47.36425" lon="-2.35065">
        <ele>15.800000190735</ele>
        <time>2021-05-13T09:17:30.000Z</time>
      </trkpt>
      <trkpt lat="47.36424" lon="-2.35064">
        <ele>15.800000190735</ele>
        <time>2021-05-13T09:17:31.000Z</time>
      </trkpt>
      <trkpt lat="47.36414" lon="-2.35071">
        <ele>15.800000190735</ele>
        <time>2021-05-13T09:17:49.000Z</time>
      </trkpt>
      <trkpt lat="47.36411" lon="-2.35075">
        <ele>15.800000190735</ele>
        <time>2021-05-13T09:17:51.000Z</time>
      </trkpt>
      <trkpt lat="47.36406" lon="-2.35077">
        <ele>15.800000190735</ele>
        <time>2021-05-13T09:17:53.000Z</time>
      </trkpt>
      <trkpt lat="47.36402" lon="-2.35076">
        <ele>15.800000190735</ele>
        <time>2021-05-13T09:17:55.000Z</time>
      </trkpt>
      <trkpt lat="47.36397" lon="-2.35072">
        <ele>15.800000190735</ele>
        <time>2021-05-13T09:17:57.000Z</time>
      </trkpt>
      <trkpt lat="47.36393" lon="-2.35062">
        <ele>15.800000190735</ele>
        <time>2021-05-13T09:18:00.000Z</time>
      </trkpt>
      <trkpt lat="47.36387" lon="-2.35047">
        <ele>15.800000190735</ele>
        <time>2021-05-13T09:18:03.000Z</time>
      </trkpt>
      <trkpt lat="47.36384" lon="-2.35038">
        <ele>15.800000190735</ele>
        <time>2021-05-13T09:18:05.000Z</time>
      </trkpt>
      <trkpt lat="47.36376" lon="-2.35021">
        <ele>15.800000190735</ele>
        <time>2021-05-13T09:18:10.000Z</time>
      </trkpt>
      <trkpt lat="47.36361" lon="-2.34993">
        <ele>15.800000190735</ele>
        <time>2021-05-13T09:18:17.000Z</time>
      </trkpt>
      <trkpt lat="47.36349" lon="-2.3498">
        <ele>15.800000190735</ele>
        <time>2021-05-13T09:18:21.000Z</time>
      </trkpt>
      <trkpt lat="47.36337" lon="-2.34984">
        <ele>16.200000762939</ele>
        <time>2021-05-13T09:18:24.000Z</time>
      </trkpt>
      <trkpt lat="47.36334" lon="-2.34987">
        <ele>16.60000038147</ele>
        <time>2021-05-13T09:18:25.000Z</time>
      </trkpt>
      <trkpt lat="47.36331" lon="-2.3499">
        <ele>17</ele>
        <time>2021-05-13T09:18:26.000Z</time>
      </trkpt>
      <trkpt lat="47.36328" lon="-2.34994">
        <ele>17.39999961853</ele>
        <time>2021-05-13T09:18:27.000Z</time>
      </trkpt>
      <trkpt lat="47.36325" lon="-2.34997">
        <ele>17.799999237061</ele>
        <time>2021-05-13T09:18:28.000Z</time>
      </trkpt>
      <trkpt lat="47.36322" lon="-2.35001">
        <ele>17.799999237061</ele>
        <time>2021-05-13T09:18:29.000Z</time>
      </trkpt>
      <trkpt lat="47.36304" lon="-2.35008">
        <ele>17.799999237061</ele>
        <time>2021-05-13T09:18:34.000Z</time>
      </trkpt>
      <trkpt lat="47.36299" lon="-2.35004">
        <ele>17.799999237061</ele>
        <time>2021-05-13T09:18:36.000Z</time>
      </trkpt>
      <trkpt lat="47.36296" lon="-2.34997">
        <ele>17.799999237061</ele>
        <time>2021-05-13T09:18:38.000Z</time>
      </trkpt>
      <trkpt lat="47.36289" lon="-2.3497">
        <ele>17.799999237061</ele>
        <time>2021-05-13T09:18:44.000Z</time>
      </trkpt>
      <trkpt lat="47.36282" lon="-2.34937">
        <ele>17.799999237061</ele>
        <time>2021-05-13T09:18:51.000Z</time>
      </trkpt>
      <trkpt lat="47.36272" lon="-2.34934">
        <ele>17.799999237061</ele>
        <time>2021-05-13T09:18:55.000Z</time>
      </trkpt>
      <trkpt lat="47.36267" lon="-2.34941">
        <ele>17.799999237061</ele>
        <time>2021-05-13T09:18:58.000Z</time>
      </trkpt>
      <trkpt lat="47.36264" lon="-2.34947">
        <ele>17.799999237061</ele>
        <time>2021-05-13T09:19:00.000Z</time>
      </trkpt>
      <trkpt lat="47.36255" lon="-2.34969">
        <ele>17.799999237061</ele>
        <time>2021-05-13T09:19:06.000Z</time>
      </trkpt>
      <trkpt lat="47.36236" lon="-2.35009">
        <ele>17.799999237061</ele>
        <time>2021-05-13T09:19:16.000Z</time>
      </trkpt>
      <trkpt lat="47.36226" lon="-2.3503">
        <ele>17.799999237061</ele>
        <time>2021-05-13T09:19:21.000Z</time>
      </trkpt>
      <trkpt lat="47.36207" lon="-2.35056">
        <ele>17.799999237061</ele>
        <time>2021-05-13T09:19:28.000Z</time>
      </trkpt>
      <trkpt lat="47.36184" lon="-2.35079">
        <ele>17.799999237061</ele>
        <time>2021-05-13T09:19:36.000Z</time>
      </trkpt>
      <trkpt lat="47.36165" lon="-2.35097">
        <ele>17.799999237061</ele>
        <time>2021-05-13T09:19:42.000Z</time>
      </trkpt>
      <trkpt lat="47.36143" lon="-2.35117">
        <ele>17.799999237061</ele>
        <time>2021-05-13T09:19:49.000Z</time>
      </trkpt>
      <trkpt lat="47.36125" lon="-2.35135">
        <ele>17.799999237061</ele>
        <time>2021-05-13T09:19:55.000Z</time>
      </trkpt>
      <trkpt lat="47.36107" lon="-2.35162">
        <ele>17.799999237061</ele>
        <time>2021-05-13T09:20:02.000Z</time>
      </trkpt>
      <trkpt lat="47.36095" lon="-2.35174">
        <ele>17.799999237061</ele>
        <time>2021-05-13T09:20:07.000Z</time>
      </trkpt>
      <trkpt lat="47.36084" lon="-2.35189">
        <ele>17.799999237061</ele>
        <time>2021-05-13T09:20:12.000Z</time>
      </trkpt>
      <trkpt lat="47.36065" lon="-2.35218">
        <ele>17.799999237061</ele>
        <time>2021-05-13T09:20:18.000Z</time>
      </trkpt>
      <trkpt lat="47.36037" lon="-2.35259">
        <ele>17.799999237061</ele>
        <time>2021-05-13T09:20:25.000Z</time>
      </trkpt>
      <trkpt lat="47.36033" lon="-2.35264">
        <ele>17.799999237061</ele>
        <time>2021-05-13T09:20:26.000Z</time>
      </trkpt>
      <trkpt lat="47.36024" lon="-2.35276">
        <ele>18.200000762939</ele>
        <time>2021-05-13T09:20:28.000Z</time>
      </trkpt>
      <trkpt lat="47.3602" lon="-2.35282">
        <ele>18.60000038147</ele>
        <time>2021-05-13T09:20:29.000Z</time>
      </trkpt>
      <trkpt lat="47.36015" lon="-2.35287">
        <ele>19</ele>
        <time>2021-05-13T09:20:30.000Z</time>
      </trkpt>
      <trkpt lat="47.36011" lon="-2.35293">
        <ele>19.39999961853</ele>
        <time>2021-05-13T09:20:31.000Z</time>
      </trkpt>
      <trkpt lat="47.36006" lon="-2.35298">
        <ele>19.799999237061</ele>
        <time>2021-05-13T09:20:32.000Z</time>
      </trkpt>
      <trkpt lat="47.35976" lon="-2.35341">
        <ele>19.799999237061</ele>
        <time>2021-05-13T09:20:39.000Z</time>
      </trkpt>
      <trkpt lat="47.3595" lon="-2.35377">
        <ele>19.799999237061</ele>
        <time>2021-05-13T09:20:45.000Z</time>
      </trkpt>
      <trkpt lat="47.35939" lon="-2.35394">
        <ele>19.799999237061</ele>
        <time>2021-05-13T09:20:48.000Z</time>
      </trkpt>
      <trkpt lat="47.35929" lon="-2.35403">
        <ele>19.799999237061</ele>
        <time>2021-05-13T09:20:50.000Z</time>
      </trkpt>
      <trkpt lat="47.35895" lon="-2.35428">
        <ele>19.799999237061</ele>
        <time>2021-05-13T09:20:56.000Z</time>
      </trkpt>
      <trkpt lat="47.35862" lon="-2.35454">
        <ele>19.799999237061</ele>
        <time>2021-05-13T09:21:02.000Z</time>
      </trkpt>
      <trkpt lat="47.35827" lon="-2.35472">
        <ele>19.799999237061</ele>
        <time>2021-05-13T09:21:08.000Z</time>
      </trkpt>
      <trkpt lat="47.35793" lon="-2.35486">
        <ele>19.799999237061</ele>
        <time>2021-05-13T09:21:14.000Z</time>
      </trkpt>
      <trkpt lat="47.3576" lon="-2.35503">
        <ele>19.799999237061</ele>
        <time>2021-05-13T09:21:20.000Z</time>
      </trkpt>
      <trkpt lat="47.35721" lon="-2.35524">
        <ele>19.799999237061</ele>
        <time>2021-05-13T09:21:27.000Z</time>
      </trkpt>
      <trkpt lat="47.35685" lon="-2.35539">
        <ele>19.799999237061</ele>
        <time>2021-05-13T09:21:33.000Z</time>
      </trkpt>
      <trkpt lat="47.35674" lon="-2.35546">
        <ele>19.799999237061</ele>
        <time>2021-05-13T09:21:35.000Z</time>
      </trkpt>
      <trkpt lat="47.35656" lon="-2.35558">
        <ele>19.799999237061</ele>
        <time>2021-05-13T09:21:38.000Z</time>
      </trkpt>
      <trkpt lat="47.35619" lon="-2.35592">
        <ele>19.799999237061</ele>
        <time>2021-05-13T09:21:45.000Z</time>
      </trkpt>
      <trkpt lat="47.35593" lon="-2.35624">
        <ele>19.799999237061</ele>
        <time>2021-05-13T09:21:51.000Z</time>
      </trkpt>
      <trkpt lat="47.35571" lon="-2.35647">
        <ele>19.799999237061</ele>
        <time>2021-05-13T09:21:56.000Z</time>
      </trkpt>
      <trkpt lat="47.35538" lon="-2.35675">
        <ele>19.799999237061</ele>
        <time>2021-05-13T09:22:03.000Z</time>
      </trkpt>
      <trkpt lat="47.35518" lon="-2.3569">
        <ele>20.39999961853</ele>
        <time>2021-05-13T09:22:07.000Z</time>
      </trkpt>
      <trkpt lat="47.35514" lon="-2.35695">
        <ele>20.799999237061</ele>
        <time>2021-05-13T09:22:08.000Z</time>
      </trkpt>
      <trkpt lat="47.3551" lon="-2.35699">
        <ele>21.200000762939</ele>
        <time>2021-05-13T09:22:09.000Z</time>
      </trkpt>
      <trkpt lat="47.35505" lon="-2.35704">
        <ele>21.60000038147</ele>
        <time>2021-05-13T09:22:10.000Z</time>
      </trkpt>
      <trkpt lat="47.35502" lon="-2.3571">
        <ele>22</ele>
        <time>2021-05-13T09:22:11.000Z</time>
      </trkpt>
      <trkpt lat="47.35483" lon="-2.35736">
        <ele>22</ele>
        <time>2021-05-13T09:22:16.000Z</time>
      </trkpt>
      <trkpt lat="47.35455" lon="-2.35782">
        <ele>22</ele>
        <time>2021-05-13T09:22:24.000Z</time>
      </trkpt>
      <trkpt lat="47.3543" lon="-2.35817">
        <ele>22</ele>
        <time>2021-05-13T09:22:31.000Z</time>
      </trkpt>
      <trkpt lat="47.35399" lon="-2.35861">
        <ele>22</ele>
        <time>2021-05-13T09:22:40.000Z</time>
      </trkpt>
      <trkpt lat="47.35395" lon="-2.35866">
        <ele>22</ele>
        <time>2021-05-13T09:22:41.000Z</time>
      </trkpt>
      <trkpt lat="47.35375" lon="-2.35889">
        <ele>22</ele>
        <time>2021-05-13T09:22:46.000Z</time>
      </trkpt>
      <trkpt lat="47.35352" lon="-2.35912">
        <ele>22</ele>
        <time>2021-05-13T09:22:51.000Z</time>
      </trkpt>
      <trkpt lat="47.35343" lon="-2.35924">
        <ele>22</ele>
        <time>2021-05-13T09:22:53.000Z</time>
      </trkpt>
      <trkpt lat="47.35331" lon="-2.35946">
        <ele>22</ele>
        <time>2021-05-13T09:22:56.000Z</time>
      </trkpt>
      <trkpt lat="47.35308" lon="-2.35999">
        <ele>21.60000038147</ele>
        <time>2021-05-13T09:23:03.000Z</time>
      </trkpt>
      <trkpt lat="47.35304" lon="-2.36006">
        <ele>21.200000762939</ele>
        <time>2021-05-13T09:23:04.000Z</time>
      </trkpt>
      <trkpt lat="47.35301" lon="-2.36013">
        <ele>20.799999237061</ele>
        <time>2021-05-13T09:23:05.000Z</time>
      </trkpt>
      <trkpt lat="47.35297" lon="-2.36019">
        <ele>20.39999961853</ele>
        <time>2021-05-13T09:23:06.000Z</time>
      </trkpt>
      <trkpt lat="47.35292" lon="-2.36025">
        <ele>19.799999237061</ele>
        <time>2021-05-13T09:23:07.000Z</time>
      </trkpt>
      <trkpt lat="47.35287" lon="-2.36029">
        <ele>19.799999237061</ele>
        <time>2021-05-13T09:23:08.000Z</time>
      </trkpt>
      <trkpt lat="47.35283" lon="-2.36034">
        <ele>19.799999237061</ele>
        <time>2021-05-13T09:23:09.000Z</time>
      </trkpt>
      <trkpt lat="47.3525" lon="-2.36063">
        <ele>19.799999237061</ele>
        <time>2021-05-13T09:23:16.000Z</time>
      </trkpt>
      <trkpt lat="47.35235" lon="-2.36074">
        <ele>19.799999237061</ele>
        <time>2021-05-13T09:23:19.000Z</time>
      </trkpt>
      <trkpt lat="47.3522" lon="-2.36088">
        <ele>19.799999237061</ele>
        <time>2021-05-13T09:23:22.000Z</time>
      </trkpt>
      <trkpt lat="47.35183" lon="-2.36117">
        <ele>19.799999237061</ele>
        <time>2021-05-13T09:23:29.000Z</time>
      </trkpt>
      <trkpt lat="47.35148" lon="-2.36143">
        <ele>19.799999237061</ele>
        <time>2021-05-13T09:23:36.000Z</time>
      </trkpt>
      <trkpt lat="47.35127" lon="-2.36156">
        <ele>19.799999237061</ele>
        <time>2021-05-13T09:23:41.000Z</time>
      </trkpt>
      <trkpt lat="47.35111" lon="-2.36168">
        <ele>19.799999237061</ele>
        <time>2021-05-13T09:23:46.000Z</time>
      </trkpt>
      <trkpt lat="47.35097" lon="-2.36178">
        <ele>19.799999237061</ele>
        <time>2021-05-13T09:23:51.000Z</time>
      </trkpt>
      <trkpt lat="47.35088" lon="-2.36179">
        <ele>19.799999237061</ele>
        <time>2021-05-13T09:23:53.000Z</time>
      </trkpt>
      <trkpt lat="47.35079" lon="-2.36179">
        <ele>19.799999237061</ele>
        <time>2021-05-13T09:23:55.000Z</time>
      </trkpt>
      <trkpt lat="47.35062" lon="-2.3618">
        <ele>19.799999237061</ele>
        <time>2021-05-13T09:23:58.000Z</time>
      </trkpt>
      <trkpt lat="47.35056" lon="-2.36179">
        <ele>20.39999961853</ele>
        <time>2021-05-13T09:23:59.000Z</time>
      </trkpt>
      <trkpt lat="47.3505" lon="-2.36179">
        <ele>20.799999237061</ele>
        <time>2021-05-13T09:24:00.000Z</time>
      </trkpt>
      <trkpt lat="47.35044" lon="-2.36178">
        <ele>21.200000762939</ele>
        <time>2021-05-13T09:24:01.000Z</time>
      </trkpt>
      <trkpt lat="47.35039" lon="-2.36177">
        <ele>21.60000038147</ele>
        <time>2021-05-13T09:24:02.000Z</time>
      </trkpt>
      <trkpt lat="47.35033" lon="-2.36176">
        <ele>22</ele>
        <time>2021-05-13T09:24:03.000Z</time>
      </trkpt>
      <trkpt lat="47.35022" lon="-2.36174">
        <ele>22</ele>
        <time>2021-05-13T09:24:05.000Z</time>
      </trkpt>
      <trkpt lat="47.3501" lon="-2.36172">
        <ele>22</ele>
        <time>2021-05-13T09:24:07.000Z</time>
      </trkpt>
      <trkpt lat="47.34998" lon="-2.36173">
        <ele>22</ele>
        <time>2021-05-13T09:24:09.000Z</time>
      </trkpt>
      <trkpt lat="47.34992" lon="-2.36175">
        <ele>22</ele>
        <time>2021-05-13T09:24:10.000Z</time>
      </trkpt>
      <trkpt lat="47.34975" lon="-2.36185">
        <ele>22</ele>
        <time>2021-05-13T09:24:13.000Z</time>
      </trkpt>
      <trkpt lat="47.3497" lon="-2.36189">
        <ele>22.39999961853</ele>
        <time>2021-05-13T09:24:14.000Z</time>
      </trkpt>
      <trkpt lat="47.34965" lon="-2.36194">
        <ele>22.799999237061</ele>
        <time>2021-05-13T09:24:15.000Z</time>
      </trkpt>
      <trkpt lat="47.34961" lon="-2.362">
        <ele>23.60000038147</ele>
        <time>2021-05-13T09:24:16.000Z</time>
      </trkpt>
      <trkpt lat="47.34956" lon="-2.36205">
        <ele>24</ele>
        <time>2021-05-13T09:24:17.000Z</time>
      </trkpt>
      <trkpt lat="47.34935" lon="-2.36233">
        <ele>24</ele>
        <time>2021-05-13T09:24:22.000Z</time>
      </trkpt>
      <trkpt lat="47.34926" lon="-2.36244">
        <ele>24.39999961853</ele>
        <time>2021-05-13T09:24:24.000Z</time>
      </trkpt>
      <trkpt lat="47.34921" lon="-2.36248">
        <ele>25</ele>
        <time>2021-05-13T09:24:25.000Z</time>
      </trkpt>
      <trkpt lat="47.34917" lon="-2.36253">
        <ele>25.39999961853</ele>
        <time>2021-05-13T09:24:26.000Z</time>
      </trkpt>
      <trkpt lat="47.34912" lon="-2.36257">
        <ele>25.799999237061</ele>
        <time>2021-05-13T09:24:27.000Z</time>
      </trkpt>
      <trkpt lat="47.34908" lon="-2.3626">
        <ele>26.200000762939</ele>
        <time>2021-05-13T09:24:28.000Z</time>
      </trkpt>
      <trkpt lat="47.34894" lon="-2.36273">
        <ele>26.200000762939</ele>
        <time>2021-05-13T09:24:31.000Z</time>
      </trkpt>
      <trkpt lat="47.34884" lon="-2.36281">
        <ele>26.200000762939</ele>
        <time>2021-05-13T09:24:33.000Z</time>
      </trkpt>
      <trkpt lat="47.34864" lon="-2.36294">
        <ele>26.60000038147</ele>
        <time>2021-05-13T09:24:37.000Z</time>
      </trkpt>
      <trkpt lat="47.34859" lon="-2.36298">
        <ele>27</ele>
        <time>2021-05-13T09:24:38.000Z</time>
      </trkpt>
      <trkpt lat="47.34855" lon="-2.36301">
        <ele>27.39999961853</ele>
        <time>2021-05-13T09:24:39.000Z</time>
      </trkpt>
      <trkpt lat="47.3485" lon="-2.36304">
        <ele>27.799999237061</ele>
        <time>2021-05-13T09:24:40.000Z</time>
      </trkpt>
      <trkpt lat="47.34846" lon="-2.36307">
        <ele>28.200000762939</ele>
        <time>2021-05-13T09:24:41.000Z</time>
      </trkpt>
      <trkpt lat="47.34832" lon="-2.36315">
        <ele>28.200000762939</ele>
        <time>2021-05-13T09:24:45.000Z</time>
      </trkpt>
      <trkpt lat="47.34808" lon="-2.36332">
        <ele>28.200000762939</ele>
        <time>2021-05-13T09:24:52.000Z</time>
      </trkpt>
      <trkpt lat="47.34778" lon="-2.36353">
        <ele>28.200000762939</ele>
        <time>2021-05-13T09:25:00.000Z</time>
      </trkpt>
      <trkpt lat="47.34766" lon="-2.3636">
        <ele>28.200000762939</ele>
        <time>2021-05-13T09:25:03.000Z</time>
      </trkpt>
      <trkpt lat="47.34751" lon="-2.36368">
        <ele>28.200000762939</ele>
        <time>2021-05-13T09:25:07.000Z</time>
      </trkpt>
      <trkpt lat="47.34747" lon="-2.36371">
        <ele>28.200000762939</ele>
        <time>2021-05-13T09:25:08.000Z</time>
      </trkpt>
      <trkpt lat="47.34735" lon="-2.3638">
        <ele>28.200000762939</ele>
        <time>2021-05-13T09:25:11.000Z</time>
      </trkpt>
      <trkpt lat="47.34731" lon="-2.36382">
        <ele>28.200000762939</ele>
        <time>2021-05-13T09:25:12.000Z</time>
      </trkpt>
      <trkpt lat="47.34711" lon="-2.36391">
        <ele>28.200000762939</ele>
        <time>2021-05-13T09:25:17.000Z</time>
      </trkpt>
      <trkpt lat="47.34684" lon="-2.36402">
        <ele>28.200000762939</ele>
        <time>2021-05-13T09:25:23.000Z</time>
      </trkpt>
      <trkpt lat="47.34648" lon="-2.36419">
        <ele>28.200000762939</ele>
        <time>2021-05-13T09:25:30.000Z</time>
      </trkpt>
      <trkpt lat="47.34636" lon="-2.36425">
        <ele>27.799999237061</ele>
        <time>2021-05-13T09:25:32.000Z</time>
      </trkpt>
      <trkpt lat="47.3463" lon="-2.36428">
        <ele>27.200000762939</ele>
        <time>2021-05-13T09:25:33.000Z</time>
      </trkpt>
      <trkpt lat="47.34624" lon="-2.36431">
        <ele>26.799999237061</ele>
        <time>2021-05-13T09:25:34.000Z</time>
      </trkpt>
      <trkpt lat="47.34618" lon="-2.36434">
        <ele>26.200000762939</ele>
        <time>2021-05-13T09:25:35.000Z</time>
      </trkpt>
      <trkpt lat="47.34613" lon="-2.36436">
        <ele>25.799999237061</ele>
        <time>2021-05-13T09:25:36.000Z</time>
      </trkpt>
      <trkpt lat="47.34608" lon="-2.36438">
        <ele>25.799999237061</ele>
        <time>2021-05-13T09:25:37.000Z</time>
      </trkpt>
      <trkpt lat="47.346" lon="-2.36441">
        <ele>25.799999237061</ele>
        <time>2021-05-13T09:25:39.000Z</time>
      </trkpt>
      <trkpt lat="47.34594" lon="-2.3644">
        <ele>25.799999237061</ele>
        <time>2021-05-13T09:25:41.000Z</time>
      </trkpt>
      <trkpt lat="47.34586" lon="-2.36431">
        <ele>25.799999237061</ele>
        <time>2021-05-13T09:25:45.000Z</time>
      </trkpt>
      <trkpt lat="47.34584" lon="-2.36428">
        <ele>25.799999237061</ele>
        <time>2021-05-13T09:25:46.000Z</time>
      </trkpt>
      <trkpt lat="47.34576" lon="-2.36419">
        <ele>25.39999961853</ele>
        <time>2021-05-13T09:25:49.000Z</time>
      </trkpt>
      <trkpt lat="47.34573" lon="-2.36415">
        <ele>25</ele>
        <time>2021-05-13T09:25:50.000Z</time>
      </trkpt>
      <trkpt lat="47.34569" lon="-2.36408">
        <ele>24.60000038147</ele>
        <time>2021-05-13T09:25:51.000Z</time>
      </trkpt>
      <trkpt lat="47.34565" lon="-2.36402">
        <ele>24.200000762939</ele>
        <time>2021-05-13T09:25:52.000Z</time>
      </trkpt>
      <trkpt lat="47.34561" lon="-2.36397">
        <ele>23.799999237061</ele>
        <time>2021-05-13T09:25:53.000Z</time>
      </trkpt>
      <trkpt lat="47.34551" lon="-2.36379">
        <ele>23.799999237061</ele>
        <time>2021-05-13T09:25:56.000Z</time>
      </trkpt>
      <trkpt lat="47.34549" lon="-2.36372">
        <ele>23.799999237061</ele>
        <time>2021-05-13T09:25:57.000Z</time>
      </trkpt>
      <trkpt lat="47.34543" lon="-2.36353">
        <ele>23.799999237061</ele>
        <time>2021-05-13T09:26:00.000Z</time>
      </trkpt>
      <trkpt lat="47.3454" lon="-2.36347">
        <ele>23.799999237061</ele>
        <time>2021-05-13T09:26:01.000Z</time>
      </trkpt>
      <trkpt lat="47.34537" lon="-2.36342">
        <ele>23.799999237061</ele>
        <time>2021-05-13T09:26:02.000Z</time>
      </trkpt>
      <trkpt lat="47.34536" lon="-2.36336">
        <ele>23.39999961853</ele>
        <time>2021-05-13T09:26:03.000Z</time>
      </trkpt>
      <trkpt lat="47.34534" lon="-2.36332">
        <ele>23</ele>
        <time>2021-05-13T09:26:04.000Z</time>
      </trkpt>
      <trkpt lat="47.34532" lon="-2.36327">
        <ele>22.60000038147</ele>
        <time>2021-05-13T09:26:05.000Z</time>
      </trkpt>
      <trkpt lat="47.3453" lon="-2.36321">
        <ele>22</ele>
        <time>2021-05-13T09:26:06.000Z</time>
      </trkpt>
      <trkpt lat="47.34528" lon="-2.36317">
        <ele>21.60000038147</ele>
        <time>2021-05-13T09:26:07.000Z</time>
      </trkpt>
      <trkpt lat="47.3452" lon="-2.36294">
        <ele>21.60000038147</ele>
        <time>2021-05-13T09:26:12.000Z</time>
      </trkpt>
      <trkpt lat="47.34514" lon="-2.36271">
        <ele>21.60000038147</ele>
        <time>2021-05-13T09:26:17.000Z</time>
      </trkpt>
      <trkpt lat="47.34502" lon="-2.36236">
        <ele>21.60000038147</ele>
        <time>2021-05-13T09:26:24.000Z</time>
      </trkpt>
      <trkpt lat="47.34489" lon="-2.36213">
        <ele>21.60000038147</ele>
        <time>2021-05-13T09:26:30.000Z</time>
      </trkpt>
      <trkpt lat="47.34486" lon="-2.36207">
        <ele>21.60000038147</ele>
        <time>2021-05-13T09:26:31.000Z</time>
      </trkpt>
      <trkpt lat="47.34483" lon="-2.36201">
        <ele>21.60000038147</ele>
        <time>2021-05-13T09:26:32.000Z</time>
      </trkpt>
      <trkpt lat="47.34468" lon="-2.36178">
        <ele>21.60000038147</ele>
        <time>2021-05-13T09:26:36.000Z</time>
      </trkpt>
      <trkpt lat="47.34461" lon="-2.36166">
        <ele>21.60000038147</ele>
        <time>2021-05-13T09:26:38.000Z</time>
      </trkpt>
      <trkpt lat="47.34456" lon="-2.36153">
        <ele>21.60000038147</ele>
        <time>2021-05-13T09:26:40.000Z</time>
      </trkpt>
      <trkpt lat="47.34451" lon="-2.3614">
        <ele>21.60000038147</ele>
        <time>2021-05-13T09:26:42.000Z</time>
      </trkpt>
      <trkpt lat="47.34433" lon="-2.36096">
        <ele>21.60000038147</ele>
        <time>2021-05-13T09:26:49.000Z</time>
      </trkpt>
      <trkpt lat="47.34424" lon="-2.36064">
        <ele>21.60000038147</ele>
        <time>2021-05-13T09:26:54.000Z</time>
      </trkpt>
      <trkpt lat="47.34419" lon="-2.3604">
        <ele>21.60000038147</ele>
        <time>2021-05-13T09:26:58.000Z</time>
      </trkpt>
      <trkpt lat="47.34415" lon="-2.36023">
        <ele>21.60000038147</ele>
        <time>2021-05-13T09:27:01.000Z</time>
      </trkpt>
      <trkpt lat="47.34406" lon="-2.36004">
        <ele>21.60000038147</ele>
        <time>2021-05-13T09:27:05.000Z</time>
      </trkpt>
      <trkpt lat="47.34402" lon="-2.36001">
        <ele>21.60000038147</ele>
        <time>2021-05-13T09:27:06.000Z</time>
      </trkpt>
      <trkpt lat="47.34393" lon="-2.35994">
        <ele>22</ele>
        <time>2021-05-13T09:27:09.000Z</time>
      </trkpt>
      <trkpt lat="47.3439" lon="-2.35992">
        <ele>22.60000038147</ele>
        <time>2021-05-13T09:27:10.000Z</time>
      </trkpt>
      <trkpt lat="47.34387" lon="-2.35991">
        <ele>23</ele>
        <time>2021-05-13T09:27:11.000Z</time>
      </trkpt>
      <trkpt lat="47.34384" lon="-2.3599">
        <ele>23.39999961853</ele>
        <time>2021-05-13T09:27:12.000Z</time>
      </trkpt>
      <trkpt lat="47.34381" lon="-2.35989">
        <ele>23.799999237061</ele>
        <time>2021-05-13T09:27:13.000Z</time>
      </trkpt>
      <trkpt lat="47.34366" lon="-2.35984">
        <ele>23.799999237061</ele>
        <time>2021-05-13T09:27:18.000Z</time>
      </trkpt>
      <trkpt lat="47.34346" lon="-2.35975">
        <ele>23.799999237061</ele>
        <time>2021-05-13T09:27:24.000Z</time>
      </trkpt>
      <trkpt lat="47.34325" lon="-2.35962">
        <ele>23.799999237061</ele>
        <time>2021-05-13T09:27:31.000Z</time>
      </trkpt>
      <trkpt lat="47.34305" lon="-2.35957">
        <ele>23.799999237061</ele>
        <time>2021-05-13T09:27:37.000Z</time>
      </trkpt>
      <trkpt lat="47.34278" lon="-2.35951">
        <ele>23.799999237061</ele>
        <time>2021-05-13T09:27:43.000Z</time>
      </trkpt>
      <trkpt lat="47.34273" lon="-2.3595">
        <ele>23.799999237061</ele>
        <time>2021-05-13T09:27:44.000Z</time>
      </trkpt>
      <trkpt lat="47.34251" lon="-2.3595">
        <ele>23.200000762939</ele>
        <time>2021-05-13T09:27:48.000Z</time>
      </trkpt>
      <trkpt lat="47.34247" lon="-2.35949">
        <ele>22.799999237061</ele>
        <time>2021-05-13T09:27:49.000Z</time>
      </trkpt>
      <trkpt lat="47.34244" lon="-2.35949">
        <ele>22.200000762939</ele>
        <time>2021-05-13T09:27:50.000Z</time>
      </trkpt>
      <trkpt lat="47.34241" lon="-2.35949">
        <ele>21.60000038147</ele>
        <time>2021-05-13T09:27:51.000Z</time>
      </trkpt>
      <trkpt lat="47.3424" lon="-2.35948">
        <ele>21</ele>
        <time>2021-05-13T09:27:52.000Z</time>
      </trkpt>
      <trkpt lat="47.3424" lon="-2.35948">
        <ele>20.39999961853</ele>
        <time>2021-05-13T09:27:53.000Z</time>
      </trkpt>
      <trkpt lat="47.3424" lon="-2.35948">
        <ele>19.799999237061</ele>
        <time>2021-05-13T09:27:54.000Z</time>
      </trkpt>
      <trkpt lat="47.34239" lon="-2.35946">
        <ele>18.60000038147</ele>
        <time>2021-05-13T09:28:02.000Z</time>
      </trkpt>
      <trkpt lat="47.34237" lon="-2.35941">
        <ele>18.60000038147</ele>
        <time>2021-05-13T09:28:04.000Z</time>
      </trkpt>
      <trkpt lat="47.34239" lon="-2.35923">
        <ele>18.60000038147</ele>
        <time>2021-05-13T09:28:08.000Z</time>
      </trkpt>
      <trkpt lat="47.34245" lon="-2.35897">
        <ele>18.60000038147</ele>
        <time>2021-05-13T09:28:12.000Z</time>
      </trkpt>
      <trkpt lat="47.34247" lon="-2.35888">
        <ele>18.60000038147</ele>
        <time>2021-05-13T09:28:13.000Z</time>
      </trkpt>
      <trkpt lat="47.34247" lon="-2.3588">
        <ele>18.200000762939</ele>
        <time>2021-05-13T09:28:14.000Z</time>
      </trkpt>
      <trkpt lat="47.34248" lon="-2.35872">
        <ele>17.799999237061</ele>
        <time>2021-05-13T09:28:15.000Z</time>
      </trkpt>
      <trkpt lat="47.34249" lon="-2.35863">
        <ele>17.39999961853</ele>
        <time>2021-05-13T09:28:16.000Z</time>
      </trkpt>
      <trkpt lat="47.34249" lon="-2.35853">
        <ele>17</ele>
        <time>2021-05-13T09:28:17.000Z</time>
      </trkpt>
      <trkpt lat="47.34248" lon="-2.35845">
        <ele>16.60000038147</ele>
        <time>2021-05-13T09:28:18.000Z</time>
      </trkpt>
      <trkpt lat="47.34242" lon="-2.35819">
        <ele>16.60000038147</ele>
        <time>2021-05-13T09:28:21.000Z</time>
      </trkpt>
      <trkpt lat="47.34237" lon="-2.35804">
        <ele>16.60000038147</ele>
        <time>2021-05-13T09:28:23.000Z</time>
      </trkpt>
      <trkpt lat="47.34225" lon="-2.35769">
        <ele>16.60000038147</ele>
        <time>2021-05-13T09:28:28.000Z</time>
      </trkpt>
      <trkpt lat="47.34224" lon="-2.35762">
        <ele>16.60000038147</ele>
        <time>2021-05-13T09:28:29.000Z</time>
      </trkpt>
      <trkpt lat="47.34222" lon="-2.35747">
        <ele>16.60000038147</ele>
        <time>2021-05-13T09:28:31.000Z</time>
      </trkpt>
      <trkpt lat="47.34217" lon="-2.35731">
        <ele>16.60000038147</ele>
        <time>2021-05-13T09:28:34.000Z</time>
      </trkpt>
      <trkpt lat="47.34213" lon="-2.35726">
        <ele>16.60000038147</ele>
        <time>2021-05-13T09:28:36.000Z</time>
      </trkpt>
      <trkpt lat="47.34209" lon="-2.3572">
        <ele>16.60000038147</ele>
        <time>2021-05-13T09:28:38.000Z</time>
      </trkpt>
      <trkpt lat="47.34206" lon="-2.35713">
        <ele>17</ele>
        <time>2021-05-13T09:28:41.000Z</time>
      </trkpt>
      <trkpt lat="47.34206" lon="-2.35711">
        <ele>17.60000038147</ele>
        <time>2021-05-13T09:28:42.000Z</time>
      </trkpt>
      <trkpt lat="47.34205" lon="-2.35708">
        <ele>18</ele>
        <time>2021-05-13T09:28:43.000Z</time>
      </trkpt>
      <trkpt lat="47.34204" lon="-2.35705">
        <ele>18.60000038147</ele>
        <time>2021-05-13T09:28:44.000Z</time>
      </trkpt>
      <trkpt lat="47.34203" lon="-2.35701">
        <ele>19</ele>
        <time>2021-05-13T09:28:45.000Z</time>
      </trkpt>
      <trkpt lat="47.342" lon="-2.35696">
        <ele>19.39999961853</ele>
        <time>2021-05-13T09:28:47.000Z</time>
      </trkpt>
      <trkpt lat="47.34197" lon="-2.35694">
        <ele>20.200000762939</ele>
        <time>2021-05-13T09:28:48.000Z</time>
      </trkpt>
      <trkpt lat="47.34195" lon="-2.35691">
        <ele>20.60000038147</ele>
        <time>2021-05-13T09:28:49.000Z</time>
      </trkpt>
      <trkpt lat="47.34193" lon="-2.35688">
        <ele>21</ele>
        <time>2021-05-13T09:28:50.000Z</time>
      </trkpt>
      <trkpt lat="47.34186" lon="-2.35678">
        <ele>21.60000038147</ele>
        <time>2021-05-13T09:28:53.000Z</time>
      </trkpt>
      <trkpt lat="47.34184" lon="-2.35674">
        <ele>22</ele>
        <time>2021-05-13T09:28:54.000Z</time>
      </trkpt>
      <trkpt lat="47.34182" lon="-2.35671">
        <ele>22.39999961853</ele>
        <time>2021-05-13T09:28:55.000Z</time>
      </trkpt>
      <trkpt lat="47.3418" lon="-2.35667">
        <ele>23</ele>
        <time>2021-05-13T09:28:56.000Z</time>
      </trkpt>
      <trkpt lat="47.34177" lon="-2.35663">
        <ele>23.39999961853</ele>
        <time>2021-05-13T09:28:57.000Z</time>
      </trkpt>
      <trkpt lat="47.3417" lon="-2.3565">
        <ele>23.39999961853</ele>
        <time>2021-05-13T09:29:00.000Z</time>
      </trkpt>
      <trkpt lat="47.34164" lon="-2.35643">
        <ele>23.799999237061</ele>
        <time>2021-05-13T09:29:02.000Z</time>
      </trkpt>
      <trkpt lat="47.3416" lon="-2.35639">
        <ele>24.200000762939</ele>
        <time>2021-05-13T09:29:03.000Z</time>
      </trkpt>
      <trkpt lat="47.34156" lon="-2.35635">
        <ele>24.60000038147</ele>
        <time>2021-05-13T09:29:04.000Z</time>
      </trkpt>
      <trkpt lat="47.34154" lon="-2.35631">
        <ele>25</ele>
        <time>2021-05-13T09:29:05.000Z</time>
      </trkpt>
      <trkpt lat="47.34151" lon="-2.35625">
        <ele>25.39999961853</ele>
        <time>2021-05-13T09:29:06.000Z</time>
      </trkpt>
      <trkpt lat="47.34139" lon="-2.35601">
        <ele>25.39999961853</ele>
        <time>2021-05-13T09:29:10.000Z</time>
      </trkpt>
      <trkpt lat="47.34134" lon="-2.35588">
        <ele>25.39999961853</ele>
        <time>2021-05-13T09:29:12.000Z</time>
      </trkpt>
      <trkpt lat="47.34124" lon="-2.35558">
        <ele>25.39999961853</ele>
        <time>2021-05-13T09:29:16.000Z</time>
      </trkpt>
      <trkpt lat="47.34105" lon="-2.355">
        <ele>25.39999961853</ele>
        <time>2021-05-13T09:29:23.000Z</time>
      </trkpt>
      <trkpt lat="47.34084" lon="-2.35448">
        <ele>25.39999961853</ele>
        <time>2021-05-13T09:29:30.000Z</time>
      </trkpt>
      <trkpt lat="47.34065" lon="-2.35397">
        <ele>25.39999961853</ele>
        <time>2021-05-13T09:29:37.000Z</time>
      </trkpt>
      <trkpt lat="47.34043" lon="-2.35357">
        <ele>25.39999961853</ele>
        <time>2021-05-13T09:29:44.000Z</time>
      </trkpt>
      <trkpt lat="47.34035" lon="-2.35348">
        <ele>25.39999961853</ele>
        <time>2021-05-13T09:29:46.000Z</time>
      </trkpt>
      <trkpt lat="47.34021" lon="-2.35334">
        <ele>25.39999961853</ele>
        <time>2021-05-13T09:29:49.000Z</time>
      </trkpt>
      <trkpt lat="47.3401" lon="-2.35325">
        <ele>25.799999237061</ele>
        <time>2021-05-13T09:29:51.000Z</time>
      </trkpt>
      <trkpt lat="47.34005" lon="-2.3532">
        <ele>26.39999961853</ele>
        <time>2021-05-13T09:29:52.000Z</time>
      </trkpt>
      <trkpt lat="47.34001" lon="-2.35315">
        <ele>26.799999237061</ele>
        <time>2021-05-13T09:29:53.000Z</time>
      </trkpt>
      <trkpt lat="47.33996" lon="-2.3531">
        <ele>27.200000762939</ele>
        <time>2021-05-13T09:29:54.000Z</time>
      </trkpt>
      <trkpt lat="47.33992" lon="-2.35306">
        <ele>27.60000038147</ele>
        <time>2021-05-13T09:29:55.000Z</time>
      </trkpt>
      <trkpt lat="47.33968" lon="-2.3528">
        <ele>27.60000038147</ele>
        <time>2021-05-13T09:30:01.000Z</time>
      </trkpt>
      <trkpt lat="47.33962" lon="-2.35273">
        <ele>27.60000038147</ele>
        <time>2021-05-13T09:30:03.000Z</time>
      </trkpt>
      <trkpt lat="47.33958" lon="-2.35269">
        <ele>28</ele>
        <time>2021-05-13T09:30:04.000Z</time>
      </trkpt>
      <trkpt lat="47.33955" lon="-2.35264">
        <ele>28.39999961853</ele>
        <time>2021-05-13T09:30:05.000Z</time>
      </trkpt>
      <trkpt lat="47.33952" lon="-2.35259">
        <ele>29</ele>
        <time>2021-05-13T09:30:06.000Z</time>
      </trkpt>
      <trkpt lat="47.33949" lon="-2.35253">
        <ele>29.39999961853</ele>
        <time>2021-05-13T09:30:07.000Z</time>
      </trkpt>
      <trkpt lat="47.33946" lon="-2.35247">
        <ele>29.799999237061</ele>
        <time>2021-05-13T09:30:08.000Z</time>
      </trkpt>
      <trkpt lat="47.3394" lon="-2.35228">
        <ele>29.799999237061</ele>
        <time>2021-05-13T09:30:11.000Z</time>
      </trkpt>
      <trkpt lat="47.33935" lon="-2.35215">
        <ele>30.200000762939</ele>
        <time>2021-05-13T09:30:13.000Z</time>
      </trkpt>
      <trkpt lat="47.33933" lon="-2.35208">
        <ele>30.60000038147</ele>
        <time>2021-05-13T09:30:14.000Z</time>
      </trkpt>
      <trkpt lat="47.3393" lon="-2.35202">
        <ele>31</ele>
        <time>2021-05-13T09:30:15.000Z</time>
      </trkpt>
      <trkpt lat="47.33926" lon="-2.35196">
        <ele>31.39999961853</ele>
        <time>2021-05-13T09:30:16.000Z</time>
      </trkpt>
      <trkpt lat="47.33922" lon="-2.35191">
        <ele>31.799999237061</ele>
        <time>2021-05-13T09:30:17.000Z</time>
      </trkpt>
      <trkpt lat="47.33913" lon="-2.35182">
        <ele>31.799999237061</ele>
        <time>2021-05-13T09:30:19.000Z</time>
      </trkpt>
      <trkpt lat="47.33909" lon="-2.35178">
        <ele>31.799999237061</ele>
        <time>2021-05-13T09:30:20.000Z</time>
      </trkpt>
      <trkpt lat="47.3387" lon="-2.35147">
        <ele>31.799999237061</ele>
        <time>2021-05-13T09:30:28.000Z</time>
      </trkpt>
      <trkpt lat="47.3384" lon="-2.35123">
        <ele>31.799999237061</ele>
        <time>2021-05-13T09:30:34.000Z</time>
      </trkpt>
      <trkpt lat="47.33801" lon="-2.35099">
        <ele>31.799999237061</ele>
        <time>2021-05-13T09:30:41.000Z</time>
      </trkpt>
      <trkpt lat="47.33769" lon="-2.3508">
        <ele>31.39999961853</ele>
        <time>2021-05-13T09:30:46.000Z</time>
      </trkpt>
      <trkpt lat="47.33763" lon="-2.35076">
        <ele>31</ele>
        <time>2021-05-13T09:30:47.000Z</time>
      </trkpt>
      <trkpt lat="47.33757" lon="-2.35072">
        <ele>30.39999961853</ele>
        <time>2021-05-13T09:30:48.000Z</time>
      </trkpt>
      <trkpt lat="47.33751" lon="-2.35067">
        <ele>30</ele>
        <time>2021-05-13T09:30:49.000Z</time>
      </trkpt>
      <trkpt lat="47.33746" lon="-2.35062">
        <ele>29.60000038147</ele>
        <time>2021-05-13T09:30:50.000Z</time>
      </trkpt>
      <trkpt lat="47.33729" lon="-2.35045">
        <ele>29.60000038147</ele>
        <time>2021-05-13T09:30:53.000Z</time>
      </trkpt>
      <trkpt lat="47.33703" lon="-2.35005">
        <ele>29.60000038147</ele>
        <time>2021-05-13T09:30:59.000Z</time>
      </trkpt>
      <trkpt lat="47.33686" lon="-2.34977">
        <ele>29.60000038147</ele>
        <time>2021-05-13T09:31:04.000Z</time>
      </trkpt>
      <trkpt lat="47.33675" lon="-2.34962">
        <ele>29.60000038147</ele>
        <time>2021-05-13T09:31:09.000Z</time>
      </trkpt>
      <trkpt lat="47.33668" lon="-2.34955">
        <ele>29.60000038147</ele>
        <time>2021-05-13T09:31:15.000Z</time>
      </trkpt>
      <trkpt lat="47.33665" lon="-2.34958">
        <ele>29.60000038147</ele>
        <time>2021-05-13T09:31:18.000Z</time>
      </trkpt>
      <trkpt lat="47.33663" lon="-2.34961">
        <ele>29.60000038147</ele>
        <time>2021-05-13T09:31:20.000Z</time>
      </trkpt>
      <trkpt lat="47.33656" lon="-2.34966">
        <ele>29.60000038147</ele>
        <time>2021-05-13T09:31:26.000Z</time>
      </trkpt>
      <trkpt lat="47.33654" lon="-2.34966">
        <ele>29.60000038147</ele>
        <time>2021-05-13T09:31:27.000Z</time>
      </trkpt>
      <trkpt lat="47.33644" lon="-2.34961">
        <ele>29.60000038147</ele>
        <time>2021-05-13T09:31:34.000Z</time>
      </trkpt>
      <trkpt lat="47.33628" lon="-2.34957">
        <ele>29.60000038147</ele>
        <time>2021-05-13T09:31:41.000Z</time>
      </trkpt>
      <trkpt lat="47.33612" lon="-2.34947">
        <ele>29.60000038147</ele>
        <time>2021-05-13T09:31:44.000Z</time>
      </trkpt>
      <trkpt lat="47.3359" lon="-2.34939">
        <ele>30</ele>
        <time>2021-05-13T09:31:48.000Z</time>
      </trkpt>
      <trkpt lat="47.33585" lon="-2.34937">
        <ele>30.39999961853</ele>
        <time>2021-05-13T09:31:49.000Z</time>
      </trkpt>
      <trkpt lat="47.3358" lon="-2.34935">
        <ele>30.799999237061</ele>
        <time>2021-05-13T09:31:50.000Z</time>
      </trkpt>
      <trkpt lat="47.33576" lon="-2.34933">
        <ele>31.200000762939</ele>
        <time>2021-05-13T09:31:51.000Z</time>
      </trkpt>
      <trkpt lat="47.33571" lon="-2.34931">
        <ele>31.60000038147</ele>
        <time>2021-05-13T09:31:52.000Z</time>
      </trkpt>
      <trkpt lat="47.33558" lon="-2.34925">
        <ele>31.60000038147</ele>
        <time>2021-05-13T09:31:55.000Z</time>
      </trkpt>
      <trkpt lat="47.33553" lon="-2.34922">
        <ele>31.60000038147</ele>
        <time>2021-05-13T09:31:56.000Z</time>
      </trkpt>
      <trkpt lat="47.33549" lon="-2.34921">
        <ele>31.60000038147</ele>
        <time>2021-05-13T09:31:57.000Z</time>
      </trkpt>
      <trkpt lat="47.33531" lon="-2.3491">
        <ele>31.60000038147</ele>
        <time>2021-05-13T09:32:01.000Z</time>
      </trkpt>
      <trkpt lat="47.33523" lon="-2.34906">
        <ele>31.60000038147</ele>
        <time>2021-05-13T09:32:03.000Z</time>
      </trkpt>
      <trkpt lat="47.33505" lon="-2.34906">
        <ele>31.60000038147</ele>
        <time>2021-05-13T09:32:06.000Z</time>
      </trkpt>
      <trkpt lat="47.33493" lon="-2.34908">
        <ele>31.60000038147</ele>
        <time>2021-05-13T09:32:08.000Z</time>
      </trkpt>
      <trkpt lat="47.3347" lon="-2.34915">
        <ele>31.60000038147</ele>
        <time>2021-05-13T09:32:12.000Z</time>
      </trkpt>
      <trkpt lat="47.33436" lon="-2.34927">
        <ele>31.60000038147</ele>
        <time>2021-05-13T09:32:18.000Z</time>
      </trkpt>
      <trkpt lat="47.33401" lon="-2.34939">
        <ele>31.60000038147</ele>
        <time>2021-05-13T09:32:25.000Z</time>
      </trkpt>
      <trkpt lat="47.33383" lon="-2.3494">
        <ele>31.60000038147</ele>
        <time>2021-05-13T09:32:30.000Z</time>
      </trkpt>
      <trkpt lat="47.33368" lon="-2.34942">
        <ele>31.60000038147</ele>
        <time>2021-05-13T09:32:34.000Z</time>
      </trkpt>
      <trkpt lat="47.33359" lon="-2.34943">
        <ele>31.60000038147</ele>
        <time>2021-05-13T09:32:38.000Z</time>
      </trkpt>
      <trkpt lat="47.33357" lon="-2.34941">
        <ele>31.60000038147</ele>
        <time>2021-05-13T09:32:39.000Z</time>
      </trkpt>
      <trkpt lat="47.33342" lon="-2.34938">
        <ele>31.60000038147</ele>
        <time>2021-05-13T09:32:45.000Z</time>
      </trkpt>
      <trkpt lat="47.33335" lon="-2.34935">
        <ele>31.60000038147</ele>
        <time>2021-05-13T09:32:51.000Z</time>
      </trkpt>
      <trkpt lat="47.33331" lon="-2.34935">
        <ele>31.60000038147</ele>
        <time>2021-05-13T09:32:56.000Z</time>
      </trkpt>
      <trkpt lat="47.33323" lon="-2.34935">
        <ele>31.60000038147</ele>
        <time>2021-05-13T09:33:09.000Z</time>
      </trkpt>
      <trkpt lat="47.3332" lon="-2.34935">
        <ele>31.60000038147</ele>
        <time>2021-05-13T09:33:15.000Z</time>
      </trkpt>
      <trkpt lat="47.33317" lon="-2.34938">
        <ele>31.60000038147</ele>
        <time>2021-05-13T09:33:21.000Z</time>
      </trkpt>
      <trkpt lat="47.33311" lon="-2.34939">
        <ele>31.60000038147</ele>
        <time>2021-05-13T09:33:23.000Z</time>
      </trkpt>
      <trkpt lat="47.33289" lon="-2.34944">
        <ele>31.60000038147</ele>
        <time>2021-05-13T09:33:28.000Z</time>
      </trkpt>
      <trkpt lat="47.33268" lon="-2.34942">
        <ele>31.60000038147</ele>
        <time>2021-05-13T09:33:34.000Z</time>
      </trkpt>
      <trkpt lat="47.33264" lon="-2.34944">
        <ele>31.60000038147</ele>
        <time>2021-05-13T09:33:37.000Z</time>
      </trkpt>
      <trkpt lat="47.33263" lon="-2.34945">
        <ele>31.200000762939</ele>
        <time>2021-05-13T09:33:38.000Z</time>
      </trkpt>
      <trkpt lat="47.33262" lon="-2.34947">
        <ele>30.799999237061</ele>
        <time>2021-05-13T09:33:39.000Z</time>
      </trkpt>
      <trkpt lat="47.33261" lon="-2.3495">
        <ele>30.39999961853</ele>
        <time>2021-05-13T09:33:40.000Z</time>
      </trkpt>
      <trkpt lat="47.3326" lon="-2.34951">
        <ele>29.799999237061</ele>
        <time>2021-05-13T09:33:41.000Z</time>
      </trkpt>
      <trkpt lat="47.3326" lon="-2.34952">
        <ele>29.39999961853</ele>
        <time>2021-05-13T09:33:42.000Z</time>
      </trkpt>
      <trkpt lat="47.33256" lon="-2.34955">
        <ele>29.39999961853</ele>
        <time>2021-05-13T09:33:44.000Z</time>
      </trkpt>
      <trkpt lat="47.33254" lon="-2.34957">
        <ele>29.39999961853</ele>
        <time>2021-05-13T09:33:45.000Z</time>
      </trkpt>
      <trkpt lat="47.33246" lon="-2.3496">
        <ele>29.39999961853</ele>
        <time>2021-05-13T09:33:50.000Z</time>
      </trkpt>
      <trkpt lat="47.33243" lon="-2.34957">
        <ele>29.39999961853</ele>
        <time>2021-05-13T09:33:52.000Z</time>
      </trkpt>
      <trkpt lat="47.33236" lon="-2.34958">
        <ele>29.39999961853</ele>
        <time>2021-05-13T09:33:55.000Z</time>
      </trkpt>
      <trkpt lat="47.33232" lon="-2.3496">
        <ele>29.39999961853</ele>
        <time>2021-05-13T09:33:57.000Z</time>
      </trkpt>
      <trkpt lat="47.3322" lon="-2.34968">
        <ele>29.39999961853</ele>
        <time>2021-05-13T09:34:03.000Z</time>
      </trkpt>
      <trkpt lat="47.33207" lon="-2.34979">
        <ele>29.39999961853</ele>
        <time>2021-05-13T09:34:08.000Z</time>
      </trkpt>
      <trkpt lat="47.33188" lon="-2.35">
        <ele>29.39999961853</ele>
        <time>2021-05-13T09:34:15.000Z</time>
      </trkpt>
      <trkpt lat="47.33175" lon="-2.35014">
        <ele>29.39999961853</ele>
        <time>2021-05-13T09:34:20.000Z</time>
      </trkpt>
      <trkpt lat="47.3317" lon="-2.35012">
        <ele>29.39999961853</ele>
        <time>2021-05-13T09:34:23.000Z</time>
      </trkpt>
      <trkpt lat="47.33167" lon="-2.3501">
        <ele>29.39999961853</ele>
        <time>2021-05-13T09:34:24.000Z</time>
      </trkpt>
      <trkpt lat="47.33158" lon="-2.35007">
        <ele>29.39999961853</ele>
        <time>2021-05-13T09:34:27.000Z</time>
      </trkpt>
      <trkpt lat="47.33156" lon="-2.35008">
        <ele>29.39999961853</ele>
        <time>2021-05-13T09:34:28.000Z</time>
      </trkpt>
      <trkpt lat="47.33149" lon="-2.35016">
        <ele>29.39999961853</ele>
        <time>2021-05-13T09:34:31.000Z</time>
      </trkpt>
      <trkpt lat="47.33146" lon="-2.35019">
        <ele>29.39999961853</ele>
        <time>2021-05-13T09:34:32.000Z</time>
      </trkpt>
      <trkpt lat="47.33132" lon="-2.35038">
        <ele>29.39999961853</ele>
        <time>2021-05-13T09:34:38.000Z</time>
      </trkpt>
      <trkpt lat="47.33117" lon="-2.35059">
        <ele>29.39999961853</ele>
        <time>2021-05-13T09:34:44.000Z</time>
      </trkpt>
      <trkpt lat="47.331" lon="-2.3508">
        <ele>29.39999961853</ele>
        <time>2021-05-13T09:34:51.000Z</time>
      </trkpt>
      <trkpt lat="47.33077" lon="-2.35107">
        <ele>29.39999961853</ele>
        <time>2021-05-13T09:34:58.000Z</time>
      </trkpt>
      <trkpt lat="47.33069" lon="-2.35118">
        <ele>29.799999237061</ele>
        <time>2021-05-13T09:35:01.000Z</time>
      </trkpt>
      <trkpt lat="47.33066" lon="-2.35121">
        <ele>30.200000762939</ele>
        <time>2021-05-13T09:35:02.000Z</time>
      </trkpt>
      <trkpt lat="47.33063" lon="-2.35124">
        <ele>30.799999237061</ele>
        <time>2021-05-13T09:35:03.000Z</time>
      </trkpt>
      <trkpt lat="47.3306" lon="-2.35127">
        <ele>31.200000762939</ele>
        <time>2021-05-13T09:35:04.000Z</time>
      </trkpt>
      <trkpt lat="47.33057" lon="-2.35134">
        <ele>31.60000038147</ele>
        <time>2021-05-13T09:35:05.000Z</time>
      </trkpt>
      <trkpt lat="47.33049" lon="-2.3516">
        <ele>31.60000038147</ele>
        <time>2021-05-13T09:35:09.000Z</time>
      </trkpt>
      <trkpt lat="47.33039" lon="-2.35182">
        <ele>31.60000038147</ele>
        <time>2021-05-13T09:35:14.000Z</time>
      </trkpt>
      <trkpt lat="47.33031" lon="-2.35184">
        <ele>31.60000038147</ele>
        <time>2021-05-13T09:35:17.000Z</time>
      </trkpt>
      <trkpt lat="47.33029" lon="-2.35184">
        <ele>31.60000038147</ele>
        <time>2021-05-13T09:35:18.000Z</time>
      </trkpt>
      <trkpt lat="47.33023" lon="-2.3518">
        <ele>31.60000038147</ele>
        <time>2021-05-13T09:35:23.000Z</time>
      </trkpt>
      <trkpt lat="47.33022" lon="-2.35178">
        <ele>31.60000038147</ele>
        <time>2021-05-13T09:35:26.000Z</time>
      </trkpt>
      <trkpt lat="47.33021" lon="-2.35167">
        <ele>31.60000038147</ele>
        <time>2021-05-13T09:37:13.000Z</time>
      </trkpt>
      <trkpt lat="47.3302" lon="-2.35163">
        <ele>31.60000038147</ele>
        <time>2021-05-13T09:37:14.000Z</time>
      </trkpt>
      <trkpt lat="47.33018" lon="-2.35139">
        <ele>31.60000038147</ele>
        <time>2021-05-13T09:37:20.000Z</time>
      </trkpt>
      <trkpt lat="47.33018" lon="-2.35115">
        <ele>31.60000038147</ele>
        <time>2021-05-13T09:37:26.000Z</time>
      </trkpt>
      <trkpt lat="47.33018" lon="-2.35087">
        <ele>31.60000038147</ele>
        <time>2021-05-13T09:37:33.000Z</time>
      </trkpt>
      <trkpt lat="47.33015" lon="-2.35077">
        <ele>31.60000038147</ele>
        <time>2021-05-13T09:37:36.000Z</time>
      </trkpt>
      <trkpt lat="47.3301" lon="-2.35061">
        <ele>31.60000038147</ele>
        <time>2021-05-13T09:37:40.000Z</time>
      </trkpt>
      <trkpt lat="47.3301" lon="-2.35054">
        <ele>31.200000762939</ele>
        <time>2021-05-13T09:37:42.000Z</time>
      </trkpt>
      <trkpt lat="47.3301" lon="-2.35049">
        <ele>30.799999237061</ele>
        <time>2021-05-13T09:37:43.000Z</time>
      </trkpt>
      <trkpt lat="47.33009" lon="-2.35046">
        <ele>30.39999961853</ele>
        <time>2021-05-13T09:37:44.000Z</time>
      </trkpt>
      <trkpt lat="47.33008" lon="-2.35044">
        <ele>30</ele>
        <time>2021-05-13T09:37:45.000Z</time>
      </trkpt>
      <trkpt lat="47.33007" lon="-2.35042">
        <ele>29.60000038147</ele>
        <time>2021-05-13T09:37:46.000Z</time>
      </trkpt>
      <trkpt lat="47.33001" lon="-2.35029">
        <ele>29.60000038147</ele>
        <time>2021-05-13T09:37:52.000Z</time>
      </trkpt>
      <trkpt lat="47.33" lon="-2.35028">
        <ele>29.60000038147</ele>
        <time>2021-05-13T09:37:55.000Z</time>
      </trkpt>
      <trkpt lat="47.32999" lon="-2.35024">
        <ele>29.60000038147</ele>
        <time>2021-05-13T09:37:59.000Z</time>
      </trkpt>
      <trkpt lat="47.32999" lon="-2.35022">
        <ele>29.60000038147</ele>
        <time>2021-05-13T09:38:00.000Z</time>
      </trkpt>
      <trkpt lat="47.32995" lon="-2.3501">
        <ele>29.60000038147</ele>
        <time>2021-05-13T09:38:04.000Z</time>
      </trkpt>
      <trkpt lat="47.32993" lon="-2.35007">
        <ele>29.60000038147</ele>
        <time>2021-05-13T09:38:05.000Z</time>
      </trkpt>
      <trkpt lat="47.3299" lon="-2.34992">
        <ele>29.60000038147</ele>
        <time>2021-05-13T09:38:10.000Z</time>
      </trkpt>
      <trkpt lat="47.32987" lon="-2.34975">
        <ele>29.60000038147</ele>
        <time>2021-05-13T09:38:16.000Z</time>
      </trkpt>
      <trkpt lat="47.32978" lon="-2.34951">
        <ele>29</ele>
        <time>2021-05-13T09:38:23.000Z</time>
      </trkpt>
      <trkpt lat="47.32976" lon="-2.34944">
        <ele>28.60000038147</ele>
        <time>2021-05-13T09:38:24.000Z</time>
      </trkpt>
      <trkpt lat="47.32974" lon="-2.34939">
        <ele>28.200000762939</ele>
        <time>2021-05-13T09:38:25.000Z</time>
      </trkpt>
      <trkpt lat="47.32972" lon="-2.34932">
        <ele>27.799999237061</ele>
        <time>2021-05-13T09:38:26.000Z</time>
      </trkpt>
      <trkpt lat="47.32971" lon="-2.34927">
        <ele>27.39999961853</ele>
        <time>2021-05-13T09:38:27.000Z</time>
      </trkpt>
      <trkpt lat="47.32966" lon="-2.34912">
        <ele>27.39999961853</ele>
        <time>2021-05-13T09:38:30.000Z</time>
      </trkpt>
      <trkpt lat="47.32959" lon="-2.34895">
        <ele>27.39999961853</ele>
        <time>2021-05-13T09:38:35.000Z</time>
      </trkpt>
      <trkpt lat="47.32947" lon="-2.34866">
        <ele>27.39999961853</ele>
        <time>2021-05-13T09:38:42.000Z</time>
      </trkpt>
      <trkpt lat="47.32931" lon="-2.3483">
        <ele>27.39999961853</ele>
        <time>2021-05-13T09:38:49.000Z</time>
      </trkpt>
      <trkpt lat="47.32917" lon="-2.34801">
        <ele>27.39999961853</ele>
        <time>2021-05-13T09:38:56.000Z</time>
      </trkpt>
      <trkpt lat="47.32909" lon="-2.34798">
        <ele>27.39999961853</ele>
        <time>2021-05-13T09:38:58.000Z</time>
      </trkpt>
      <trkpt lat="47.32905" lon="-2.34798">
        <ele>27.39999961853</ele>
        <time>2021-05-13T09:38:59.000Z</time>
      </trkpt>
      <trkpt lat="47.3289" lon="-2.34802">
        <ele>27.39999961853</ele>
        <time>2021-05-13T09:39:02.000Z</time>
      </trkpt>
      <trkpt lat="47.32885" lon="-2.34804">
        <ele>27.39999961853</ele>
        <time>2021-05-13T09:39:03.000Z</time>
      </trkpt>
      <trkpt lat="47.32862" lon="-2.34819">
        <ele>27.39999961853</ele>
        <time>2021-05-13T09:39:09.000Z</time>
      </trkpt>
      <trkpt lat="47.32834" lon="-2.3484">
        <ele>27.39999961853</ele>
        <time>2021-05-13T09:39:15.000Z</time>
      </trkpt>
      <trkpt lat="47.32805" lon="-2.34859">
        <ele>27.39999961853</ele>
        <time>2021-05-13T09:39:21.000Z</time>
      </trkpt>
      <trkpt lat="47.32773" lon="-2.34884">
        <ele>27.39999961853</ele>
        <time>2021-05-13T09:39:28.000Z</time>
      </trkpt>
      <trkpt lat="47.32755" lon="-2.34896">
        <ele>27.799999237061</ele>
        <time>2021-05-13T09:39:32.000Z</time>
      </trkpt>
      <trkpt lat="47.3275" lon="-2.34899">
        <ele>28.200000762939</ele>
        <time>2021-05-13T09:39:33.000Z</time>
      </trkpt>
      <trkpt lat="47.32745" lon="-2.34903">
        <ele>28.60000038147</ele>
        <time>2021-05-13T09:39:34.000Z</time>
      </trkpt>
      <trkpt lat="47.3274" lon="-2.34906">
        <ele>29</ele>
        <time>2021-05-13T09:39:35.000Z</time>
      </trkpt>
      <trkpt lat="47.32735" lon="-2.34909">
        <ele>29.39999961853</ele>
        <time>2021-05-13T09:39:36.000Z</time>
      </trkpt>
      <trkpt lat="47.32711" lon="-2.34927">
        <ele>29.39999961853</ele>
        <time>2021-05-13T09:39:42.000Z</time>
      </trkpt>
      <trkpt lat="47.32689" lon="-2.34942">
        <ele>29.39999961853</ele>
        <time>2021-05-13T09:39:48.000Z</time>
      </trkpt>
      <trkpt lat="47.32679" lon="-2.34951">
        <ele>29.39999961853</ele>
        <time>2021-05-13T09:39:53.000Z</time>
      </trkpt>
      <trkpt lat="47.32672" lon="-2.34956">
        <ele>29.39999961853</ele>
        <time>2021-05-13T09:39:59.000Z</time>
      </trkpt>
      <trkpt lat="47.32669" lon="-2.34957">
        <ele>29.39999961853</ele>
        <time>2021-05-13T09:40:00.000Z</time>
      </trkpt>
      <trkpt lat="47.32662" lon="-2.34958">
        <ele>29.39999961853</ele>
        <time>2021-05-13T09:40:11.000Z</time>
      </trkpt>
      <trkpt lat="47.32658" lon="-2.3496">
        <ele>29.39999961853</ele>
        <time>2021-05-13T09:40:13.000Z</time>
      </trkpt>
      <trkpt lat="47.32646" lon="-2.3497">
        <ele>29.39999961853</ele>
        <time>2021-05-13T09:40:20.000Z</time>
      </trkpt>
      <trkpt lat="47.32642" lon="-2.34972">
        <ele>29.39999961853</ele>
        <time>2021-05-13T09:40:23.000Z</time>
      </trkpt>
      <trkpt lat="47.32641" lon="-2.34972">
        <ele>29.39999961853</ele>
        <time>2021-05-13T09:40:26.000Z</time>
      </trkpt>
      <trkpt lat="47.32637" lon="-2.34974">
        <ele>31</ele>
        <time>2021-05-13T09:41:42.000Z</time>
      </trkpt>
      <trkpt lat="47.32634" lon="-2.34976">
        <ele>31.39999961853</ele>
        <time>2021-05-13T09:41:43.000Z</time>
      </trkpt>
      <trkpt lat="47.32621" lon="-2.34985">
        <ele>31.39999961853</ele>
        <time>2021-05-13T09:41:47.000Z</time>
      </trkpt>
      <trkpt lat="47.32594" lon="-2.34997">
        <ele>31.39999961853</ele>
        <time>2021-05-13T09:41:53.000Z</time>
      </trkpt>
      <trkpt lat="47.32564" lon="-2.3501">
        <ele>31.39999961853</ele>
        <time>2021-05-13T09:42:00.000Z</time>
      </trkpt>
      <trkpt lat="47.32535" lon="-2.35021">
        <ele>31.39999961853</ele>
        <time>2021-05-13T09:42:07.000Z</time>
      </trkpt>
      <trkpt lat="47.32507" lon="-2.35027">
        <ele>31.39999961853</ele>
        <time>2021-05-13T09:42:13.000Z</time>
      </trkpt>
      <trkpt lat="47.32504" lon="-2.35028">
        <ele>31.799999237061</ele>
        <time>2021-05-13T09:42:14.000Z</time>
      </trkpt>
      <trkpt lat="47.325" lon="-2.35028">
        <ele>32.200000762939</ele>
        <time>2021-05-13T09:42:15.000Z</time>
      </trkpt>
      <trkpt lat="47.32497" lon="-2.35029">
        <ele>32.599998474121</ele>
        <time>2021-05-13T09:42:16.000Z</time>
      </trkpt>
      <trkpt lat="47.32492" lon="-2.3503">
        <ele>33</ele>
        <time>2021-05-13T09:42:17.000Z</time>
      </trkpt>
      <trkpt lat="47.32488" lon="-2.35031">
        <ele>33.400001525879</ele>
        <time>2021-05-13T09:42:18.000Z</time>
      </trkpt>
      <trkpt lat="47.32484" lon="-2.35032">
        <ele>33.400001525879</ele>
        <time>2021-05-13T09:42:19.000Z</time>
      </trkpt>
      <trkpt lat="47.32453" lon="-2.3504">
        <ele>33.400001525879</ele>
        <time>2021-05-13T09:42:26.000Z</time>
      </trkpt>
      <trkpt lat="47.32426" lon="-2.35045">
        <ele>33.400001525879</ele>
        <time>2021-05-13T09:42:32.000Z</time>
      </trkpt>
      <trkpt lat="47.32395" lon="-2.35046">
        <ele>33.400001525879</ele>
        <time>2021-05-13T09:42:38.000Z</time>
      </trkpt>
      <trkpt lat="47.32364" lon="-2.35044">
        <ele>33.400001525879</ele>
        <time>2021-05-13T09:42:44.000Z</time>
      </trkpt>
      <trkpt lat="47.32337" lon="-2.35045">
        <ele>33.400001525879</ele>
        <time>2021-05-13T09:42:49.000Z</time>
      </trkpt>
      <trkpt lat="47.3231" lon="-2.35046">
        <ele>33.400001525879</ele>
        <time>2021-05-13T09:42:54.000Z</time>
      </trkpt>
      <trkpt lat="47.32299" lon="-2.35046">
        <ele>33.400001525879</ele>
        <time>2021-05-13T09:42:56.000Z</time>
      </trkpt>
      <trkpt lat="47.32263" lon="-2.35047">
        <ele>33.400001525879</ele>
        <time>2021-05-13T09:43:02.000Z</time>
      </trkpt>
      <trkpt lat="47.32229" lon="-2.35053">
        <ele>33</ele>
        <time>2021-05-13T09:43:08.000Z</time>
      </trkpt>
      <trkpt lat="47.32222" lon="-2.35054">
        <ele>32.599998474121</ele>
        <time>2021-05-13T09:43:09.000Z</time>
      </trkpt>
      <trkpt lat="47.32215" lon="-2.35054">
        <ele>32.200000762939</ele>
        <time>2021-05-13T09:43:10.000Z</time>
      </trkpt>
      <trkpt lat="47.3221" lon="-2.35055">
        <ele>31.799999237061</ele>
        <time>2021-05-13T09:43:11.000Z</time>
      </trkpt>
      <trkpt lat="47.32204" lon="-2.35056">
        <ele>31.39999961853</ele>
        <time>2021-05-13T09:43:12.000Z</time>
      </trkpt>
      <trkpt lat="47.32192" lon="-2.35057">
        <ele>31.39999961853</ele>
        <time>2021-05-13T09:43:14.000Z</time>
      </trkpt>
      <trkpt lat="47.32162" lon="-2.35063">
        <ele>31.39999961853</ele>
        <time>2021-05-13T09:43:19.000Z</time>
      </trkpt>
      <trkpt lat="47.32107" lon="-2.35063">
        <ele>31.39999961853</ele>
        <time>2021-05-13T09:43:27.000Z</time>
      </trkpt>
      <trkpt lat="47.32082" lon="-2.35059">
        <ele>31</ele>
        <time>2021-05-13T09:43:31.000Z</time>
      </trkpt>
      <trkpt lat="47.32076" lon="-2.35059">
        <ele>30.60000038147</ele>
        <time>2021-05-13T09:43:32.000Z</time>
      </trkpt>
      <trkpt lat="47.3207" lon="-2.35058">
        <ele>30.200000762939</ele>
        <time>2021-05-13T09:43:33.000Z</time>
      </trkpt>
      <trkpt lat="47.32065" lon="-2.35057">
        <ele>29.799999237061</ele>
        <time>2021-05-13T09:43:34.000Z</time>
      </trkpt>
      <trkpt lat="47.3206" lon="-2.35056">
        <ele>29.39999961853</ele>
        <time>2021-05-13T09:43:35.000Z</time>
      </trkpt>
      <trkpt lat="47.32055" lon="-2.35055">
        <ele>29.39999961853</ele>
        <time>2021-05-13T09:43:36.000Z</time>
      </trkpt>
      <trkpt lat="47.32048" lon="-2.35053">
        <ele>29.39999961853</ele>
        <time>2021-05-13T09:43:38.000Z</time>
      </trkpt>
      <trkpt lat="47.32038" lon="-2.35057">
        <ele>29.39999961853</ele>
        <time>2021-05-13T09:43:43.000Z</time>
      </trkpt>
      <trkpt lat="47.32038" lon="-2.35059">
        <ele>29.39999961853</ele>
        <time>2021-05-13T09:43:45.000Z</time>
      </trkpt>
      <trkpt lat="47.32031" lon="-2.35057">
        <ele>29.39999961853</ele>
        <time>2021-05-13T09:44:02.000Z</time>
      </trkpt>
      <trkpt lat="47.32029" lon="-2.35056">
        <ele>29.39999961853</ele>
        <time>2021-05-13T09:44:03.000Z</time>
      </trkpt>
      <trkpt lat="47.32012" lon="-2.35057">
        <ele>29.39999961853</ele>
        <time>2021-05-13T09:44:08.000Z</time>
      </trkpt>
      <trkpt lat="47.31984" lon="-2.35051">
        <ele>29.39999961853</ele>
        <time>2021-05-13T09:44:14.000Z</time>
      </trkpt>
      <trkpt lat="47.31946" lon="-2.35036">
        <ele>29.39999961853</ele>
        <time>2021-05-13T09:44:22.000Z</time>
      </trkpt>
      <trkpt lat="47.31914" lon="-2.3502">
        <ele>29.39999961853</ele>
        <time>2021-05-13T09:44:29.000Z</time>
      </trkpt>
      <trkpt lat="47.3191" lon="-2.35018">
        <ele>29.799999237061</ele>
        <time>2021-05-13T09:44:30.000Z</time>
      </trkpt>
      <trkpt lat="47.31906" lon="-2.35016">
        <ele>30.200000762939</ele>
        <time>2021-05-13T09:44:31.000Z</time>
      </trkpt>
      <trkpt lat="47.319" lon="-2.35014">
        <ele>30.60000038147</ele>
        <time>2021-05-13T09:44:32.000Z</time>
      </trkpt>
      <trkpt lat="47.31894" lon="-2.35013">
        <ele>31</ele>
        <time>2021-05-13T09:44:33.000Z</time>
      </trkpt>
      <trkpt lat="47.31888" lon="-2.35011">
        <ele>31.39999961853</ele>
        <time>2021-05-13T09:44:34.000Z</time>
      </trkpt>
      <trkpt lat="47.31883" lon="-2.35008">
        <ele>31.39999961853</ele>
        <time>2021-05-13T09:44:35.000Z</time>
      </trkpt>
      <trkpt lat="47.31845" lon="-2.34988">
        <ele>31.39999961853</ele>
        <time>2021-05-13T09:44:43.000Z</time>
      </trkpt>
      <trkpt lat="47.31811" lon="-2.34974">
        <ele>31.799999237061</ele>
        <time>2021-05-13T09:44:50.000Z</time>
      </trkpt>
      <trkpt lat="47.31805" lon="-2.34972">
        <ele>32.599998474121</ele>
        <time>2021-05-13T09:44:51.000Z</time>
      </trkpt>
      <trkpt lat="47.318" lon="-2.34969">
        <ele>33</ele>
        <time>2021-05-13T09:44:52.000Z</time>
      </trkpt>
      <trkpt lat="47.31795" lon="-2.34967">
        <ele>33.400001525879</ele>
        <time>2021-05-13T09:44:53.000Z</time>
      </trkpt>
      <trkpt lat="47.31778" lon="-2.34963">
        <ele>33.400001525879</ele>
        <time>2021-05-13T09:44:56.000Z</time>
      </trkpt>
      <trkpt lat="47.31767" lon="-2.34962">
        <ele>33.400001525879</ele>
        <time>2021-05-13T09:44:58.000Z</time>
      </trkpt>
      <trkpt lat="47.3175" lon="-2.34962">
        <ele>33.400001525879</ele>
        <time>2021-05-13T09:45:01.000Z</time>
      </trkpt>
      <trkpt lat="47.31739" lon="-2.34965">
        <ele>33.400001525879</ele>
        <time>2021-05-13T09:45:03.000Z</time>
      </trkpt>
      <trkpt lat="47.31734" lon="-2.34967">
        <ele>33.400001525879</ele>
        <time>2021-05-13T09:45:04.000Z</time>
      </trkpt>
      <trkpt lat="47.31709" lon="-2.34976">
        <ele>33.400001525879</ele>
        <time>2021-05-13T09:45:08.000Z</time>
      </trkpt>
      <trkpt lat="47.31697" lon="-2.34975">
        <ele>33.400001525879</ele>
        <time>2021-05-13T09:45:10.000Z</time>
      </trkpt>
      <trkpt lat="47.31676" lon="-2.34975">
        <ele>33.400001525879</ele>
        <time>2021-05-13T09:45:13.000Z</time>
      </trkpt>
      <trkpt lat="47.31664" lon="-2.3498">
        <ele>33.400001525879</ele>
        <time>2021-05-13T09:45:15.000Z</time>
      </trkpt>
      <trkpt lat="47.31632" lon="-2.34993">
        <ele>33.400001525879</ele>
        <time>2021-05-13T09:45:21.000Z</time>
      </trkpt>
      <trkpt lat="47.31616" lon="-2.35001">
        <ele>33.799999237061</ele>
        <time>2021-05-13T09:45:24.000Z</time>
      </trkpt>
      <trkpt lat="47.31611" lon="-2.35003">
        <ele>34.400001525879</ele>
        <time>2021-05-13T09:45:25.000Z</time>
      </trkpt>
      <trkpt lat="47.31606" lon="-2.35004">
        <ele>34.799999237061</ele>
        <time>2021-05-13T09:45:26.000Z</time>
      </trkpt>
      <trkpt lat="47.31602" lon="-2.35005">
        <ele>35.200000762939</ele>
        <time>2021-05-13T09:45:27.000Z</time>
      </trkpt>
      <trkpt lat="47.31597" lon="-2.35007">
        <ele>35.799999237061</ele>
        <time>2021-05-13T09:45:28.000Z</time>
      </trkpt>
      <trkpt lat="47.31576" lon="-2.35017">
        <ele>35.799999237061</ele>
        <time>2021-05-13T09:45:33.000Z</time>
      </trkpt>
      <trkpt lat="47.31571" lon="-2.35018">
        <ele>35.799999237061</ele>
        <time>2021-05-13T09:45:34.000Z</time>
      </trkpt>
      <trkpt lat="47.31559" lon="-2.35021">
        <ele>35.799999237061</ele>
        <time>2021-05-13T09:45:37.000Z</time>
      </trkpt>
      <trkpt lat="47.31554" lon="-2.35022">
        <ele>35.799999237061</ele>
        <time>2021-05-13T09:45:38.000Z</time>
      </trkpt>
      <trkpt lat="47.31535" lon="-2.35024">
        <ele>35.799999237061</ele>
        <time>2021-05-13T09:45:42.000Z</time>
      </trkpt>
      <trkpt lat="47.31525" lon="-2.35024">
        <ele>36.200000762939</ele>
        <time>2021-05-13T09:45:44.000Z</time>
      </trkpt>
      <trkpt lat="47.31519" lon="-2.35024">
        <ele>36.599998474121</ele>
        <time>2021-05-13T09:45:45.000Z</time>
      </trkpt>
      <trkpt lat="47.31512" lon="-2.35023">
        <ele>37</ele>
        <time>2021-05-13T09:45:46.000Z</time>
      </trkpt>
      <trkpt lat="47.31506" lon="-2.35023">
        <ele>37.400001525879</ele>
        <time>2021-05-13T09:45:47.000Z</time>
      </trkpt>
      <trkpt lat="47.31501" lon="-2.35024">
        <ele>37.799999237061</ele>
        <time>2021-05-13T09:45:48.000Z</time>
      </trkpt>
      <trkpt lat="47.31495" lon="-2.35023">
        <ele>37.799999237061</ele>
        <time>2021-05-13T09:45:49.000Z</time>
      </trkpt>
      <trkpt lat="47.31451" lon="-2.35019">
        <ele>37.799999237061</ele>
        <time>2021-05-13T09:45:57.000Z</time>
      </trkpt>
      <trkpt lat="47.31425" lon="-2.35014">
        <ele>38.200000762939</ele>
        <time>2021-05-13T09:46:02.000Z</time>
      </trkpt>
      <trkpt lat="47.3142" lon="-2.35013">
        <ele>38.599998474121</ele>
        <time>2021-05-13T09:46:03.000Z</time>
      </trkpt>
      <trkpt lat="47.31416" lon="-2.35012">
        <ele>39</ele>
        <time>2021-05-13T09:46:04.000Z</time>
      </trkpt>
      <trkpt lat="47.31411" lon="-2.3501">
        <ele>39.799999237061</ele>
        <time>2021-05-13T09:46:05.000Z</time>
      </trkpt>
      <trkpt lat="47.31381" lon="-2.35001">
        <ele>39.799999237061</ele>
        <time>2021-05-13T09:46:11.000Z</time>
      </trkpt>
      <trkpt lat="47.31353" lon="-2.34999">
        <ele>39.799999237061</ele>
        <time>2021-05-13T09:46:18.000Z</time>
      </trkpt>
      <trkpt lat="47.31344" lon="-2.35">
        <ele>39.799999237061</ele>
        <time>2021-05-13T09:46:23.000Z</time>
      </trkpt>
      <trkpt lat="47.31343" lon="-2.34999">
        <ele>39.799999237061</ele>
        <time>2021-05-13T09:46:25.000Z</time>
      </trkpt>
      <trkpt lat="47.31343" lon="-2.34998">
        <ele>39.799999237061</ele>
        <time>2021-05-13T09:46:40.000Z</time>
      </trkpt>
      <trkpt lat="47.31342" lon="-2.34996">
        <ele>39.799999237061</ele>
        <time>2021-05-13T09:46:41.000Z</time>
      </trkpt>
      <trkpt lat="47.31338" lon="-2.3498">
        <ele>39.799999237061</ele>
        <time>2021-05-13T09:46:45.000Z</time>
      </trkpt>
      <trkpt lat="47.31329" lon="-2.34936">
        <ele>39.799999237061</ele>
        <time>2021-05-13T09:46:52.000Z</time>
      </trkpt>
      <trkpt lat="47.31316" lon="-2.349">
        <ele>39.799999237061</ele>
        <time>2021-05-13T09:46:58.000Z</time>
      </trkpt>
      <trkpt lat="47.31305" lon="-2.34864">
        <ele>39.799999237061</ele>
        <time>2021-05-13T09:47:03.000Z</time>
      </trkpt>
      <trkpt lat="47.31302" lon="-2.3485">
        <ele>39.799999237061</ele>
        <time>2021-05-13T09:47:05.000Z</time>
      </trkpt>
      <trkpt lat="47.31298" lon="-2.34828">
        <ele>40.200000762939</ele>
        <time>2021-05-13T09:47:08.000Z</time>
      </trkpt>
      <trkpt lat="47.31297" lon="-2.34821">
        <ele>40.599998474121</ele>
        <time>2021-05-13T09:47:09.000Z</time>
      </trkpt>
      <trkpt lat="47.31295" lon="-2.34813">
        <ele>41</ele>
        <time>2021-05-13T09:47:10.000Z</time>
      </trkpt>
      <trkpt lat="47.31293" lon="-2.34806">
        <ele>41.400001525879</ele>
        <time>2021-05-13T09:47:11.000Z</time>
      </trkpt>
      <trkpt lat="47.31291" lon="-2.348">
        <ele>41.799999237061</ele>
        <time>2021-05-13T09:47:12.000Z</time>
      </trkpt>
      <trkpt lat="47.31283" lon="-2.34756">
        <ele>41.799999237061</ele>
        <time>2021-05-13T09:47:18.000Z</time>
      </trkpt>
      <trkpt lat="47.31276" lon="-2.34704">
        <ele>41.799999237061</ele>
        <time>2021-05-13T09:47:25.000Z</time>
      </trkpt>
      <trkpt lat="47.3128" lon="-2.34685">
        <ele>41.799999237061</ele>
        <time>2021-05-13T09:47:28.000Z</time>
      </trkpt>
      <trkpt lat="47.31287" lon="-2.34673">
        <ele>41.400001525879</ele>
        <time>2021-05-13T09:47:30.000Z</time>
      </trkpt>
      <trkpt lat="47.3129" lon="-2.34665">
        <ele>41</ele>
        <time>2021-05-13T09:47:31.000Z</time>
      </trkpt>
      <trkpt lat="47.31291" lon="-2.34658">
        <ele>40.599998474121</ele>
        <time>2021-05-13T09:47:32.000Z</time>
      </trkpt>
      <trkpt lat="47.31292" lon="-2.3465">
        <ele>40.200000762939</ele>
        <time>2021-05-13T09:47:33.000Z</time>
      </trkpt>
      <trkpt lat="47.31291" lon="-2.34641">
        <ele>39.799999237061</ele>
        <time>2021-05-13T09:47:34.000Z</time>
      </trkpt>
      <trkpt lat="47.31289" lon="-2.34633">
        <ele>39.799999237061</ele>
        <time>2021-05-13T09:47:35.000Z</time>
      </trkpt>
      <trkpt lat="47.31287" lon="-2.34623">
        <ele>39.799999237061</ele>
        <time>2021-05-13T09:47:36.000Z</time>
      </trkpt>
      <trkpt lat="47.31282" lon="-2.34588">
        <ele>39.400001525879</ele>
        <time>2021-05-13T09:47:39.000Z</time>
      </trkpt>
      <trkpt lat="47.31281" lon="-2.34575">
        <ele>39</ele>
        <time>2021-05-13T09:47:40.000Z</time>
      </trkpt>
      <trkpt lat="47.3128" lon="-2.34563">
        <ele>38.599998474121</ele>
        <time>2021-05-13T09:47:41.000Z</time>
      </trkpt>
      <trkpt lat="47.31279" lon="-2.3455">
        <ele>38</ele>
        <time>2021-05-13T09:47:42.000Z</time>
      </trkpt>
      <trkpt lat="47.31278" lon="-2.34537">
        <ele>37.599998474121</ele>
        <time>2021-05-13T09:47:43.000Z</time>
      </trkpt>
      <trkpt lat="47.31274" lon="-2.34499">
        <ele>37.599998474121</ele>
        <time>2021-05-13T09:47:46.000Z</time>
      </trkpt>
      <trkpt lat="47.31269" lon="-2.34446">
        <ele>37.200000762939</ele>
        <time>2021-05-13T09:47:50.000Z</time>
      </trkpt>
      <trkpt lat="47.31267" lon="-2.34432">
        <ele>36.799999237061</ele>
        <time>2021-05-13T09:47:51.000Z</time>
      </trkpt>
      <trkpt lat="47.31266" lon="-2.34419">
        <ele>36.400001525879</ele>
        <time>2021-05-13T09:47:52.000Z</time>
      </trkpt>
      <trkpt lat="47.31264" lon="-2.34405">
        <ele>36</ele>
        <time>2021-05-13T09:47:53.000Z</time>
      </trkpt>
      <trkpt lat="47.31261" lon="-2.34391">
        <ele>35.400001525879</ele>
        <time>2021-05-13T09:47:54.000Z</time>
      </trkpt>
      <trkpt lat="47.31258" lon="-2.34377">
        <ele>35.400001525879</ele>
        <time>2021-05-13T09:47:55.000Z</time>
      </trkpt>
      <trkpt lat="47.31248" lon="-2.34343">
        <ele>35.400001525879</ele>
        <time>2021-05-13T09:47:58.000Z</time>
      </trkpt>
      <trkpt lat="47.31245" lon="-2.34335">
        <ele>35.400001525879</ele>
        <time>2021-05-13T09:47:59.000Z</time>
      </trkpt>
      <trkpt lat="47.3124" lon="-2.34329">
        <ele>35</ele>
        <time>2021-05-13T09:48:00.000Z</time>
      </trkpt>
      <trkpt lat="47.31233" lon="-2.34324">
        <ele>34.599998474121</ele>
        <time>2021-05-13T09:48:01.000Z</time>
      </trkpt>
      <trkpt lat="47.31226" lon="-2.3432">
        <ele>34.200000762939</ele>
        <time>2021-05-13T09:48:02.000Z</time>
      </trkpt>
      <trkpt lat="47.31216" lon="-2.34315">
        <ele>33.599998474121</ele>
        <time>2021-05-13T09:48:03.000Z</time>
      </trkpt>
      <trkpt lat="47.31207" lon="-2.34307">
        <ele>33.200000762939</ele>
        <time>2021-05-13T09:48:04.000Z</time>
      </trkpt>
      <trkpt lat="47.31201" lon="-2.34298">
        <ele>33.200000762939</ele>
        <time>2021-05-13T09:48:05.000Z</time>
      </trkpt>
      <trkpt lat="47.31188" lon="-2.34276">
        <ele>33.200000762939</ele>
        <time>2021-05-13T09:48:07.000Z</time>
      </trkpt>
      <trkpt lat="47.31166" lon="-2.34237">
        <ele>33.200000762939</ele>
        <time>2021-05-13T09:48:11.000Z</time>
      </trkpt>
      <trkpt lat="47.31135" lon="-2.34186">
        <ele>33.200000762939</ele>
        <time>2021-05-13T09:48:17.000Z</time>
      </trkpt>
      <trkpt lat="47.31113" lon="-2.34149">
        <ele>33.200000762939</ele>
        <time>2021-05-13T09:48:22.000Z</time>
      </trkpt>
      <trkpt lat="47.31108" lon="-2.34142">
        <ele>33.200000762939</ele>
        <time>2021-05-13T09:48:23.000Z</time>
      </trkpt>
      <trkpt lat="47.311" lon="-2.34127">
        <ele>33.599998474121</ele>
        <time>2021-05-13T09:48:25.000Z</time>
      </trkpt>
      <trkpt lat="47.31096" lon="-2.34119">
        <ele>34</ele>
        <time>2021-05-13T09:48:26.000Z</time>
      </trkpt>
      <trkpt lat="47.31092" lon="-2.34111">
        <ele>34.599998474121</ele>
        <time>2021-05-13T09:48:27.000Z</time>
      </trkpt>
      <trkpt lat="47.31088" lon="-2.34103">
        <ele>35</ele>
        <time>2021-05-13T09:48:28.000Z</time>
      </trkpt>
      <trkpt lat="47.31084" lon="-2.34096">
        <ele>35.400001525879</ele>
        <time>2021-05-13T09:48:29.000Z</time>
      </trkpt>
      <trkpt lat="47.3108" lon="-2.34088">
        <ele>35.400001525879</ele>
        <time>2021-05-13T09:48:30.000Z</time>
      </trkpt>
      <trkpt lat="47.31076" lon="-2.3408">
        <ele>35.799999237061</ele>
        <time>2021-05-13T09:48:31.000Z</time>
      </trkpt>
      <trkpt lat="47.31073" lon="-2.34072">
        <ele>36.200000762939</ele>
        <time>2021-05-13T09:48:32.000Z</time>
      </trkpt>
      <trkpt lat="47.3107" lon="-2.34063">
        <ele>36.599998474121</ele>
        <time>2021-05-13T09:48:33.000Z</time>
      </trkpt>
      <trkpt lat="47.31068" lon="-2.34054">
        <ele>37.599998474121</ele>
        <time>2021-05-13T09:48:34.000Z</time>
      </trkpt>
      <trkpt lat="47.31066" lon="-2.34046">
        <ele>37.599998474121</ele>
        <time>2021-05-13T09:48:35.000Z</time>
      </trkpt>
      <trkpt lat="47.31064" lon="-2.34037">
        <ele>38</ele>
        <time>2021-05-13T09:48:36.000Z</time>
      </trkpt>
      <trkpt lat="47.31062" lon="-2.34028">
        <ele>38.400001525879</ele>
        <time>2021-05-13T09:48:37.000Z</time>
      </trkpt>
      <trkpt lat="47.31061" lon="-2.34018">
        <ele>38.799999237061</ele>
        <time>2021-05-13T09:48:38.000Z</time>
      </trkpt>
      <trkpt lat="47.3106" lon="-2.34009">
        <ele>39.200000762939</ele>
        <time>2021-05-13T09:48:39.000Z</time>
      </trkpt>
      <trkpt lat="47.3106" lon="-2.34">
        <ele>39.599998474121</ele>
        <time>2021-05-13T09:48:40.000Z</time>
      </trkpt>
      <trkpt lat="47.31058" lon="-2.33956">
        <ele>39.599998474121</ele>
        <time>2021-05-13T09:48:45.000Z</time>
      </trkpt>
      <trkpt lat="47.31055" lon="-2.3395">
        <ele>39.599998474121</ele>
        <time>2021-05-13T09:48:46.000Z</time>
      </trkpt>
      <trkpt lat="47.31044" lon="-2.33946">
        <ele>39.599998474121</ele>
        <time>2021-05-13T09:48:48.000Z</time>
      </trkpt>
      <trkpt lat="47.31028" lon="-2.33951">
        <ele>39.599998474121</ele>
        <time>2021-05-13T09:48:51.000Z</time>
      </trkpt>
      <trkpt lat="47.31018" lon="-2.33953">
        <ele>39.599998474121</ele>
        <time>2021-05-13T09:48:53.000Z</time>
      </trkpt>
      <trkpt lat="47.30993" lon="-2.33955">
        <ele>39.599998474121</ele>
        <time>2021-05-13T09:48:58.000Z</time>
      </trkpt>
      <trkpt lat="47.30959" lon="-2.33955">
        <ele>39.599998474121</ele>
        <time>2021-05-13T09:49:05.000Z</time>
      </trkpt>
      <trkpt lat="47.3094" lon="-2.33951">
        <ele>40</ele>
        <time>2021-05-13T09:49:09.000Z</time>
      </trkpt>
      <trkpt lat="47.30935" lon="-2.3395">
        <ele>40.400001525879</ele>
        <time>2021-05-13T09:49:10.000Z</time>
      </trkpt>
      <trkpt lat="47.30931" lon="-2.33949">
        <ele>40.799999237061</ele>
        <time>2021-05-13T09:49:11.000Z</time>
      </trkpt>
      <trkpt lat="47.30926" lon="-2.33949">
        <ele>41.200000762939</ele>
        <time>2021-05-13T09:49:12.000Z</time>
      </trkpt>
      <trkpt lat="47.30921" lon="-2.33948">
        <ele>41.599998474121</ele>
        <time>2021-05-13T09:49:13.000Z</time>
      </trkpt>
      <trkpt lat="47.30895" lon="-2.33948">
        <ele>41.599998474121</ele>
        <time>2021-05-13T09:49:18.000Z</time>
      </trkpt>
      <trkpt lat="47.30863" lon="-2.33954">
        <ele>41.599998474121</ele>
        <time>2021-05-13T09:49:24.000Z</time>
      </trkpt>
      <trkpt lat="47.30836" lon="-2.33957">
        <ele>41.599998474121</ele>
        <time>2021-05-13T09:49:29.000Z</time>
      </trkpt>
      <trkpt lat="47.30826" lon="-2.33959">
        <ele>41.599998474121</ele>
        <time>2021-05-13T09:49:31.000Z</time>
      </trkpt>
      <trkpt lat="47.30798" lon="-2.33966">
        <ele>41.599998474121</ele>
        <time>2021-05-13T09:49:37.000Z</time>
      </trkpt>
      <trkpt lat="47.30789" lon="-2.33968">
        <ele>41.599998474121</ele>
        <time>2021-05-13T09:49:39.000Z</time>
      </trkpt>
      <trkpt lat="47.30785" lon="-2.3397">
        <ele>41.599998474121</ele>
        <time>2021-05-13T09:49:40.000Z</time>
      </trkpt>
      <trkpt lat="47.30774" lon="-2.33979">
        <ele>41.599998474121</ele>
        <time>2021-05-13T09:49:43.000Z</time>
      </trkpt>
      <trkpt lat="47.30769" lon="-2.34001">
        <ele>41.599998474121</ele>
        <time>2021-05-13T09:49:47.000Z</time>
      </trkpt>
      <trkpt lat="47.3077" lon="-2.34008">
        <ele>41.599998474121</ele>
        <time>2021-05-13T09:49:48.000Z</time>
      </trkpt>
      <trkpt lat="47.3077" lon="-2.34022">
        <ele>41.599998474121</ele>
        <time>2021-05-13T09:49:50.000Z</time>
      </trkpt>
      <trkpt lat="47.30771" lon="-2.34042">
        <ele>41.599998474121</ele>
        <time>2021-05-13T09:49:53.000Z</time>
      </trkpt>
      <trkpt lat="47.3077" lon="-2.34078">
        <ele>41.599998474121</ele>
        <time>2021-05-13T09:49:59.000Z</time>
      </trkpt>
      <trkpt lat="47.30768" lon="-2.34111">
        <ele>41.599998474121</ele>
        <time>2021-05-13T09:50:04.000Z</time>
      </trkpt>
      <trkpt lat="47.30768" lon="-2.34119">
        <ele>41.599998474121</ele>
        <time>2021-05-13T09:50:05.000Z</time>
      </trkpt>
      <trkpt lat="47.30767" lon="-2.34158">
        <ele>42</ele>
        <time>2021-05-13T09:50:10.000Z</time>
      </trkpt>
      <trkpt lat="47.30767" lon="-2.34165">
        <ele>42.599998474121</ele>
        <time>2021-05-13T09:50:11.000Z</time>
      </trkpt>
      <trkpt lat="47.30767" lon="-2.34172">
        <ele>43.400001525879</ele>
        <time>2021-05-13T09:50:12.000Z</time>
      </trkpt>
      <trkpt lat="47.30766" lon="-2.34179">
        <ele>43.799999237061</ele>
        <time>2021-05-13T09:50:13.000Z</time>
      </trkpt>
      <trkpt lat="47.30765" lon="-2.34191">
        <ele>43.799999237061</ele>
        <time>2021-05-13T09:50:15.000Z</time>
      </trkpt>
      <trkpt lat="47.30759" lon="-2.3421">
        <ele>43.799999237061</ele>
        <time>2021-05-13T09:50:18.000Z</time>
      </trkpt>
      <trkpt lat="47.30746" lon="-2.34215">
        <ele>43.799999237061</ele>
        <time>2021-05-13T09:50:21.000Z</time>
      </trkpt>
      <trkpt lat="47.30732" lon="-2.34222">
        <ele>43.799999237061</ele>
        <time>2021-05-13T09:50:25.000Z</time>
      </trkpt>
      <trkpt lat="47.3073" lon="-2.34225">
        <ele>43.799999237061</ele>
        <time>2021-05-13T09:50:26.000Z</time>
      </trkpt>
      <trkpt lat="47.30727" lon="-2.34245">
        <ele>43.799999237061</ele>
        <time>2021-05-13T09:50:31.000Z</time>
      </trkpt>
      <trkpt lat="47.30723" lon="-2.34268">
        <ele>43.799999237061</ele>
        <time>2021-05-13T09:50:35.000Z</time>
      </trkpt>
      <trkpt lat="47.30721" lon="-2.34274">
        <ele>43.799999237061</ele>
        <time>2021-05-13T09:50:36.000Z</time>
      </trkpt>
      <trkpt lat="47.30716" lon="-2.34285">
        <ele>43.799999237061</ele>
        <time>2021-05-13T09:50:38.000Z</time>
      </trkpt>
      <trkpt lat="47.30708" lon="-2.34301">
        <ele>43.799999237061</ele>
        <time>2021-05-13T09:50:41.000Z</time>
      </trkpt>
      <trkpt lat="47.30691" lon="-2.34333">
        <ele>43.799999237061</ele>
        <time>2021-05-13T09:50:47.000Z</time>
      </trkpt>
      <trkpt lat="47.30678" lon="-2.34358">
        <ele>43.799999237061</ele>
        <time>2021-05-13T09:50:51.000Z</time>
      </trkpt>
      <trkpt lat="47.30672" lon="-2.34369">
        <ele>43.799999237061</ele>
        <time>2021-05-13T09:50:53.000Z</time>
      </trkpt>
      <trkpt lat="47.30648" lon="-2.34405">
        <ele>43.799999237061</ele>
        <time>2021-05-13T09:51:00.000Z</time>
      </trkpt>
      <trkpt lat="47.30626" lon="-2.34438">
        <ele>44.200000762939</ele>
        <time>2021-05-13T09:51:06.000Z</time>
      </trkpt>
      <trkpt lat="47.3062" lon="-2.3445">
        <ele>44.599998474121</ele>
        <time>2021-05-13T09:51:07.000Z</time>
      </trkpt>
      <trkpt lat="47.30615" lon="-2.34458">
        <ele>45.200000762939</ele>
        <time>2021-05-13T09:51:08.000Z</time>
      </trkpt>
      <trkpt lat="47.3061" lon="-2.34465">
        <ele>45.599998474121</ele>
        <time>2021-05-13T09:51:09.000Z</time>
      </trkpt>
      <trkpt lat="47.30606" lon="-2.34471">
        <ele>46</ele>
        <time>2021-05-13T09:51:10.000Z</time>
      </trkpt>
      <trkpt lat="47.30598" lon="-2.34483">
        <ele>46</ele>
        <time>2021-05-13T09:51:12.000Z</time>
      </trkpt>
      <trkpt lat="47.30588" lon="-2.34501">
        <ele>46</ele>
        <time>2021-05-13T09:51:15.000Z</time>
      </trkpt>
      <trkpt lat="47.30577" lon="-2.34522">
        <ele>46</ele>
        <time>2021-05-13T09:51:18.000Z</time>
      </trkpt>
      <trkpt lat="47.30562" lon="-2.34549">
        <ele>45.599998474121</ele>
        <time>2021-05-13T09:51:22.000Z</time>
      </trkpt>
      <trkpt lat="47.30558" lon="-2.34557">
        <ele>45.200000762939</ele>
        <time>2021-05-13T09:51:23.000Z</time>
      </trkpt>
      <trkpt lat="47.30553" lon="-2.34565">
        <ele>44.799999237061</ele>
        <time>2021-05-13T09:51:24.000Z</time>
      </trkpt>
      <trkpt lat="47.30549" lon="-2.34572">
        <ele>44.400001525879</ele>
        <time>2021-05-13T09:51:25.000Z</time>
      </trkpt>
      <trkpt lat="47.30545" lon="-2.34579">
        <ele>44</ele>
        <time>2021-05-13T09:51:26.000Z</time>
      </trkpt>
      <trkpt lat="47.30534" lon="-2.34597">
        <ele>44</ele>
        <time>2021-05-13T09:51:29.000Z</time>
      </trkpt>
      <trkpt lat="47.3053" lon="-2.34602">
        <ele>44</ele>
        <time>2021-05-13T09:51:30.000Z</time>
      </trkpt>
      <trkpt lat="47.30521" lon="-2.34615">
        <ele>44</ele>
        <time>2021-05-13T09:51:33.000Z</time>
      </trkpt>
      <trkpt lat="47.30508" lon="-2.34638">
        <ele>43.599998474121</ele>
        <time>2021-05-13T09:51:38.000Z</time>
      </trkpt>
      <trkpt lat="47.30505" lon="-2.34643">
        <ele>43.200000762939</ele>
        <time>2021-05-13T09:51:39.000Z</time>
      </trkpt>
      <trkpt lat="47.305" lon="-2.34649">
        <ele>42.799999237061</ele>
        <time>2021-05-13T09:51:40.000Z</time>
      </trkpt>
      <trkpt lat="47.30496" lon="-2.34655">
        <ele>42.400001525879</ele>
        <time>2021-05-13T09:51:41.000Z</time>
      </trkpt>
      <trkpt lat="47.30491" lon="-2.34662">
        <ele>42</ele>
        <time>2021-05-13T09:51:42.000Z</time>
      </trkpt>
      <trkpt lat="47.30486" lon="-2.34669">
        <ele>42</ele>
        <time>2021-05-13T09:51:43.000Z</time>
      </trkpt>
      <trkpt lat="47.30471" lon="-2.34687">
        <ele>42</ele>
        <time>2021-05-13T09:51:46.000Z</time>
      </trkpt>
      <trkpt lat="47.30461" lon="-2.347">
        <ele>42</ele>
        <time>2021-05-13T09:51:48.000Z</time>
      </trkpt>
      <trkpt lat="47.30445" lon="-2.34716">
        <ele>42</ele>
        <time>2021-05-13T09:51:51.000Z</time>
      </trkpt>
      <trkpt lat="47.30433" lon="-2.34725">
        <ele>42</ele>
        <time>2021-05-13T09:51:53.000Z</time>
      </trkpt>
      <trkpt lat="47.30403" lon="-2.34745">
        <ele>42</ele>
        <time>2021-05-13T09:51:59.000Z</time>
      </trkpt>
      <trkpt lat="47.30384" lon="-2.34757">
        <ele>42.400001525879</ele>
        <time>2021-05-13T09:52:02.000Z</time>
      </trkpt>
      <trkpt lat="47.30379" lon="-2.3476">
        <ele>42.799999237061</ele>
        <time>2021-05-13T09:52:03.000Z</time>
      </trkpt>
      <trkpt lat="47.30374" lon="-2.34762">
        <ele>43.200000762939</ele>
        <time>2021-05-13T09:52:04.000Z</time>
      </trkpt>
      <trkpt lat="47.30368" lon="-2.34766">
        <ele>43.599998474121</ele>
        <time>2021-05-13T09:52:05.000Z</time>
      </trkpt>
      <trkpt lat="47.30363" lon="-2.3477">
        <ele>44</ele>
        <time>2021-05-13T09:52:06.000Z</time>
      </trkpt>
      <trkpt lat="47.30353" lon="-2.34779">
        <ele>44</ele>
        <time>2021-05-13T09:52:08.000Z</time>
      </trkpt>
      <trkpt lat="47.30344" lon="-2.34792">
        <ele>44</ele>
        <time>2021-05-13T09:52:10.000Z</time>
      </trkpt>
      <trkpt lat="47.30341" lon="-2.34799">
        <ele>44</ele>
        <time>2021-05-13T09:52:11.000Z</time>
      </trkpt>
      <trkpt lat="47.30325" lon="-2.34828">
        <ele>44</ele>
        <time>2021-05-13T09:52:15.000Z</time>
      </trkpt>
      <trkpt lat="47.3032" lon="-2.34836">
        <ele>44</ele>
        <time>2021-05-13T09:52:16.000Z</time>
      </trkpt>
      <trkpt lat="47.303" lon="-2.34858">
        <ele>44</ele>
        <time>2021-05-13T09:52:20.000Z</time>
      </trkpt>
      <trkpt lat="47.30267" lon="-2.34877">
        <ele>44</ele>
        <time>2021-05-13T09:52:26.000Z</time>
      </trkpt>
      <trkpt lat="47.30262" lon="-2.34879">
        <ele>43.599998474121</ele>
        <time>2021-05-13T09:52:27.000Z</time>
      </trkpt>
      <trkpt lat="47.30257" lon="-2.34883">
        <ele>43.200000762939</ele>
        <time>2021-05-13T09:52:28.000Z</time>
      </trkpt>
      <trkpt lat="47.30252" lon="-2.34886">
        <ele>42.799999237061</ele>
        <time>2021-05-13T09:52:29.000Z</time>
      </trkpt>
      <trkpt lat="47.30246" lon="-2.34891">
        <ele>42.400001525879</ele>
        <time>2021-05-13T09:52:30.000Z</time>
      </trkpt>
      <trkpt lat="47.30241" lon="-2.34896">
        <ele>42</ele>
        <time>2021-05-13T09:52:31.000Z</time>
      </trkpt>
      <trkpt lat="47.30219" lon="-2.34917">
        <ele>42</ele>
        <time>2021-05-13T09:52:35.000Z</time>
      </trkpt>
      <trkpt lat="47.30216" lon="-2.34924">
        <ele>42</ele>
        <time>2021-05-13T09:52:36.000Z</time>
      </trkpt>
      <trkpt lat="47.30214" lon="-2.34961">
        <ele>42</ele>
        <time>2021-05-13T09:52:40.000Z</time>
      </trkpt>
      <trkpt lat="47.30213" lon="-2.3497">
        <ele>42</ele>
        <time>2021-05-13T09:52:41.000Z</time>
      </trkpt>
      <trkpt lat="47.3021" lon="-2.34998">
        <ele>42</ele>
        <time>2021-05-13T09:52:44.000Z</time>
      </trkpt>
      <trkpt lat="47.3021" lon="-2.35007">
        <ele>42</ele>
        <time>2021-05-13T09:52:45.000Z</time>
      </trkpt>
      <trkpt lat="47.3021" lon="-2.35034">
        <ele>41.599998474121</ele>
        <time>2021-05-13T09:52:48.000Z</time>
      </trkpt>
      <trkpt lat="47.3021" lon="-2.35043">
        <ele>41.200000762939</ele>
        <time>2021-05-13T09:52:49.000Z</time>
      </trkpt>
      <trkpt lat="47.3021" lon="-2.3505">
        <ele>40.799999237061</ele>
        <time>2021-05-13T09:52:50.000Z</time>
      </trkpt>
      <trkpt lat="47.3021" lon="-2.35059">
        <ele>40.400001525879</ele>
        <time>2021-05-13T09:52:51.000Z</time>
      </trkpt>
      <trkpt lat="47.3021" lon="-2.35067">
        <ele>40</ele>
        <time>2021-05-13T09:52:52.000Z</time>
      </trkpt>
      <trkpt lat="47.30209" lon="-2.35091">
        <ele>40</ele>
        <time>2021-05-13T09:52:55.000Z</time>
      </trkpt>
      <trkpt lat="47.30207" lon="-2.35132">
        <ele>40</ele>
        <time>2021-05-13T09:53:00.000Z</time>
      </trkpt>
      <trkpt lat="47.30207" lon="-2.35153">
        <ele>39.599998474121</ele>
        <time>2021-05-13T09:53:03.000Z</time>
      </trkpt>
      <trkpt lat="47.30205" lon="-2.35159">
        <ele>39.200000762939</ele>
        <time>2021-05-13T09:53:04.000Z</time>
      </trkpt>
      <trkpt lat="47.30203" lon="-2.35164">
        <ele>38.400001525879</ele>
        <time>2021-05-13T09:53:05.000Z</time>
      </trkpt>
      <trkpt lat="47.302" lon="-2.35167">
        <ele>37.799999237061</ele>
        <time>2021-05-13T09:53:06.000Z</time>
      </trkpt>
      <trkpt lat="47.30193" lon="-2.3517">
        <ele>37.799999237061</ele>
        <time>2021-05-13T09:53:08.000Z</time>
      </trkpt>
      <trkpt lat="47.30179" lon="-2.35178">
        <ele>37.799999237061</ele>
        <time>2021-05-13T09:53:12.000Z</time>
      </trkpt>
      <trkpt lat="47.30165" lon="-2.35189">
        <ele>37.799999237061</ele>
        <time>2021-05-13T09:53:16.000Z</time>
      </trkpt>
      <trkpt lat="47.30159" lon="-2.35194">
        <ele>37.799999237061</ele>
        <time>2021-05-13T09:53:18.000Z</time>
      </trkpt>
      <trkpt lat="47.30154" lon="-2.35194">
        <ele>37.400001525879</ele>
        <time>2021-05-13T09:53:20.000Z</time>
      </trkpt>
      <trkpt lat="47.30152" lon="-2.35195">
        <ele>37</ele>
        <time>2021-05-13T09:53:21.000Z</time>
      </trkpt>
      <trkpt lat="47.30149" lon="-2.35196">
        <ele>36.599998474121</ele>
        <time>2021-05-13T09:53:22.000Z</time>
      </trkpt>
      <trkpt lat="47.30146" lon="-2.35197">
        <ele>36.200000762939</ele>
        <time>2021-05-13T09:53:23.000Z</time>
      </trkpt>
      <trkpt lat="47.30143" lon="-2.35198">
        <ele>35.799999237061</ele>
        <time>2021-05-13T09:53:24.000Z</time>
      </trkpt>
      <trkpt lat="47.30139" lon="-2.35199">
        <ele>35.799999237061</ele>
        <time>2021-05-13T09:53:25.000Z</time>
      </trkpt>
      <trkpt lat="47.30135" lon="-2.35201">
        <ele>35.799999237061</ele>
        <time>2021-05-13T09:53:26.000Z</time>
      </trkpt>
      <trkpt lat="47.30125" lon="-2.35206">
        <ele>35.799999237061</ele>
        <time>2021-05-13T09:53:28.000Z</time>
      </trkpt>
      <trkpt lat="47.3012" lon="-2.35209">
        <ele>35.799999237061</ele>
        <time>2021-05-13T09:53:29.000Z</time>
      </trkpt>
      <trkpt lat="47.30106" lon="-2.35215">
        <ele>35.799999237061</ele>
        <time>2021-05-13T09:53:32.000Z</time>
      </trkpt>
      <trkpt lat="47.301" lon="-2.35218">
        <ele>35.799999237061</ele>
        <time>2021-05-13T09:53:33.000Z</time>
      </trkpt>
      <trkpt lat="47.3008" lon="-2.35224">
        <ele>35.799999237061</ele>
        <time>2021-05-13T09:53:37.000Z</time>
      </trkpt>
      <trkpt lat="47.30075" lon="-2.35227">
        <ele>35.799999237061</ele>
        <time>2021-05-13T09:53:38.000Z</time>
      </trkpt>
      <trkpt lat="47.30071" lon="-2.35229">
        <ele>35.799999237061</ele>
        <time>2021-05-13T09:53:39.000Z</time>
      </trkpt>
      <trkpt lat="47.30052" lon="-2.35237">
        <ele>35.799999237061</ele>
        <time>2021-05-13T09:53:43.000Z</time>
      </trkpt>
      <trkpt lat="47.30036" lon="-2.35246">
        <ele>35.799999237061</ele>
        <time>2021-05-13T09:53:48.000Z</time>
      </trkpt>
      <trkpt lat="47.30031" lon="-2.35246">
        <ele>35.799999237061</ele>
        <time>2021-05-13T09:53:51.000Z</time>
      </trkpt>
      <trkpt lat="47.3003" lon="-2.35246">
        <ele>35.799999237061</ele>
        <time>2021-05-13T09:53:52.000Z</time>
      </trkpt>
      <trkpt lat="47.30019" lon="-2.35253">
        <ele>35.799999237061</ele>
        <time>2021-05-13T09:53:56.000Z</time>
      </trkpt>
      <trkpt lat="47.30006" lon="-2.35261">
        <ele>35.799999237061</ele>
        <time>2021-05-13T09:54:02.000Z</time>
      </trkpt>
      <trkpt lat="47.29995" lon="-2.35265">
        <ele>35.799999237061</ele>
        <time>2021-05-13T09:54:08.000Z</time>
      </trkpt>
      <trkpt lat="47.29995" lon="-2.35265">
        <ele>35.799999237061</ele>
        <time>2021-05-13T09:54:09.000Z</time>
      </trkpt>
      <trkpt lat="47.29993" lon="-2.35266">
        <ele>35.799999237061</ele>
        <time>2021-05-13T09:57:14.000Z</time>
      </trkpt>
      <trkpt lat="47.29989" lon="-2.35271">
        <ele>35.799999237061</ele>
        <time>2021-05-13T09:57:16.000Z</time>
      </trkpt>
      <trkpt lat="47.29977" lon="-2.35286">
        <ele>35.799999237061</ele>
        <time>2021-05-13T09:57:21.000Z</time>
      </trkpt>
      <trkpt lat="47.29955" lon="-2.35314">
        <ele>35.799999237061</ele>
        <time>2021-05-13T09:57:27.000Z</time>
      </trkpt>
      <trkpt lat="47.29924" lon="-2.35352">
        <ele>35.799999237061</ele>
        <time>2021-05-13T09:57:35.000Z</time>
      </trkpt>
      <trkpt lat="47.29889" lon="-2.35394">
        <ele>35.799999237061</ele>
        <time>2021-05-13T09:57:44.000Z</time>
      </trkpt>
      <trkpt lat="47.29884" lon="-2.35398">
        <ele>35.799999237061</ele>
        <time>2021-05-13T09:57:45.000Z</time>
      </trkpt>
      <trkpt lat="47.29869" lon="-2.35412">
        <ele>35.799999237061</ele>
        <time>2021-05-13T09:57:49.000Z</time>
      </trkpt>
      <trkpt lat="47.29862" lon="-2.3542">
        <ele>35.799999237061</ele>
        <time>2021-05-13T09:57:51.000Z</time>
      </trkpt>
      <trkpt lat="47.29845" lon="-2.35437">
        <ele>35.799999237061</ele>
        <time>2021-05-13T09:57:55.000Z</time>
      </trkpt>
      <trkpt lat="47.29834" lon="-2.35451">
        <ele>35.799999237061</ele>
        <time>2021-05-13T09:57:58.000Z</time>
      </trkpt>
      <trkpt lat="47.29828" lon="-2.35464">
        <ele>35.799999237061</ele>
        <time>2021-05-13T09:58:00.000Z</time>
      </trkpt>
      <trkpt lat="47.29828" lon="-2.35482">
        <ele>35.799999237061</ele>
        <time>2021-05-13T09:58:03.000Z</time>
      </trkpt>
      <trkpt lat="47.29831" lon="-2.35494">
        <ele>35.799999237061</ele>
        <time>2021-05-13T09:58:05.000Z</time>
      </trkpt>
      <trkpt lat="47.29839" lon="-2.35517">
        <ele>36.200000762939</ele>
        <time>2021-05-13T09:58:09.000Z</time>
      </trkpt>
      <trkpt lat="47.29841" lon="-2.35524">
        <ele>36.599998474121</ele>
        <time>2021-05-13T09:58:10.000Z</time>
      </trkpt>
      <trkpt lat="47.29843" lon="-2.35532">
        <ele>37.200000762939</ele>
        <time>2021-05-13T09:58:11.000Z</time>
      </trkpt>
      <trkpt lat="47.29845" lon="-2.35539">
        <ele>37.599998474121</ele>
        <time>2021-05-13T09:58:12.000Z</time>
      </trkpt>
      <trkpt lat="47.29847" lon="-2.35545">
        <ele>38</ele>
        <time>2021-05-13T09:58:13.000Z</time>
      </trkpt>
      <trkpt lat="47.2985" lon="-2.35557">
        <ele>38</ele>
        <time>2021-05-13T09:58:15.000Z</time>
      </trkpt>
      <trkpt lat="47.29856" lon="-2.35579">
        <ele>38</ele>
        <time>2021-05-13T09:58:20.000Z</time>
      </trkpt>
      <trkpt lat="47.29864" lon="-2.35604">
        <ele>38</ele>
        <time>2021-05-13T09:58:24.000Z</time>
      </trkpt>
      <trkpt lat="47.29871" lon="-2.35634">
        <ele>38</ele>
        <time>2021-05-13T09:58:29.000Z</time>
      </trkpt>
      <trkpt lat="47.29873" lon="-2.35649">
        <ele>38.400001525879</ele>
        <time>2021-05-13T09:58:31.000Z</time>
      </trkpt>
      <trkpt lat="47.29874" lon="-2.35658">
        <ele>38.799999237061</ele>
        <time>2021-05-13T09:58:32.000Z</time>
      </trkpt>
      <trkpt lat="47.29875" lon="-2.35666">
        <ele>39.200000762939</ele>
        <time>2021-05-13T09:58:33.000Z</time>
      </trkpt>
      <trkpt lat="47.29876" lon="-2.35673">
        <ele>39.599998474121</ele>
        <time>2021-05-13T09:58:34.000Z</time>
      </trkpt>
      <trkpt lat="47.29877" lon="-2.3568">
        <ele>40</ele>
        <time>2021-05-13T09:58:35.000Z</time>
      </trkpt>
      <trkpt lat="47.29883" lon="-2.35711">
        <ele>40</ele>
        <time>2021-05-13T09:58:40.000Z</time>
      </trkpt>
      <trkpt lat="47.29888" lon="-2.35727">
        <ele>40.400001525879</ele>
        <time>2021-05-13T09:58:43.000Z</time>
      </trkpt>
      <trkpt lat="47.29889" lon="-2.35732">
        <ele>40.799999237061</ele>
        <time>2021-05-13T09:58:44.000Z</time>
      </trkpt>
      <trkpt lat="47.29891" lon="-2.35736">
        <ele>41.200000762939</ele>
        <time>2021-05-13T09:58:45.000Z</time>
      </trkpt>
      <trkpt lat="47.29891" lon="-2.3574">
        <ele>41.599998474121</ele>
        <time>2021-05-13T09:58:46.000Z</time>
      </trkpt>
      <trkpt lat="47.29892" lon="-2.35743">
        <ele>42</ele>
        <time>2021-05-13T09:58:47.000Z</time>
      </trkpt>
      <trkpt lat="47.29894" lon="-2.35746">
        <ele>42</ele>
        <time>2021-05-13T09:58:50.000Z</time>
      </trkpt>
      <trkpt lat="47.29894" lon="-2.35749">
        <ele>42</ele>
        <time>2021-05-13T09:58:53.000Z</time>
      </trkpt>
      <trkpt lat="47.29893" lon="-2.35752">
        <ele>42</ele>
        <time>2021-05-13T09:58:54.000Z</time>
      </trkpt>
      <trkpt lat="47.29889" lon="-2.35758">
        <ele>41.599998474121</ele>
        <time>2021-05-13T09:58:56.000Z</time>
      </trkpt>
      <trkpt lat="47.29885" lon="-2.35761">
        <ele>41.200000762939</ele>
        <time>2021-05-13T09:58:57.000Z</time>
      </trkpt>
      <trkpt lat="47.29882" lon="-2.35763">
        <ele>40.799999237061</ele>
        <time>2021-05-13T09:58:58.000Z</time>
      </trkpt>
      <trkpt lat="47.29878" lon="-2.35765">
        <ele>40.400001525879</ele>
        <time>2021-05-13T09:58:59.000Z</time>
      </trkpt>
      <trkpt lat="47.29874" lon="-2.35767">
        <ele>40</ele>
        <time>2021-05-13T09:59:00.000Z</time>
      </trkpt>
      <trkpt lat="47.2987" lon="-2.35769">
        <ele>40</ele>
        <time>2021-05-13T09:59:01.000Z</time>
      </trkpt>
      <trkpt lat="47.29839" lon="-2.3578">
        <ele>40</ele>
        <time>2021-05-13T09:59:08.000Z</time>
      </trkpt>
      <trkpt lat="47.29807" lon="-2.35792">
        <ele>40.400001525879</ele>
        <time>2021-05-13T09:59:15.000Z</time>
      </trkpt>
      <trkpt lat="47.29802" lon="-2.35794">
        <ele>41.200000762939</ele>
        <time>2021-05-13T09:59:16.000Z</time>
      </trkpt>
      <trkpt lat="47.29797" lon="-2.35795">
        <ele>41.599998474121</ele>
        <time>2021-05-13T09:59:17.000Z</time>
      </trkpt>
      <trkpt lat="47.29793" lon="-2.35797">
        <ele>42</ele>
        <time>2021-05-13T09:59:18.000Z</time>
      </trkpt>
      <trkpt lat="47.29774" lon="-2.35804">
        <ele>42</ele>
        <time>2021-05-13T09:59:22.000Z</time>
      </trkpt>
      <trkpt lat="47.29731" lon="-2.35822">
        <ele>42</ele>
        <time>2021-05-13T09:59:30.000Z</time>
      </trkpt>
      <trkpt lat="47.29696" lon="-2.35843">
        <ele>42</ele>
        <time>2021-05-13T09:59:36.000Z</time>
      </trkpt>
      <trkpt lat="47.29691" lon="-2.35845">
        <ele>42</ele>
        <time>2021-05-13T09:59:37.000Z</time>
      </trkpt>
      <trkpt lat="47.2968" lon="-2.35849">
        <ele>42</ele>
        <time>2021-05-13T09:59:39.000Z</time>
      </trkpt>
      <trkpt lat="47.29669" lon="-2.35853">
        <ele>42</ele>
        <time>2021-05-13T09:59:41.000Z</time>
      </trkpt>
      <trkpt lat="47.29649" lon="-2.35867">
        <ele>42</ele>
        <time>2021-05-13T09:59:45.000Z</time>
      </trkpt>
      <trkpt lat="47.29643" lon="-2.3587">
        <ele>41.599998474121</ele>
        <time>2021-05-13T09:59:46.000Z</time>
      </trkpt>
      <trkpt lat="47.29638" lon="-2.35873">
        <ele>41.200000762939</ele>
        <time>2021-05-13T09:59:47.000Z</time>
      </trkpt>
      <trkpt lat="47.29633" lon="-2.35875">
        <ele>40.799999237061</ele>
        <time>2021-05-13T09:59:48.000Z</time>
      </trkpt>
      <trkpt lat="47.29628" lon="-2.35878">
        <ele>40.400001525879</ele>
        <time>2021-05-13T09:59:49.000Z</time>
      </trkpt>
      <trkpt lat="47.29623" lon="-2.35881">
        <ele>40</ele>
        <time>2021-05-13T09:59:50.000Z</time>
      </trkpt>
      <trkpt lat="47.29608" lon="-2.35889">
        <ele>40</ele>
        <time>2021-05-13T09:59:53.000Z</time>
      </trkpt>
      <trkpt lat="47.29578" lon="-2.35908">
        <ele>40</ele>
        <time>2021-05-13T09:59:59.000Z</time>
      </trkpt>
      <trkpt lat="47.29538" lon="-2.35931">
        <ele>40</ele>
        <time>2021-05-13T10:00:07.000Z</time>
      </trkpt>
      <trkpt lat="47.29503" lon="-2.35954">
        <ele>40</ele>
        <time>2021-05-13T10:00:14.000Z</time>
      </trkpt>
      <trkpt lat="47.29481" lon="-2.35971">
        <ele>40</ele>
        <time>2021-05-13T10:00:19.000Z</time>
      </trkpt>
      <trkpt lat="47.29476" lon="-2.35975">
        <ele>40</ele>
        <time>2021-05-13T10:00:22.000Z</time>
      </trkpt>
      <trkpt lat="47.29475" lon="-2.35976">
        <ele>39.599998474121</ele>
        <time>2021-05-13T10:00:23.000Z</time>
      </trkpt>
      <trkpt lat="47.29473" lon="-2.35978">
        <ele>39.200000762939</ele>
        <time>2021-05-13T10:00:24.000Z</time>
      </trkpt>
      <trkpt lat="47.29472" lon="-2.3598">
        <ele>38.799999237061</ele>
        <time>2021-05-13T10:00:25.000Z</time>
      </trkpt>
      <trkpt lat="47.29471" lon="-2.35983">
        <ele>38.200000762939</ele>
        <time>2021-05-13T10:00:26.000Z</time>
      </trkpt>
      <trkpt lat="47.29469" lon="-2.35987">
        <ele>37.799999237061</ele>
        <time>2021-05-13T10:00:27.000Z</time>
      </trkpt>
      <trkpt lat="47.29468" lon="-2.3599">
        <ele>37.799999237061</ele>
        <time>2021-05-13T10:00:28.000Z</time>
      </trkpt>
      <trkpt lat="47.29466" lon="-2.35992">
        <ele>37.799999237061</ele>
        <time>2021-05-13T10:00:29.000Z</time>
      </trkpt>
      <trkpt lat="47.29462" lon="-2.35989">
        <ele>37.799999237061</ele>
        <time>2021-05-13T10:00:31.000Z</time>
      </trkpt>
      <trkpt lat="47.2946" lon="-2.3598">
        <ele>37.799999237061</ele>
        <time>2021-05-13T10:00:33.000Z</time>
      </trkpt>
      <trkpt lat="47.29458" lon="-2.35974">
        <ele>37.799999237061</ele>
        <time>2021-05-13T10:00:34.000Z</time>
      </trkpt>
      <trkpt lat="47.29447" lon="-2.35938">
        <ele>37.799999237061</ele>
        <time>2021-05-13T10:00:39.000Z</time>
      </trkpt>
      <trkpt lat="47.29427" lon="-2.35895">
        <ele>37.799999237061</ele>
        <time>2021-05-13T10:00:45.000Z</time>
      </trkpt>
      <trkpt lat="47.29399" lon="-2.3586">
        <ele>37.799999237061</ele>
        <time>2021-05-13T10:00:51.000Z</time>
      </trkpt>
      <trkpt lat="47.29369" lon="-2.35828">
        <ele>37.799999237061</ele>
        <time>2021-05-13T10:00:57.000Z</time>
      </trkpt>
      <trkpt lat="47.29333" lon="-2.35797">
        <ele>37.799999237061</ele>
        <time>2021-05-13T10:01:04.000Z</time>
      </trkpt>
      <trkpt lat="47.29325" lon="-2.35789">
        <ele>37.799999237061</ele>
        <time>2021-05-13T10:01:06.000Z</time>
      </trkpt>
      <trkpt lat="47.29314" lon="-2.3579">
        <ele>37.799999237061</ele>
        <time>2021-05-13T10:01:08.000Z</time>
      </trkpt>
      <trkpt lat="47.29303" lon="-2.35805">
        <ele>38.400001525879</ele>
        <time>2021-05-13T10:01:11.000Z</time>
      </trkpt>
      <trkpt lat="47.29298" lon="-2.35809">
        <ele>38.799999237061</ele>
        <time>2021-05-13T10:01:12.000Z</time>
      </trkpt>
      <trkpt lat="47.29294" lon="-2.35813">
        <ele>39.200000762939</ele>
        <time>2021-05-13T10:01:13.000Z</time>
      </trkpt>
      <trkpt lat="47.2929" lon="-2.35818">
        <ele>39.599998474121</ele>
        <time>2021-05-13T10:01:14.000Z</time>
      </trkpt>
      <trkpt lat="47.29285" lon="-2.35822">
        <ele>40.200000762939</ele>
        <time>2021-05-13T10:01:15.000Z</time>
      </trkpt>
      <trkpt lat="47.2928" lon="-2.35826">
        <ele>40.200000762939</ele>
        <time>2021-05-13T10:01:16.000Z</time>
      </trkpt>
      <trkpt lat="47.29275" lon="-2.35829">
        <ele>40.200000762939</ele>
        <time>2021-05-13T10:01:17.000Z</time>
      </trkpt>
      <trkpt lat="47.2925" lon="-2.35843">
        <ele>40.200000762939</ele>
        <time>2021-05-13T10:01:22.000Z</time>
      </trkpt>
      <trkpt lat="47.29239" lon="-2.35845">
        <ele>40.200000762939</ele>
        <time>2021-05-13T10:01:25.000Z</time>
      </trkpt>
      <trkpt lat="47.29237" lon="-2.3584">
        <ele>40.200000762939</ele>
        <time>2021-05-13T10:01:26.000Z</time>
      </trkpt>
      <trkpt lat="47.29232" lon="-2.3582">
        <ele>40.200000762939</ele>
        <time>2021-05-13T10:01:29.000Z</time>
      </trkpt>
      <trkpt lat="47.29231" lon="-2.35813">
        <ele>40.200000762939</ele>
        <time>2021-05-13T10:01:30.000Z</time>
      </trkpt>
      <trkpt lat="47.29226" lon="-2.35792">
        <ele>40.200000762939</ele>
        <time>2021-05-13T10:01:33.000Z</time>
      </trkpt>
      <trkpt lat="47.29219" lon="-2.35784">
        <ele>40.200000762939</ele>
        <time>2021-05-13T10:01:35.000Z</time>
      </trkpt>
      <trkpt lat="47.29208" lon="-2.35788">
        <ele>40.200000762939</ele>
        <time>2021-05-13T10:01:37.000Z</time>
      </trkpt>
      <trkpt lat="47.29198" lon="-2.35795">
        <ele>40.200000762939</ele>
        <time>2021-05-13T10:01:39.000Z</time>
      </trkpt>
      <trkpt lat="47.29179" lon="-2.3581">
        <ele>40.200000762939</ele>
        <time>2021-05-13T10:01:43.000Z</time>
      </trkpt>
      <trkpt lat="47.2914" lon="-2.35842">
        <ele>40.200000762939</ele>
        <time>2021-05-13T10:01:51.000Z</time>
      </trkpt>
      <trkpt lat="47.29101" lon="-2.35887">
        <ele>40.200000762939</ele>
        <time>2021-05-13T10:02:00.000Z</time>
      </trkpt>
      <trkpt lat="47.29068" lon="-2.35928">
        <ele>40.200000762939</ele>
        <time>2021-05-13T10:02:08.000Z</time>
      </trkpt>
      <trkpt lat="47.29024" lon="-2.35976">
        <ele>40.200000762939</ele>
        <time>2021-05-13T10:02:18.000Z</time>
      </trkpt>
      <trkpt lat="47.2899" lon="-2.36009">
        <ele>40.200000762939</ele>
        <time>2021-05-13T10:02:25.000Z</time>
      </trkpt>
      <trkpt lat="47.2895" lon="-2.36047">
        <ele>40.200000762939</ele>
        <time>2021-05-13T10:02:33.000Z</time>
      </trkpt>
      <trkpt lat="47.28911" lon="-2.36071">
        <ele>40.200000762939</ele>
        <time>2021-05-13T10:02:40.000Z</time>
      </trkpt>
      <trkpt lat="47.28886" lon="-2.36095">
        <ele>40.200000762939</ele>
        <time>2021-05-13T10:02:45.000Z</time>
      </trkpt>
      <trkpt lat="47.28843" lon="-2.36137">
        <ele>40.200000762939</ele>
        <time>2021-05-13T10:02:54.000Z</time>
      </trkpt>
      <trkpt lat="47.2882" lon="-2.36171">
        <ele>40.200000762939</ele>
        <time>2021-05-13T10:03:00.000Z</time>
      </trkpt>
      <trkpt lat="47.28816" lon="-2.36176">
        <ele>40.200000762939</ele>
        <time>2021-05-13T10:03:01.000Z</time>
      </trkpt>
      <trkpt lat="47.28798" lon="-2.36189">
        <ele>40.200000762939</ele>
        <time>2021-05-13T10:03:05.000Z</time>
      </trkpt>
      <trkpt lat="47.28764" lon="-2.36211">
        <ele>40.200000762939</ele>
        <time>2021-05-13T10:03:14.000Z</time>
      </trkpt>
      <trkpt lat="47.28749" lon="-2.36219">
        <ele>40.200000762939</ele>
        <time>2021-05-13T10:03:18.000Z</time>
      </trkpt>
      <trkpt lat="47.28736" lon="-2.36233">
        <ele>40.200000762939</ele>
        <time>2021-05-13T10:03:22.000Z</time>
      </trkpt>
      <trkpt lat="47.28721" lon="-2.36249">
        <ele>40.200000762939</ele>
        <time>2021-05-13T10:03:28.000Z</time>
      </trkpt>
      <trkpt lat="47.2871" lon="-2.36265">
        <ele>40.200000762939</ele>
        <time>2021-05-13T10:03:34.000Z</time>
      </trkpt>
      <trkpt lat="47.28707" lon="-2.36268">
        <ele>40.599998474121</ele>
        <time>2021-05-13T10:03:35.000Z</time>
      </trkpt>
      <trkpt lat="47.28704" lon="-2.3627">
        <ele>41</ele>
        <time>2021-05-13T10:03:36.000Z</time>
      </trkpt>
      <trkpt lat="47.28701" lon="-2.36272">
        <ele>41.400001525879</ele>
        <time>2021-05-13T10:03:37.000Z</time>
      </trkpt>
      <trkpt lat="47.28698" lon="-2.36273">
        <ele>41.799999237061</ele>
        <time>2021-05-13T10:03:38.000Z</time>
      </trkpt>
      <trkpt lat="47.28695" lon="-2.36275">
        <ele>42.200000762939</ele>
        <time>2021-05-13T10:03:39.000Z</time>
      </trkpt>
      <trkpt lat="47.28691" lon="-2.36276">
        <ele>42.200000762939</ele>
        <time>2021-05-13T10:03:40.000Z</time>
      </trkpt>
      <trkpt lat="47.28684" lon="-2.36278">
        <ele>42.599998474121</ele>
        <time>2021-05-13T10:03:42.000Z</time>
      </trkpt>
      <trkpt lat="47.28681" lon="-2.36276">
        <ele>43</ele>
        <time>2021-05-13T10:03:43.000Z</time>
      </trkpt>
      <trkpt lat="47.28679" lon="-2.36274">
        <ele>43.400001525879</ele>
        <time>2021-05-13T10:03:44.000Z</time>
      </trkpt>
      <trkpt lat="47.28676" lon="-2.3627">
        <ele>43.799999237061</ele>
        <time>2021-05-13T10:03:45.000Z</time>
      </trkpt>
      <trkpt lat="47.28674" lon="-2.36266">
        <ele>44.200000762939</ele>
        <time>2021-05-13T10:03:46.000Z</time>
      </trkpt>
      <trkpt lat="47.28673" lon="-2.36251">
        <ele>44.200000762939</ele>
        <time>2021-05-13T10:03:49.000Z</time>
      </trkpt>
      <trkpt lat="47.28672" lon="-2.36237">
        <ele>44.200000762939</ele>
        <time>2021-05-13T10:03:52.000Z</time>
      </trkpt>
      <trkpt lat="47.28672" lon="-2.36222">
        <ele>44.200000762939</ele>
        <time>2021-05-13T10:03:55.000Z</time>
      </trkpt>
      <trkpt lat="47.28672" lon="-2.36213">
        <ele>44.799999237061</ele>
        <time>2021-05-13T10:03:57.000Z</time>
      </trkpt>
      <trkpt lat="47.2867" lon="-2.36208">
        <ele>45.200000762939</ele>
        <time>2021-05-13T10:03:58.000Z</time>
      </trkpt>
      <trkpt lat="47.28669" lon="-2.36202">
        <ele>45.599998474121</ele>
        <time>2021-05-13T10:03:59.000Z</time>
      </trkpt>
      <trkpt lat="47.28667" lon="-2.36196">
        <ele>46</ele>
        <time>2021-05-13T10:04:00.000Z</time>
      </trkpt>
      <trkpt lat="47.28665" lon="-2.36191">
        <ele>46.599998474121</ele>
        <time>2021-05-13T10:04:01.000Z</time>
      </trkpt>
      <trkpt lat="47.28654" lon="-2.36177">
        <ele>46.599998474121</ele>
        <time>2021-05-13T10:04:05.000Z</time>
      </trkpt>
      <trkpt lat="47.28637" lon="-2.36153">
        <ele>46.599998474121</ele>
        <time>2021-05-13T10:04:11.000Z</time>
      </trkpt>
      <trkpt lat="47.28632" lon="-2.36147">
        <ele>47</ele>
        <time>2021-05-13T10:04:12.000Z</time>
      </trkpt>
      <trkpt lat="47.28628" lon="-2.36145">
        <ele>47.400001525879</ele>
        <time>2021-05-13T10:04:13.000Z</time>
      </trkpt>
      <trkpt lat="47.28625" lon="-2.36145">
        <ele>48.400001525879</ele>
        <time>2021-05-13T10:04:14.000Z</time>
      </trkpt>
      <trkpt lat="47.28622" lon="-2.36145">
        <ele>48.799999237061</ele>
        <time>2021-05-13T10:04:15.000Z</time>
      </trkpt>
      <trkpt lat="47.28607" lon="-2.36155">
        <ele>48.799999237061</ele>
        <time>2021-05-13T10:04:20.000Z</time>
      </trkpt>
      <trkpt lat="47.28594" lon="-2.36153">
        <ele>48.799999237061</ele>
        <time>2021-05-13T10:04:24.000Z</time>
      </trkpt>
      <trkpt lat="47.28574" lon="-2.36151">
        <ele>48.799999237061</ele>
        <time>2021-05-13T10:04:30.000Z</time>
      </trkpt>
      <trkpt lat="47.28556" lon="-2.36157">
        <ele>48.799999237061</ele>
        <time>2021-05-13T10:04:34.000Z</time>
      </trkpt>
      <trkpt lat="47.28552" lon="-2.36153">
        <ele>48.400001525879</ele>
        <time>2021-05-13T10:04:35.000Z</time>
      </trkpt>
      <trkpt lat="47.2855" lon="-2.36149">
        <ele>48</ele>
        <time>2021-05-13T10:04:36.000Z</time>
      </trkpt>
      <trkpt lat="47.28547" lon="-2.36142">
        <ele>47.599998474121</ele>
        <time>2021-05-13T10:04:37.000Z</time>
      </trkpt>
      <trkpt lat="47.28544" lon="-2.36135">
        <ele>46.599998474121</ele>
        <time>2021-05-13T10:04:38.000Z</time>
      </trkpt>
      <trkpt lat="47.28541" lon="-2.36127">
        <ele>46.599998474121</ele>
        <time>2021-05-13T10:04:39.000Z</time>
      </trkpt>
      <trkpt lat="47.28533" lon="-2.36107">
        <ele>46.599998474121</ele>
        <time>2021-05-13T10:04:42.000Z</time>
      </trkpt>
      <trkpt lat="47.28531" lon="-2.36101">
        <ele>46.599998474121</ele>
        <time>2021-05-13T10:04:43.000Z</time>
      </trkpt>
      <trkpt lat="47.28524" lon="-2.36077">
        <ele>46.599998474121</ele>
        <time>2021-05-13T10:04:48.000Z</time>
      </trkpt>
      <trkpt lat="47.28508" lon="-2.36051">
        <ele>46.599998474121</ele>
        <time>2021-05-13T10:04:54.000Z</time>
      </trkpt>
      <trkpt lat="47.28495" lon="-2.3604">
        <ele>46.599998474121</ele>
        <time>2021-05-13T10:04:58.000Z</time>
      </trkpt>
      <trkpt lat="47.28481" lon="-2.36036">
        <ele>46.599998474121</ele>
        <time>2021-05-13T10:05:01.000Z</time>
      </trkpt>
      <trkpt lat="47.28477" lon="-2.36032">
        <ele>46.599998474121</ele>
        <time>2021-05-13T10:05:02.000Z</time>
      </trkpt>
      <trkpt lat="47.28472" lon="-2.36027">
        <ele>46.599998474121</ele>
        <time>2021-05-13T10:05:03.000Z</time>
      </trkpt>
      <trkpt lat="47.28462" lon="-2.36016">
        <ele>46.599998474121</ele>
        <time>2021-05-13T10:05:06.000Z</time>
      </trkpt>
      <trkpt lat="47.28452" lon="-2.35995">
        <ele>46.599998474121</ele>
        <time>2021-05-13T10:05:10.000Z</time>
      </trkpt>
      <trkpt lat="47.2845" lon="-2.35994">
        <ele>46.599998474121</ele>
        <time>2021-05-13T10:05:11.000Z</time>
      </trkpt>
      <trkpt lat="47.28435" lon="-2.35992">
        <ele>46.599998474121</ele>
        <time>2021-05-13T10:05:16.000Z</time>
      </trkpt>
      <trkpt lat="47.28424" lon="-2.36">
        <ele>46.599998474121</ele>
        <time>2021-05-13T10:05:22.000Z</time>
      </trkpt>
      <trkpt lat="47.28407" lon="-2.36014">
        <ele>46.599998474121</ele>
        <time>2021-05-13T10:05:29.000Z</time>
      </trkpt>
      <trkpt lat="47.28397" lon="-2.36015">
        <ele>46.200000762939</ele>
        <time>2021-05-13T10:05:32.000Z</time>
      </trkpt>
      <trkpt lat="47.28394" lon="-2.36016">
        <ele>45.799999237061</ele>
        <time>2021-05-13T10:05:33.000Z</time>
      </trkpt>
      <trkpt lat="47.28389" lon="-2.36017">
        <ele>45.400001525879</ele>
        <time>2021-05-13T10:05:34.000Z</time>
      </trkpt>
      <trkpt lat="47.28383" lon="-2.36018">
        <ele>44.799999237061</ele>
        <time>2021-05-13T10:05:35.000Z</time>
      </trkpt>
      <trkpt lat="47.28377" lon="-2.36019">
        <ele>44.200000762939</ele>
        <time>2021-05-13T10:05:36.000Z</time>
      </trkpt>
      <trkpt lat="47.28371" lon="-2.3602">
        <ele>43.599998474121</ele>
        <time>2021-05-13T10:05:37.000Z</time>
      </trkpt>
      <trkpt lat="47.28366" lon="-2.36022">
        <ele>43</ele>
        <time>2021-05-13T10:05:38.000Z</time>
      </trkpt>
      <trkpt lat="47.2836" lon="-2.36024">
        <ele>42.200000762939</ele>
        <time>2021-05-13T10:05:39.000Z</time>
      </trkpt>
      <trkpt lat="47.28354" lon="-2.36028">
        <ele>41.599998474121</ele>
        <time>2021-05-13T10:05:40.000Z</time>
      </trkpt>
      <trkpt lat="47.28349" lon="-2.36032">
        <ele>41</ele>
        <time>2021-05-13T10:05:41.000Z</time>
      </trkpt>
      <trkpt lat="47.28344" lon="-2.36038">
        <ele>40.400001525879</ele>
        <time>2021-05-13T10:05:42.000Z</time>
      </trkpt>
      <trkpt lat="47.28339" lon="-2.36042">
        <ele>40.400001525879</ele>
        <time>2021-05-13T10:05:43.000Z</time>
      </trkpt>
      <trkpt lat="47.28334" lon="-2.36046">
        <ele>40</ele>
        <time>2021-05-13T10:05:44.000Z</time>
      </trkpt>
      <trkpt lat="47.28329" lon="-2.36049">
        <ele>39.599998474121</ele>
        <time>2021-05-13T10:05:45.000Z</time>
      </trkpt>
      <trkpt lat="47.28326" lon="-2.36049">
        <ele>39</ele>
        <time>2021-05-13T10:05:46.000Z</time>
      </trkpt>
      <trkpt lat="47.28322" lon="-2.36048">
        <ele>38.599998474121</ele>
        <time>2021-05-13T10:05:47.000Z</time>
      </trkpt>
      <trkpt lat="47.28317" lon="-2.36048">
        <ele>38.200000762939</ele>
        <time>2021-05-13T10:05:48.000Z</time>
      </trkpt>
      <trkpt lat="47.28313" lon="-2.36048">
        <ele>38.200000762939</ele>
        <time>2021-05-13T10:05:49.000Z</time>
      </trkpt>
      <trkpt lat="47.28307" lon="-2.36044">
        <ele>37.799999237061</ele>
        <time>2021-05-13T10:05:51.000Z</time>
      </trkpt>
      <trkpt lat="47.28304" lon="-2.36041">
        <ele>37.400001525879</ele>
        <time>2021-05-13T10:05:52.000Z</time>
      </trkpt>
      <trkpt lat="47.28301" lon="-2.36037">
        <ele>37</ele>
        <time>2021-05-13T10:05:53.000Z</time>
      </trkpt>
      <trkpt lat="47.28298" lon="-2.36032">
        <ele>36.200000762939</ele>
        <time>2021-05-13T10:05:54.000Z</time>
      </trkpt>
      <trkpt lat="47.28294" lon="-2.36027">
        <ele>35.599998474121</ele>
        <time>2021-05-13T10:05:55.000Z</time>
      </trkpt>
      <trkpt lat="47.28292" lon="-2.36022">
        <ele>34.799999237061</ele>
        <time>2021-05-13T10:05:56.000Z</time>
      </trkpt>
      <trkpt lat="47.28289" lon="-2.36016">
        <ele>34</ele>
        <time>2021-05-13T10:05:57.000Z</time>
      </trkpt>
      <trkpt lat="47.28287" lon="-2.3601">
        <ele>33</ele>
        <time>2021-05-13T10:05:58.000Z</time>
      </trkpt>
      <trkpt lat="47.28288" lon="-2.36004">
        <ele>32.200000762939</ele>
        <time>2021-05-13T10:05:59.000Z</time>
      </trkpt>
      <trkpt lat="47.2829" lon="-2.35998">
        <ele>31.60000038147</ele>
        <time>2021-05-13T10:06:00.000Z</time>
      </trkpt>
      <trkpt lat="47.2829" lon="-2.35994">
        <ele>31</ele>
        <time>2021-05-13T10:06:01.000Z</time>
      </trkpt>
      <trkpt lat="47.28289" lon="-2.35987">
        <ele>30.39999961853</ele>
        <time>2021-05-13T10:06:02.000Z</time>
      </trkpt>
      <trkpt lat="47.28289" lon="-2.35981">
        <ele>29.799999237061</ele>
        <time>2021-05-13T10:06:03.000Z</time>
      </trkpt>
      <trkpt lat="47.28288" lon="-2.35975">
        <ele>29.39999961853</ele>
        <time>2021-05-13T10:06:04.000Z</time>
      </trkpt>
      <trkpt lat="47.28283" lon="-2.35955">
        <ele>29.39999961853</ele>
        <time>2021-05-13T10:06:08.000Z</time>
      </trkpt>
      <trkpt lat="47.28276" lon="-2.35932">
        <ele>29.799999237061</ele>
        <time>2021-05-13T10:06:13.000Z</time>
      </trkpt>
      <trkpt lat="47.28274" lon="-2.35927">
        <ele>30.200000762939</ele>
        <time>2021-05-13T10:06:14.000Z</time>
      </trkpt>
      <trkpt lat="47.28272" lon="-2.35923">
        <ele>30.60000038147</ele>
        <time>2021-05-13T10:06:15.000Z</time>
      </trkpt>
      <trkpt lat="47.28269" lon="-2.35919">
        <ele>31.60000038147</ele>
        <time>2021-05-13T10:06:16.000Z</time>
      </trkpt>
      <trkpt lat="47.2826" lon="-2.35913">
        <ele>31.60000038147</ele>
        <time>2021-05-13T10:06:19.000Z</time>
      </trkpt>
      <trkpt lat="47.2824" lon="-2.35909">
        <ele>31.60000038147</ele>
        <time>2021-05-13T10:06:24.000Z</time>
      </trkpt>
      <trkpt lat="47.28215" lon="-2.35906">
        <ele>31.60000038147</ele>
        <time>2021-05-13T10:06:30.000Z</time>
      </trkpt>
      <trkpt lat="47.28212" lon="-2.35904">
        <ele>31.200000762939</ele>
        <time>2021-05-13T10:06:31.000Z</time>
      </trkpt>
      <trkpt lat="47.28209" lon="-2.35902">
        <ele>30.799999237061</ele>
        <time>2021-05-13T10:06:32.000Z</time>
      </trkpt>
      <trkpt lat="47.28206" lon="-2.35899">
        <ele>30.39999961853</ele>
        <time>2021-05-13T10:06:33.000Z</time>
      </trkpt>
      <trkpt lat="47.28203" lon="-2.35898">
        <ele>30</ele>
        <time>2021-05-13T10:06:34.000Z</time>
      </trkpt>
      <trkpt lat="47.282" lon="-2.35897">
        <ele>29.39999961853</ele>
        <time>2021-05-13T10:06:35.000Z</time>
      </trkpt>
      <trkpt lat="47.2819" lon="-2.35898">
        <ele>29.39999961853</ele>
        <time>2021-05-13T10:06:39.000Z</time>
      </trkpt>
      <trkpt lat="47.28129" lon="-2.3587">
        <ele>29.39999961853</ele>
        <time>2021-05-13T10:06:43.000Z</time>
      </trkpt>
      <trkpt lat="47.28128" lon="-2.35867">
        <ele>29.39999961853</ele>
        <time>2021-05-13T10:06:44.000Z</time>
      </trkpt>
      <trkpt lat="47.28126" lon="-2.35855">
        <ele>29.39999961853</ele>
        <time>2021-05-13T10:06:47.000Z</time>
      </trkpt>
      <trkpt lat="47.28121" lon="-2.3584">
        <ele>29.39999961853</ele>
        <time>2021-05-13T10:06:53.000Z</time>
      </trkpt>
      <trkpt lat="47.28111" lon="-2.35839">
        <ele>29.39999961853</ele>
        <time>2021-05-13T10:06:58.000Z</time>
      </trkpt>
      <trkpt lat="47.2811" lon="-2.35823">
        <ele>29.39999961853</ele>
        <time>2021-05-13T10:07:03.000Z</time>
      </trkpt>
      <trkpt lat="47.28106" lon="-2.3582">
        <ele>28.60000038147</ele>
        <time>2021-05-13T10:07:05.000Z</time>
      </trkpt>
      <trkpt lat="47.28104" lon="-2.35819">
        <ele>28.200000762939</ele>
        <time>2021-05-13T10:07:06.000Z</time>
      </trkpt>
      <trkpt lat="47.28102" lon="-2.35817">
        <ele>27.799999237061</ele>
        <time>2021-05-13T10:07:07.000Z</time>
      </trkpt>
      <trkpt lat="47.281" lon="-2.35816">
        <ele>27.39999961853</ele>
        <time>2021-05-13T10:07:08.000Z</time>
      </trkpt>
      <trkpt lat="47.28087" lon="-2.35811">
        <ele>27.39999961853</ele>
        <time>2021-05-13T10:07:12.000Z</time>
      </trkpt>
      <trkpt lat="47.28085" lon="-2.35808">
        <ele>27.39999961853</ele>
        <time>2021-05-13T10:07:13.000Z</time>
      </trkpt>
      <trkpt lat="47.28085" lon="-2.35794">
        <ele>27.799999237061</ele>
        <time>2021-05-13T10:07:17.000Z</time>
      </trkpt>
      <trkpt lat="47.28087" lon="-2.35789">
        <ele>28.200000762939</ele>
        <time>2021-05-13T10:07:18.000Z</time>
      </trkpt>
      <trkpt lat="47.28088" lon="-2.35784">
        <ele>28.60000038147</ele>
        <time>2021-05-13T10:07:19.000Z</time>
      </trkpt>
      <trkpt lat="47.28088" lon="-2.35781">
        <ele>29</ele>
        <time>2021-05-13T10:07:20.000Z</time>
      </trkpt>
      <trkpt lat="47.28089" lon="-2.35777">
        <ele>29.39999961853</ele>
        <time>2021-05-13T10:07:21.000Z</time>
      </trkpt>
      <trkpt lat="47.2809" lon="-2.35772">
        <ele>29.39999961853</ele>
        <time>2021-05-13T10:07:22.000Z</time>
      </trkpt>
      <trkpt lat="47.28093" lon="-2.35746">
        <ele>29.799999237061</ele>
        <time>2021-05-13T10:07:28.000Z</time>
      </trkpt>
      <trkpt lat="47.28093" lon="-2.3574">
        <ele>30.39999961853</ele>
        <time>2021-05-13T10:07:29.000Z</time>
      </trkpt>
      <trkpt lat="47.28093" lon="-2.35734">
        <ele>31.39999961853</ele>
        <time>2021-05-13T10:07:30.000Z</time>
      </trkpt>
      <trkpt lat="47.28094" lon="-2.3573">
        <ele>31.799999237061</ele>
        <time>2021-05-13T10:07:31.000Z</time>
      </trkpt>
      <trkpt lat="47.28095" lon="-2.35718">
        <ele>31.799999237061</ele>
        <time>2021-05-13T10:07:34.000Z</time>
      </trkpt>
      <trkpt lat="47.28093" lon="-2.35692">
        <ele>31.799999237061</ele>
        <time>2021-05-13T10:07:39.000Z</time>
      </trkpt>
      <trkpt lat="47.28085" lon="-2.35639">
        <ele>31.799999237061</ele>
        <time>2021-05-13T10:07:45.000Z</time>
      </trkpt>
      <trkpt lat="47.28081" lon="-2.35631">
        <ele>31.39999961853</ele>
        <time>2021-05-13T10:07:46.000Z</time>
      </trkpt>
      <trkpt lat="47.28078" lon="-2.35621">
        <ele>30.799999237061</ele>
        <time>2021-05-13T10:07:47.000Z</time>
      </trkpt>
      <trkpt lat="47.28074" lon="-2.35613">
        <ele>30.39999961853</ele>
        <time>2021-05-13T10:07:48.000Z</time>
      </trkpt>
      <trkpt lat="47.28072" lon="-2.35605">
        <ele>30</ele>
        <time>2021-05-13T10:07:49.000Z</time>
      </trkpt>
      <trkpt lat="47.28071" lon="-2.35598">
        <ele>29.60000038147</ele>
        <time>2021-05-13T10:07:50.000Z</time>
      </trkpt>
      <trkpt lat="47.28069" lon="-2.35592">
        <ele>29.60000038147</ele>
        <time>2021-05-13T10:07:51.000Z</time>
      </trkpt>
      <trkpt lat="47.28066" lon="-2.35588">
        <ele>29.60000038147</ele>
        <time>2021-05-13T10:07:52.000Z</time>
      </trkpt>
      <trkpt lat="47.28059" lon="-2.35584">
        <ele>29</ele>
        <time>2021-05-13T10:07:54.000Z</time>
      </trkpt>
      <trkpt lat="47.28055" lon="-2.35584">
        <ele>28.200000762939</ele>
        <time>2021-05-13T10:07:55.000Z</time>
      </trkpt>
      <trkpt lat="47.28053" lon="-2.35585">
        <ele>27.799999237061</ele>
        <time>2021-05-13T10:07:56.000Z</time>
      </trkpt>
      <trkpt lat="47.28052" lon="-2.35585">
        <ele>27.200000762939</ele>
        <time>2021-05-13T10:07:57.000Z</time>
      </trkpt>
      <trkpt lat="47.28051" lon="-2.35584">
        <ele>27.200000762939</ele>
        <time>2021-05-13T10:07:59.000Z</time>
      </trkpt>
      <trkpt lat="47.28043" lon="-2.3558">
        <ele>27.39999961853</ele>
        <time>2021-05-13T10:31:55.000Z</time>
      </trkpt>
      <trkpt lat="47.28043" lon="-2.35579">
        <ele>27.39999961853</ele>
        <time>2021-05-13T10:31:56.000Z</time>
      </trkpt>
      <trkpt lat="47.28033" lon="-2.35576">
        <ele>27.39999961853</ele>
        <time>2021-05-13T10:32:00.000Z</time>
      </trkpt>
      <trkpt lat="47.2803" lon="-2.35574">
        <ele>27.39999961853</ele>
        <time>2021-05-13T10:32:01.000Z</time>
      </trkpt>
      <trkpt lat="47.28024" lon="-2.35567">
        <ele>27.39999961853</ele>
        <time>2021-05-13T10:32:03.000Z</time>
      </trkpt>
      <trkpt lat="47.28014" lon="-2.35563">
        <ele>27.39999961853</ele>
        <time>2021-05-13T10:32:06.000Z</time>
      </trkpt>
      <trkpt lat="47.28006" lon="-2.35564">
        <ele>27.39999961853</ele>
        <time>2021-05-13T10:32:08.000Z</time>
      </trkpt>
      <trkpt lat="47.27992" lon="-2.35568">
        <ele>27.39999961853</ele>
        <time>2021-05-13T10:32:11.000Z</time>
      </trkpt>
      <trkpt lat="47.27973" lon="-2.35575">
        <ele>27.39999961853</ele>
        <time>2021-05-13T10:32:15.000Z</time>
      </trkpt>
      <trkpt lat="47.27966" lon="-2.35579">
        <ele>27.39999961853</ele>
        <time>2021-05-13T10:32:17.000Z</time>
      </trkpt>
      <trkpt lat="47.27934" lon="-2.35587">
        <ele>27.39999961853</ele>
        <time>2021-05-13T10:32:24.000Z</time>
      </trkpt>
      <trkpt lat="47.27898" lon="-2.35595">
        <ele>27.39999961853</ele>
        <time>2021-05-13T10:32:31.000Z</time>
      </trkpt>
      <trkpt lat="47.27875" lon="-2.35601">
        <ele>27</ele>
        <time>2021-05-13T10:32:35.000Z</time>
      </trkpt>
      <trkpt lat="47.27869" lon="-2.35602">
        <ele>26.60000038147</ele>
        <time>2021-05-13T10:32:36.000Z</time>
      </trkpt>
      <trkpt lat="47.27863" lon="-2.35604">
        <ele>25.60000038147</ele>
        <time>2021-05-13T10:32:37.000Z</time>
      </trkpt>
      <trkpt lat="47.27856" lon="-2.35605">
        <ele>25.200000762939</ele>
        <time>2021-05-13T10:32:38.000Z</time>
      </trkpt>
      <trkpt lat="47.27839" lon="-2.3561">
        <ele>25.200000762939</ele>
        <time>2021-05-13T10:32:41.000Z</time>
      </trkpt>
      <trkpt lat="47.27817" lon="-2.35617">
        <ele>24.799999237061</ele>
        <time>2021-05-13T10:32:45.000Z</time>
      </trkpt>
      <trkpt lat="47.27811" lon="-2.35619">
        <ele>24.200000762939</ele>
        <time>2021-05-13T10:32:46.000Z</time>
      </trkpt>
      <trkpt lat="47.27805" lon="-2.35621">
        <ele>23.799999237061</ele>
        <time>2021-05-13T10:32:47.000Z</time>
      </trkpt>
      <trkpt lat="47.27799" lon="-2.35624">
        <ele>23.39999961853</ele>
        <time>2021-05-13T10:32:48.000Z</time>
      </trkpt>
      <trkpt lat="47.27793" lon="-2.35627">
        <ele>23</ele>
        <time>2021-05-13T10:32:49.000Z</time>
      </trkpt>
      <trkpt lat="47.27781" lon="-2.35635">
        <ele>22.60000038147</ele>
        <time>2021-05-13T10:32:51.000Z</time>
      </trkpt>
      <trkpt lat="47.27775" lon="-2.3564">
        <ele>22.200000762939</ele>
        <time>2021-05-13T10:32:52.000Z</time>
      </trkpt>
      <trkpt lat="47.27769" lon="-2.35646">
        <ele>21.799999237061</ele>
        <time>2021-05-13T10:32:53.000Z</time>
      </trkpt>
      <trkpt lat="47.27763" lon="-2.35652">
        <ele>21.39999961853</ele>
        <time>2021-05-13T10:32:54.000Z</time>
      </trkpt>
      <trkpt lat="47.27758" lon="-2.35658">
        <ele>21</ele>
        <time>2021-05-13T10:32:55.000Z</time>
      </trkpt>
      <trkpt lat="47.27748" lon="-2.35671">
        <ele>21</ele>
        <time>2021-05-13T10:32:57.000Z</time>
      </trkpt>
      <trkpt lat="47.27709" lon="-2.35722">
        <ele>21</ele>
        <time>2021-05-13T10:33:05.000Z</time>
      </trkpt>
      <trkpt lat="47.27696" lon="-2.35731">
        <ele>20.60000038147</ele>
        <time>2021-05-13T10:33:07.000Z</time>
      </trkpt>
      <trkpt lat="47.2769" lon="-2.35736">
        <ele>20.200000762939</ele>
        <time>2021-05-13T10:33:08.000Z</time>
      </trkpt>
      <trkpt lat="47.27685" lon="-2.35741">
        <ele>19.799999237061</ele>
        <time>2021-05-13T10:33:09.000Z</time>
      </trkpt>
      <trkpt lat="47.2768" lon="-2.35746">
        <ele>19.200000762939</ele>
        <time>2021-05-13T10:33:10.000Z</time>
      </trkpt>
      <trkpt lat="47.27675" lon="-2.35747">
        <ele>18.799999237061</ele>
        <time>2021-05-13T10:33:11.000Z</time>
      </trkpt>
      <trkpt lat="47.2767" lon="-2.35744">
        <ele>18.799999237061</ele>
        <time>2021-05-13T10:33:12.000Z</time>
      </trkpt>
      <trkpt lat="47.27662" lon="-2.35734">
        <ele>18.39999961853</ele>
        <time>2021-05-13T10:33:14.000Z</time>
      </trkpt>
      <trkpt lat="47.27657" lon="-2.35729">
        <ele>18</ele>
        <time>2021-05-13T10:33:15.000Z</time>
      </trkpt>
      <trkpt lat="47.27653" lon="-2.35724">
        <ele>17.60000038147</ele>
        <time>2021-05-13T10:33:16.000Z</time>
      </trkpt>
      <trkpt lat="47.27649" lon="-2.3572">
        <ele>17.200000762939</ele>
        <time>2021-05-13T10:33:17.000Z</time>
      </trkpt>
      <trkpt lat="47.27645" lon="-2.35717">
        <ele>16.799999237061</ele>
        <time>2021-05-13T10:33:18.000Z</time>
      </trkpt>
      <trkpt lat="47.2763" lon="-2.35709">
        <ele>16.799999237061</ele>
        <time>2021-05-13T10:33:21.000Z</time>
      </trkpt>
      <trkpt lat="47.27597" lon="-2.35702">
        <ele>16.799999237061</ele>
        <time>2021-05-13T10:33:25.000Z</time>
      </trkpt>
      <trkpt lat="47.27553" lon="-2.35693">
        <ele>16.799999237061</ele>
        <time>2021-05-13T10:33:31.000Z</time>
      </trkpt>
      <trkpt lat="47.27534" lon="-2.35689">
        <ele>16.200000762939</ele>
        <time>2021-05-13T10:33:34.000Z</time>
      </trkpt>
      <trkpt lat="47.27527" lon="-2.35687">
        <ele>15.800000190735</ele>
        <time>2021-05-13T10:33:35.000Z</time>
      </trkpt>
      <trkpt lat="47.2752" lon="-2.35686">
        <ele>15.39999961853</ele>
        <time>2021-05-13T10:33:36.000Z</time>
      </trkpt>
      <trkpt lat="47.27513" lon="-2.35684">
        <ele>15</ele>
        <time>2021-05-13T10:33:37.000Z</time>
      </trkpt>
      <trkpt lat="47.27507" lon="-2.35683">
        <ele>14.39999961853</ele>
        <time>2021-05-13T10:33:38.000Z</time>
      </trkpt>
      <trkpt lat="47.27465" lon="-2.35673">
        <ele>14.39999961853</ele>
        <time>2021-05-13T10:33:45.000Z</time>
      </trkpt>
      <trkpt lat="47.27428" lon="-2.35664">
        <ele>14</ele>
        <time>2021-05-13T10:33:51.000Z</time>
      </trkpt>
      <trkpt lat="47.27422" lon="-2.35664">
        <ele>13.60000038147</ele>
        <time>2021-05-13T10:33:52.000Z</time>
      </trkpt>
      <trkpt lat="47.27417" lon="-2.35665">
        <ele>13.199999809265</ele>
        <time>2021-05-13T10:33:53.000Z</time>
      </trkpt>
      <trkpt lat="47.2741" lon="-2.35666">
        <ele>12.800000190735</ele>
        <time>2021-05-13T10:33:54.000Z</time>
      </trkpt>
      <trkpt lat="47.27403" lon="-2.35669">
        <ele>12.39999961853</ele>
        <time>2021-05-13T10:33:55.000Z</time>
      </trkpt>
      <trkpt lat="47.2737" lon="-2.35691">
        <ele>12.39999961853</ele>
        <time>2021-05-13T10:34:00.000Z</time>
      </trkpt>
      <trkpt lat="47.27352" lon="-2.35704">
        <ele>12.39999961853</ele>
        <time>2021-05-13T10:34:03.000Z</time>
      </trkpt>
      <trkpt lat="47.27332" lon="-2.3572">
        <ele>12.39999961853</ele>
        <time>2021-05-13T10:34:07.000Z</time>
      </trkpt>
      <trkpt lat="47.27321" lon="-2.35734">
        <ele>12.39999961853</ele>
        <time>2021-05-13T10:34:11.000Z</time>
      </trkpt>
      <trkpt lat="47.27315" lon="-2.3574">
        <ele>12.39999961853</ele>
        <time>2021-05-13T10:34:13.000Z</time>
      </trkpt>
      <trkpt lat="47.27312" lon="-2.35739">
        <ele>12.39999961853</ele>
        <time>2021-05-13T10:34:14.000Z</time>
      </trkpt>
      <trkpt lat="47.27304" lon="-2.35724">
        <ele>12.39999961853</ele>
        <time>2021-05-13T10:34:17.000Z</time>
      </trkpt>
      <trkpt lat="47.27302" lon="-2.35718">
        <ele>12.39999961853</ele>
        <time>2021-05-13T10:34:18.000Z</time>
      </trkpt>
      <trkpt lat="47.27298" lon="-2.35703">
        <ele>12.39999961853</ele>
        <time>2021-05-13T10:34:20.000Z</time>
      </trkpt>
      <trkpt lat="47.2729" lon="-2.35689">
        <ele>12.39999961853</ele>
        <time>2021-05-13T10:34:22.000Z</time>
      </trkpt>
      <trkpt lat="47.27264" lon="-2.35633">
        <ele>12.39999961853</ele>
        <time>2021-05-13T10:34:29.000Z</time>
      </trkpt>
      <trkpt lat="47.27235" lon="-2.35569">
        <ele>12.39999961853</ele>
        <time>2021-05-13T10:34:37.000Z</time>
      </trkpt>
      <trkpt lat="47.27207" lon="-2.35506">
        <ele>12.39999961853</ele>
        <time>2021-05-13T10:34:45.000Z</time>
      </trkpt>
      <trkpt lat="47.2718" lon="-2.35451">
        <ele>12.39999961853</ele>
        <time>2021-05-13T10:34:52.000Z</time>
      </trkpt>
      <trkpt lat="47.27147" lon="-2.35388">
        <ele>12.39999961853</ele>
        <time>2021-05-13T10:35:00.000Z</time>
      </trkpt>
      <trkpt lat="47.27116" lon="-2.35336">
        <ele>12.39999961853</ele>
        <time>2021-05-13T10:35:07.000Z</time>
      </trkpt>
      <trkpt lat="47.27081" lon="-2.35279">
        <ele>12.39999961853</ele>
        <time>2021-05-13T10:35:15.000Z</time>
      </trkpt>
      <trkpt lat="47.27041" lon="-2.35217">
        <ele>12.39999961853</ele>
        <time>2021-05-13T10:35:24.000Z</time>
      </trkpt>
      <trkpt lat="47.27" lon="-2.35153">
        <ele>12.39999961853</ele>
        <time>2021-05-13T10:35:33.000Z</time>
      </trkpt>
      <trkpt lat="47.26964" lon="-2.35098">
        <ele>12.39999961853</ele>
        <time>2021-05-13T10:35:41.000Z</time>
      </trkpt>
      <trkpt lat="47.26931" lon="-2.3505">
        <ele>12.39999961853</ele>
        <time>2021-05-13T10:35:48.000Z</time>
      </trkpt>
      <trkpt lat="47.26892" lon="-2.3499">
        <ele>12.39999961853</ele>
        <time>2021-05-13T10:35:57.000Z</time>
      </trkpt>
      <trkpt lat="47.26852" lon="-2.34928">
        <ele>12.39999961853</ele>
        <time>2021-05-13T10:36:06.000Z</time>
      </trkpt>
      <trkpt lat="47.26847" lon="-2.34921">
        <ele>12.39999961853</ele>
        <time>2021-05-13T10:36:07.000Z</time>
      </trkpt>
      <trkpt lat="47.2681" lon="-2.34867">
        <ele>12.39999961853</ele>
        <time>2021-05-13T10:36:15.000Z</time>
      </trkpt>
      <trkpt lat="47.26771" lon="-2.34813">
        <ele>12.39999961853</ele>
        <time>2021-05-13T10:36:24.000Z</time>
      </trkpt>
      <trkpt lat="47.26753" lon="-2.34788">
        <ele>12.39999961853</ele>
        <time>2021-05-13T10:36:28.000Z</time>
      </trkpt>
      <trkpt lat="47.26748" lon="-2.34782">
        <ele>12.39999961853</ele>
        <time>2021-05-13T10:36:29.000Z</time>
      </trkpt>
      <trkpt lat="47.26702" lon="-2.3473">
        <ele>12.39999961853</ele>
        <time>2021-05-13T10:36:38.000Z</time>
      </trkpt>
      <trkpt lat="47.26692" lon="-2.34715">
        <ele>12.39999961853</ele>
        <time>2021-05-13T10:36:42.000Z</time>
      </trkpt>
      <trkpt lat="47.26683" lon="-2.34704">
        <ele>12.39999961853</ele>
        <time>2021-05-13T10:36:47.000Z</time>
      </trkpt>
      <trkpt lat="47.26679" lon="-2.347">
        <ele>12.39999961853</ele>
        <time>2021-05-13T10:36:48.000Z</time>
      </trkpt>
      <trkpt lat="47.26663" lon="-2.34681">
        <ele>12.39999961853</ele>
        <time>2021-05-13T10:36:52.000Z</time>
      </trkpt>
      <trkpt lat="47.26628" lon="-2.34639">
        <ele>12.39999961853</ele>
        <time>2021-05-13T10:36:59.000Z</time>
      </trkpt>
      <trkpt lat="47.26587" lon="-2.34589">
        <ele>12.39999961853</ele>
        <time>2021-05-13T10:37:07.000Z</time>
      </trkpt>
      <trkpt lat="47.26558" lon="-2.34557">
        <ele>12.39999961853</ele>
        <time>2021-05-13T10:37:13.000Z</time>
      </trkpt>
      <trkpt lat="47.26518" lon="-2.34519">
        <ele>12.39999961853</ele>
        <time>2021-05-13T10:37:21.000Z</time>
      </trkpt>
      <trkpt lat="47.26481" lon="-2.34493">
        <ele>12.39999961853</ele>
        <time>2021-05-13T10:37:27.000Z</time>
      </trkpt>
      <trkpt lat="47.26428" lon="-2.34455">
        <ele>12.39999961853</ele>
        <time>2021-05-13T10:37:36.000Z</time>
      </trkpt>
      <trkpt lat="47.26383" lon="-2.34419">
        <ele>12.39999961853</ele>
        <time>2021-05-13T10:37:44.000Z</time>
      </trkpt>
      <trkpt lat="47.26378" lon="-2.34414">
        <ele>12.39999961853</ele>
        <time>2021-05-13T10:37:45.000Z</time>
      </trkpt>
      <trkpt lat="47.2634" lon="-2.34381">
        <ele>12.39999961853</ele>
        <time>2021-05-13T10:37:52.000Z</time>
      </trkpt>
      <trkpt lat="47.26323" lon="-2.34373">
        <ele>12.39999961853</ele>
        <time>2021-05-13T10:37:55.000Z</time>
      </trkpt>
      <trkpt lat="47.26311" lon="-2.34355">
        <ele>12.39999961853</ele>
        <time>2021-05-13T10:37:58.000Z</time>
      </trkpt>
      <trkpt lat="47.26301" lon="-2.34345">
        <ele>12.39999961853</ele>
        <time>2021-05-13T10:38:00.000Z</time>
      </trkpt>
      <trkpt lat="47.26287" lon="-2.3433">
        <ele>12</ele>
        <time>2021-05-13T10:38:03.000Z</time>
      </trkpt>
      <trkpt lat="47.26283" lon="-2.34325">
        <ele>11.60000038147</ele>
        <time>2021-05-13T10:38:04.000Z</time>
      </trkpt>
      <trkpt lat="47.26278" lon="-2.34319">
        <ele>11.199999809265</ele>
        <time>2021-05-13T10:38:05.000Z</time>
      </trkpt>
      <trkpt lat="47.26273" lon="-2.34314">
        <ele>10.800000190735</ele>
        <time>2021-05-13T10:38:06.000Z</time>
      </trkpt>
      <trkpt lat="47.26268" lon="-2.34309">
        <ele>10.39999961853</ele>
        <time>2021-05-13T10:38:07.000Z</time>
      </trkpt>
      <trkpt lat="47.26252" lon="-2.34294">
        <ele>10.39999961853</ele>
        <time>2021-05-13T10:38:10.000Z</time>
      </trkpt>
      <trkpt lat="47.26209" lon="-2.34246">
        <ele>10.39999961853</ele>
        <time>2021-05-13T10:38:18.000Z</time>
      </trkpt>
      <trkpt lat="47.26176" lon="-2.34212">
        <ele>10.39999961853</ele>
        <time>2021-05-13T10:38:24.000Z</time>
      </trkpt>
      <trkpt lat="47.26145" lon="-2.34183">
        <ele>10.39999961853</ele>
        <time>2021-05-13T10:38:30.000Z</time>
      </trkpt>
      <trkpt lat="47.26139" lon="-2.34179">
        <ele>10.39999961853</ele>
        <time>2021-05-13T10:38:31.000Z</time>
      </trkpt>
      <trkpt lat="47.26124" lon="-2.34166">
        <ele>10.39999961853</ele>
        <time>2021-05-13T10:38:34.000Z</time>
      </trkpt>
      <trkpt lat="47.26118" lon="-2.34162">
        <ele>10.39999961853</ele>
        <time>2021-05-13T10:38:35.000Z</time>
      </trkpt>
      <trkpt lat="47.26089" lon="-2.34145">
        <ele>10.39999961853</ele>
        <time>2021-05-13T10:38:40.000Z</time>
      </trkpt>
      <trkpt lat="47.26042" lon="-2.3412">
        <ele>10.39999961853</ele>
        <time>2021-05-13T10:38:48.000Z</time>
      </trkpt>
      <trkpt lat="47.25993" lon="-2.34097">
        <ele>10.39999961853</ele>
        <time>2021-05-13T10:38:56.000Z</time>
      </trkpt>
      <trkpt lat="47.25949" lon="-2.34076">
        <ele>10.39999961853</ele>
        <time>2021-05-13T10:39:04.000Z</time>
      </trkpt>
      <trkpt lat="47.25924" lon="-2.34067">
        <ele>10.39999961853</ele>
        <time>2021-05-13T10:39:09.000Z</time>
      </trkpt>
      <trkpt lat="47.25912" lon="-2.34067">
        <ele>10.39999961853</ele>
        <time>2021-05-13T10:39:11.000Z</time>
      </trkpt>
      <trkpt lat="47.25897" lon="-2.34053">
        <ele>10.39999961853</ele>
        <time>2021-05-13T10:39:14.000Z</time>
      </trkpt>
      <trkpt lat="47.25889" lon="-2.34038">
        <ele>10.39999961853</ele>
        <time>2021-05-13T10:39:16.000Z</time>
      </trkpt>
      <trkpt lat="47.25885" lon="-2.34025">
        <ele>10.39999961853</ele>
        <time>2021-05-13T10:39:18.000Z</time>
      </trkpt>
      <trkpt lat="47.25889" lon="-2.33999">
        <ele>10.39999961853</ele>
        <time>2021-05-13T10:39:21.000Z</time>
      </trkpt>
      <trkpt lat="47.25909" lon="-2.33955">
        <ele>10.39999961853</ele>
        <time>2021-05-13T10:39:26.000Z</time>
      </trkpt>
      <trkpt lat="47.25932" lon="-2.3392">
        <ele>10.39999961853</ele>
        <time>2021-05-13T10:39:31.000Z</time>
      </trkpt>
      <trkpt lat="47.25939" lon="-2.33898">
        <ele>10.39999961853</ele>
        <time>2021-05-13T10:39:34.000Z</time>
      </trkpt>
      <trkpt lat="47.25952" lon="-2.33861">
        <ele>10.39999961853</ele>
        <time>2021-05-13T10:39:39.000Z</time>
      </trkpt>
      <trkpt lat="47.25963" lon="-2.33826">
        <ele>10</ele>
        <time>2021-05-13T10:39:44.000Z</time>
      </trkpt>
      <trkpt lat="47.25965" lon="-2.33824">
        <ele>9.6000003814697</ele>
        <time>2021-05-13T10:39:45.000Z</time>
      </trkpt>
      <trkpt lat="47.25967" lon="-2.33822">
        <ele>9.1999998092651</ele>
        <time>2021-05-13T10:39:46.000Z</time>
      </trkpt>
      <trkpt lat="47.25967" lon="-2.33821">
        <ele>8.8000001907349</ele>
        <time>2021-05-13T10:39:47.000Z</time>
      </trkpt>
      <trkpt lat="47.25968" lon="-2.33819">
        <ele>8.3999996185303</ele>
        <time>2021-05-13T10:39:48.000Z</time>
      </trkpt>
      <trkpt lat="47.25974" lon="-2.33807">
        <ele>8.3999996185303</ele>
        <time>2021-05-13T10:39:52.000Z</time>
      </trkpt>
      <trkpt lat="47.25983" lon="-2.33779">
        <ele>8.3999996185303</ele>
        <time>2021-05-13T10:39:56.000Z</time>
      </trkpt>
      <trkpt lat="47.25985" lon="-2.33771">
        <ele>8.3999996185303</ele>
        <time>2021-05-13T10:39:57.000Z</time>
      </trkpt>
      <trkpt lat="47.25997" lon="-2.33735">
        <ele>8.3999996185303</ele>
        <time>2021-05-13T10:40:01.000Z</time>
      </trkpt>
      <trkpt lat="47.26017" lon="-2.33675">
        <ele>8.3999996185303</ele>
        <time>2021-05-13T10:40:08.000Z</time>
      </trkpt>
      <trkpt lat="47.2602" lon="-2.3367">
        <ele>8.3999996185303</ele>
        <time>2021-05-13T10:40:09.000Z</time>
      </trkpt>
      <trkpt lat="47.26032" lon="-2.33666">
        <ele>8.3999996185303</ele>
        <time>2021-05-13T10:40:12.000Z</time>
      </trkpt>
      <trkpt lat="47.26037" lon="-2.33666">
        <ele>8.3999996185303</ele>
        <time>2021-05-13T10:40:13.000Z</time>
      </trkpt>
      <trkpt lat="47.26049" lon="-2.33663">
        <ele>8.3999996185303</ele>
        <time>2021-05-13T10:40:16.000Z</time>
      </trkpt>
      <trkpt lat="47.26051" lon="-2.33658">
        <ele>8.3999996185303</ele>
        <time>2021-05-13T10:40:17.000Z</time>
      </trkpt>
      <trkpt lat="47.26061" lon="-2.33629">
        <ele>8.3999996185303</ele>
        <time>2021-05-13T10:40:21.000Z</time>
      </trkpt>
      <trkpt lat="47.26081" lon="-2.33573">
        <ele>8.3999996185303</ele>
        <time>2021-05-13T10:40:28.000Z</time>
      </trkpt>
      <trkpt lat="47.261" lon="-2.33525">
        <ele>8.3999996185303</ele>
        <time>2021-05-13T10:40:34.000Z</time>
      </trkpt>
      <trkpt lat="47.26122" lon="-2.33465">
        <ele>8.3999996185303</ele>
        <time>2021-05-13T10:40:42.000Z</time>
      </trkpt>
      <trkpt lat="47.26135" lon="-2.33436">
        <ele>8.3999996185303</ele>
        <time>2021-05-13T10:40:47.000Z</time>
      </trkpt>
      <trkpt lat="47.26137" lon="-2.33431">
        <ele>8.3999996185303</ele>
        <time>2021-05-13T10:40:48.000Z</time>
      </trkpt>
      <trkpt lat="47.26135" lon="-2.33415">
        <ele>8.3999996185303</ele>
        <time>2021-05-13T10:40:51.000Z</time>
      </trkpt>
      <trkpt lat="47.26122" lon="-2.3341">
        <ele>8.3999996185303</ele>
        <time>2021-05-13T10:40:54.000Z</time>
      </trkpt>
      <trkpt lat="47.26107" lon="-2.33394">
        <ele>8.3999996185303</ele>
        <time>2021-05-13T10:40:57.000Z</time>
      </trkpt>
      <trkpt lat="47.26102" lon="-2.33387">
        <ele>8.3999996185303</ele>
        <time>2021-05-13T10:40:58.000Z</time>
      </trkpt>
      <trkpt lat="47.26071" lon="-2.33335">
        <ele>8.3999996185303</ele>
        <time>2021-05-13T10:41:05.000Z</time>
      </trkpt>
      <trkpt lat="47.26054" lon="-2.33291">
        <ele>8.3999996185303</ele>
        <time>2021-05-13T10:41:10.000Z</time>
      </trkpt>
      <trkpt lat="47.26028" lon="-2.33214">
        <ele>8.3999996185303</ele>
        <time>2021-05-13T10:41:19.000Z</time>
      </trkpt>
      <trkpt lat="47.26025" lon="-2.33206">
        <ele>8.3999996185303</ele>
        <time>2021-05-13T10:41:20.000Z</time>
      </trkpt>
      <trkpt lat="47.26001" lon="-2.33141">
        <ele>8.3999996185303</ele>
        <time>2021-05-13T10:41:28.000Z</time>
      </trkpt>
      <trkpt lat="47.25989" lon="-2.33098">
        <ele>8.3999996185303</ele>
        <time>2021-05-13T10:41:33.000Z</time>
      </trkpt>
      <trkpt lat="47.25986" lon="-2.3308">
        <ele>8.3999996185303</ele>
        <time>2021-05-13T10:41:35.000Z</time>
      </trkpt>
      <trkpt lat="47.25973" lon="-2.3305">
        <ele>8.3999996185303</ele>
        <time>2021-05-13T10:41:39.000Z</time>
      </trkpt>
      <trkpt lat="47.25948" lon="-2.32979">
        <ele>8.3999996185303</ele>
        <time>2021-05-13T10:41:47.000Z</time>
      </trkpt>
      <trkpt lat="47.25926" lon="-2.32921">
        <ele>8.3999996185303</ele>
        <time>2021-05-13T10:41:54.000Z</time>
      </trkpt>
      <trkpt lat="47.25903" lon="-2.32863">
        <ele>8.3999996185303</ele>
        <time>2021-05-13T10:42:01.000Z</time>
      </trkpt>
      <trkpt lat="47.25879" lon="-2.32796">
        <ele>8.3999996185303</ele>
        <time>2021-05-13T10:42:09.000Z</time>
      </trkpt>
      <trkpt lat="47.25861" lon="-2.32731">
        <ele>8.3999996185303</ele>
        <time>2021-05-13T10:42:17.000Z</time>
      </trkpt>
      <trkpt lat="47.2586" lon="-2.32724">
        <ele>8.3999996185303</ele>
        <time>2021-05-13T10:42:18.000Z</time>
      </trkpt>
      <trkpt lat="47.25858" lon="-2.3271">
        <ele>8.3999996185303</ele>
        <time>2021-05-13T10:42:20.000Z</time>
      </trkpt>
      <trkpt lat="47.25851" lon="-2.32699">
        <ele>8.3999996185303</ele>
        <time>2021-05-13T10:42:22.000Z</time>
      </trkpt>
      <trkpt lat="47.25848" lon="-2.32692">
        <ele>8.3999996185303</ele>
        <time>2021-05-13T10:42:23.000Z</time>
      </trkpt>
      <trkpt lat="47.25836" lon="-2.32651">
        <ele>8.3999996185303</ele>
        <time>2021-05-13T10:42:28.000Z</time>
      </trkpt>
      <trkpt lat="47.25819" lon="-2.32581">
        <ele>8.3999996185303</ele>
        <time>2021-05-13T10:42:36.000Z</time>
      </trkpt>
      <trkpt lat="47.25803" lon="-2.32512">
        <ele>8.3999996185303</ele>
        <time>2021-05-13T10:42:44.000Z</time>
      </trkpt>
      <trkpt lat="47.25795" lon="-2.32475">
        <ele>8.3999996185303</ele>
        <time>2021-05-13T10:42:49.000Z</time>
      </trkpt>
      <trkpt lat="47.25804" lon="-2.32459">
        <ele>8.3999996185303</ele>
        <time>2021-05-13T10:42:52.000Z</time>
      </trkpt>
      <trkpt lat="47.25814" lon="-2.32453">
        <ele>8.3999996185303</ele>
        <time>2021-05-13T10:42:55.000Z</time>
      </trkpt>
      <trkpt lat="47.25828" lon="-2.32463">
        <ele>8.3999996185303</ele>
        <time>2021-05-13T10:42:58.000Z</time>
      </trkpt>
      <trkpt lat="47.25834" lon="-2.32467">
        <ele>8.3999996185303</ele>
        <time>2021-05-13T10:42:59.000Z</time>
      </trkpt>
      <trkpt lat="47.25856" lon="-2.3247">
        <ele>8.3999996185303</ele>
        <time>2021-05-13T10:43:03.000Z</time>
      </trkpt>
      <trkpt lat="47.25862" lon="-2.32469">
        <ele>8.3999996185303</ele>
        <time>2021-05-13T10:43:04.000Z</time>
      </trkpt>
      <trkpt lat="47.25885" lon="-2.32464">
        <ele>8.3999996185303</ele>
        <time>2021-05-13T10:43:08.000Z</time>
      </trkpt>
      <trkpt lat="47.25891" lon="-2.32461">
        <ele>8.3999996185303</ele>
        <time>2021-05-13T10:43:10.000Z</time>
      </trkpt>
      <trkpt lat="47.25912" lon="-2.32439">
        <ele>8.3999996185303</ele>
        <time>2021-05-13T10:43:14.000Z</time>
      </trkpt>
      <trkpt lat="47.25917" lon="-2.32433">
        <ele>8.3999996185303</ele>
        <time>2021-05-13T10:43:15.000Z</time>
      </trkpt>
      <trkpt lat="47.25942" lon="-2.32403">
        <ele>8.3999996185303</ele>
        <time>2021-05-13T10:43:20.000Z</time>
      </trkpt>
      <trkpt lat="47.25979" lon="-2.32354">
        <ele>8.3999996185303</ele>
        <time>2021-05-13T10:43:28.000Z</time>
      </trkpt>
      <trkpt lat="47.26011" lon="-2.32312">
        <ele>8.3999996185303</ele>
        <time>2021-05-13T10:43:35.000Z</time>
      </trkpt>
      <trkpt lat="47.26047" lon="-2.32269">
        <ele>8.3999996185303</ele>
        <time>2021-05-13T10:43:43.000Z</time>
      </trkpt>
      <trkpt lat="47.26056" lon="-2.32257">
        <ele>9.1999998092651</ele>
        <time>2021-05-13T10:43:45.000Z</time>
      </trkpt>
      <trkpt lat="47.26061" lon="-2.32251">
        <ele>9.6000003814697</ele>
        <time>2021-05-13T10:43:46.000Z</time>
      </trkpt>
      <trkpt lat="47.26065" lon="-2.32246">
        <ele>10</ele>
        <time>2021-05-13T10:43:47.000Z</time>
      </trkpt>
      <trkpt lat="47.2607" lon="-2.32241">
        <ele>10.39999961853</ele>
        <time>2021-05-13T10:43:48.000Z</time>
      </trkpt>
      <trkpt lat="47.26074" lon="-2.32235">
        <ele>10.39999961853</ele>
        <time>2021-05-13T10:43:49.000Z</time>
      </trkpt>
      <trkpt lat="47.26097" lon="-2.32197">
        <ele>10.39999961853</ele>
        <time>2021-05-13T10:43:55.000Z</time>
      </trkpt>
      <trkpt lat="47.26121" lon="-2.32145">
        <ele>10.39999961853</ele>
        <time>2021-05-13T10:44:02.000Z</time>
      </trkpt>
      <trkpt lat="47.26136" lon="-2.32097">
        <ele>10.39999961853</ele>
        <time>2021-05-13T10:44:08.000Z</time>
      </trkpt>
      <trkpt lat="47.26151" lon="-2.32048">
        <ele>10.39999961853</ele>
        <time>2021-05-13T10:44:15.000Z</time>
      </trkpt>
      <trkpt lat="47.2616" lon="-2.32025">
        <ele>10.39999961853</ele>
        <time>2021-05-13T10:44:19.000Z</time>
      </trkpt>
      <trkpt lat="47.26167" lon="-2.3202">
        <ele>10.39999961853</ele>
        <time>2021-05-13T10:44:21.000Z</time>
      </trkpt>
      <trkpt lat="47.26181" lon="-2.32023">
        <ele>10.39999961853</ele>
        <time>2021-05-13T10:44:25.000Z</time>
      </trkpt>
      <trkpt lat="47.26192" lon="-2.32022">
        <ele>10.39999961853</ele>
        <time>2021-05-13T10:44:30.000Z</time>
      </trkpt>
      <trkpt lat="47.26196" lon="-2.32016">
        <ele>10</ele>
        <time>2021-05-13T10:44:32.000Z</time>
      </trkpt>
      <trkpt lat="47.26198" lon="-2.32012">
        <ele>9.6000003814697</ele>
        <time>2021-05-13T10:44:33.000Z</time>
      </trkpt>
      <trkpt lat="47.262" lon="-2.32009">
        <ele>8.6000003814697</ele>
        <time>2021-05-13T10:44:34.000Z</time>
      </trkpt>
      <trkpt lat="47.26202" lon="-2.32006">
        <ele>8.1999998092651</ele>
        <time>2021-05-13T10:44:35.000Z</time>
      </trkpt>
      <trkpt lat="47.26213" lon="-2.31994">
        <ele>8.1999998092651</ele>
        <time>2021-05-13T10:44:39.000Z</time>
      </trkpt>
      <trkpt lat="47.26225" lon="-2.31981">
        <ele>8.1999998092651</ele>
        <time>2021-05-13T10:44:43.000Z</time>
      </trkpt>
      <trkpt lat="47.26231" lon="-2.3198">
        <ele>8.1999998092651</ele>
        <time>2021-05-13T10:44:45.000Z</time>
      </trkpt>
      <trkpt lat="47.26238" lon="-2.31969">
        <ele>8.1999998092651</ele>
        <time>2021-05-13T10:44:48.000Z</time>
      </trkpt>
      <trkpt lat="47.2624" lon="-2.31963">
        <ele>8.1999998092651</ele>
        <time>2021-05-13T10:44:49.000Z</time>
      </trkpt>
      <trkpt lat="47.26251" lon="-2.31945">
        <ele>8.1999998092651</ele>
        <time>2021-05-13T10:44:53.000Z</time>
      </trkpt>
      <trkpt lat="47.26258" lon="-2.31927">
        <ele>8.1999998092651</ele>
        <time>2021-05-13T10:44:58.000Z</time>
      </trkpt>
      <trkpt lat="47.26273" lon="-2.31907">
        <ele>8.1999998092651</ele>
        <time>2021-05-13T10:45:03.000Z</time>
      </trkpt>
      <trkpt lat="47.26298" lon="-2.31887">
        <ele>8.1999998092651</ele>
        <time>2021-05-13T10:45:09.000Z</time>
      </trkpt>
      <trkpt lat="47.26302" lon="-2.31873">
        <ele>8.1999998092651</ele>
        <time>2021-05-13T10:45:14.000Z</time>
      </trkpt>
      <trkpt lat="47.26303" lon="-2.31843">
        <ele>8.1999998092651</ele>
        <time>2021-05-13T10:45:20.000Z</time>
      </trkpt>
      <trkpt lat="47.26304" lon="-2.31831">
        <ele>8.8000001907349</ele>
        <time>2021-05-13T10:45:22.000Z</time>
      </trkpt>
      <trkpt lat="47.26304" lon="-2.31825">
        <ele>9.1999998092651</ele>
        <time>2021-05-13T10:45:23.000Z</time>
      </trkpt>
      <trkpt lat="47.26304" lon="-2.31819">
        <ele>10</ele>
        <time>2021-05-13T10:45:24.000Z</time>
      </trkpt>
      <trkpt lat="47.26304" lon="-2.31812">
        <ele>10.39999961853</ele>
        <time>2021-05-13T10:45:25.000Z</time>
      </trkpt>
      <trkpt lat="47.26305" lon="-2.31804">
        <ele>10.39999961853</ele>
        <time>2021-05-13T10:45:26.000Z</time>
      </trkpt>
      <trkpt lat="47.26305" lon="-2.31773">
        <ele>10.39999961853</ele>
        <time>2021-05-13T10:45:30.000Z</time>
      </trkpt>
      <trkpt lat="47.26301" lon="-2.31754">
        <ele>10.39999961853</ele>
        <time>2021-05-13T10:45:33.000Z</time>
      </trkpt>
      <trkpt lat="47.26298" lon="-2.31734">
        <ele>10.39999961853</ele>
        <time>2021-05-13T10:45:36.000Z</time>
      </trkpt>
      <trkpt lat="47.26298" lon="-2.31723">
        <ele>10.39999961853</ele>
        <time>2021-05-13T10:45:38.000Z</time>
      </trkpt>
      <trkpt lat="47.26301" lon="-2.31713">
        <ele>10.39999961853</ele>
        <time>2021-05-13T10:45:41.000Z</time>
      </trkpt>
      <trkpt lat="47.26303" lon="-2.31711">
        <ele>10.39999961853</ele>
        <time>2021-05-13T10:45:42.000Z</time>
      </trkpt>
      <trkpt lat="47.26317" lon="-2.317">
        <ele>10.39999961853</ele>
        <time>2021-05-13T10:45:48.000Z</time>
      </trkpt>
      <trkpt lat="47.2632" lon="-2.31696">
        <ele>10.39999961853</ele>
        <time>2021-05-13T10:45:50.000Z</time>
      </trkpt>
      <trkpt lat="47.26323" lon="-2.31693">
        <ele>10.39999961853</ele>
        <time>2021-05-13T10:45:53.000Z</time>
      </trkpt>
      <trkpt lat="47.26328" lon="-2.3169">
        <ele>10.39999961853</ele>
        <time>2021-05-13T10:46:22.000Z</time>
      </trkpt>
      <trkpt lat="47.26329" lon="-2.3169">
        <ele>10.39999961853</ele>
        <time>2021-05-13T10:46:23.000Z</time>
      </trkpt>
    </trkseg>
  </trk>
</gpx>